</
# Wetter Temperatur Luftdruck Luftfeuchtigkeit Sichtweite Windgeschwindigkeit Windrichtung Zeit
1 Clear 14 1017 44 16093 3.1 110 10:21 08.04.2020
2 Clear 15 1017 39 16093 2.1 100 09:59 08.04.2020
3 Clear 15 1017 39 16093 2.1 100 09:59 08.04.2020
4 Clear 16 1017 39 16093 2.1 100 09:41 08.04.2020
5 Clear 16 1017 39 16093 2.1 100 09:19 08.04.2020
6 Clear 17 1017 39 16093 2.1 150 08:57 08.04.2020
7 Clear 17 1017 39 16093 2.1 150 08:38 08.04.2020
8 Clear 17 1017 39 16093 2.1 150 08:20 08.04.2020
9 Clear 18 1017 32 16093 1.5 110 07:43 08.04.2020
10 Clear 18 1017 32 16093 1.5 110 07:21 08.04.2020
11 Clear 20 1016 32 16093 2.85 223 06:29 08.04.2020
12 Clear 23 1015 25 16093 4.1 250 04:58 08.04.2020
13 Clear 26 1014 18 16093 5.7 260 02:50 08.04.2020
14 Clear 27 1014 18 16093 5.7 260 02:22 08.04.2020
15 Clouds 27 1015 18 16093 4.6 220 01:56 08.04.2020
16 Clouds 27 1015 18 16093 4.6 220 01:28 08.04.2020
17 Clouds 27 1015 22 16093 3.1 290 00:45 08.04.2020
18 Clouds 27 1015 22 16093 3.1 290 00:25 08.04.2020
19 Clear 27 1016 19 16093 5.1 200 23:41 07.04.2020
20 Clear 26 1016 19 16093 5.1 200 23:23 07.04.2020
21 Clear 26 1017 22 16093 4.1 190 22:59 07.04.2020
22 Clear 26 1017 22 16093 4.1 190 22:40 07.04.2020
23 Clear 26 1017 22 16093 4.1 190 22:21 07.04.2020
24 Clear 25 1018 22 16093 5.31 214 22:00 07.04.2020
25 Clear 25 1018 22 16093 5.31 214 21:41 07.04.2020
26 Clear 24 1018 22 16093 4.63 199 21:21 07.04.2020
27 Clear 24 1018 22 16093 4.63 199 21:21 07.04.2020
28 Clear 23 1019 24 16093 1.5 70 20:58 07.04.2020
29 Clear 23 1019 24 16093 1.5 70 20:39 07.04.2020
30 Clear 23 1019 24 16093 1.5 70 20:20 07.04.2020
31 Clear 22 1019 26 16093 4.63 199 19:57 07.04.2020
32 Clear 22 1019 26 16093 4.63 199 19:37 07.04.2020
33 Clear 22 1020 29 16093 2.1 0 19:19 07.04.2020
34 Clear 21 1020 29 16093 2.1 0 18:57 07.04.2020
35 Clear 21 1020 29 16093 2.1 0 18:39 07.04.2020
36 Clear 19 1020 29 16093 2.1 0 18:19 07.04.2020
37 Clear 18 1019 36 16093 3.6 110 17:44 07.04.2020
38 Clear 18 1019 36 16093 3.6 110 17:21 07.04.2020
39 Clear 16 1018 41 16093 3.6 90 16:47 07.04.2020
40 Clear 16 1018 41 16093 3.6 90 16:47 07.04.2020
41 Clear 14 1018 43 16093 3.1 120 16:28 07.04.2020
42 Clear 11 1018 43 16093 3.1 120 15:57 07.04.2020
43 Clear 10 1018 43 16093 3.1 120 15:38 07.04.2020
44 Clear 11 1017 30 16093 2.6 120 15:20 07.04.2020
45 Clear 12 1017 30 16093 2.6 120 14:41 07.04.2020
46 Clear 12 1017 30 16093 2.6 120 14:22 07.04.2020
47 Clouds 12 1017 31 16093 1.5 250 13:57 07.04.2020
48 Clouds 12 1017 31 16093 1.5 250 13:37 07.04.2020
49 Clouds 12 1017 31 16093 1.5 250 13:18 07.04.2020
50 Clear 13 1017 31 16093 1.57 163 12:55 07.04.2020
51 Clear 13 1017 31 16093 1.57 163 12:36 07.04.2020
52 Clear 13 1017 31 16093 1.57 163 12:36 07.04.2020
53 Clear 14 1017 31 16093 3.1 175 12:18 07.04.2020
54 Clear 14 1018 29 16093 3.1 175 11:42 07.04.2020
55 Clear 14 1018 29 16093 3.1 175 11:24 07.04.2020
56 Clear 15 1018 29 16093 2.1 220 10:58 07.04.2020
57 Clear 14 1018 29 16093 2.1 220 10:37 07.04.2020
58 Clear 14 1018 29 16093 2.1 220 10:19 07.04.2020
59 Clear 15 1018 27 16093 3.1 240 09:45 07.04.2020
60 Clear 16 1018 27 16093 3.1 240 09:18 07.04.2020
61 Clouds 16 1018 24 16093 2.6 220 08:55 07.04.2020
62 Clouds 17 1018 24 16093 2.6 220 08:36 07.04.2020
63 Clouds 17 1018 24 16093 2.6 220 08:18 07.04.2020
64 Clouds 18 1017 20 16093 2.6 190 07:40 07.04.2020
65 Clouds 18 1017 20 16093 2.6 190 07:21 07.04.2020
66 Clouds 19 1016 19 16093 2.6 210 06:51 07.04.2020
67 Clouds 20 1016 19 16093 2.6 210 06:21 07.04.2020
68 Clear 21 1015 17 16093 4.6 210 05:38 07.04.2020
69 Clear 22 1014 11 16093 4.6 230 04:46 07.04.2020
70 Clouds 24 1014 11 16093 6.7 220 03:26 07.04.2020
71 Clear 25 1013 9 16093 7.7 220 02:54 07.04.2020
72 Clear 26 1013 9 16093 3.1 220 01:48 07.04.2020
73 Clear 27 1013 9 16093 3.1 220 01:25 07.04.2020
74 Clouds 27 1013 8 16093 6.2 260 00:29 07.04.2020
75 Clouds 27 1013 8 16093 6.2 260 00:29 07.04.2020
76 Clear 27 1013 8 16093 3.6 240 23:55 06.04.2020
77 Clear 27 1013 8 16093 3.6 240 23:36 06.04.2020
78 Clear 26 1013 8 16093 3.6 240 23:18 06.04.2020
79 Clear 26 1014 9 16093 5.7 190 22:39 06.04.2020
80 Clear 26 1014 9 16093 5.7 190 22:21 06.04.2020
81 Clear 25 1015 12 16093 6.7 200 21:57 06.04.2020
82 Clear 25 1015 12 16093 6.7 200 21:38 06.04.2020
83 Clear 24 1015 12 16093 6.7 200 21:18 06.04.2020
84 Clear 24 1015 17 16093 4.1 140 20:55 06.04.2020
85 Clear 24 1015 17 16093 4.1 140 20:37 06.04.2020
86 Clear 23 1015 17 16093 4.1 140 20:18 06.04.2020
87 Clear 22 1016 19 16093 3.6 180 19:41 06.04.2020
88 Clear 22 1016 19 16093 3.6 180 19:23 06.04.2020
89 Clear 21 1016 18 16093 3.1 90 18:58 06.04.2020
90 Clear 21 1015 22 16093 1.5 80 18:39 06.04.2020
91 Clear 19 1015 22 16093 1.5 80 18:20 06.04.2020
92 Rain 18 1015 29 16093 3.6 30 17:42 06.04.2020
93 Rain 18 1015 29 16093 3.6 30 17:20 06.04.2020
94 Rain 16 1015 43 16093 2.6 40 16:50 06.04.2020
95 Clear 15 1015 43 16093 2.6 40 16:31 06.04.2020
96 Clear 13 1014 49 16093 4.1 130 15:41 06.04.2020
97 Clear 13 1013 40 16093 2.6 90 14:00 06.04.2020
98 Clear 13 1013 40 16093 2.6 90 14:00 06.04.2020
99 Clear 13 1013 40 16093 2.6 80 13:40 06.04.2020
100 Clear 13 1013 40 16093 2.6 80 13:40 06.04.2020
101 Clear 12 1013 40 16093 2.6 80 13:20 06.04.2020
102 Clear 12 1013 40 16093 2.6 80 13:20 06.04.2020
103 Clear 12 1013 40 16093 2.6 80 13:20 06.04.2020
104 Clear 12 1013 40 16093 2.6 80 13:20 06.04.2020
105 Clear 13 1013 35 16093 1.5 180 12:23 06.04.2020
106 Clear 13 1013 35 16093 1.5 180 12:23 06.04.2020
107 Clear 14 1013 35 16093 4.1 110 11:55 06.04.2020
108 Clear 14 1013 35 16093 4.1 110 11:33 06.04.2020
109 Clear 14 1013 35 16093 4.1 110 11:33 06.04.2020
110 Clear 14 1013 35 16093 4.1 110 11:33 06.04.2020
111 Clear 14 1013 35 16093 4.1 110 11:33 06.04.2020
112 Clear 14 1013 35 16093 4.1 110 11:33 06.04.2020
113 Clear 14 1013 31 16093 2.1 80 10:52 06.04.2020
114 Clear 14 1013 31 16093 2.1 80 10:52 06.04.2020
115 Clear 14 1013 31 16093 2.1 80 10:52 06.04.2020
116 Clear 14 1013 31 16093 2.1 80 10:52 06.04.2020
117 Clear 14 1013 31 16093 2.1 80 10:52 06.04.2020
118 Clear 15 1013 31 16093 2.1 80 10:22 06.04.2020
119 Clear 15 1013 29 16093 2.1 70 09:47 06.04.2020
120 Clear 16 1013 29 16093 2.1 70 09:22 06.04.2020
121 Clouds 17 1013 27 16093 1.5 160 08:55 06.04.2020
122 Clouds 18 1013 27 16093 1.5 160 08:31 06.04.2020
123 Clouds 18 1012 22 16093 1.5 260 07:51 06.04.2020
124 Clouds 18 1012 22 16093 1.5 260 07:51 06.04.2020
125 Clouds 18 1012 22 16093 1.5 260 07:50 06.04.2020
126 Clouds 20 1012 20 16093 3.1 240 06:52 06.04.2020
127 Clouds 20 1012 20 16093 3.1 240 06:52 06.04.2020
128 Clouds 20 1012 20 16093 3.1 240 06:25 06.04.2020
129 Clouds 24 1009 13 16093 4.1 230 04:20 06.04.2020
130 Clouds 26 1009 10 16093 6.7 240 02:59 06.04.2020
131 Clear 26 1009 10 16093 6.2 240 02:36 06.04.2020
132 Clear 27 1009 7 16093 6.2 220 01:28 06.04.2020
133 Clear 28 1009 7 16093 7.2 240 00:46 06.04.2020
134 Clear 28 1009 7 16093 7.2 240 00:46 06.04.2020
135 Clear 27 1009 7 16093 7.2 240 00:24 06.04.2020
136 Clear 27 1010 10 16093 3.6 220 23:44 05.04.2020
137 Clear 27 1010 10 16093 3.6 220 23:26 05.04.2020
138 Clear 27 1011 10 16093 6.7 230 22:55 05.04.2020
139 Clear 27 1011 10 16093 6.7 230 22:37 05.04.2020
140 Clear 26 1011 10 16093 6.7 230 22:18 05.04.2020
141 Clear 26 1012 11 16093 4.1 200 21:46 05.04.2020
142 Clear 26 1012 11 16093 4.1 200 21:25 05.04.2020
143 Clear 25 1012 11 16093 4.1 200 20:58 05.04.2020
144 Clear 25 1012 11 16093 4.1 200 20:58 05.04.2020
145 Clear 25 1012 11 16093 4.1 200 20:58 05.04.2020
146 Clear 25 1012 11 16093 4.1 200 20:58 05.04.2020
147 Clear 25 1012 11 16093 4.1 200 20:58 05.04.2020
148 Clear 24 1013 13 16093 7.75 191 20:20 05.04.2020
149 Clear 24 1013 13 16093 7.75 191 20:20 05.04.2020
150 Clear 24 1013 13 16093 7.75 191 20:20 05.04.2020
151 Clear 24 1013 13 16093 7.75 191 20:20 05.04.2020
152 Clear 24 1013 13 16093 7.75 191 20:20 05.04.2020
153 Clear 23 1013 18 16093 7.75 191 19:38 05.04.2020
154 Clear 23 1013 18 16093 7.75 191 19:20 05.04.2020
155 Clear 22 1013 22 16093 3.1 100 18:44 05.04.2020
156 Clear 22 1013 22 16093 3.1 100 18:44 05.04.2020
157 Clear 22 1013 22 16093 3.1 100 18:44 05.04.2020
158 Clear 22 1013 22 16093 3.1 100 18:44 05.04.2020
159 Clear 22 1013 22 16093 3.1 100 18:44 05.04.2020
160 Clear 19 1013 27 16093 4.1 150 17:55 05.04.2020
161 Clear 19 1013 27 16093 4.1 150 17:54 05.04.2020
162 Clear 19 1013 27 16093 4.1 150 17:54 05.04.2020
163 Clear 19 1013 27 16093 4.1 150 17:35 05.04.2020
164 Clear 19 1013 27 16093 4.1 150 17:35 05.04.2020
165 Clear 17 1013 27 16093 4.1 150 17:07 05.04.2020
166 Clear 17 1013 27 16093 4.1 150 17:07 05.04.2020
167 Clear 18 1013 27 16093 4.1 150 17:07 05.04.2020
168 Clear 17 1013 27 16093 4.1 150 17:02 05.04.2020
169 Clear 17 1013 27 16093 4.1 150 17:02 05.04.2020
170 Clear 15 1013 30 16093 6.7 120 16:20 05.04.2020
171 Clear 13 1012 30 16093 4.1 120 15:52 05.04.2020
172 Clear 13 1012 30 16093 4.1 120 15:32 05.04.2020
173 Clear 13 1012 30 16093 5.1 110 14:50 05.04.2020
174 Clear 13 1012 30 16093 5.1 110 14:26 05.04.2020
175 Clear 13 1012 24 16093 5.1 80 13:43 05.04.2020
176 Clear 14 1012 24 16093 2.6 110 12:49 05.04.2020
177 Clear 14 1012 24 16093 2.6 110 12:49 05.04.2020
178 Clear 15 1012 24 16093 2.1 130 11:41 05.04.2020
179 Clear 15 1012 24 16093 2.1 130 11:21 05.04.2020
180 Clear 15 1012 24 16093 2.1 130 10:58 05.04.2020
181 Clear 15 1012 23 16093 2.1 130 10:39 05.04.2020
182 Clear 15 1012 23 16093 2.1 130 10:39 05.04.2020
183 Clear 15 1012 23 16093 2.1 130 10:39 05.04.2020
184 Clear 15 1012 23 16093 2.1 130 10:39 05.04.2020
185 Clear 15 1012 23 16093 2.1 130 10:38 05.04.2020
186 Clear 15 1012 23 16093 2.1 130 10:18 05.04.2020
187 Clear 16 1013 26 16093 3.1 140 09:42 05.04.2020
188 Clear 16 1013 26 16093 3.1 140 09:23 05.04.2020
189 Clear 16 1013 26 16093 3.1 140 09:23 05.04.2020
190 Clear 16 1013 26 16093 3.1 140 09:23 05.04.2020
191 Clear 16 1013 26 16093 3.1 140 09:23 05.04.2020
192 Clear 16 1013 26 16093 3.1 140 09:23 05.04.2020
193 Clear 17 1012 22 16093 2.6 170 07:41 05.04.2020
194 Clear 23 1009 12 16093 5.1 260 04:36 05.04.2020
195 Clear 25 1009 10 16093 5.1 230 03:32 05.04.2020
196 Clear 26 1008 10 16093 5.7 250 02:51 05.04.2020
197 Clear 27 1008 10 16093 6.7 270 01:48 05.04.2020
198 Clear 27 1008 10 16093 6.7 270 01:28 05.04.2020
199 Clear 27 1008 10 16093 6.7 270 01:28 05.04.2020
200 Clear 28 1009 10 16093 5.1 240 00:44 05.04.2020
201 Clear 27 1009 10 16093 5.1 240 00:21 05.04.2020
202 Clear 27 1010 9 16093 3.1 320 23:55 04.04.2020
203 Clear 27 1010 9 16093 3.1 320 23:37 04.04.2020
204 Clear 27 1010 9 16093 3.1 320 23:18 04.04.2020
205 Clear 26 1011 11 16093 1.5 290 22:40 04.04.2020
206 Clear 26 1011 11 16093 1.5 290 22:21 04.04.2020
207 Clear 26 1011 11 16093 1.5 290 21:58 04.04.2020
208 Clear 25 1012 12 16093 6.33 225 21:39 04.04.2020
209 Clear 24 1012 12 16093 4.62 203 21:19 04.04.2020
210 Clear 24 1012 12 16093 4.71 203 20:58 04.04.2020
211 Clear 24 1013 11 16093 4.1 170 20:39 04.04.2020
212 Clear 23 1013 11 16093 4.1 170 20:21 04.04.2020
213 Clear 23 1013 15 16093 2.6 160 19:57 04.04.2020
214 Clear 22 1013 15 16093 2.6 160 19:37 04.04.2020
215 Clear 22 1013 15 16093 2.6 160 19:19 04.04.2020
216 Clear 22 1013 15 16093 2.6 160 19:19 04.04.2020
217 Clear 22 1013 19 16093 3.1 100 18:55 04.04.2020
218 Clear 21 1013 19 16093 3.1 100 18:37 04.04.2020
219 Clear 19 1013 19 16093 3.1 100 18:18 04.04.2020
220 Clear 18 1013 23 16093 3.6 120 17:41 04.04.2020
221 Clear 17 1013 23 16093 3.6 120 17:20 04.04.2020
222 Clear 16 1012 30 16093 4.6 100 16:56 04.04.2020
223 Clear 15 1012 30 16093 4.6 100 16:38 04.04.2020
224 Clear 13 1012 30 16093 4.6 100 16:19 04.04.2020
225 Clear 10 1012 36 16093 3.6 100 15:41 04.04.2020
226 Clear 11 1012 36 16093 3.6 100 15:23 04.04.2020
227 Clear 11 1012 36 16093 3.6 100 14:57 04.04.2020
228 Clear 11 1012 37 16093 4.1 120 14:39 04.04.2020
229 Clear 11 1012 37 16093 4.1 120 14:21 04.04.2020
230 Clear 11 1012 40 16093 3.6 90 13:55 04.04.2020
231 Clear 11 1012 40 16093 3.6 90 13:37 04.04.2020
232 Clear 12 1012 40 16093 3.6 90 13:18 04.04.2020
233 Clear 12 1012 37 16093 3.6 100 12:44 04.04.2020
234 Clear 13 1012 37 16093 3.6 100 12:23 04.04.2020
235 Clear 13 1012 37 16093 3.6 100 12:23 04.04.2020
236 Clear 13 1012 37 16093 2.1 100 11:55 04.04.2020
237 Clear 13 1012 37 16093 2.1 100 11:37 04.04.2020
238 Clear 13 1012 37 16093 2.1 100 11:18 04.04.2020
239 Clear 14 1012 35 16093 4.6 170 10:55 04.04.2020
240 Clear 14 1012 35 16093 4.6 170 10:37 04.04.2020
241 Clear 14 1012 35 16093 4.6 170 10:18 04.04.2020
242 Clear 14 1012 30 16093 3.6 140 09:54 04.04.2020
243 Clear 15 1012 30 16093 3.6 140 09:36 04.04.2020
244 Clear 15 1012 27 16093 3.6 140 09:18 04.04.2020
245 Clear 16 1012 27 16093 3.6 140 08:38 04.04.2020
246 Clear 16 1012 27 16093 3.6 140 08:19 04.04.2020
247 Clear 18 1012 27 16093 4.6 150 07:41 04.04.2020
248 Clear 18 1012 27 16093 4.6 150 07:23 04.04.2020
249 Clear 20 1011 27 16093 3.6 250 06:46 04.04.2020
250 Clear 20 1011 19 16093 3.6 250 06:18 04.04.2020
251 Clear 21 1010 21 16093 3.1 240 05:41 04.04.2020
252 Clear 21 1010 21 16093 3.1 240 05:22 04.04.2020
253 Clear 23 1009 17 16093 4.6 230 04:25 04.04.2020
254 Clear 24 1008 15 16093 6.2 240 03:47 04.04.2020
255 Clouds 26 1008 13 16093 6.7 230 02:49 04.04.2020
256 Clouds 26 1008 13 16093 6.7 230 02:30 04.04.2020
257 Clouds 27 1008 13 16093 7.2 250 01:51 04.04.2020
258 Clouds 27 1008 13 16093 7.2 250 01:22 04.04.2020
259 Clouds 27 1009 13 16093 7.2 260 00:47 04.04.2020
260 Clouds 27 1009 13 16093 7.2 260 00:27 04.04.2020
261 Clear 27 1009 15 16093 5.1 290 23:39 03.04.2020
262 Clear 27 1010 13 16093 4.1 360 23:21 03.04.2020
263 Clear 26 1011 14 16093 3.1 280 22:56 03.04.2020
264 Clear 26 1011 14 16093 3.1 280 22:38 03.04.2020
265 Clear 26 1011 14 16093 3.1 280 22:18 03.04.2020
266 Clear 26 1012 13 16093 3.6 220 21:43 03.04.2020
267 Clear 26 1012 13 16093 3.6 220 21:23 03.04.2020
268 Clear 24 1013 19 16093 3.6 140 20:56 03.04.2020
269 Clear 24 1013 19 16093 3.6 140 20:37 03.04.2020
270 Clear 24 1013 19 16093 3.6 140 20:19 03.04.2020
271 Clear 23 1014 17 16093 2.1 110 19:56 03.04.2020
272 Clear 23 1014 17 16093 2.1 110 19:38 03.04.2020
273 Clear 23 1014 17 16093 2.1 110 19:19 03.04.2020
274 Clear 22 1014 24 16093 3.1 100 18:58 03.04.2020
275 Clear 22 1014 24 16093 3.1 100 18:40 03.04.2020
276 Clear 21 1014 24 16093 3.1 100 18:22 03.04.2020
277 Clear 19 1014 31 16093 4.1 110 17:43 03.04.2020
278 Clear 17 1014 31 16093 4.1 110 17:21 03.04.2020
279 Clear 17 1014 31 16093 4.1 110 17:21 03.04.2020
280 Clear 16 1014 37 16093 3.6 110 16:58 03.04.2020
281 Clear 15 1014 37 16093 3.6 110 16:40 03.04.2020
282 Clear 12 1014 37 16093 3.6 110 16:21 03.04.2020
283 Clear 11 1013 46 16093 3.6 110 15:57 03.04.2020
284 Clear 11 1013 46 16093 3.6 110 15:38 03.04.2020
285 Clear 11 1013 46 16093 3.6 110 15:19 03.04.2020
286 Clear 11 1012 37 16093 3.6 100 14:41 03.04.2020
287 Clear 11 1012 37 16093 3.6 100 14:41 03.04.2020
288 Clear 11 1013 43 16093 2.1 30 14:22 03.04.2020
289 Clear 11 1013 43 16093 2.1 30 13:57 03.04.2020
290 Clear 12 1013 43 16093 2.1 30 13:38 03.04.2020
291 Clear 12 1013 43 16093 2.1 30 13:20 03.04.2020
292 Clear 12 1013 40 16093 1.13 185 12:43 03.04.2020
293 Clear 13 1013 40 16093 1.05 196 12:20 03.04.2020
294 Clear 13 1013 37 16093 3.1 180 11:56 03.04.2020
295 Clear 13 1013 37 16093 3.1 180 11:37 03.04.2020
296 Clear 14 1013 37 16093 3.1 180 11:18 03.04.2020
297 Clear 14 1013 37 16093 3.1 180 10:58 03.04.2020
298 Clear 14 1013 35 16093 2.6 180 10:38 03.04.2020
299 Clear 15 1013 35 16093 2.6 180 10:20 03.04.2020
300 Clear 15 1014 33 16093 2.6 120 09:57 03.04.2020
301 Clear 15 1014 33 16093 2.6 120 09:39 03.04.2020
302 Clear 16 1014 33 16093 2.6 120 09:21 03.04.2020
303 Clear 17 1013 29 16093 1.5 130 08:55 03.04.2020
304 Clear 17 1013 29 16093 1.5 130 08:36 03.04.2020
305 Clear 17 1013 29 16093 1.5 130 08:18 03.04.2020
306 Clear 18 1013 24 16093 2.6 290 07:41 03.04.2020
307 Clear 19 1013 24 16093 2.6 290 07:23 03.04.2020
308 Clear 20 1013 21 16093 4.1 270 06:38 03.04.2020
309 Clear 20 1013 21 16093 4.1 270 06:20 03.04.2020
310 Clear 22 1012 18 16093 5.7 290 05:34 03.04.2020
311 Clear 25 1011 13 16093 6.7 280 03:40 03.04.2020
312 Clear 26 1011 13 16093 6.7 280 02:53 03.04.2020
313 Clear 27 1010 12 16093 7.2 270 01:53 03.04.2020
314 Clear 28 1010 12 16093 7.2 270 01:18 03.04.2020
315 Clear 28 1010 14 16093 8.7 280 00:34 03.04.2020
316 Clear 28 1011 13 16093 5.7 270 23:57 02.04.2020
317 Clear 28 1011 13 16093 5.7 270 23:39 02.04.2020
318 Clear 27 1011 14 16093 7.2 310 23:19 02.04.2020
319 Clear 27 1012 14 16093 4.6 270 22:43 02.04.2020
320 Clear 27 1012 14 16093 4.6 270 22:25 02.04.2020
321 Clear 27 1012 14 16093 4.6 270 21:59 02.04.2020
322 Clear 26 1012 14 16093 6.2 290 21:38 02.04.2020
323 Clear 26 1012 14 16093 6.2 290 21:38 02.04.2020
324 Clear 26 1012 14 16093 6.2 290 21:19 02.04.2020
325 Clear 26 1013 19 16093 2.6 200 20:55 02.04.2020
326 Clear 25 1013 19 16093 2.6 200 20:37 02.04.2020
327 Clear 24 1013 19 16093 2.6 200 20:19 02.04.2020
328 Clear 24 1014 19 16093 4.1 140 19:42 02.04.2020
329 Clear 23 1014 22 16093 2.6 90 19:20 02.04.2020
330 Clear 23 1014 22 16093 2.6 90 19:20 02.04.2020
331 Clear 23 1014 22 16093 2.6 90 19:20 02.04.2020
332 Clear 23 1014 22 16093 2.6 90 18:57 02.04.2020
333 Clear 23 1014 22 16093 2.6 90 18:39 02.04.2020
334 Clear 20 1014 27 16093 5.1 130 18:19 02.04.2020
335 Clear 20 1014 27 16093 5.1 130 17:44 02.04.2020
336 Clear 20 1014 27 16093 5.1 130 17:26 02.04.2020
337 Clear 18 1014 27 16093 5.1 130 16:59 02.04.2020
338 Clear 17 1013 35 16093 3.6 130 16:41 02.04.2020
339 Clear 16 1013 35 16093 3.6 130 16:22 02.04.2020
340 Clear 15 1013 35 16093 3.6 130 15:59 02.04.2020
341 Clear 14 1013 35 16093 4.6 110 15:40 02.04.2020
342 Clear 13 1013 35 16093 4.6 110 15:20 02.04.2020
343 Clear 13 1012 40 16093 4.1 110 14:58 02.04.2020
344 Clear 14 1012 40 16093 4.1 110 14:38 02.04.2020
345 Clear 14 1012 40 16093 4.1 110 14:19 02.04.2020
346 Clear 14 1012 40 16093 4.1 110 14:19 02.04.2020
347 Clear 14 1012 37 16093 2.6 90 13:55 02.04.2020
348 Clear 14 1012 37 16093 2.6 90 13:37 02.04.2020
349 Clear 15 1012 37 16093 2.6 90 13:18 02.04.2020
350 Clear 15 1012 28 16093 2.6 100 12:46 02.04.2020
351 Clear 16 1012 28 16093 2.6 100 12:20 02.04.2020
352 Clear 16 1012 24 16093 2.6 150 11:58 02.04.2020
353 Clear 16 1012 24 16093 2.6 150 11:39 02.04.2020
354 Clear 16 1012 24 16093 2.6 150 11:20 02.04.2020
355 Clear 16 1012 24 16093 2.6 150 11:20 02.04.2020
356 Clear 16 1012 17 16093 5.1 200 10:57 02.04.2020
357 Clear 16 1012 17 16093 5.1 200 10:57 02.04.2020
358 Clear 17 1012 17 16093 5.1 200 10:38 02.04.2020
359 Clear 16 1012 17 16093 5.1 200 10:20 02.04.2020
360 Clear 16 1012 17 16093 5.1 200 10:20 02.04.2020
361 Clear 16 1012 15 16093 3.83 183 09:59 02.04.2020
362 Clear 16 1012 15 16093 3.83 183 09:41 02.04.2020
363 Clear 17 1012 15 16093 3.83 183 09:21 02.04.2020
364 Clouds 17 1012 23 16093 2.1 60 08:47 02.04.2020
365 Clouds 17 1012 23 16093 2.1 60 08:28 02.04.2020
366 Clear 17 1012 23 16093 2.6 230 07:57 02.04.2020
367 Clear 18 1012 23 16093 2.6 230 07:38 02.04.2020
368 Clear 18 1012 23 16093 2.6 230 07:19 02.04.2020
369 Clear 20 1011 19 16093 1.5 270 06:24 02.04.2020
370 Clear 21 1010 19 16093 3.55 232 05:46 02.04.2020
371 Clear 21 1010 19 16093 3.55 232 05:46 02.04.2020
372 Clear 22 1009 14 16093 5.7 280 04:55 02.04.2020
373 Clear 28 1008 10 16093 5.7 290 02:19 02.04.2020
374 Clear 29 1008 9 16093 5.7 230 00:59 02.04.2020
375 Clear 28 1008 9 16093 5.7 230 00:38 02.04.2020
376 Clear 28 1008 10 16093 4.6 330 00:19 02.04.2020
377 Clear 28 1009 9 16093 5.1 250 23:38 01.04.2020
378 Clear 28 1009 9 16093 5.1 250 23:19 01.04.2020
379 Clouds 28 1010 10 16093 3.6 340 22:56 01.04.2020
380 Clouds 28 1010 10 16093 3.6 340 22:37 01.04.2020
381 Clouds 27 1010 10 16093 3.6 340 22:19 01.04.2020
382 Clouds 27 1011 11 16093 3.1 270 21:39 01.04.2020
383 Clouds 26 1011 11 16093 3.1 270 21:19 01.04.2020
384 Clouds 26 1012 11 16093 2.1 160 20:56 01.04.2020
385 Clouds 26 1012 11 16093 2.1 160 20:38 01.04.2020
386 Clouds 25 1012 11 16093 2.1 160 20:19 01.04.2020
387 Clouds 25 1012 18 16093 1.5 220 19:55 01.04.2020
388 Clouds 24 1012 18 16093 1.5 220 19:37 01.04.2020
389 Clouds 24 1012 18 16093 1.5 220 19:19 01.04.2020
390 Clouds 24 1012 18 16093 1.5 220 19:19 01.04.2020
391 Clouds 23 1012 22 16093 1.5 90 18:41 01.04.2020
392 Clouds 22 1012 22 16093 1.5 90 18:21 01.04.2020
393 Clouds 20 1012 36 16093 1.5 150 17:56 01.04.2020
394 Clouds 19 1012 36 16093 1.5 150 17:37 01.04.2020
395 Clouds 20 1012 36 16093 1.5 150 17:37 01.04.2020
396 Clouds 18 1012 36 16093 1.5 150 17:18 01.04.2020
397 Clear 17 1012 20 16093 2.84 195 16:56 01.04.2020
398 Clouds 16 1011 46 16093 1.5 100 16:38 01.04.2020
399 Clouds 13 1011 46 16093 1.5 100 16:20 01.04.2020
400 Clouds 12 1011 50 16093 3.6 140 15:42 01.04.2020
401 Clouds 12 1011 50 16093 3.6 140 15:22 01.04.2020
402 Clouds 13 1011 50 16093 3.6 140 14:59 01.04.2020
403 Clouds 13 1011 43 16093 2.1 130 14:39 01.04.2020
404 Clouds 13 1011 43 16093 2.1 130 14:21 01.04.2020
405 Clouds 13 1011 43 16093 2.1 130 13:59 01.04.2020
406 Clouds 13 1011 31 16093 2.1 20 13:38 01.04.2020
407 Clouds 13 1011 31 16093 2.1 20 13:20 01.04.2020
408 Clouds 14 1012 43 16093 3.1 150 12:57 01.04.2020
409 Clouds 14 1012 43 16093 3.1 150 12:37 01.04.2020
410 Clouds 14 1012 43 16093 3.1 150 12:18 01.04.2020
411 Clouds 14 1012 43 16093 3.1 150 12:18 01.04.2020
412 Clouds 14 1012 38 16093 0.72 134 11:56 01.04.2020
413 Clouds 15 1012 38 16093 0.72 134 11:37 01.04.2020
414 Clouds 15 1012 38 16093 0.72 134 11:18 01.04.2020
415 Clouds 15 1013 36 16093 0.72 134 10:38 01.04.2020
416 Clouds 15 1013 36 16093 0.72 134 10:20 01.04.2020
417 Clouds 15 1013 36 16093 0.72 134 09:58 01.04.2020
418 Clouds 15 1013 36 16093 0.72 134 09:39 01.04.2020
419 Clouds 16 1013 36 16093 0.66 258 09:19 01.04.2020
420 Clouds 16 1014 36 16093 2.6 160 08:44 01.04.2020
421 Clouds 16 1014 36 16093 2.6 160 08:18 01.04.2020
422 Clouds 17 1014 33 16093 1.5 220 07:48 01.04.2020
423 Clouds 17 1014 33 16093 1.5 220 07:23 01.04.2020
424 Clouds 17 1014 29 16093 2.6 300 06:59 01.04.2020
425 Clouds 18 1014 29 16093 2.6 300 06:38 01.04.2020
426 Clouds 18 1014 29 16093 2.6 300 06:20 01.04.2020
427 Clouds 20 1013 21 16093 2.6 310 04:38 01.04.2020
428 Clouds 22 1013 21 16093 4.6 330 03:35 01.04.2020
429 Clouds 23 1013 16 16093 4.6 320 02:57 01.04.2020
430 Clouds 24 1013 14 16093 4.1 320 02:21 01.04.2020
431 Clouds 25 1013 11 16093 5.1 330 01:40 01.04.2020
432 Clouds 26 1013 11 16093 5.1 330 01:22 01.04.2020
433 Clouds 26 1014 10 16093 4.6 350 00:46 01.04.2020
434 Clouds 27 1014 10 16093 4.6 350 00:21 01.04.2020
435 Clouds 26 1014 10 16093 0.64 256 23:48 31.03.2020
436 Clouds 26 1014 10 16093 0.64 256 23:28 31.03.2020
437 Clouds 26 1015 12 16093 2.6 20 22:59 31.03.2020
438 Clear 26 1016 10 16093 3.1 60 22:37 31.03.2020
439 Clouds 25 1017 15 16093 3.1 10 22:19 31.03.2020
440 Clouds 25 1017 15 16093 3.1 10 21:57 31.03.2020
441 Clouds 24 1017 15 16093 3.1 10 21:39 31.03.2020
442 Clouds 24 1017 15 16093 3.1 10 21:20 31.03.2020
443 Clouds 24 1017 15 16093 3.1 10 21:20 31.03.2020
444 Clouds 23 1018 18 16093 2.6 60 20:56 31.03.2020
445 Clouds 23 1018 18 16093 2.6 60 20:37 31.03.2020
446 Clouds 23 1018 18 16093 2.6 60 20:37 31.03.2020
447 Clouds 22 1018 18 16093 2.6 60 20:18 31.03.2020
448 Clear 21 1019 20 16093 2.6 100 19:42 31.03.2020
449 Clear 20 1019 20 16093 2.6 100 19:24 31.03.2020
450 Clouds 19 1019 27 16093 3.6 170 18:59 31.03.2020
451 Clouds 18 1019 27 16093 3.6 170 18:41 31.03.2020
452 Clouds 17 1019 27 16093 3.6 170 18:19 31.03.2020
453 Clouds 16 1019 33 16093 2.6 140 17:55 31.03.2020
454 Clouds 15 1019 33 16093 2.6 140 17:37 31.03.2020
455 Clear 14 1020 34 16093 3.1 140 17:19 31.03.2020
456 Clear 12 1019 49 16093 1.18 90 16:41 31.03.2020
457 Clear 10 1019 49 16093 1.18 90 16:20 31.03.2020
458 Clear 9 1019 52 16093 2.6 160 15:58 31.03.2020
459 Clear 9 1019 52 16093 2.6 160 15:58 31.03.2020
460 Clear 8 1019 52 16093 2.6 160 15:40 31.03.2020
461 Clear 8 1019 52 16093 2.6 160 15:22 31.03.2020
462 Clear 9 1019 49 16093 2.1 200 14:58 31.03.2020
463 Clear 8 1019 52 16093 2.6 160 14:58 31.03.2020
464 Clear 9 1019 49 16093 2.1 200 14:39 31.03.2020
465 Clear 8 1019 49 16093 2.1 200 14:21 31.03.2020
466 Clear 9 1019 49 16093 1.5 120 13:43 31.03.2020
467 Clear 9 1019 49 16093 1.5 120 13:20 31.03.2020
468 Clear 9 1020 45 16093 3.6 130 12:59 31.03.2020
469 Clear 10 1020 45 16093 3.6 130 12:40 31.03.2020
470 Clear 10 1020 45 16093 3.6 130 12:19 31.03.2020
471 Clear 10 1020 49 16093 1.5 160 11:41 31.03.2020
472 Clear 11 1020 49 16093 1.5 160 11:20 31.03.2020
473 Clear 11 1021 34 16093 3.1 150 10:59 31.03.2020
474 Clear 11 1021 45 16093 2.6 140 10:40 31.03.2020
475 Clear 11 1021 45 16093 2.6 140 10:22 31.03.2020
476 Clear 12 1021 45 16093 2.6 140 09:59 31.03.2020
477 Clear 12 1021 37 16093 2.1 130 09:40 31.03.2020
478 Clear 12 1021 37 16093 2.1 130 09:22 31.03.2020
479 Clear 13 1021 34 16093 2.1 200 08:57 31.03.2020
480 Clear 13 1021 34 16093 2.1 200 08:38 31.03.2020
481 Clear 13 1021 34 16093 2.1 200 08:19 31.03.2020
482 Clear 13 1021 34 16093 2.1 200 08:19 31.03.2020
483 Clear 13 1021 28 16093 3.1 280 07:56 31.03.2020
484 Clear 13 1021 28 16093 3.1 280 07:38 31.03.2020
485 Clear 14 1021 28 16093 3.1 280 07:19 31.03.2020
486 Clear 15 1021 26 16093 2.6 310 06:46 31.03.2020
487 Clear 15 1021 26 16093 2.6 310 06:22 31.03.2020
488 Clear 16 1020 22 16093 2.6 290 05:39 31.03.2020
489 Clear 20 1019 16 16093 4.1 310 03:34 31.03.2020
490 Clear 22 1019 15 16093 4.6 300 02:18 31.03.2020
491 Clear 23 1019 16 16093 5.7 320 01:45 31.03.2020
492 Clear 22 1019 17 16093 6.2 320 00:49 31.03.2020
493 Clear 22 1019 17 16093 6.2 320 00:25 31.03.2020
494 Clear 22 1019 17 16093 6.2 320 00:25 31.03.2020
495 Clear 22 1020 18 16093 4.6 340 23:42 30.03.2020
496 Clear 22 1020 18 16093 4.6 340 23:20 30.03.2020
497 Clear 22 1020 18 16093 4.6 340 23:20 30.03.2020
498 Clear 22 1020 18 16093 4.6 340 22:58 30.03.2020
499 Clear 21 1021 20 16093 5.1 350 22:39 30.03.2020
500 Clear 21 1021 20 16093 5.1 350 22:21 30.03.2020
501 Clear 21 1021 22 16093 2.6 350 21:58 30.03.2020
502 Clear 20 1021 22 16093 2.6 350 21:39 30.03.2020
503 Clear 20 1021 22 16093 2.6 350 21:21 30.03.2020
504 Clear 20 1021 22 16093 2.6 350 20:59 30.03.2020
505 Clear 19 1022 20 16093 3.37 339 20:39 30.03.2020
506 Clear 19 1022 22 16093 2.6 340 20:20 30.03.2020
507 Clear 18 1022 26 16093 1.5 10 19:57 30.03.2020
508 Clear 18 1022 26 16093 1.5 10 19:39 30.03.2020
509 Clear 18 1022 26 16093 1.5 10 19:39 30.03.2020
510 Clear 18 1022 26 16093 1.5 10 19:20 30.03.2020
511 Clear 17 1022 28 16093 1.5 230 18:43 30.03.2020
512 Clear 16 1022 28 16093 1.5 230 18:25 30.03.2020
513 Clear 15 1021 32 16093 1.5 150 17:58 30.03.2020
514 Clear 15 1021 32 16093 1.5 150 17:39 30.03.2020
515 Clear 14 1021 32 16093 1.5 150 17:21 30.03.2020
516 Clear 13 1021 32 16093 1.5 150 16:59 30.03.2020
517 Clear 12 1020 42 16093 3.6 110 16:40 30.03.2020
518 -273 0 0 0 0 0 16:20 30.03.2020
519 Clear 10 1020 45 16093 3.1 140 16:20 30.03.2020
520 Clear 7 1019 48 16093 2.6 170 15:56 30.03.2020
521 Clear 7 1019 48 16093 2.6 170 15:38 30.03.2020
522 Clear 7 1019 48 16093 2.6 170 15:38 30.03.2020
523 Clear 7 1019 48 16093 2.6 170 15:20 30.03.2020
524 Clear 7 1018 45 16093 2.6 150 14:56 30.03.2020
525 Clear 7 1018 45 16093 2.6 150 14:37 30.03.2020
526 Clear 8 1018 45 16093 2.6 150 14:18 30.03.2020
527 Clear 8 1018 42 16093 3.1 200 13:55 30.03.2020
528 Clear 8 1018 42 16093 3.1 200 13:37 30.03.2020
529 Clear 8 1018 42 16093 3.1 200 13:19 30.03.2020
530 Clear 9 1018 42 16093 2.1 220 12:44 30.03.2020
531 Clear 9 1018 42 16093 2.1 220 12:21 30.03.2020
532 Clear 10 1017 37 16093 1.5 240 11:57 30.03.2020
533 Clear 10 1017 37 16093 1.5 240 11:39 30.03.2020
534 Clear 10 1017 37 16093 1.5 240 11:21 30.03.2020
535 Clear 11 1017 34 16093 1.5 220 10:41 30.03.2020
536 Clear 11 1017 34 16093 1.5 220 10:23 30.03.2020
537 Clear 11 1017 34 16093 1.5 220 09:59 30.03.2020
538 Clear 11 1017 30 16093 4.1 230 09:40 30.03.2020
539 Clear 12 1017 30 16093 4.1 230 09:19 30.03.2020
540 Clear 13 1016 28 16093 3.1 240 08:44 30.03.2020
541 Haze 13 1016 26 2816 3.1 210 08:23 30.03.2020
542 Haze 13 1016 26 2816 3.1 210 07:55 30.03.2020
543 Haze 14 1016 26 2816 3.1 210 07:37 30.03.2020
544 Clear 15 1015 17 16093 2.1 280 06:59 30.03.2020
545 Clear 16 1015 17 16093 2.1 280 06:34 30.03.2020
546 Clear 16 1014 16 16093 2.6 280 05:59 30.03.2020
547 Clear 17 1014 16 16093 2.6 280 05:34 30.03.2020
548 Clear 18 1014 12 16093 3.1 320 04:26 30.03.2020
549 Clear 20 1014 10 16093 3.1 300 03:50 30.03.2020
550 Clouds 22 1013 8 16093 3.6 310 02:43 30.03.2020
551 Clouds 23 1014 10 16093 4.1 320 01:52 30.03.2020
552 Clear 23 1014 9 16093 4.6 320 00:56 30.03.2020
553 Clear 23 1014 9 16093 4.6 320 00:25 30.03.2020
554 Clouds 23 1015 11 16093 3.6 310 23:43 29.03.2020
555 Clouds 23 1015 11 16093 3.6 310 23:24 29.03.2020
556 Clouds 23 1015 11 16093 3.6 310 22:59 29.03.2020
557 Clouds 22 1016 13 16093 2.6 290 22:39 29.03.2020
558 Clouds 22 1016 13 16093 2.6 290 22:19 29.03.2020
559 Clouds 22 1016 13 16093 2.6 290 21:58 29.03.2020
560 Clear 21 1016 14 16093 6.46 242 21:37 29.03.2020
561 Clear 21 1016 14 16093 3.8 205 21:18 29.03.2020
562 Clouds 20 1017 17 16093 2.1 190 20:55 29.03.2020
563 Clouds 20 1017 17 16093 2.1 190 20:37 29.03.2020
564 Clouds 20 1017 17 16093 2.1 190 20:37 29.03.2020
565 Clouds 20 1017 17 16093 2.1 190 20:18 29.03.2020
566 Clear 19 1017 18 16093 2.6 140 19:54 29.03.2020
567 Clear 19 1017 18 16093 2.6 140 19:36 29.03.2020
568 Clear 18 1017 18 16093 2.6 140 19:18 29.03.2020
569 Clear 17 1017 22 16093 2.6 110 18:54 29.03.2020
570 Clear 17 1017 22 16093 2.6 110 18:36 29.03.2020
571 Clear 16 1017 22 16093 2.6 110 18:18 29.03.2020
572 Clear 14 1017 32 16093 4.1 130 17:42 29.03.2020
573 Clear 13 1017 32 16093 4.1 130 17:22 29.03.2020
574 Clear 12 1017 34 16093 3.6 140 16:58 29.03.2020
575 Clear 10 1017 42 16093 3.6 130 16:40 29.03.2020
576 Clear 8 1017 42 16093 3.6 130 16:21 29.03.2020
577 Clear 7 1016 42 16093 3.6 140 15:58 29.03.2020
578 Clear 7 1016 42 16093 3.6 140 15:39 29.03.2020
579 Clear 8 1016 42 16093 3.6 140 15:19 29.03.2020
580 Clouds 8 1016 42 16093 4.6 120 14:56 29.03.2020
581 Clouds 8 1016 42 16093 4.6 120 14:37 29.03.2020
582 Clouds 8 1016 42 16093 4.6 120 14:18 29.03.2020
583 Clear 8 1016 45 16093 3.6 130 13:42 29.03.2020
584 Clear 8 1016 45 16093 3.6 130 13:22 29.03.2020
585 Clear 9 1016 39 16093 2.6 100 12:58 29.03.2020
586 Clear 9 1016 39 16093 2.6 100 12:39 29.03.2020
587 Clear 9 1016 39 16093 2.6 100 12:19 29.03.2020
588 Clear 9 1017 39 16093 2.6 120 11:59 29.03.2020
589 Clear 9 1017 39 16093 2.6 120 11:38 29.03.2020
590 Clear 9 1017 39 16093 2.6 120 11:19 29.03.2020
591 Clear 9 1017 39 16093 3.1 110 10:39 29.03.2020
592 Clear 10 1017 39 16093 3.1 110 10:21 29.03.2020
593 Clear 10 1017 36 16093 2.6 160 09:57 29.03.2020
594 Clear 10 1017 36 16093 2.6 160 09:38 29.03.2020
595 Clear 10 1017 36 16093 2.6 160 09:18 29.03.2020
596 Clear 10 1017 36 16093 2.6 160 09:18 29.03.2020
597 Clear 11 1018 32 16093 1.5 210 08:45 29.03.2020
598 Clear 11 1018 32 16093 1.5 210 08:26 29.03.2020
599 Clear 11 1018 26 16093 1.5 300 07:48 29.03.2020
600 Clear 12 1018 26 16093 1.5 300 07:24 29.03.2020
601 Clear 12 1018 24 16093 2.6 320 06:55 29.03.2020
602 Clear 14 1018 18 16093 3.6 320 04:57 29.03.2020
603 Clear 17 1017 14 16093 2.6 320 03:41 29.03.2020
604 Clear 17 1017 14 16093 2.6 320 03:22 29.03.2020
605 Clear 19 1017 14 16093 3.6 290 01:44 29.03.2020
606 Clear 19 1017 14 16093 3.6 290 01:23 29.03.2020
607 Clear 19 1017 15 16093 2.1 330 00:46 29.03.2020
608 Clear 19 1017 15 16093 2.1 330 00:28 29.03.2020
609 Clear 19 1018 17 16093 3.1 290 23:41 28.03.2020
610 Clear 19 1018 17 16093 3.1 290 23:23 28.03.2020
611 Clear 18 1019 17 16093 2.6 320 22:54 28.03.2020
612 Clear 18 1019 17 16093 2.6 320 22:36 28.03.2020
613 Clear 18 1019 17 16093 2.6 320 22:18 28.03.2020
614 Clear 18 1020 18 16093 1.71 336 21:40 28.03.2020
615 Clear 18 1020 18 16093 1.71 336 21:21 28.03.2020
616 Clear 17 1020 18 16093 1.71 336 20:57 28.03.2020
617 Clear 17 1020 18 16093 1.71 336 20:38 28.03.2020
618 Clear 16 1020 18 16093 1.85 57 20:20 28.03.2020
619 Clear 16 1021 21 16093 1.5 340 19:55 28.03.2020
620 Clear 15 1021 21 16093 1.5 340 19:36 28.03.2020
621 Clear 15 1021 21 16093 1.5 340 19:18 28.03.2020
622 Clear 14 1021 26 16093 1.85 57 18:42 28.03.2020
623 Clear 14 1021 26 16093 1.85 57 18:21 28.03.2020
624 Clear 13 1021 29 16093 2.1 80 17:43 28.03.2020
625 Clear 12 1021 29 16093 2.1 80 17:24 28.03.2020
626 Clear 11 1022 39 16093 2.1 120 16:59 28.03.2020
627 Clear 11 1022 39 16093 2.1 120 16:59 28.03.2020
628 Clear 10 1022 39 16093 2.1 120 16:40 28.03.2020
629 Clear 9 1022 39 16093 2.1 120 16:19 28.03.2020
630 Clear 7 1021 51 16093 1.8 81 15:55 28.03.2020
631 Clear 6 1021 51 16093 1.8 81 15:37 28.03.2020
632 Clear 4 1021 51 16093 1.8 81 15:18 28.03.2020
633 Clear 3 1021 64 16093 2.1 100 14:41 28.03.2020
634 Clear 3 1021 64 16093 2.1 100 14:21 28.03.2020
635 Clear 3 1021 64 16093 2.1 100 14:21 28.03.2020
636 Clear 3 1020 55 16093 2.1 80 13:43 28.03.2020
637 Clear 3 1020 55 16093 2.1 80 13:24 28.03.2020
638 Clear 3 1020 59 16093 3.6 120 12:43 28.03.2020
639 Clear 3 1020 59 16093 3.6 120 12:24 28.03.2020
640 Clear 3 1020 59 16093 3.6 110 11:59 28.03.2020
641 Rain 4 1020 59 16093 3.6 110 11:41 28.03.2020
642 Rain 4 1020 59 16093 3.6 110 11:20 28.03.2020
643 Rain 4 1020 59 16093 2.6 130 10:40 28.03.2020
644 Rain 4 1020 59 16093 2.6 130 10:22 28.03.2020
645 Clear 5 1020 51 16093 3.6 130 09:43 28.03.2020
646 Clear 5 1020 51 16093 3.6 130 09:24 28.03.2020
647 Clear 5 1020 45 16093 2.1 190 08:59 28.03.2020
648 Clear 5 1020 45 16093 2.1 190 08:41 28.03.2020
649 Clear 6 1020 45 16093 2.1 190 08:22 28.03.2020
650 Clear 6 1020 42 16093 2.1 250 07:46 28.03.2020
651 Clear 6 1020 42 16093 2.1 250 07:28 28.03.2020
652 Clear 7 1019 39 16093 3.1 290 06:36 28.03.2020
653 Clear 8 1019 36 16093 3.1 330 05:54 28.03.2020
654 Clear 8 1019 36 16093 3.1 330 05:21 28.03.2020
655 Clear 8 1019 36 16093 3.1 330 05:21 28.03.2020
656 Clear 9 1018 34 16093 2.6 10 04:42 28.03.2020
657 Clear 9 1017 29 16093 3.1 320 03:55 28.03.2020
658 Clouds 12 1016 30 16093 3.1 330 02:26 28.03.2020
659 Clouds 13 1016 30 16093 6.7 360 01:43 28.03.2020
660 Clouds 13 1016 30 16093 6.7 360 01:18 28.03.2020
661 Clouds 12 1015 26 16093 7.2 320 00:45 28.03.2020
662 Clouds 12 1015 28 16093 6.2 10 23:59 27.03.2020
663 Clouds 12 1015 28 16093 6.2 10 23:41 27.03.2020
664 Clouds 12 1015 28 16093 6.2 10 23:41 27.03.2020
665 Clouds 12 1015 30 16093 4.1 300 23:21 27.03.2020
666 Clouds 12 1015 26 16093 7.2 310 22:56 27.03.2020
667 Clouds 12 1015 26 16093 7.2 310 22:38 27.03.2020
668 Clouds 13 1015 24 16093 7.2 300 22:19 27.03.2020
669 Clouds 13 1015 32 16093 5.7 320 21:45 27.03.2020
670 Clouds 13 1015 32 16093 5.7 320 21:25 27.03.2020
671 Clouds 12 1015 32 16093 5.7 320 20:59 27.03.2020
672 Clouds 12 1015 37 16093 3.6 320 20:41 27.03.2020
673 Clouds 12 1015 37 16093 3.6 320 20:21 27.03.2020
674 Clouds 12 1015 37 16093 3.6 320 19:58 27.03.2020
675 Clouds 11 1016 40 16093 4.6 310 19:40 27.03.2020
676 Clouds 11 1016 40 16093 4.6 310 19:20 27.03.2020
677 Clouds 11 1015 31 16093 5.1 320 18:44 27.03.2020
678 Clouds 10 1015 31 16093 5.1 320 18:25 27.03.2020
679 Clouds 10 1015 31 16093 6.2 290 17:59 27.03.2020
680 Clouds 10 1015 31 16093 6.2 290 17:39 27.03.2020
681 Drizzle 9 1015 38 16093 5.7 280 17:20 27.03.2020
682 Clouds 8 1014 45 16093 4.1 300 16:44 27.03.2020
683 Clouds 8 1014 45 16093 4.1 300 16:25 27.03.2020
684 Clouds 8 1013 49 16093 1.5 210 15:56 27.03.2020
685 Clouds 9 1013 49 16093 1.5 210 15:38 27.03.2020
686 Clouds 9 1013 49 16093 1.5 210 15:19 27.03.2020
687 Clouds 8 1013 45 16093 2.6 300 14:43 27.03.2020
688 Clouds 8 1013 45 16093 2.6 300 14:24 27.03.2020
689 Clouds 9 1013 45 16093 3.6 290 13:55 27.03.2020
690 Clouds 9 1013 45 16093 3.6 290 13:37 27.03.2020
691 Clouds 9 1013 45 16093 3.6 290 13:18 27.03.2020
692 Clouds 9 1013 45 16093 3.6 290 13:18 27.03.2020
693 Clouds 9 1012 49 16093 3.6 290 12:43 27.03.2020
694 Clouds 10 1012 49 16093 3.6 290 12:19 27.03.2020
695 Clouds 10 1012 46 16093 5.7 290 11:55 27.03.2020
696 Clouds 10 1012 46 16093 5.7 290 11:36 27.03.2020
697 Clouds 10 1012 46 16093 5.7 290 11:18 27.03.2020
698 Clouds 11 1012 49 0 1.79 0 10:42 27.03.2020
699 Clouds 11 1012 49 0 1.79 0 10:42 27.03.2020
700 Clouds 11 1012 50 12874 3.6 260 10:22 27.03.2020
701 Clouds 11 1012 50 12874 3.6 260 10:22 27.03.2020
702 Clouds 11 1012 45 0 1.34 0 09:59 27.03.2020
703 Clouds 12 1012 46 0 2.24 0 09:41 27.03.2020
704 Haze 12 1012 54 9656 3.6 250 09:22 27.03.2020
705 Clouds 12 1012 54 12874 3.1 230 08:59 27.03.2020
706 Clouds 13 1012 54 12874 3.1 230 08:40 27.03.2020
707 Clouds 13 1012 54 12874 3.1 230 08:22 27.03.2020
708 Clouds 13 1012 54 16093 3.6 280 07:57 27.03.2020
709 Clouds 13 1012 54 16093 3.6 280 07:57 27.03.2020
710 Clouds 13 1012 54 16093 3.6 280 07:38 27.03.2020
711 Clouds 13 1012 54 16093 3.6 280 07:20 27.03.2020
712 Clouds 14 1012 54 0 1.79 0 06:39 27.03.2020
713 Clouds 14 1012 38 16093 4.6 240 05:51 27.03.2020
714 Clouds 15 1011 38 16093 5.71 202 03:34 27.03.2020
715 Clouds 16 1011 36 16093 1.5 30 01:55 27.03.2020
716 Clouds 17 1011 36 16093 1.5 30 01:18 27.03.2020
717 Clouds 17 1012 36 16093 1.5 30 00:41 27.03.2020
718 Clouds 17 1012 36 16093 1.5 30 00:19 27.03.2020
719 Clouds 17 1012 38 16093 7.86 220 23:37 26.03.2020
720 Clouds 17 1012 38 16093 7.21 206 23:18 26.03.2020
721 Clouds 17 1013 38 16093 7.21 206 22:56 26.03.2020
722 Clear 17 1013 36 16093 2.6 360 22:36 26.03.2020
723 Clear 17 1013 36 16093 2.6 360 22:18 26.03.2020
724 Clouds 17 1013 38 16093 4.1 350 21:40 26.03.2020
725 Clouds 17 1013 38 16093 4.1 350 21:21 26.03.2020
726 Clouds 17 1013 38 16093 4.1 350 21:21 26.03.2020
727 Rain 16 1013 38 16093 3.6 320 20:59 26.03.2020
728 Rain 16 1013 38 16093 3.6 320 20:39 26.03.2020
729 Clouds 16 1014 38 16093 6.2 320 20:21 26.03.2020
730 Clouds 16 1014 38 16093 6.2 320 20:21 26.03.2020
731 Clouds 16 1014 36 16093 3.1 310 19:58 26.03.2020
732 Clouds 16 1014 36 16093 3.1 310 19:39 26.03.2020
733 Clouds 16 1014 36 16093 3.1 310 19:20 26.03.2020
734 Clouds 16 1013 38 16093 6.2 330 18:58 26.03.2020
735 Clouds 16 1013 38 16093 6.2 330 18:39 26.03.2020
736 Clouds 15 1013 38 16093 6.2 330 18:21 26.03.2020
737 Clouds 15 1013 24 16093 4.6 320 17:44 26.03.2020
738 Clouds 15 1013 31 16093 4.6 320 17:19 26.03.2020
739 Clouds 15 1013 31 16093 3.6 360 16:55 26.03.2020
740 Clouds 15 1013 31 16093 3.6 360 16:55 26.03.2020
741 Clouds 15 1013 31 16093 3.6 360 16:37 26.03.2020
742 Clouds 16 1013 31 16093 3.6 360 16:18 26.03.2020
743 Clouds 15 1012 31 16093 3.1 340 15:41 26.03.2020
744 Clouds 15 1012 31 16093 3.1 340 15:22 26.03.2020
745 Clouds 15 1012 26 16093 1.5 10 14:58 26.03.2020
746 Clouds 15 1012 26 16093 1.5 10 14:39 26.03.2020
747 Clouds 16 1012 26 16093 1.5 10 14:19 26.03.2020
748 Clouds 16 1012 28 16093 2.35 247 13:45 26.03.2020
749 Clouds 16 1012 28 16093 2.35 247 13:24 26.03.2020
750 Clouds 17 1012 23 16093 2.68 254 12:59 26.03.2020
751 Clouds 17 1012 23 16093 2.68 254 12:38 26.03.2020
752 Clouds 17 1012 23 16093 2.68 254 12:20 26.03.2020
753 Clouds 17 1012 17 16093 1.5 270 11:46 26.03.2020
754 Clouds 17 1012 17 16093 1.5 270 11:22 26.03.2020
755 Clouds 17 1013 27 16093 1.5 10 10:56 26.03.2020
756 Clouds 17 1013 27 16093 1.5 10 10:56 26.03.2020
757 Clouds 17 1013 27 16093 1.5 10 10:56 26.03.2020
758 Clouds 17 1013 27 16093 1.5 10 10:38 26.03.2020
759 Clouds 17 1013 27 16093 1.5 10 10:19 26.03.2020
760 Clouds 17 1013 26 16093 2.1 340 09:44 26.03.2020
761 Clouds 17 1013 26 16093 2.1 340 09:20 26.03.2020
762 Clouds 18 1012 37 0 0.89 0 08:55 26.03.2020
763 Clouds 18 1012 37 0 0.89 0 08:55 26.03.2020
764 Clouds 18 1012 37 0 1.34 0 08:37 26.03.2020
765 Clouds 18 1013 35 0 0.89 0 08:18 26.03.2020
766 Clouds 19 1013 22 16093 3.13 219 07:43 26.03.2020
767 Clouds 19 1013 22 16093 3.13 219 07:21 26.03.2020
768 Clouds 19 1013 26 16093 2.1 290 06:48 26.03.2020
769 Clouds 19 1013 30 16093 3.13 219 05:57 26.03.2020
770 Clouds 20 1012 28 16093 4.3 227 04:33 26.03.2020
771 Clear 21 1013 20 16093 1.5 40 03:44 26.03.2020
772 Clouds 23 1012 17 16093 4.6 340 02:55 26.03.2020
773 Clouds 24 1012 22 0 1.79 0 01:50 26.03.2020
774 Clouds 26 1012 18 0 2.68 0 00:52 26.03.2020
775 Clear 27 1013 13 16093 4.1 300 23:59 25.03.2020
776 Clear 27 1013 13 16093 4.1 300 23:40 25.03.2020
777 Clear 28 1013 13 16093 4.1 300 23:20 25.03.2020
778 Clear 27 1014 13 16093 3.6 290 22:40 25.03.2020
779 Clear 28 1014 13 16093 3.6 290 22:21 25.03.2020
780 Clear 27 1014 14 16093 1.5 330 21:56 25.03.2020
781 Clear 27 1014 14 16093 1.5 330 21:37 25.03.2020
782 Clear 27 1014 14 16093 1.5 330 21:19 25.03.2020
783 Clear 27 1016 14 16093 7.35 242 20:54 25.03.2020
784 Clear 26 1015 14 16093 2.1 310 20:36 25.03.2020
785 Clear 25 1015 14 16093 2.1 310 20:18 25.03.2020
786 Clear 24 1017 15 16093 2.1 50 19:42 25.03.2020
787 Clear 24 1016 20 16093 1.5 130 19:22 25.03.2020
788 Clouds 24 1016 19 0 1.34 0 18:57 25.03.2020
789 Clear 23 1017 26 16093 2.1 50 18:38 25.03.2020
790 Clouds 22 1016 22 0 0.89 158 18:19 25.03.2020
791 Clear 22 1017 21 16093 3.1 130 17:54 25.03.2020
792 Clear 20 1017 15 16093 2.6 160 17:36 25.03.2020
793 Clear 19 1017 28 16093 2.6 160 17:18 25.03.2020
794 Clear 17 1017 38 16093 3.6 160 16:43 25.03.2020
795 Clear 16 1017 38 16093 3.6 160 16:22 25.03.2020
796 Clouds 14 1015 48 0 0.89 59 15:57 25.03.2020
797 Clear 12 1017 28 16093 3.1 150 15:38 25.03.2020
798 Clear 10 1017 57 16093 3.1 130 15:19 25.03.2020
799 Clear 9 1016 57 16093 3.1 140 14:42 25.03.2020
800 Clear 9 1016 57 16093 3.1 140 14:21 25.03.2020
801 Clear 9 1016 53 16093 3.6 160 13:46 25.03.2020
802 Clear 9 1016 53 16093 3.6 160 13:26 25.03.2020
803 Clear 9 1016 57 16093 3.1 160 12:57 25.03.2020
804 Clear 10 1016 57 16093 3.1 160 12:37 25.03.2020
805 Clear 10 1016 57 16093 3.1 160 12:18 25.03.2020
806 Clear 10 1016 53 16093 4.1 160 11:43 25.03.2020
807 Clear 10 1016 53 16093 4.1 160 11:21 25.03.2020
808 Clear 11 1017 53 16093 1.88 205 10:59 25.03.2020
809 Clear 11 1017 53 16093 1.88 205 10:40 25.03.2020
810 Clear 11 1017 53 16093 1.88 205 10:19 25.03.2020
811 Clear 12 1018 50 16093 2.6 150 09:59 25.03.2020
812 Clear 12 1018 50 16093 2.6 150 09:40 25.03.2020
813 Clear 12 1018 50 16093 2.6 150 09:22 25.03.2020
814 Clear 13 1018 37 16093 3.1 180 08:43 25.03.2020
815 Clear 13 1018 37 16093 3.1 180 08:25 25.03.2020
816 Clear 14 1018 30 16093 3.1 180 07:59 25.03.2020
817 Clear 14 1018 43 16093 3.1 190 07:39 25.03.2020
818 Clear 14 1018 43 16093 3.1 190 07:39 25.03.2020
819 Clear 14 1018 43 16093 3.1 190 07:19 25.03.2020
820 Clear 15 1018 41 16093 2.1 210 06:45 25.03.2020
821 Clear 15 1018 41 16093 2.1 210 06:25 25.03.2020
822 Clear 16 1018 29 16093 2.6 220 05:48 25.03.2020
823 Clear 18 1017 25 16093 2.6 320 04:46 25.03.2020
824 Clear 19 1017 25 16093 3.6 320 03:58 25.03.2020
825 Clear 20 1017 25 16093 3.6 320 03:34 25.03.2020
826 Clear 23 1017 19 16093 4.6 310 01:41 25.03.2020
827 Clear 23 1017 19 16093 4.6 310 01:41 25.03.2020
828 Clear 23 1017 19 16093 4.6 310 01:41 25.03.2020
829 Clear 24 1017 17 16093 3.1 290 00:58 25.03.2020
830 Clear 24 1017 17 16093 3.1 290 00:40 25.03.2020
831 Clear 24 1017 17 16093 3.1 290 00:18 25.03.2020
832 Clear 24 1017 17 16093 3.1 280 23:40 24.03.2020
833 Clear 24 1017 17 16093 3.1 280 23:21 24.03.2020
834 Clear 24 1018 12 16093 3.1 320 22:55 24.03.2020
835 Clear 24 1018 12 16093 3.1 320 22:36 24.03.2020
836 Clear 24 1018 12 16093 3.1 320 22:18 24.03.2020
837 Clear 24 1019 13 16093 2.58 251 21:43 24.03.2020
838 Clear 23 1019 13 16093 2.58 251 21:19 24.03.2020
839 Clear 23 1020 15 16093 2.1 0 20:59 24.03.2020
840 Clear 23 1020 15 16093 2.1 0 20:41 24.03.2020
841 Clear 22 1020 15 16093 2.1 0 20:23 24.03.2020
842 Clear 21 1021 26 16093 0.89 191 19:48 24.03.2020
843 Clear 21 1020 28 16093 2.1 40 19:48 24.03.2020
844 Clear 21 1020 28 16093 2.1 40 19:24 24.03.2020
845 Clear 20 1016 29 0 0.89 25 18:59 24.03.2020
846 Clear 20 1016 31 0 0.89 294 18:40 24.03.2020
847 Clear 20 1016 35 0 0.45 25 18:20 24.03.2020
848 Clear 19 1020 36 16093 1.5 120 17:59 24.03.2020
849 Clear 18 1020 36 16093 1.5 120 17:40 24.03.2020
850 Clear 17 1020 36 16093 1.5 120 17:22 24.03.2020
851 Clear 16 1020 41 16093 2.1 110 16:57 24.03.2020
852 Clear 15 1021 44 16093 1.5 100 16:38 24.03.2020
853 Clear 14 1020 47 16093 2.6 130 16:20 24.03.2020
854 Clear 12 1019 57 16093 2.6 100 15:44 24.03.2020
855 Clear 12 1019 57 16093 2.6 100 15:44 24.03.2020
856 Clear 10 1019 57 16093 2.6 100 15:25 24.03.2020
857 Clear 9 1019 57 16093 2.1 110 14:57 24.03.2020
858 Clear 8 1020 65 16093 2.6 120 14:37 24.03.2020
859 Clear 8 1020 65 16093 2.6 120 14:18 24.03.2020
860 Clear 9 1019 65 16093 2.1 120 13:41 24.03.2020
861 Clear 9 1019 65 16093 2.1 120 13:22 24.03.2020
862 Clear 9 1019 66 16093 3.1 130 12:45 24.03.2020
863 Clear 9 1019 66 16093 3.1 130 12:27 24.03.2020
864 Clear 10 1019 61 16093 3.1 110 11:57 24.03.2020
865 Clear 10 1019 61 16093 3.1 110 11:38 24.03.2020
866 Clear 10 1019 61 16093 3.1 110 11:18 24.03.2020
867 Clear 11 1019 53 16093 1.42 278 10:42 24.03.2020
868 Clear 11 1020 57 16093 3.6 160 10:19 24.03.2020
869 Clear 11 1019 53 16093 1.42 278 10:19 24.03.2020
870 Clear 11 1019 57 16093 2.6 210 09:48 24.03.2020
871 Clear 11 1019 53 16093 2.1 220 09:27 24.03.2020
872 Clear 12 1019 57 16093 3.1 210 08:58 24.03.2020
873 Clear 12 1019 50 16093 2.1 210 08:38 24.03.2020
874 Clear 13 1019 50 16093 2.1 210 08:20 24.03.2020
875 Clear 13 1019 47 16093 3.68 301 07:45 24.03.2020
876 Clear 14 1019 47 16093 3.68 301 07:22 24.03.2020
877 Clear 14 1019 41 16093 1.5 70 06:42 24.03.2020
878 Clear 15 1019 41 16093 1.5 70 06:23 24.03.2020
879 Clear 17 1019 38 16093 2.1 230 04:53 24.03.2020
880 Clear 18 1017 22 16093 3.1 280 03:43 24.03.2020
881 Clear 20 1017 19 16093 3.6 270 02:45 24.03.2020
882 Clear 22 1017 20 16093 4.6 230 01:22 24.03.2020
883 Clear 23 1017 20 16093 6.7 260 00:41 24.03.2020
884 Clear 23 1017 20 16093 6.7 260 00:22 24.03.2020
885 Clear 23 1017 20 16093 6.7 250 23:38 23.03.2020
886 Clear 23 1018 22 16093 4.6 310 23:20 23.03.2020
887 Clear 23 1018 20 16093 8.2 240 22:45 23.03.2020
888 Clear 22 1018 20 16093 8.2 240 22:24 23.03.2020
889 Clear 22 1018 20 16093 3.1 270 21:57 23.03.2020
890 Clear 22 1018 19 16093 5.7 250 21:38 23.03.2020
891 Clear 22 1019 21 16093 6.2 280 21:20 23.03.2020
892 Clear 22 1019 19 16093 6.2 250 20:56 23.03.2020
893 Clear 22 1019 18 16093 6.2 240 20:38 23.03.2020
894 Clear 21 1019 26 16093 3.6 250 20:19 23.03.2020
895 Clear 21 1019 21 16093 5.1 200 19:42 23.03.2020
896 Clear 20 1019 21 16093 5.1 200 19:23 23.03.2020
897 Clear 20 1019 22 16093 5.7 220 18:56 23.03.2020
898 Clear 20 1020 26 16093 1.5 230 18:38 23.03.2020
899 Clear 19 1020 25 16093 6.42 230 18:19 23.03.2020
900 Clear 18 1019 26 16093 3.1 200 17:41 23.03.2020
901 Clear 18 1020 38 16093 6.42 230 17:20 23.03.2020
902 Clear 17 1019 31 16093 2.1 200 16:56 23.03.2020
903 Clear 17 1019 44 16093 3.07 230 16:37 23.03.2020
904 Clear 16 1020 47 16093 3.07 230 16:18 23.03.2020
905 Clear 14 1018 54 16093 2.1 190 15:41 23.03.2020
906 Clouds 13 1019 54 16093 3.07 230 15:19 23.03.2020
907 Clear 13 1018 58 16093 2.6 180 14:38 23.03.2020
908 Clear 13 1018 58 16093 2.6 180 14:19 23.03.2020
909 Clear 13 1018 58 16093 1.71 190 13:57 23.03.2020
910 Clear 13 1018 58 16093 1.5 200 13:39 23.03.2020
911 Clouds 13 1018 58 16093 1.5 140 13:20 23.03.2020
912 Clear 13 1018 58 16093 1.5 200 13:20 23.03.2020
913 Clear 13 1017 51 16093 1.5 180 12:44 23.03.2020
914 Clear 13 1017 51 16093 1.5 180 12:25 23.03.2020
915 Clear 13 1017 51 16093 1.5 240 11:57 23.03.2020
916 Clear 14 1017 51 16093 1.5 240 11:38 23.03.2020
917 Clear 14 1017 51 16093 1.5 240 11:38 23.03.2020
918 Clouds 14 1017 54 16093 2.1 160 11:19 23.03.2020
919 Clouds 14 1017 44 16093 1.06 206 10:56 23.03.2020
920 Clear 14 1016 44 16093 1.06 206 10:36 23.03.2020
921 Clouds 14 1018 50 16093 1.5 210 10:18 23.03.2020
922 Clear 14 1017 44 16093 4.1 220 09:42 23.03.2020
923 Clear 14 1017 44 16093 4.1 220 09:20 23.03.2020
924 Clear 14 1017 47 16093 1.5 180 08:40 23.03.2020
925 Clear 15 1017 47 16093 1.5 180 08:20 23.03.2020
926 Clear 14 1018 51 16093 3.1 210 07:58 23.03.2020
927 Clear 14 1018 51 16093 3.6 220 07:37 23.03.2020
928 Clouds 14 1018 58 16093 2.1 170 07:18 23.03.2020
929 Clear 15 1017 48 16093 2.25 246 06:48 23.03.2020
930 Clear 15 1017 48 16093 1.5 260 05:45 23.03.2020
931 Clear 17 1017 36 16093 1.5 10 04:41 23.03.2020
932 Clear 18 1017 34 16093 1.5 330 03:23 23.03.2020
933 Clear 21 1016 19 16093 2.1 330 01:50 23.03.2020
934 Clear 21 1016 18 16093 2.1 20 00:50 23.03.2020
935 Clear 21 1016 18 16093 2.1 20 00:31 23.03.2020
936 Clear 21 1017 18 16093 3.6 330 23:45 22.03.2020
937 Clear 22 1017 18 16093 3.6 330 23:25 22.03.2020
938 Clear 22 1018 19 16093 3.6 320 22:44 22.03.2020
939 Clouds 22 1018 15 16093 1.52 255 22:22 22.03.2020
940 Clear 22 1018 21 16093 2.1 280 21:55 22.03.2020
941 Clear 22 1019 21 16093 1.52 255 21:36 22.03.2020
942 Clear 22 1019 21 16093 1.52 255 21:18 22.03.2020
943 Clear 21 1019 16 16093 1.52 255 20:45 22.03.2020
944 Clear 21 1019 15 16093 2.08 244 20:24 22.03.2020
945 Clear 20 1020 27 16093 0.58 169 19:57 22.03.2020
946 Clear 20 1020 27 16093 0.58 169 19:39 22.03.2020
947 Clouds 19 1020 29 16093 1.5 20 19:20 22.03.2020
948 Clear 19 1020 31 16093 1.5 220 18:58 22.03.2020
949 Clear 18 1020 31 16093 0.58 169 18:40 22.03.2020
950 Clear 18 1020 36 16093 0.58 169 18:21 22.03.2020
951 Clear 17 1020 36 16093 2.1 130 17:57 22.03.2020
952 Clear 17 1021 39 16093 1.5 58 17:38 22.03.2020
953 Clear 15 1020 44 16093 2.6 120 17:20 22.03.2020
954 Clear 14 1020 50 16093 3.1 100 16:57 22.03.2020
955 Clear 13 1020 66 16093 2.6 90 16:39 22.03.2020
956 Clear 13 1020 66 16093 2.6 90 16:39 22.03.2020
957 Clear 12 1020 66 16093 2.6 90 16:20 22.03.2020
958 Clear 10 1020 81 16093 0.44 121 15:40 22.03.2020
959 Clear 8 1020 81 16093 0.44 121 15:20 22.03.2020
960 Clear 8 1021 81 16093 1.5 250 14:46 22.03.2020
961 Clear 8 1021 81 16093 1.5 250 14:46 22.03.2020
962 Clear 8 1019 70 16093 0.37 288 14:19 22.03.2020
963 Clear 8 1019 70 16093 0.37 288 13:44 22.03.2020
964 Clear 9 1019 70 16093 0.44 285 13:20 22.03.2020
965 Clear 9 1019 66 16093 2.6 90 12:58 22.03.2020
966 Clear 9 1019 71 16093 2.6 100 12:39 22.03.2020
967 Clear 9 1019 66 16093 4.1 120 12:19 22.03.2020
968 Clear 9 1019 81 16093 2.1 60 11:43 22.03.2020
969 Clear 10 1019 61 16093 2.6 120 11:25 22.03.2020
970 Clear 10 1019 71 16093 2.1 70 10:58 22.03.2020
971 Clear 10 1019 62 16093 0.84 297 10:39 22.03.2020
972 Clear 10 1019 62 16093 0.84 297 10:21 22.03.2020
973 Clear 10 1019 62 16093 2.6 200 09:45 22.03.2020
974 Clear 11 1019 62 16093 2.6 200 09:27 22.03.2020
975 Clear 11 1020 58 16093 0.84 297 08:48 22.03.2020
976 Clear 11 1020 58 16093 0.84 297 08:29 22.03.2020
977 Clear 12 1020 54 16093 0.94 234 07:54 22.03.2020
978 Clear 12 1020 54 16093 0.94 234 07:36 22.03.2020
979 Clear 13 1020 50 16093 0.94 234 06:41 22.03.2020
980 Clear 14 1019 38 16093 2.6 280 05:41 22.03.2020
981 Clear 16 1018 29 16093 3.29 262 04:34 22.03.2020
982 Clear 21 1016 17 16093 5.1 270 01:36 22.03.2020
983 Clear 22 1016 15 16093 4.1 260 00:49 22.03.2020
984 Clear 22 1016 18 16093 5.1 240 00:30 22.03.2020
985 Clear 23 1016 15 16093 5.7 240 23:45 21.03.2020
986 Clear 23 1016 15 16093 5.7 240 23:21 21.03.2020
987 Clear 23 1018 15 16093 3.6 190 22:58 21.03.2020
988 Clear 23 1018 15 16093 3.6 190 22:37 21.03.2020
989 Clear 22 1017 19 16093 3.1 270 22:19 21.03.2020
990 Clear 22 1017 21 16093 2.1 290 21:57 21.03.2020
991 Clear 22 1018 21 16093 3.6 240 21:37 21.03.2020
992 Clear 22 1018 16 16093 3.6 220 21:18 21.03.2020
993 Clear 21 1019 30 16093 6.11 236 20:42 21.03.2020
994 Clear 20 1019 30 16093 5.9 239 20:21 21.03.2020
995 Clear 19 1019 32 16093 1.5 170 19:54 21.03.2020
996 Clear 19 1019 39 16093 2.53 224 19:36 21.03.2020
997 Clear 19 1019 36 16093 2.6 280 19:18 21.03.2020
998 Clear 18 1019 44 16093 2.53 224 18:40 21.03.2020
999 Clear 18 1019 44 16093 2.53 224 18:20 21.03.2020
1000 Clear 17 1020 47 16093 2.53 224 17:57 21.03.2020
1001 Clear 17 1021 48 16093 2.53 224 17:39 21.03.2020
1002 Clear 15 1019 50 16093 2.6 180 17:21 21.03.2020
1003 Clear 14 1019 62 16093 0.56 153 16:42 21.03.2020
1004 Clear 13 1019 62 16093 0.56 153 16:22 21.03.2020
1005 Clear 12 1019 76 16093 0.56 153 15:58 21.03.2020
1006 Clear 11 1019 81 16093 1.5 130 15:39 21.03.2020
1007 Clear 10 1019 81 16093 1.5 130 15:21 21.03.2020
1008 Clear 8 1019 81 16093 3.1 100 14:55 21.03.2020
1009 Clear 8 1018 87 16093 2.1 170 14:37 21.03.2020
1010 Clouds 8 1019 81 16093 2.1 190 14:18 21.03.2020
1011 Clear 8 1020 81 16093 2.6 220 13:57 21.03.2020
1012 Clear 9 1020 81 16093 2.6 220 13:38 21.03.2020
1013 Clear 9 1018 81 16093 2.6 250 13:19 21.03.2020
1014 Clear 10 1018 76 16093 1.5 70 12:41 21.03.2020
1015 Clouds 10 1018 71 16093 2.3 297 12:20 21.03.2020
1016 Clear 10 1018 71 16093 2.1 310 11:59 21.03.2020
1017 Clear 10 1018 76 16093 1.5 300 11:39 21.03.2020
1018 Clouds 11 1018 66 16093 3.1 180 11:20 21.03.2020
1019 Clear 11 1018 76 16093 2.6 290 10:58 21.03.2020
1020 Clear 11 1018 71 16093 0.77 163 10:39 21.03.2020
1021 Clear 11 1018 71 16093 0.77 163 10:21 21.03.2020
1022 Clear 12 1018 66 16093 1.5 50 09:59 21.03.2020
1023 Clear 12 1018 66 16093 0.77 163 09:39 21.03.2020
1024 Clear 12 1018 66 16093 0.77 163 09:20 21.03.2020
1025 Clear 12 1018 71 16093 2.6 230 08:55 21.03.2020
1026 Clear 12 1018 71 16093 2.1 220 08:37 21.03.2020
1027 Clear 12 1018 71 16093 2.1 220 08:18 21.03.2020
1028 Clear 12 1019 62 16093 1.5 160 07:37 21.03.2020
1029 Clear 12 1020 66 16093 1.5 190 07:18 21.03.2020
1030 Clear 12 1019 62 16093 0.74 241 06:42 21.03.2020
1031 Clear 13 1019 62 16093 0.74 241 06:23 21.03.2020
1032 Clear 13 1020 47 16093 2.1 10 05:39 21.03.2020
1033 Clear 15 1020 44 16093 2.6 330 03:39 21.03.2020
1034 Clear 17 1020 36 16093 3.1 320 02:36 21.03.2020
1035 Clear 18 1020 32 16093 5.1 310 01:43 21.03.2020
1036 Clear 19 1020 32 16093 5.1 310 01:22 21.03.2020
1037 Clear 20 1020 19 16093 3.6 320 00:39 21.03.2020
1038 Clear 20 1020 19 16093 3.6 320 00:20 21.03.2020
1039 Clear 20 1020 24 16093 4.1 290 23:41 20.03.2020
1040 Clear 20 1020 24 16093 4.1 290 23:20 20.03.2020
1041 Clear 20 1020 19 16093 1.5 190 22:44 20.03.2020
1042 Clear 20 1020 24 16093 1.5 260 22:24 20.03.2020
1043 Clear 20 1021 27 16093 2.1 270 21:58 20.03.2020
1044 Clear 20 1021 19 16093 2.36 217 21:39 20.03.2020
1045 Clear 19 1021 23 16093 2.36 217 21:19 20.03.2020
1046 Clear 19 1021 19 16093 1.5 260 20:57 20.03.2020
1047 Clear 19 1022 33 16093 3.1 200 20:39 20.03.2020
1048 Clear 17 1022 33 16093 3.1 200 20:19 20.03.2020
1049 Clear 17 1022 38 16093 1.5 260 19:46 20.03.2020
1050 Clear 16 1022 38 16093 1.5 200 19:19 20.03.2020
1051 Clear 16 1023 36 16093 1.5 30 18:57 20.03.2020
1052 Clear 16 1023 36 16093 1.5 30 18:37 20.03.2020
1053 Clear 15 1022 41 16093 2.1 190 18:19 20.03.2020
1054 Clear 14 1022 54 16093 4.6 100 17:41 20.03.2020
1055 Clear 12 1023 54 16093 2.1 120 17:22 20.03.2020
1056 Clear 12 1023 57 16093 4.1 100 16:59 20.03.2020
1057 Clear 11 1022 66 16093 5.7 110 16:41 20.03.2020
1058 Clear 10 1023 66 16093 3.6 120 16:20 20.03.2020
1059 Clear 8 1022 81 16093 2.6 110 15:44 20.03.2020
1060 Clear 6 1022 81 16093 2.6 110 15:22 20.03.2020
1061 Clear 5 1022 81 16093 0.92 148 14:58 20.03.2020
1062 Clear 5 1022 81 16093 0.92 148 14:58 20.03.2020
1063 Clear 5 1021 75 16093 3.1 90 14:40 20.03.2020
1064 Clear 5 1021 75 16093 3.1 90 14:20 20.03.2020
1065 Clear 5 1021 81 16093 2.1 120 13:48 20.03.2020
1066 Clear 5 1021 86 16093 2.1 130 13:21 20.03.2020
1067 Clear 5 1021 81 16093 0.49 295 12:57 20.03.2020
1068 Clear 5 1021 75 16093 0.49 295 12:37 20.03.2020
1069 Clear 5 1020 80 16093 0.49 295 12:18 20.03.2020
1070 Clear 6 1020 86 16093 2.1 140 11:39 20.03.2020
1071 Clear 6 1020 86 16093 2.1 140 11:20 20.03.2020
1072 Clear 6 1020 75 16093 3.6 110 10:54 20.03.2020
1073 Clouds 6 1020 81 16093 3.1 100 10:36 20.03.2020
1074 Clouds 6 1020 81 16093 3.1 100 10:18 20.03.2020
1075 Clouds 7 1021 76 16093 0.29 269 09:44 20.03.2020
1076 Clouds 7 1021 76 16093 0.29 269 09:20 20.03.2020
1077 Clouds 7 1021 81 16093 0.29 269 08:43 20.03.2020
1078 Clouds 7 1021 81 16093 0.29 269 08:23 20.03.2020
1079 Clouds 8 1021 76 16093 1.5 210 07:57 20.03.2020
1080 Clear 8 1021 76 16093 1.49 232 07:38 20.03.2020
1081 Clouds 8 1021 66 16093 2.6 190 07:19 20.03.2020
1082 Clear 9 1021 71 16093 1.49 232 06:42 20.03.2020
1083 Clear 9 1021 71 16093 1.49 232 05:57 20.03.2020
1084 Clear 11 1020 58 16093 2.6 300 04:27 20.03.2020
1085 Clear 14 1020 46 16093 2.1 290 02:43 20.03.2020
1086 Clear 15 1019 25 16093 3.1 260 01:50 20.03.2020
1087 Clear 16 1019 34 16093 4.91 234 00:38 20.03.2020
1088 Clouds 16 1019 36 16093 2.1 320 23:58 19.03.2020
1089 Clouds 16 1019 34 16093 2.1 310 23:40 19.03.2020
1090 Clouds 16 1018 31 16093 2.1 310 23:19 19.03.2020
1091 Clear 16 1019 29 16093 4.6 240 22:38 19.03.2020
1092 Clouds 16 1019 41 16093 4.6 290 22:20 19.03.2020
1093 Clear 15 1020 29 16093 7.2 220 21:57 19.03.2020
1094 Clear 15 1020 29 16093 7.2 220 21:38 19.03.2020
1095 Clouds 15 1019 44 16093 4.1 320 21:18 19.03.2020
1096 Clouds 15 1020 38 16093 3.1 200 20:42 19.03.2020
1097 Clouds 15 1020 38 16093 3.1 200 20:42 19.03.2020
1098 Clouds 15 1020 38 16093 3.1 200 20:24 19.03.2020
1099 Clouds 14 1020 41 16093 6.89 217 19:57 19.03.2020
1100 Clouds 14 1020 50 16093 2.6 230 19:38 19.03.2020
1101 Rain 13 1020 50 16093 2.6 230 19:20 19.03.2020
1102 Rain 13 1020 54 16093 1.5 270 18:57 19.03.2020
1103 Rain 13 1020 62 16093 2.6 260 18:38 19.03.2020
1104 Clouds 12 1020 54 16093 5.1 210 18:19 19.03.2020
1105 Clouds 12 1019 62 16093 7.2 190 17:42 19.03.2020
1106 Clouds 11 1019 62 16093 1.5 200 17:20 19.03.2020
1107 Clouds 10 1020 57 16093 3.6 220 16:56 19.03.2020
1108 Clouds 10 1019 71 16093 5.1 200 16:37 19.03.2020
1109 Clouds 9 1019 71 16093 5.1 200 16:19 19.03.2020
1110 Rain 8 1018 87 16093 1.5 110 15:40 19.03.2020
1111 Rain 8 1018 81 16093 5.1 190 15:18 19.03.2020
1112 Clouds 8 1017 81 16093 6.2 180 14:43 19.03.2020
1113 Drizzle 8 1017 81 16093 4.1 180 14:21 19.03.2020
1114 Clouds 8 1016 87 16093 1.5 280 13:41 19.03.2020
1115 Clouds 8 1016 87 16093 1.5 140 13:21 19.03.2020
1116 Clouds 8 1016 87 16093 1.5 320 12:58 19.03.2020
1117 Clouds 8 1015 81 16093 1.5 230 12:40 19.03.2020
1118 Clouds 8 1015 87 16093 3.1 150 12:21 19.03.2020
1119 Rain 8 1014 81 16093 2.6 190 11:43 19.03.2020
1120 Rain 8 1014 81 16093 2.6 190 11:24 19.03.2020
1121 Rain 8 1014 81 16093 3.6 180 10:57 19.03.2020
1122 Rain 8 1014 76 16093 4.6 190 10:38 19.03.2020
1123 Drizzle 9 1014 76 16093 5.7 190 10:19 19.03.2020
1124 Rain 9 1013 76 16093 4.6 190 09:45 19.03.2020
1125 Rain 9 1013 76 16093 4.6 190 09:27 19.03.2020
1126 Clouds 9 1013 76 16093 4.6 200 08:59 19.03.2020
1127 Clouds 9 1013 76 16093 3.1 180 08:41 19.03.2020
1128 Clouds 9 1013 70 16093 9.8 180 08:19 19.03.2020
1129 Clouds 9 1012 76 16093 3.6 180 07:44 19.03.2020
1130 Clouds 9 1012 76 16093 3.6 180 07:44 19.03.2020
1131 Clouds 9 1012 76 16093 3.6 180 07:23 19.03.2020
1132 Rain 8 1012 76 16093 3.6 200 06:34 19.03.2020
1133 Rain 8 1012 76 16093 3.6 210 05:48 19.03.2020
1134 Rain 8 1011 66 16093 5.1 240 04:54 19.03.2020
1135 Rain 8 1011 66 16093 5.1 240 04:34 19.03.2020
1136 Rain 9 1009 76 16093 2.1 190 02:37 19.03.2020
1137 Rain 10 1007 76 4023 3.1 260 00:58 19.03.2020
1138 Rain 11 1007 76 16093 8.89 201 00:22 19.03.2020
1139 Rain 11 1008 76 16093 5.7 160 23:48 18.03.2020
1140 Rain 12 1008 66 8047 4.1 210 23:27 18.03.2020
1141 Clouds 13 1009 47 16093 7.2 170 22:44 18.03.2020
1142 Clouds 14 1009 47 16093 7.2 170 22:24 18.03.2020
1143 Clouds 14 1009 47 16093 7.2 170 21:59 18.03.2020
1144 Clouds 15 1009 45 16093 10.3 170 21:41 18.03.2020
1145 Clouds 14 1009 45 16093 10.3 170 21:21 18.03.2020
1146 Clouds 15 1009 42 16093 4.6 160 20:57 18.03.2020
1147 Clouds 15 1009 39 16093 6.2 150 20:39 18.03.2020
1148 Clouds 16 1009 39 16093 6.2 150 20:20 18.03.2020
1149 Clouds 16 1011 41 16093 4.6 120 19:55 18.03.2020
1150 Clouds 16 1011 44 16093 4.1 140 19:36 18.03.2020
1151 Clouds 15 1012 48 16093 4.1 80 19:18 18.03.2020
1152 Clouds 15 1012 47 16093 2.1 200 18:41 18.03.2020
1153 Clouds 14 1012 54 16093 2.6 10 18:20 18.03.2020
1154 Clouds 13 1013 54 16093 2.6 220 17:57 18.03.2020
1155 Clouds 13 1013 54 16093 2.6 220 17:39 18.03.2020
1156 Clouds 12 1013 62 16093 2.6 310 17:20 18.03.2020
1157 Clouds 11 1013 62 16093 3.02 172 16:54 18.03.2020
1158 Clouds 11 1012 66 16093 3.02 172 16:36 18.03.2020
1159 Clouds 11 1012 71 16093 1.5 270 16:18 18.03.2020
1160 Clouds 10 1012 66 16093 3.02 172 15:44 18.03.2020
1161 Clear 10 1011 66 16093 3.02 172 15:20 18.03.2020
1162 Clear 9 1011 66 16093 3.02 172 14:44 18.03.2020
1163 Clear 9 1011 66 16093 3.02 172 14:21 18.03.2020
1164 Clouds 9 1012 62 16093 1.95 213 13:42 18.03.2020
1165 Clouds 10 1012 62 16093 2.1 10 13:20 18.03.2020
1166 Clouds 10 1012 57 16093 1.2 218 12:59 18.03.2020
1167 Clouds 9 1012 66 16093 1.2 218 12:41 18.03.2020
1168 Clouds 9 1012 66 16093 2.1 310 12:19 18.03.2020
1169 Clear 9 1013 66 16093 1.2 218 11:39 18.03.2020
1170 Clouds 10 1013 66 16093 1.91 219 11:20 18.03.2020
1171 Clear 10 1012 66 16093 2.1 90 10:58 18.03.2020
1172 Clear 10 1013 62 16093 1.91 219 10:38 18.03.2020
1173 Clear 10 1013 62 16093 1.91 219 10:20 18.03.2020
1174 Clouds 11 1013 58 16093 2.1 300 09:43 18.03.2020
1175 Clouds 11 1013 58 16093 2.1 300 09:25 18.03.2020
1176 Clear 12 1013 54 16093 1.5 290 08:57 18.03.2020
1177 Clear 12 1014 47 16093 2.1 290 08:38 18.03.2020
1178 Clear 12 1014 47 16093 2.1 290 08:20 18.03.2020
1179 Clear 13 1014 50 16093 2.12 211 07:44 18.03.2020
1180 Clear 13 1014 50 16093 2.12 211 07:26 18.03.2020
1181 Clear 15 1013 41 16093 2.12 211 06:44 18.03.2020
1182 Clouds 15 1014 41 16093 2.6 50 06:20 18.03.2020
1183 Clear 16 1013 36 16093 1.5 230 05:34 18.03.2020
1184 Clear 17 1012 31 16093 3.6 260 04:25 18.03.2020
1185 Clear 20 1011 21 16093 4.1 250 02:44 18.03.2020
1186 Clear 22 1011 16 16093 6.7 240 01:48 18.03.2020
1187 Clear 22 1011 17 16093 6.7 230 01:26 18.03.2020
1188 Clear 23 1012 16 16093 6.2 260 00:24 18.03.2020
1189 Clear 24 1011 16 16093 4.6 240 23:48 17.03.2020
1190 Clear 24 1011 16 16093 4.6 240 23:27 17.03.2020
1191 Clear 24 1012 14 16093 6.7 230 22:57 17.03.2020
1192 Clear 24 1012 16 16093 6.2 260 22:37 17.03.2020
1193 Clouds 24 1012 13 16093 8.2 250 22:19 17.03.2020
1194 Clear 23 1012 13 16093 4.6 200 21:39 17.03.2020
1195 Clear 23 1012 13 16093 4.6 200 21:21 17.03.2020
1196 Clear 23 1012 13 16093 4.6 200 21:21 17.03.2020
1197 Clouds 23 1014 13 16093 6.7 160 20:40 17.03.2020
1198 Clear 22 1013 18 16093 5.1 170 20:21 17.03.2020
1199 Clear 21 1014 19 16093 2.6 130 19:58 17.03.2020
1200 Clear 21 1015 15 16093 6.2 220 19:39 17.03.2020
1201 Clouds 20 1015 24 16093 3.6 90 19:18 17.03.2020
1202 Clear 19 1015 36 16093 6.62 194 18:56 17.03.2020
1203 Clear 18 1015 36 16093 6.62 194 18:37 17.03.2020
1204 Clouds 18 1015 39 16093 1.5 10 18:19 17.03.2020
1205 Clear 16 1016 54 16093 6.62 194 17:40 17.03.2020
1206 Clouds 15 1015 44 16093 1.5 180 17:21 17.03.2020
1207 Clear 14 1015 54 16093 2.6 110 16:54 17.03.2020
1208 Clouds 13 1015 58 16093 1.5 220 16:36 17.03.2020
1209 Clear 13 1015 71 16093 3.21 186 16:18 17.03.2020
1210 Clear 11 1015 76 16093 3.21 186 15:41 17.03.2020
1211 Clear 11 1015 76 16093 3.21 186 15:19 17.03.2020
1212 Clear 11 1014 76 16093 3.21 186 14:41 17.03.2020
1213 Clear 11 1014 76 16093 3.21 186 14:21 17.03.2020
1214 Clear 11 1013 71 16093 2.36 195 13:44 17.03.2020
1215 Clear 11 1013 71 16093 2.02 199 13:26 17.03.2020
1216 Clear 11 1013 66 16093 2.02 199 12:58 17.03.2020
1217 Clear 11 1013 66 16093 1.62 208 12:39 17.03.2020
1218 Clear 11 1014 57 16093 2.02 199 12:21 17.03.2020
1219 Clear 11 1013 62 16093 1.62 208 11:45 17.03.2020
1220 Clear 11 1013 62 16093 2.02 199 11:27 17.03.2020
1221 Clear 11 1013 62 16093 2.02 199 11:27 17.03.2020
1222 Clear 12 1014 46 16093 2.12 187 10:58 17.03.2020
1223 Clear 12 1014 58 16093 2.12 187 10:37 17.03.2020
1224 Clear 12 1014 58 16093 2.16 181 10:19 17.03.2020
1225 Clear 12 1014 58 16093 2.12 187 09:55 17.03.2020
1226 Clear 12 1014 54 16093 2.12 187 09:36 17.03.2020
1227 Clear 12 1014 50 16093 2.1 140 09:18 17.03.2020
1228 Clear 13 1014 54 16093 2.12 187 08:42 17.03.2020
1229 Clear 13 1014 54 16093 2.16 181 08:21 17.03.2020
1230 Clear 14 1014 44 16093 3.29 210 07:49 17.03.2020
1231 Clear 14 1015 41 16093 3.29 210 07:24 17.03.2020
1232 Clear 14 1015 38 16093 3.29 210 06:53 17.03.2020
1233 Clear 15 1015 36 16093 2.1 170 06:27 17.03.2020
1234 Clear 16 1014 38 16093 1.5 90 05:38 17.03.2020
1235 Clear 20 1013 33 16093 4.15 225 03:36 17.03.2020
1236 Clear 22 1012 20 16093 2.1 310 02:38 17.03.2020
1237 Clear 24 1012 14 16093 4.6 260 01:41 17.03.2020
1238 Clear 24 1013 11 16093 6.7 270 01:18 17.03.2020
1239 Clear 26 1013 9 16093 5.1 250 00:19 17.03.2020
1240 Clear 26 1012 10 16093 5.1 250 23:43 16.03.2020
1241 Clear 26 1013 9 16093 6.2 200 23:22 16.03.2020
1242 Clear 25 1014 9 16093 3.6 200 22:38 16.03.2020
1243 Clear 25 1014 9 16093 3.6 200 22:20 16.03.2020
1244 Clear 24 1014 14 16093 4.1 220 21:45 16.03.2020
1245 Clear 24 1014 14 16093 4.1 220 21:27 16.03.2020
1246 Clear 24 1015 13 16093 3.6 230 20:59 16.03.2020
1247 Clear 23 1015 12 16093 1.5 190 20:40 16.03.2020
1248 Clear 23 1015 12 16093 1.5 190 20:21 16.03.2020
1249 Clear 22 1016 28 16093 2.1 200 19:46 16.03.2020
1250 Clear 22 1016 28 16093 2.1 200 19:25 16.03.2020
1251 Clear 21 1017 32 16093 2.63 203 18:59 16.03.2020
1252 Clear 20 1017 34 16093 2.63 203 18:39 16.03.2020
1253 Clear 19 1018 32 16093 2.63 203 18:20 16.03.2020
1254 Clear 18 1018 38 16093 1.5 160 17:46 16.03.2020
1255 Clear 17 1018 44 16093 4.1 100 17:25 16.03.2020
1256 Clear 15 1018 47 16093 4.1 110 16:57 16.03.2020
1257 Clear 14 1017 54 16093 6.2 100 16:39 16.03.2020
1258 Clear 14 1017 54 16093 6.2 100 16:39 16.03.2020
1259 Clear 13 1017 54 16093 6.2 100 16:20 16.03.2020
1260 Clear 10 1017 66 16093 3.6 110 15:43 16.03.2020
1261 Clear 9 1017 66 16093 3.6 110 15:23 16.03.2020
1262 Clear 8 1018 65 16093 3.6 160 14:47 16.03.2020
1263 Clear 8 1018 65 16093 3.6 160 14:20 16.03.2020
1264 Clear 8 1017 71 16093 0.76 109 13:48 16.03.2020
1265 Clear 9 1017 71 16093 0.76 109 13:28 16.03.2020
1266 Clear 9 1017 66 16093 3.6 120 12:57 16.03.2020
1267 Clear 9 1016 71 16093 2.6 110 12:38 16.03.2020
1268 Clear 9 1016 71 16093 2.6 110 12:20 16.03.2020
1269 Clear 9 1017 81 16093 2.1 120 11:43 16.03.2020
1270 Clear 10 1017 81 16093 2.1 120 11:23 16.03.2020
1271 Clear 10 1017 76 16093 1.5 110 10:44 16.03.2020
1272 Clear 10 1017 76 16093 1.5 110 10:24 16.03.2020
1273 Clear 11 1018 76 16093 1.5 230 09:49 16.03.2020
1274 Clear 11 1018 71 16093 2.1 210 09:30 16.03.2020
1275 Clear 11 1018 66 16093 0.58 309 08:59 16.03.2020
1276 Clear 11 1018 71 16093 0.58 309 08:39 16.03.2020
1277 Clear 12 1018 71 16093 1.7 230 08:20 16.03.2020
1278 Clear 13 1018 58 16093 1.7 230 07:41 16.03.2020
1279 Clear 13 1019 50 16093 2.1 290 07:18 16.03.2020
1280 Clear 15 1018 51 16093 1.7 230 06:28 16.03.2020
1281 Clear 15 1018 47 16093 1.7 230 05:59 16.03.2020
1282 Clear 17 1018 31 16093 2.1 250 04:21 16.03.2020
1283 Clear 23 1016 17 16093 2.6 300 01:46 16.03.2020
1284 Clear 24 1016 17 16093 5.95 228 00:44 16.03.2020
1285 Clear 24 1016 17 16093 5.95 228 00:25 16.03.2020
1286 Clear 24 1016 18 16093 5.95 228 23:39 15.03.2020
1287 Clear 24 1016 17 16093 4.6 270 23:18 15.03.2020
1288 Clear 23 1017 20 16093 2.6 270 22:41 15.03.2020
1289 Clear 23 1017 20 16093 2.6 270 22:20 15.03.2020
1290 Clear 23 1018 23 16093 2.1 290 21:39 15.03.2020
1291 Clear 23 1018 18 16093 2.1 220 21:21 15.03.2020
1292 Clear 22 1018 19 16093 1.5 170 20:55 15.03.2020
1293 Clear 22 1019 19 16093 2.1 190 20:36 15.03.2020
1294 Clear 20 1020 26 16093 3.06 203 20:18 15.03.2020
1295 Clear 21 1019 29 16093 3.06 203 19:42 15.03.2020
1296 Clear 20 1019 29 16093 3.06 203 19:24 15.03.2020
1297 Clear 19 1020 36 16093 3.06 203 18:59 15.03.2020
1298 Clear 19 1019 42 16093 2.1 150 18:40 15.03.2020
1299 Clear 18 1020 48 16093 3.06 203 18:22 15.03.2020
1300 Clear 17 1019 44 16093 3.1 120 17:57 15.03.2020
1301 Clear 16 1019 51 16093 3.6 120 17:38 15.03.2020
1302 Clouds 15 1019 54 16093 1.5 100 17:18 15.03.2020
1303 Clear 14 1019 66 16093 3.1 110 16:43 15.03.2020
1304 Clear 12 1019 66 16093 3.1 110 16:25 15.03.2020
1305 Clear 10 1018 76 16093 1.5 130 15:58 15.03.2020
1306 Clear 9 1018 76 16093 1.5 170 15:40 15.03.2020
1307 Clear 9 1018 76 16093 1.5 170 15:19 15.03.2020
1308 Clear 9 1018 76 16093 2.6 110 14:46 15.03.2020
1309 Clear 9 1018 76 16093 2.6 110 14:24 15.03.2020
1310 Clear 9 1019 93 16093 0.28 176 13:58 15.03.2020
1311 Clear 9 1019 93 16093 0.28 176 13:38 15.03.2020
1312 Clear 9 1019 93 16093 0.28 176 13:38 15.03.2020
1313 Clear 9 1018 66 16093 3.1 130 13:20 15.03.2020
1314 Clear 9 1018 76 16093 0.52 181 12:44 15.03.2020
1315 Clear 9 1018 76 16093 0.52 181 12:25 15.03.2020
1316 Clear 10 1018 76 16093 0.52 181 11:56 15.03.2020
1317 Clear 10 1018 81 16093 1.5 120 11:38 15.03.2020
1318 Clear 10 1018 70 16093 4.1 120 11:20 15.03.2020
1319 Clear 10 1018 76 16093 2.6 90 10:55 15.03.2020
1320 Clear 11 1018 76 16093 0.51 188 10:36 15.03.2020
1321 Clear 11 1018 76 16093 0.51 188 10:18 15.03.2020
1322 Clear 11 1018 76 16093 0.51 188 09:39 15.03.2020
1323 Clear 11 1019 71 16093 3.1 110 09:20 15.03.2020
1324 Clear 11 1019 71 16093 0.51 188 08:42 15.03.2020
1325 Clear 12 1019 71 16093 0.84 282 08:20 15.03.2020
1326 Clear 12 1019 66 16093 1.35 255 07:50 15.03.2020
1327 Clear 13 1019 76 16093 2.1 220 07:23 15.03.2020
1328 Clear 13 1019 71 16093 2.1 220 06:44 15.03.2020
1329 Clear 14 1019 51 16093 1.35 255 05:49 15.03.2020
1330 Clear 15 1019 55 16093 1.5 10 04:58 15.03.2020
1331 Clear 16 1019 55 16093 1.5 10 04:40 15.03.2020
1332 Clear 16 1019 55 16093 1.5 10 04:20 15.03.2020
1333 Clear 17 1018 48 16093 2.6 330 03:25 15.03.2020
1334 Clear 19 1018 34 16093 4.1 310 02:36 15.03.2020
1335 Clear 22 1018 26 16093 3.1 340 01:19 15.03.2020
1336 Clouds 22 1017 24 16093 5.34 233 00:42 15.03.2020
1337 Clear 22 1017 24 16093 3.6 290 00:19 15.03.2020
1338 Clear 22 1017 24 16093 2.6 200 23:41 14.03.2020
1339 Clear 22 1018 24 16093 2.6 200 23:20 14.03.2020
1340 Clear 22 1018 26 16093 1.5 180 22:56 14.03.2020
1341 Clear 21 1018 28 16093 2.95 222 22:38 14.03.2020
1342 Clear 21 1018 28 16093 2.95 222 22:20 14.03.2020
1343 Clear 21 1018 30 16093 3.1 270 21:56 14.03.2020
1344 Clear 21 1018 32 16093 2.1 250 21:36 14.03.2020
1345 Clear 21 1019 34 16093 2.1 60 21:18 14.03.2020
1346 Clear 20 1019 34 16093 2.1 230 20:58 14.03.2020
1347 Clear 20 1019 37 16093 3.1 90 20:39 14.03.2020
1348 Clear 19 1019 37 16093 3.1 90 20:18 14.03.2020
1349 Clear 19 1019 51 16093 1.98 159 19:42 14.03.2020
1350 Clear 18 1019 51 16093 1.98 159 19:24 14.03.2020
1351 Clear 17 1020 58 16093 1.5 270 18:41 14.03.2020
1352 Clear 17 1020 51 16093 1.5 50 18:21 14.03.2020
1353 Clear 16 1020 66 16093 1.98 159 17:43 14.03.2020
1354 Clear 15 1020 66 16093 1.98 159 17:24 14.03.2020
1355 Clear 14 1020 66 16093 2.4 110 16:59 14.03.2020
1356 Clear 13 1021 81 16093 2.4 110 16:39 14.03.2020
1357 Clear 12 1019 81 16093 2.6 120 16:20 14.03.2020
1358 Clear 10 1019 93 16093 2.4 110 15:48 14.03.2020
1359 Clear 9 1019 93 16093 2.4 110 15:25 14.03.2020
1360 Clear 7 1019 100 16093 2.4 110 14:44 14.03.2020
1361 Clear 8 1019 100 16093 2.4 110 14:22 14.03.2020
1362 Clouds 8 1018 93 16093 0.9 126 13:57 14.03.2020
1363 Clear 8 1018 100 16093 0.9 126 13:39 14.03.2020
1364 Clouds 8 1018 87 16093 3.1 120 13:20 14.03.2020
1365 Clear 8 1018 100 16093 0.64 156 12:44 14.03.2020
1366 Rain 8 1018 100 16093 0.64 156 12:26 14.03.2020
1367 Rain 8 1018 87 16093 0.64 156 12:26 14.03.2020
1368 Rain 8 1018 93 16093 0.64 156 11:47 14.03.2020
1369 Clouds 8 1018 87 16093 2.6 70 11:27 14.03.2020
1370 Clear 9 1018 93 16093 1.22 206 10:59 14.03.2020
1371 Clear 9 1018 93 16093 1.22 206 10:40 14.03.2020
1372 Clear 9 1018 93 16093 1.22 206 10:22 14.03.2020
1373 Clouds 9 1018 87 16093 1.22 206 09:43 14.03.2020
1374 Clouds 9 1018 87 16093 1.22 206 09:24 14.03.2020
1375 Clouds 9 1018 93 16093 1.22 206 08:47 14.03.2020
1376 Clouds 10 1018 93 16093 1.76 195 08:28 14.03.2020
1377 Clouds 10 1018 87 16093 2.99 206 07:55 14.03.2020
1378 Clear 10 1018 87 16093 2.6 80 07:37 14.03.2020
1379 Clouds 10 1018 87 16093 2.99 206 07:18 14.03.2020
1380 Clear 10 1018 81 16093 2.99 206 06:40 14.03.2020
1381 Clear 11 1017 76 16093 1.5 110 05:19 14.03.2020
1382 Clear 13 1015 67 16093 3.9 227 03:43 14.03.2020
1383 Clear 13 1015 67 16093 3.9 227 03:23 14.03.2020
1384 Clouds 14 1015 62 16093 2.6 30 02:22 14.03.2020
1385 Clouds 17 1013 51 16093 6.2 340 00:44 14.03.2020
1386 Clouds 16 1013 45 16093 6.7 180 23:45 13.03.2020
1387 Clouds 16 1013 45 16093 6.7 180 23:27 13.03.2020
1388 Clouds 18 1014 48 16093 6.7 300 22:49 13.03.2020
1389 Clouds 17 1014 48 16093 6.7 300 22:26 13.03.2020
1390 Clouds 17 1014 42 16093 1.5 210 21:44 13.03.2020
1391 Clouds 18 1014 42 16093 1.5 210 21:21 13.03.2020
1392 Clouds 17 1014 42 16093 7.02 224 20:58 13.03.2020
1393 Clouds 17 1014 39 16093 6.2 220 20:39 13.03.2020
1394 Clouds 17 1014 39 16093 6.2 220 20:39 13.03.2020
1395 Clouds 17 1015 48 16093 5.7 190 20:20 13.03.2020
1396 Clear 17 1016 42 16093 3.1 190 19:47 13.03.2020
1397 Clouds 16 1015 39 16093 3.6 190 19:28 13.03.2020
1398 Clear 15 1015 48 16093 4.1 200 18:47 13.03.2020
1399 Clear 15 1015 48 16093 4.1 200 18:29 13.03.2020
1400 Rain 15 1015 48 16093 4.1 190 17:57 13.03.2020
1401 Rain 14 1015 58 16093 3.6 190 17:38 13.03.2020
1402 Rain 14 1015 76 16093 5.84 201 17:19 13.03.2020
1403 Rain 12 1015 81 16093 1.5 230 16:42 13.03.2020
1404 Rain 12 1014 76 16093 3.1 180 16:24 13.03.2020
1405 Clouds 11 1014 87 16093 3.6 180 15:56 13.03.2020
1406 Clouds 11 1014 87 16093 3.6 180 15:37 13.03.2020
1407 Rain 11 1013 93 16093 1.5 190 15:19 13.03.2020
1408 Rain 11 1013 87 16093 1.5 110 14:41 13.03.2020
1409 Clear 11 1012 100 16093 5.84 201 14:22 13.03.2020
1410 Clear 11 1012 100 16093 4.52 210 14:22 13.03.2020
1411 Clouds 11 1012 87 16093 4.52 210 13:56 13.03.2020
1412 Clouds 11 1012 100 16093 4.52 210 13:38 13.03.2020
1413 Clouds 11 1013 76 16093 2.6 230 13:19 13.03.2020
1414 Rain 11 1012 87 16093 3.1 200 12:40 13.03.2020
1415 Rain 12 1012 87 16093 3.1 200 12:22 13.03.2020
1416 Rain 12 1012 93 16093 1.5 190 11:57 13.03.2020
1417 Drizzle 12 1012 87 16093 1.5 250 11:39 13.03.2020
1418 Drizzle 12 1012 87 16093 1.5 250 11:21 13.03.2020
1419 Rain 12 1012 82 16093 4.6 230 10:47 13.03.2020
1420 Rain 13 1011 71 16093 4.6 250 10:27 13.03.2020
1421 Rain 14 1011 59 16093 7.7 170 09:57 13.03.2020
1422 Rain 14 1010 59 16093 8.2 180 09:38 13.03.2020
1423 Rain 14 1010 59 16093 8.2 180 09:20 13.03.2020
1424 Clear 15 1009 55 16093 8.7 190 08:44 13.03.2020
1425 Clear 15 1009 55 16093 8.7 190 08:22 13.03.2020
1426 Clear 16 1009 55 16093 9.8 170 07:47 13.03.2020
1427 Clear 16 1009 55 16093 9.8 170 07:28 13.03.2020
1428 Clear 16 1008 59 16093 10.3 160 06:47 13.03.2020
1429 Clear 16 1008 59 16093 10.3 160 06:26 13.03.2020
1430 Rain 16 1008 77 16093 8.2 140 05:49 13.03.2020
1431 Rain 15 1009 87 16093 4.6 70 05:20 13.03.2020
1432 Rain 15 1009 87 16093 7.2 60 04:37 13.03.2020
1433 Rain 16 1011 77 16093 2.75 134 02:58 13.03.2020
1434 Clear 18 1008 63 16093 2.88 193 01:43 13.03.2020
1435 Clouds 18 1009 59 16093 3.01 150 01:18 13.03.2020
1436 Clouds 18 1009 59 16093 2.1 80 00:46 13.03.2020
1437 Clouds 18 1011 63 16093 4.6 310 00:20 13.03.2020
1438 Clear 18 1012 63 16093 3.6 300 23:46 12.03.2020
1439 Clouds 19 1011 59 16093 2.6 250 23:26 12.03.2020
1440 Clouds 19 1012 63 16093 2.6 220 22:55 12.03.2020
1441 Drizzle 19 1012 68 16093 2.1 350 22:37 12.03.2020
1442 Drizzle 19 1012 68 16093 2.1 350 22:37 12.03.2020
1443 Clouds 19 1012 63 16093 4.6 210 22:18 12.03.2020
1444 Clouds 19 1011 56 16093 6.2 140 21:42 12.03.2020
1445 Clouds 19 1011 56 16093 6.2 140 21:24 12.03.2020
1446 Clouds 19 1013 77 16093 3.6 120 20:55 12.03.2020
1447 Clouds 19 1011 56 16093 9.3 130 20:36 12.03.2020
1448 Clouds 19 1013 77 16093 3.6 120 20:18 12.03.2020
1449 Clouds 18 1015 82 16093 2.1 130 19:39 12.03.2020
1450 Clouds 18 1015 82 16093 2.1 130 19:19 12.03.2020
1451 Rain 17 1014 63 16093 5.7 180 18:42 12.03.2020
1452 Rain 17 1014 63 16093 5.7 180 18:23 12.03.2020
1453 Rain 16 1016 72 16093 2.58 116 17:56 12.03.2020
1454 Drizzle 16 1015 82 16093 2.58 116 17:37 12.03.2020
1455 Drizzle 16 1015 82 16093 4.44 209 17:18 12.03.2020
1456 Clouds 16 1013 93 16093 2.1 90 16:43 12.03.2020
1457 Clouds 16 1013 93 16093 2.1 90 16:23 12.03.2020
1458 Clouds 16 1013 93 16093 4.44 209 15:59 12.03.2020
1459 Clouds 16 1013 93 16093 4.44 209 15:39 12.03.2020
1460 Clouds 15 1013 93 16093 4.44 209 15:21 12.03.2020
1461 Clouds 15 1014 87 16093 4.44 209 14:38 12.03.2020
1462 Clouds 15 1014 87 16093 2.23 201 14:19 12.03.2020
1463 Clouds 15 1013 93 16093 1.5 250 13:40 12.03.2020
1464 Clouds 15 1013 93 16093 1.5 250 13:21 12.03.2020
1465 Clouds 15 1013 93 16093 1.5 250 13:21 12.03.2020
1466 Clouds 16 1013 93 16093 5.5 213 12:55 12.03.2020
1467 Clouds 16 1014 93 16093 5.5 213 12:37 12.03.2020
1468 Clouds 16 1014 82 16093 3.1 70 12:18 12.03.2020
1469 Clouds 16 1014 93 16093 5.5 213 11:56 12.03.2020
1470 Clouds 16 1014 93 16093 1.5 80 11:37 12.03.2020
1471 Clouds 16 1015 87 16093 1.5 130 11:18 12.03.2020
1472 Clouds 16 1015 100 16093 1.36 215 10:43 12.03.2020
1473 Clouds 16 1015 100 16093 1.36 215 10:43 12.03.2020
1474 Clouds 17 1015 100 16093 1.36 215 10:24 12.03.2020
1475 Clouds 17 1016 82 16093 1.36 215 09:59 12.03.2020
1476 Clouds 17 1015 93 16093 1.5 140 09:40 12.03.2020
1477 Clouds 17 1015 93 16093 1.5 140 09:22 12.03.2020
1478 Clouds 17 1015 100 16093 1.36 215 08:39 12.03.2020
1479 Clouds 17 1015 100 16093 1.36 242 08:19 12.03.2020
1480 Clear 17 1016 88 16093 1.36 242 07:48 12.03.2020
1481 Clouds 17 1016 88 16093 1.36 242 07:22 12.03.2020
1482 Clouds 17 1017 82 16093 1.36 242 06:26 12.03.2020
1483 Clouds 18 1016 88 16093 1.36 242 05:35 12.03.2020
1484 Clouds 18 1016 72 16093 2.6 270 03:45 12.03.2020
1485 Rain 20 1016 60 16093 2.6 310 02:19 12.03.2020
1486 Clouds 22 1015 64 16093 4.1 330 01:24 12.03.2020
1487 Clouds 22 1015 46 16093 3.6 300 00:42 12.03.2020
1488 Clouds 22 1015 49 16093 4.1 330 23:59 11.03.2020
1489 Clouds 22 1015 49 16093 4.1 330 23:37 11.03.2020
1490 Clouds 22 1016 46 16093 5.1 190 23:18 11.03.2020
1491 Clouds 23 1015 49 16093 4.6 300 22:41 11.03.2020
1492 Clouds 23 1015 49 16093 4.6 300 22:23 11.03.2020
1493 Clouds 23 1016 56 16093 4.1 310 21:58 11.03.2020
1494 Clouds 23 1017 46 16093 4.1 300 21:39 11.03.2020
1495 Clouds 23 1017 46 16093 4.1 300 21:21 11.03.2020
1496 Clouds 23 1017 41 16093 2.6 230 20:57 11.03.2020
1497 Clouds 23 1017 43 16093 2.6 210 20:37 11.03.2020
1498 Clouds 22 1017 43 16093 2.6 210 20:19 11.03.2020
1499 Clouds 21 1019 49 16093 2.1 100 19:42 11.03.2020
1500 Clouds 21 1018 49 16093 1.5 190 19:24 11.03.2020
1501 Clear 21 1019 53 16093 3.38 213 18:57 11.03.2020
1502 Clouds 21 1019 56 16093 3.1 100 18:38 11.03.2020
1503 Clouds 20 1020 64 16093 2.6 50 18:18 11.03.2020
1504 Clouds 19 1019 68 16093 2.6 130 17:55 11.03.2020
1505 Clouds 19 1019 68 16093 2.6 130 17:37 11.03.2020
1506 Clouds 18 1020 77 16093 2.43 174 17:18 11.03.2020
1507 Clouds 17 1019 93 16093 2.43 174 16:43 11.03.2020
1508 Clouds 16 1019 93 16093 2.43 174 16:19 11.03.2020
1509 Clouds 16 1019 100 16093 2.43 174 15:43 11.03.2020
1510 Clouds 15 1019 100 16093 2.43 174 15:23 11.03.2020
1511 Clouds 15 1019 87 16093 1.5 300 14:54 11.03.2020
1512 Clouds 15 1019 87 16093 2.43 174 14:36 11.03.2020
1513 Clouds 15 1019 87 16093 1.66 144 14:18 11.03.2020
1514 Clouds 15 1019 87 16093 3.6 120 13:41 11.03.2020
1515 Clouds 15 1019 87 16093 3.6 120 13:22 11.03.2020
1516 Clouds 15 1019 87 16093 2.6 110 12:56 11.03.2020
1517 Clouds 15 1019 93 16093 3.1 120 12:38 11.03.2020
1518 Rain 15 1020 87 16093 2.1 40 12:19 11.03.2020
1519 Rain 15 1020 93 16093 2.1 50 11:41 11.03.2020
1520 Rain 15 1021 93 16093 2.08 221 11:20 11.03.2020
1521 Clouds 15 1022 87 16093 2.08 221 10:47 11.03.2020
1522 Clouds 15 1022 87 16093 2.08 221 10:21 11.03.2020
1523 Rain 15 1021 93 16093 1.5 230 09:59 11.03.2020
1524 Rain 15 1021 93 16093 1.5 160 09:40 11.03.2020
1525 Rain 15 1021 93 16093 1.5 160 09:21 11.03.2020
1526 Rain 15 1022 93 16093 1.5 50 08:42 11.03.2020
1527 Rain 15 1021 93 16093 3.49 89 08:23 11.03.2020
1528 Rain 15 1022 93 16093 2.1 290 07:47 11.03.2020
1529 Rain 15 1023 87 16093 2.1 350 07:20 11.03.2020
1530 Rain 15 1023 82 16093 3.1 340 06:49 11.03.2020
1531 Rain 15 1022 93 8047 2.6 10 06:30 11.03.2020
1532 Rain 15 1022 87 16093 1.5 40 05:32 11.03.2020
1533 Clouds 20 1019 37 16093 6.91 245 02:45 11.03.2020
1534 Clouds 21 1019 35 16093 1.91 258 01:52 11.03.2020
1535 Clouds 22 1019 35 16093 1.5 320 01:23 11.03.2020
1536 Clouds 22 1019 31 16093 1.5 260 00:32 11.03.2020
1537 Clouds 23 1019 33 16093 1.45 291 23:49 10.03.2020
1538 Clouds 23 1019 33 16093 1.45 291 23:26 10.03.2020
1539 Clouds 22 1020 38 16093 1.5 130 22:55 10.03.2020
1540 Clouds 22 1020 35 16093 2.1 140 22:37 10.03.2020
1541 Clouds 22 1020 35 16093 2.1 140 22:18 10.03.2020
1542 Clouds 22 1021 38 16093 2.1 30 21:55 10.03.2020
1543 Clouds 22 1021 38 16093 2.1 30 21:37 10.03.2020
1544 Clouds 22 1022 38 16093 0.66 212 21:18 10.03.2020
1545 Clouds 22 1021 33 16093 2.1 190 20:42 10.03.2020
1546 Clouds 21 1021 33 16093 2.1 190 20:19 10.03.2020
1547 Clouds 21 1022 33 16093 1.5 120 19:58 10.03.2020
1548 Clouds 22 1022 35 16093 0.91 118 19:40 10.03.2020
1549 Clouds 21 1023 40 16093 1.5 120 19:21 10.03.2020
1550 Clouds 21 1022 35 16093 0.91 118 18:54 10.03.2020
1551 Clouds 21 1022 35 16093 1.5 230 18:36 10.03.2020
1552 Clouds 20 1023 43 16093 3.1 90 18:18 10.03.2020
1553 Clouds 19 1022 37 16093 4.1 120 17:41 10.03.2020
1554 Clouds 18 1023 48 16093 2.6 60 17:22 10.03.2020
1555 Clouds 18 1021 42 16093 4.6 120 16:40 10.03.2020
1556 Clouds 18 1021 42 16093 4.6 120 16:40 10.03.2020
1557 Clouds 17 1021 42 16093 4.6 120 16:20 10.03.2020
1558 Clouds 16 1021 45 16093 3.6 140 15:58 10.03.2020
1559 Clouds 16 1021 45 16093 4.6 130 15:40 10.03.2020
1560 Clouds 15 1022 59 16093 3.6 100 15:19 10.03.2020
1561 Clouds 15 1021 48 16093 1.17 164 14:57 10.03.2020
1562 Clouds 15 1021 47 16093 1.17 164 14:39 10.03.2020
1563 Clouds 14 1021 47 16093 2.01 163 14:18 10.03.2020
1564 Clouds 14 1020 41 16093 2.01 163 13:42 10.03.2020
1565 Clouds 14 1020 41 16093 2.01 163 13:42 10.03.2020
1566 Clouds 14 1020 41 16093 3.3 96 13:24 10.03.2020
1567 Clear 14 1020 41 16093 4.1 110 12:42 10.03.2020
1568 Clear 14 1020 41 16093 4.1 110 12:21 10.03.2020
1569 Clear 14 1020 41 16093 4.1 110 12:21 10.03.2020
1570 Clear 14 1020 44 16093 4.1 100 11:59 10.03.2020
1571 Clouds 14 1020 41 16093 4.6 120 11:41 10.03.2020
1572 Clouds 13 1020 41 16093 4.6 120 11:23 10.03.2020
1573 Clouds 14 1020 44 16093 4.6 110 10:54 10.03.2020
1574 Clouds 13 1021 50 16093 3.1 110 10:36 10.03.2020
1575 Clouds 13 1021 50 16093 3.1 110 10:18 10.03.2020
1576 Clear 13 1021 50 16093 2.6 110 09:43 10.03.2020
1577 Clear 13 1021 50 16093 2.6 110 09:19 10.03.2020
1578 Clear 14 1021 50 16093 1.5 130 08:53 10.03.2020
1579 Clear 14 1021 47 16093 3.73 163 08:33 10.03.2020
1580 Clear 15 1021 44 16093 3.89 237 07:53 10.03.2020
1581 Clear 15 1021 44 16093 3.89 237 07:34 10.03.2020
1582 Clear 15 1022 44 16093 3.89 237 06:50 10.03.2020
1583 Clear 16 1021 36 16093 3.89 237 06:31 10.03.2020
1584 Clear 17 1021 29 16093 1.5 360 05:42 10.03.2020
1585 Clear 19 1021 29 16093 3.1 290 04:53 10.03.2020
1586 Clear 19 1020 28 16093 2.6 250 04:24 10.03.2020
1587 Clear 21 1018 35 16093 1.5 260 02:44 10.03.2020
1588 Clear 23 1018 18 16093 4.6 280 01:30 10.03.2020
1589 Clear 23 1017 19 16093 1.5 140 00:47 10.03.2020
1590 Clear 23 1017 19 16093 1.5 140 00:27 10.03.2020
1591 Clear 24 1018 18 16093 1.5 240 23:41 09.03.2020
1592 Clear 23 1018 22 16093 6.08 216 23:22 09.03.2020
1593 Clear 23 1018 17 16093 4.6 190 22:55 09.03.2020
1594 Clear 23 1018 17 16093 4.6 190 22:36 09.03.2020
1595 Clear 22 1019 25 16093 3.6 240 22:18 09.03.2020
1596 Clear 22 1019 20 16093 2.1 160 21:41 09.03.2020
1597 Clear 22 1019 20 16093 2.1 160 21:21 09.03.2020
1598 Clear 21 1019 24 16093 5.1 120 20:58 09.03.2020
1599 Clear 21 1019 24 16093 5.1 120 20:58 09.03.2020
1600 Clear 21 1019 26 16093 3.1 120 20:39 09.03.2020
1601 Clear 20 1021 32 16093 2.6 70 20:20 09.03.2020
1602 Clear 20 1021 28 16093 6.2 140 19:45 09.03.2020
1603 Clear 20 1021 28 16093 6.2 140 19:45 09.03.2020
1604 Clear 20 1021 28 16093 6.2 140 19:25 09.03.2020
1605 Clear 20 1021 28 16093 6.2 140 19:25 09.03.2020
1606 Clear 18 1021 32 16093 3.6 160 18:58 09.03.2020
1607 Clear 18 1021 32 16093 3.6 160 18:58 09.03.2020
1608 Clear 18 1021 32 16093 3.6 160 18:58 09.03.2020
1609 Clear 18 1021 45 16093 1.5 170 18:38 09.03.2020
1610 Clear 17 1022 48 16093 2.6 90 18:20 09.03.2020
1611 Clear 17 1021 51 16093 2.6 210 17:58 09.03.2020
1612 Clear 16 1021 54 16093 2.6 120 17:38 09.03.2020
1613 Clear 14 1021 62 16093 5.1 110 17:20 09.03.2020
1614 Clear 13 1021 58 16093 3.1 100 16:58 09.03.2020
1615 Clear 13 1022 66 16093 1.5 120 16:39 09.03.2020
1616 Clear 11 1021 71 16093 3.1 100 16:21 09.03.2020
1617 Clear 10 1020 76 16093 5.1 120 15:58 09.03.2020
1618 Clear 10 1020 76 16093 5.1 120 15:58 09.03.2020
1619 Clear 10 1020 76 16093 5.1 120 15:38 09.03.2020
1620 Clear 8 1021 81 16093 4.6 140 15:20 09.03.2020
1621 Clear 7 1020 76 16093 3.1 110 14:55 09.03.2020
1622 Clear 7 1020 76 16093 3.1 110 14:36 09.03.2020
1623 Clear 7 1020 87 16093 2.6 130 14:18 09.03.2020
1624 Clear 8 1020 81 16093 3.1 100 13:54 09.03.2020
1625 Clear 8 1020 81 16093 2.6 110 13:36 09.03.2020
1626 Clear 8 1020 81 16093 2.6 110 13:18 09.03.2020
1627 Clear 8 1020 81 16093 2.6 110 13:18 09.03.2020
1628 Clear 8 1019 87 16093 2.1 100 12:41 09.03.2020
1629 Clear 8 1020 87 16093 1.5 150 12:21 09.03.2020
1630 Clear 8 1019 81 16093 1.28 158 11:41 09.03.2020
1631 Clear 9 1020 87 16093 2.6 100 11:21 09.03.2020
1632 Clear 9 1019 76 16093 2.01 181 10:58 09.03.2020
1633 Clear 10 1019 76 16093 2.01 181 10:40 09.03.2020
1634 Clouds 10 1020 81 16093 2.6 100 10:20 09.03.2020
1635 Clear 10 1019 71 16093 2.1 190 09:44 09.03.2020
1636 Clouds 10 1020 81 16093 3.1 130 09:24 09.03.2020
1637 Clouds 11 1019 62 16093 2.1 160 08:59 09.03.2020
1638 Clouds 11 1019 62 16093 2.1 160 08:39 09.03.2020
1639 Clouds 11 1020 81 16093 3.1 80 08:21 09.03.2020
1640 Clouds 11 1019 62 16093 1.5 170 07:39 09.03.2020
1641 Clear 12 1019 81 16093 2.6 70 07:21 09.03.2020
1642 Clear 12 1018 62 16093 2.1 120 06:43 09.03.2020
1643 Clear 12 1019 81 16093 2.6 100 06:23 09.03.2020
1644 Clear 13 1018 54 16093 4.6 190 05:46 09.03.2020
1645 Clear 13 1018 71 16093 2.6 150 05:18 09.03.2020
1646 Clear 14 1017 47 16093 4.1 190 04:40 09.03.2020
1647 Clear 14 1017 47 16093 4.1 190 04:40 09.03.2020
1648 Clear 14 1017 62 16093 4.1 200 04:21 09.03.2020
1649 Clear 16 1015 36 16093 2.6 230 02:56 09.03.2020
1650 Clouds 18 1015 37 16093 5.1 190 00:46 09.03.2020
1651 Clouds 18 1016 52 16093 1.5 170 00:28 09.03.2020
1652 Rain 17 1014 42 16093 3.1 220 23:59 08.03.2020
1653 Rain 17 1014 42 16093 3.1 220 23:39 08.03.2020
1654 Rain 17 1015 77 16093 2.1 90 23:20 08.03.2020
1655 Rain 16 1015 82 16093 2.6 90 22:42 08.03.2020
1656 Clouds 16 1016 82 16093 2.6 80 22:22 08.03.2020
1657 Drizzle 16 1016 82 16093 2.6 100 21:59 08.03.2020
1658 Drizzle 16 1016 82 16093 2.6 100 21:41 08.03.2020
1659 Rain 15 1016 82 16093 3.1 90 21:23 08.03.2020
1660 Rain 15 1016 82 16093 3.1 100 20:58 08.03.2020
1661 Rain 15 1017 82 16093 3.6 140 20:38 08.03.2020
1662 Rain 14 1017 87 12874 3.1 140 20:20 08.03.2020
1663 Rain 15 1017 87 8047 5.1 160 19:40 08.03.2020
1664 Drizzle 15 1016 67 16093 2.1 40 19:19 08.03.2020
1665 Rain 15 1016 82 16093 2.1 60 18:56 08.03.2020
1666 Rain 14 1016 82 16093 2.1 60 18:38 08.03.2020
1667 Rain 14 1016 82 16093 2.1 40 18:19 08.03.2020
1668 Rain 14 1016 44 16093 1.5 280 17:40 08.03.2020
1669 Rain 14 1016 67 16093 4.1 230 17:22 08.03.2020
1670 Drizzle 14 1015 62 16093 2.6 190 16:58 08.03.2020
1671 Drizzle 14 1015 62 16093 2.6 190 16:40 08.03.2020
1672 Clouds 14 1015 47 16093 3.1 250 16:22 08.03.2020
1673 Clouds 15 1015 44 16093 5.1 180 15:41 08.03.2020
1674 Clouds 15 1015 44 16093 5.1 180 15:22 08.03.2020
1675 Clouds 15 1014 44 16093 2.1 120 14:59 08.03.2020
1676 Clouds 15 1014 38 16093 3.1 160 14:38 08.03.2020
1677 Clouds 15 1014 38 16093 3.1 160 14:19 08.03.2020
1678 Clear 15 1015 44 16093 4.6 230 13:42 08.03.2020
1679 Clear 15 1015 44 16093 4.6 230 13:42 08.03.2020
1680 Clear 15 1013 38 16093 3.6 260 13:21 08.03.2020
1681 Clear 15 1013 38 16093 2.6 190 12:56 08.03.2020
1682 Clear 15 1013 48 16093 4.1 190 12:36 08.03.2020
1683 Clouds 15 1013 38 16093 3.1 160 12:18 08.03.2020
1684 Clear 16 1013 36 16093 2.1 160 11:41 08.03.2020
1685 Clear 16 1014 27 16093 5.7 210 11:21 08.03.2020
1686 Clear 16 1014 27 16093 5.7 210 10:57 08.03.2020
1687 Clear 17 1014 42 16093 4.1 170 10:39 08.03.2020
1688 Clear 17 1014 42 16093 4.1 170 10:20 08.03.2020
1689 Clear 18 1014 42 16093 4.1 190 09:38 08.03.2020
1690 Clear 18 1014 42 16093 4.1 190 09:20 08.03.2020
1691 Clear 18 1014 42 16093 4.1 220 08:43 08.03.2020
1692 Clouds 18 1015 31 16093 3.1 120 08:21 08.03.2020
1693 Clear 18 1014 35 16093 1.5 110 07:46 08.03.2020
1694 Clouds 18 1015 29 16093 3.1 210 07:27 08.03.2020
1695 Clear 19 1014 35 16093 2.1 220 06:43 08.03.2020
1696 Clouds 20 1015 35 16093 4.1 190 06:25 08.03.2020
1697 Clear 20 1014 35 16093 3.1 240 05:43 08.03.2020
1698 Clear 22 1012 32 16093 2.6 230 03:52 08.03.2020
1699 Clear 23 1012 21 16093 3.6 230 02:58 08.03.2020
1700 Clear 25 1011 14 16093 7.2 240 01:38 08.03.2020
1701 Clear 26 1013 16 16093 5.1 230 01:18 08.03.2020
1702 Clear 26 1011 14 16093 5.7 200 00:30 08.03.2020
1703 Clear 27 1013 22 16093 6.2 230 23:57 07.03.2020
1704 Clear 27 1012 13 16093 6.7 230 23:36 07.03.2020
1705 Clear 27 1012 13 16093 6.7 230 23:36 07.03.2020
1706 Clear 27 1013 18 16093 6.7 180 23:18 07.03.2020
1707 Clear 27 1013 21 16093 3.6 200 22:38 07.03.2020
1708 Clear 27 1013 21 16093 3.6 200 22:19 07.03.2020
1709 Clear 26 1013 15 16093 7.7 200 21:44 07.03.2020
1710 Clear 26 1015 22 16093 3.6 190 21:22 07.03.2020
1711 Clear 25 1015 16 16093 4.6 190 20:41 07.03.2020
1712 Clear 25 1016 22 16093 3.6 160 20:21 07.03.2020
1713 Clear 24 1016 24 16093 4.1 190 19:42 07.03.2020
1714 Clear 24 1017 28 16093 5.38 186 19:23 07.03.2020
1715 Clear 23 1016 23 16093 4.6 180 18:59 07.03.2020
1716 Clear 23 1016 23 16093 4.6 180 18:39 07.03.2020
1717 Clear 22 1018 32 16093 1.5 130 18:20 07.03.2020
1718 Clear 21 1017 34 16093 5.38 186 17:42 07.03.2020
1719 Clear 19 1018 37 16093 2.6 80 17:20 07.03.2020
1720 Clear 18 1017 44 16093 2.12 154 16:56 07.03.2020
1721 Clear 17 1017 44 16093 2.12 154 16:38 07.03.2020
1722 Clear 16 1018 47 16093 2.12 154 16:20 07.03.2020
1723 Clear 15 1017 58 16093 2.12 154 15:55 07.03.2020
1724 Clear 14 1017 58 16093 2.12 154 15:36 07.03.2020
1725 Clear 13 1017 61 16093 3.1 100 15:18 07.03.2020
1726 Clear 12 1016 50 16093 2.12 154 14:41 07.03.2020
1727 Clouds 12 1017 57 16093 4.6 120 14:23 07.03.2020
1728 Clear 13 1016 47 16093 2.01 176 13:43 07.03.2020
1729 Clouds 13 1017 54 16093 3.6 90 13:22 07.03.2020
1730 Clear 13 1016 44 16093 1.5 150 12:59 07.03.2020
1731 Clear 13 1016 44 16093 1.5 150 12:38 07.03.2020
1732 Clear 13 1017 47 16093 2.6 100 12:19 07.03.2020
1733 Clear 13 1016 43 16093 3.1 120 11:44 07.03.2020
1734 Clouds 14 1017 44 16093 2.6 100 11:24 07.03.2020
1735 Clear 14 1016 40 16093 4.1 110 10:59 07.03.2020
1736 Clear 14 1016 40 16093 4.1 110 10:38 07.03.2020
1737 Clouds 15 1017 41 16093 1.5 100 10:19 07.03.2020
1738 Clear 15 1016 41 16093 2.1 100 09:41 07.03.2020
1739 Clear 15 1017 41 16093 3.1 100 09:20 07.03.2020
1740 Clear 16 1016 33 16093 1.5 150 08:58 07.03.2020
1741 Clear 16 1016 33 16093 1.5 150 08:40 07.03.2020
1742 Clear 16 1017 36 16093 3.6 130 08:20 07.03.2020
1743 Clear 16 1017 36 16093 3.6 130 08:20 07.03.2020
1744 Clear 16 1016 34 16093 2.1 200 07:47 07.03.2020
1745 Clear 17 1018 33 16093 3.1 170 07:21 07.03.2020
1746 Clear 17 1018 33 16093 3.6 140 06:43 07.03.2020
1747 Clear 18 1018 33 16093 3.6 140 06:25 07.03.2020
1748 Clear 19 1015 21 16093 5.1 150 05:41 07.03.2020
1749 Clouds 22 1015 20 16093 4.1 190 03:57 07.03.2020
1750 Clouds 23 1014 14 16093 2.1 110 02:45 07.03.2020
1751 Clouds 25 1014 13 16093 3.1 90 01:58 07.03.2020
1752 Clear 26 1015 20 16093 3.1 80 01:18 07.03.2020
1753 Clear 26 1016 20 16093 5.1 80 00:24 07.03.2020
1754 Clear 27 1016 20 16093 5.7 130 23:59 06.03.2020
1755 Clear 26 1015 13 16093 3.6 100 23:40 06.03.2020
1756 Clear 26 1016 20 16093 5.1 80 23:22 06.03.2020
1757 Clear 26 1015 13 16093 5.1 130 22:46 06.03.2020
1758 Clear 26 1017 19 16093 3.1 110 22:20 06.03.2020
1759 Clear 26 1016 13 16093 7.2 130 21:47 06.03.2020
1760 Clear 25 1018 20 16093 7.2 90 21:21 06.03.2020
1761 Clear 25 1019 20 16093 7.2 70 20:45 06.03.2020
1762 Clear 24 1020 20 16093 8.7 100 20:23 06.03.2020
1763 Clear 23 1018 14 16093 11.8 120 19:58 06.03.2020
1764 Clear 23 1020 20 16093 10.3 110 19:40 06.03.2020
1765 Clear 23 1020 20 16093 10.3 110 19:21 06.03.2020
1766 Clear 22 1018 16 16093 11.8 130 18:42 06.03.2020
1767 Clear 22 1018 16 16093 11.8 130 18:20 06.03.2020
1768 Clear 22 1018 16 16093 11.3 130 17:57 06.03.2020
1769 Clear 22 1020 26 16093 11.8 100 17:39 06.03.2020
1770 Clear 22 1020 26 16093 11.8 100 17:39 06.03.2020
1771 Clear 19 1020 22 16093 4.1 50 17:20 06.03.2020
1772 Clear 17 1021 21 16093 9.3 120 16:54 06.03.2020
1773 Clear 18 1020 25 16093 7.2 130 16:36 06.03.2020
1774 Clear 17 1020 25 16093 7.2 130 16:18 06.03.2020
1775 Clear 16 1018 26 16093 6.2 100 15:42 06.03.2020
1776 Clear 15 1020 30 16093 3.6 120 15:22 06.03.2020
1777 Clear 15 1018 26 16093 7.07 112 14:41 06.03.2020
1778 Clear 15 1019 25 16093 7.2 140 14:22 06.03.2020
1779 Clear 14 1017 26 16093 2.6 290 13:55 06.03.2020
1780 Clear 15 1017 26 16093 2.6 290 13:37 06.03.2020
1781 Clear 15 1019 30 16093 5.7 120 13:18 06.03.2020
1782 Clear 15 1017 19 16093 3.6 300 12:40 06.03.2020
1783 Clear 15 1019 27 16093 4.1 100 12:21 06.03.2020
1784 Clear 16 1018 20 16093 2.6 40 11:59 06.03.2020
1785 Clear 16 1018 20 16093 2.6 40 11:41 06.03.2020
1786 Clear 16 1020 25 16093 6.7 130 11:20 06.03.2020
1787 Clear 16 1018 16 16093 6.7 120 10:42 06.03.2020
1788 Clear 17 1020 23 16093 2.1 130 10:21 06.03.2020
1789 Clear 17 1018 14 16093 7.2 130 09:59 06.03.2020
1790 Clear 17 1018 14 16093 7.2 130 09:40 06.03.2020
1791 Clear 17 1018 14 16093 7.2 130 09:40 06.03.2020
1792 Clouds 17 1020 23 16093 7.2 120 09:22 06.03.2020
1793 Clear 17 1018 14 16093 9.3 130 08:47 06.03.2020
1794 Clear 17 1020 23 16093 3.6 110 08:28 06.03.2020
1795 Clear 18 1018 14 16093 6.7 120 07:59 06.03.2020
1796 Clear 18 1018 14 16093 6.7 120 07:39 06.03.2020
1797 Clear 18 1020 20 16093 3.1 90 07:20 06.03.2020
1798 Clear 19 1019 14 16093 6.7 120 06:41 06.03.2020
1799 Clear 19 1018 14 16093 6.7 120 05:52 06.03.2020
1800 Clear 19 1020 19 16093 5.1 140 05:31 06.03.2020
1801 Clear 20 1018 15 16093 4.6 130 04:59 06.03.2020
1802 Clear 21 1017 14 16093 4.1 140 03:58 06.03.2020
1803 Clear 25 1016 12 16093 4.1 100 01:42 06.03.2020
1804 Clear 25 1018 9 16093 9.8 120 01:24 06.03.2020
1805 Clear 25 1017 11 16093 5.7 120 00:47 06.03.2020
1806 Clear 26 1018 11 16093 9.8 140 00:20 06.03.2020
1807 Clear 26 1017 11 16093 6.2 120 23:43 05.03.2020
1808 Clear 25 1018 15 16093 8.2 120 23:23 05.03.2020
1809 Clear 26 1018 12 16093 4.6 110 22:41 05.03.2020
1810 Clear 25 1020 17 16093 7.7 100 22:23 05.03.2020
1811 Clear 25 1019 19 16093 9.57 95 21:58 05.03.2020
1812 Clear 25 1019 19 16093 9.57 95 21:39 05.03.2020
1813 Clear 25 1021 15 16093 4.1 110 21:21 05.03.2020
1814 Clear 25 1021 15 16093 4.1 110 21:21 05.03.2020
1815 Clear 24 1021 17 16093 3.1 30 20:59 05.03.2020
1816 Clear 24 1021 17 16093 3.1 30 20:41 05.03.2020
1817 Clear 23 1022 24 16093 1.5 90 20:20 05.03.2020
1818 Clear 23 1022 28 16093 1.5 140 19:58 05.03.2020
1819 Clear 22 1022 28 16093 1.5 140 19:39 05.03.2020
1820 Clear 21 1023 30 16093 2.1 110 19:19 05.03.2020
1821 Clear 20 1024 32 16093 4.1 150 18:57 05.03.2020
1822 Clear 20 1023 42 16093 7.89 94 18:37 05.03.2020
1823 Clear 20 1024 32 16093 4.1 150 18:37 05.03.2020
1824 Clear 19 1024 32 16093 4.1 150 18:18 05.03.2020
1825 Clear 17 1024 41 16093 2.6 140 17:43 05.03.2020
1826 Clear 16 1024 41 16093 2.6 140 17:24 05.03.2020
1827 Clear 14 1023 50 16093 4.1 140 16:59 05.03.2020
1828 Clear 13 1023 50 16093 4.1 140 16:41 05.03.2020
1829 Clear 12 1023 57 16093 2.6 140 16:21 05.03.2020
1830 Clear 9 1023 65 16093 2.6 120 15:45 05.03.2020
1831 Clear 8 1023 75 16093 1.5 130 15:24 05.03.2020
1832 Clear 8 1023 61 16093 3.1 110 14:59 05.03.2020
1833 Clear 8 1023 61 16093 3.1 110 14:41 05.03.2020
1834 Clear 8 1023 66 16093 2.6 160 14:22 05.03.2020
1835 Clear 8 1022 61 16093 4.1 100 13:57 05.03.2020
1836 Clear 8 1022 61 16093 4.1 100 13:38 05.03.2020
1837 Clear 8 1022 66 16093 3.6 160 13:20 05.03.2020
1838 Clear 8 1022 66 16093 3.6 160 13:20 05.03.2020
1839 Clear 8 1022 66 16093 3.1 100 12:42 05.03.2020
1840 Clear 8 1022 70 16093 3.1 140 12:21 05.03.2020
1841 Clear 8 1021 66 16093 1.5 150 11:57 05.03.2020
1842 Clear 8 1022 70 16093 3.1 160 11:38 05.03.2020
1843 Clear 8 1022 70 16093 3.1 160 11:19 05.03.2020
1844 Clear 9 1022 66 16093 1.5 120 10:58 05.03.2020
1845 Clear 9 1022 66 16093 1.5 120 10:40 05.03.2020
1846 Clear 9 1022 66 16093 1.5 120 10:40 05.03.2020
1847 Clear 9 1022 66 16093 2.1 120 10:21 05.03.2020
1848 Clear 9 1022 66 16093 2.1 120 10:21 05.03.2020
1849 Clear 9 1021 66 16093 2.6 120 09:49 05.03.2020
1850 Clear 9 1022 66 16093 1.5 150 09:28 05.03.2020
1851 Clear 10 1021 61 16093 1.5 180 08:59 05.03.2020
1852 Clear 10 1021 61 16093 1.5 180 08:41 05.03.2020
1853 Clear 10 1021 66 16093 2.6 140 08:22 05.03.2020
1854 Clear 11 1021 61 16093 1.42 294 07:42 05.03.2020
1855 Clear 11 1021 61 16093 1.42 294 07:42 05.03.2020
1856 Clear 11 1021 61 16093 3.1 180 07:21 05.03.2020
1857 Clear 12 1021 62 16093 2.1 230 06:44 05.03.2020
1858 Clear 12 1021 62 16093 2.1 230 06:44 05.03.2020
1859 Clear 12 1021 54 16093 1.42 294 06:20 05.03.2020
1860 Clear 13 1020 50 16093 1.42 294 05:36 05.03.2020
1861 Clear 15 1020 41 16093 2.6 320 04:24 05.03.2020
1862 Clear 16 1020 41 16093 2.6 330 03:58 05.03.2020
1863 Clear 18 1019 31 16093 3.1 320 02:41 05.03.2020
1864 Clear 21 1019 26 16093 3.1 290 01:28 05.03.2020
1865 Clear 21 1019 25 16093 2.6 310 00:50 05.03.2020
1866 Clear 21 1019 26 16093 2.6 360 23:57 04.03.2020
1867 Clear 21 1019 26 16093 2.6 360 23:39 04.03.2020
1868 Haze 21 1019 32 9656 2.1 200 23:21 04.03.2020
1869 Clear 21 1019 28 16093 2.6 260 22:56 04.03.2020
1870 Clear 21 1019 28 16093 2.6 260 22:37 04.03.2020
1871 Clear 20 1020 36 16093 1.93 355 22:18 04.03.2020
1872 Clear 20 1020 32 16093 1.93 355 21:42 04.03.2020
1873 Clear 19 1020 42 16093 1.93 355 21:23 04.03.2020
1874 Clear 19 1021 36 16093 1.93 355 21:00 04.03.2020
1875 Clear 18 1021 36 16093 1.93 355 20:40 04.03.2020
1876 Clear 18 1021 44 16093 2.1 300 20:21 04.03.2020
1877 Clear 18 1021 44 16093 2.1 300 20:21 04.03.2020
1878 Clear 17 1021 41 16093 1.1 8 19:56 04.03.2020
1879 Clear 16 1022 44 16093 1.1 8 19:38 04.03.2020
1880 Clear 16 1022 44 16093 1.1 8 19:20 04.03.2020
1881 Clear 15 1021 47 16093 2.1 270 18:42 04.03.2020
1882 Clear 14 1021 58 16093 1.1 8 18:23 04.03.2020
1883 Clear 14 1021 58 16093 1.1 8 18:23 04.03.2020
1884 Clear 14 1021 58 16093 1.5 110 17:59 04.03.2020
1885 Clear 13 1021 58 16093 1.5 110 17:39 04.03.2020
1886 Clear 12 1021 66 16093 2.1 130 17:20 04.03.2020
1887 Clear 11 1021 71 16093 4.6 110 16:55 04.03.2020
1888 Clear 11 1021 71 16093 4.6 110 16:55 04.03.2020
1889 Clear 10 1021 71 16093 4.6 110 16:36 04.03.2020
1890 Clear 9 1020 81 16093 3.1 130 16:18 04.03.2020
1891 Clear 6 1020 81 16093 1.5 80 15:42 04.03.2020
1892 Clear 5 1019 86 16093 1.5 100 15:23 04.03.2020
1893 Clear 5 1019 81 16093 1.5 110 14:57 04.03.2020
1894 Clear 5 1019 81 16093 1.5 110 14:38 04.03.2020
1895 Clear 5 1019 86 16093 3.13 211 14:19 04.03.2020
1896 Clear 5 1018 87 16093 2.1 100 13:57 04.03.2020
1897 Clear 5 1018 87 16093 2.1 100 13:39 04.03.2020
1898 Clear 5 1018 87 16093 2.1 100 13:39 04.03.2020
1899 Clear 6 1018 87 16093 2.1 100 13:20 04.03.2020
1900 Clear 6 1018 81 16093 2.6 110 12:45 04.03.2020
1901 Clear 6 1018 87 16093 1.5 80 12:27 04.03.2020
1902 Clear 6 1017 76 16093 2.6 120 11:59 04.03.2020
1903 Clear 7 1017 76 16093 2.6 120 11:41 04.03.2020
1904 Clear 7 1017 75 16093 2.6 160 11:22 04.03.2020
1905 Clear 7 1017 76 16093 2.1 140 10:57 04.03.2020
1906 Clear 7 1017 76 16093 2.1 140 10:38 04.03.2020
1907 Clear 8 1017 70 16093 3.1 180 10:18 04.03.2020
1908 Clear 8 1017 71 16093 3.1 120 09:42 04.03.2020
1909 Clear 9 1017 70 16093 5.1 170 09:21 04.03.2020
1910 Clear 9 1016 66 16093 2.6 130 08:46 04.03.2020
1911 Clear 9 1017 76 16093 4.6 150 08:26 04.03.2020
1912 Clear 9 1016 66 16093 2.1 130 07:56 04.03.2020
1913 Clear 10 1016 66 16093 2.1 130 07:37 04.03.2020
1914 Clear 10 1017 71 16093 4.6 150 07:18 04.03.2020
1915 Clear 10 1016 66 16093 2.6 170 06:43 04.03.2020
1916 Clear 10 1016 71 16093 4.6 150 06:23 04.03.2020
1917 Clear 11 1015 62 16093 3.6 210 05:48 04.03.2020
1918 Clouds 13 1014 58 16093 3.6 210 04:23 04.03.2020
1919 Clouds 14 1014 50 16093 3.6 260 03:40 04.03.2020
1920 Clouds 14 1013 47 16093 3.6 270 03:21 04.03.2020
1921 Clouds 15 1011 34 16093 2.6 250 02:53 04.03.2020
1922 Clouds 16 1011 36 16093 5.7 330 02:19 04.03.2020
1923 Clear 17 1010 35 16093 6.2 310 01:52 04.03.2020
1924 Rain 17 1009 37 16093 4.1 320 00:49 04.03.2020
1925 Rain 17 1010 48 16093 3.6 230 00:24 04.03.2020
1926 Drizzle 17 1010 44 16093 4.6 310 23:45 03.03.2020
1927 Clouds 17 1010 44 16093 4.6 320 23:27 03.03.2020
1928 Clear 17 1010 34 16093 3.1 270 22:57 03.03.2020
1929 Clear 16 1010 34 16093 3.1 270 22:39 03.03.2020
1930 Clouds 16 1010 44 16093 4.6 310 22:19 03.03.2020
1931 Clouds 16 1010 39 16093 4.1 250 21:56 03.03.2020
1932 Clouds 16 1011 50 16093 1.5 280 21:37 03.03.2020
1933 Clouds 16 1011 50 16093 1.5 280 21:18 03.03.2020
1934 Clear 15 1011 41 16093 4.9 323 20:40 03.03.2020
1935 Clouds 15 1011 58 16093 2.1 270 20:20 03.03.2020
1936 Clouds 15 1011 58 16093 2.1 270 20:20 03.03.2020
1937 Clouds 14 1011 50 16093 2.1 280 19:59 03.03.2020
1938 Clouds 14 1011 50 16093 2.1 280 19:37 03.03.2020
1939 Clouds 14 1011 50 16093 2.1 280 19:37 03.03.2020
1940 Clouds 13 1012 62 16093 2.03 209 19:19 03.03.2020
1941 Clouds 13 1012 58 16093 2.1 310 18:58 03.03.2020
1942 Rain 13 1012 58 16093 2.1 310 18:40 03.03.2020
1943 Rain 12 1011 66 16093 1.5 210 18:21 03.03.2020
1944 Rain 11 1012 66 16093 1 217 17:56 03.03.2020
1945 Rain 11 1012 66 16093 1 217 17:37 03.03.2020
1946 Clear 11 1011 81 16093 3.6 250 17:19 03.03.2020
1947 Rain 10 1010 81 16093 2.1 220 16:56 03.03.2020
1948 Rain 10 1010 81 16093 2.1 220 16:37 03.03.2020
1949 Rain 9 1010 81 16093 4.1 240 16:18 03.03.2020
1950 Rain 8 1010 87 16093 1.5 250 15:43 03.03.2020
1951 Drizzle 8 1010 81 16093 2.6 260 15:21 03.03.2020
1952 Rain 9 1009 75 16093 3.6 190 14:56 03.03.2020
1953 Rain 9 1011 75 16093 2.1 70 14:37 03.03.2020
1954 Rain 9 1009 81 16093 2.1 190 14:19 03.03.2020
1955 Clouds 9 1009 70 16093 2.4 246 13:43 03.03.2020
1956 Clouds 9 1009 66 16093 2.1 260 13:24 03.03.2020
1957 Clouds 9 1008 75 16093 2.1 250 12:55 03.03.2020
1958 Clouds 8 1008 75 16093 2.1 250 12:37 03.03.2020
1959 Clouds 8 1008 61 16093 2.4 246 12:19 03.03.2020
1960 Clouds 8 1008 75 16093 2.6 130 11:55 03.03.2020
1961 Clouds 8 1008 75 16093 2.6 130 11:36 03.03.2020
1962 Clear 8 1007 66 16093 5.1 130 11:18 03.03.2020
1963 Clouds 8 1008 75 16093 1.5 220 10:54 03.03.2020
1964 Clouds 9 1008 75 16093 1.5 220 10:36 03.03.2020
1965 Clouds 9 1008 75 16093 1.5 220 10:36 03.03.2020
1966 Clouds 9 1008 57 16093 3.1 90 10:18 03.03.2020
1967 Clouds 9 1008 57 16093 3.1 90 10:18 03.03.2020
1968 Clouds 9 1008 70 16093 1.52 254 09:41 03.03.2020
1969 Clouds 9 1008 61 16093 2.6 130 09:20 03.03.2020
1970 Clouds 10 1008 66 16093 1.52 254 08:42 03.03.2020
1971 Clouds 10 1009 57 16093 2.1 40 08:22 03.03.2020
1972 Clouds 10 1009 61 16093 1.5 120 07:55 03.03.2020
1973 Clouds 10 1009 54 16093 1.5 170 07:37 03.03.2020
1974 Clouds 10 1009 54 16093 1.5 170 07:18 03.03.2020
1975 Clouds 10 1009 66 16093 2.98 89 06:40 03.03.2020
1976 Clouds 10 1010 57 16093 2.98 89 06:20 03.03.2020
1977 Clouds 10 1009 57 16093 2.1 330 05:42 03.03.2020
1978 Clear 11 1009 54 16093 2.1 320 04:51 03.03.2020
1979 Clouds 13 1008 38 16093 2.6 240 02:38 03.03.2020
1980 Clouds 14 1007 39 16093 3.6 290 01:27 03.03.2020
1981 Drizzle 16 1007 37 16093 5.1 280 00:41 03.03.2020
1982 Clouds 16 1006 37 16093 5.1 300 00:22 03.03.2020
1983 Clouds 17 1007 24 16093 5.7 260 23:46 02.03.2020
1984 Clouds 17 1006 37 16093 7.2 260 23:23 02.03.2020
1985 Clouds 18 1007 27 16093 6.2 230 22:57 02.03.2020
1986 Clouds 18 1007 24 16093 7.2 210 22:38 02.03.2020
1987 Clouds 18 1007 29 16093 3.6 230 22:38 02.03.2020
1988 Clouds 18 1007 29 16093 3.6 230 22:19 02.03.2020
1989 Clear 19 1008 24 16093 9.8 200 21:55 02.03.2020
1990 Clear 19 1008 24 16093 9.8 200 21:36 02.03.2020
1991 Clear 19 1009 31 16093 5.1 250 21:18 02.03.2020
1992 Clouds 18 1009 27 16093 4.6 190 20:41 02.03.2020
1993 Clouds 18 1010 39 16093 3.6 280 20:22 02.03.2020
1994 Clouds 16 1010 55 16093 6.7 200 19:58 02.03.2020
1995 Clouds 16 1010 55 16093 6.7 200 19:39 02.03.2020
1996 Clear 16 1011 44 16093 1.5 280 19:20 02.03.2020
1997 Clear 16 1011 44 16093 2.1 220 18:56 02.03.2020
1998 Clear 16 1011 44 16093 2.1 220 18:56 02.03.2020
1999 Clear 16 1011 47 16093 2.6 290 18:38 02.03.2020
2000 Clear 15 1011 47 16093 2.6 290 18:18 02.03.2020
2001 Clouds 15 1011 54 16093 3.21 233 17:56 02.03.2020
2002 Clear 14 1011 54 16093 3.6 280 17:38 02.03.2020
2003 Clear 13 1011 54 16093 3.6 280 17:19 02.03.2020
2004 Clouds 12 1011 50 16093 2.58 262 16:42 02.03.2020
2005 Clouds 11 1010 53 16093 4.1 320 16:23 02.03.2020
2006 Clouds 10 1010 57 16093 2.58 262 15:54 02.03.2020
2007 Clouds 9 1010 57 16093 2.58 262 15:36 02.03.2020
2008 Clear 8 1009 59 16093 1.5 120 15:18 02.03.2020
2009 Clouds 8 1009 59 16093 3.1 280 14:37 02.03.2020
2010 Clear 9 1009 58 16093 2.1 100 14:19 02.03.2020
2011 Clear 9 1009 58 16093 2.1 100 14:19 02.03.2020
2012 Clouds 9 1009 58 16093 3.1 270 13:44 02.03.2020
2013 Clear 9 1009 57 16093 2.1 40 13:20 02.03.2020
2014 Clear 9 1008 53 16093 0.66 217 12:59 02.03.2020
2015 Clear 10 1008 53 16093 0.66 217 12:41 02.03.2020
2016 Clear 10 1009 64 16093 1.5 80 12:19 02.03.2020
2017 Clear 10 1009 57 16093 1.5 70 11:39 02.03.2020
2018 Clear 11 1010 46 16093 4.84 180 11:19 02.03.2020
2019 Clear 12 1009 53 16093 2.1 180 10:56 02.03.2020
2020 Clouds 12 1010 50 16093 2.6 110 10:37 02.03.2020
2021 Clouds 12 1010 50 16093 2.6 110 10:18 02.03.2020
2022 Clear 12 1010 53 16093 2.1 160 09:49 02.03.2020
2023 Clear 12 1010 53 16093 2.1 160 09:49 02.03.2020
2024 Clouds 12 1011 43 16093 2.6 60 09:30 02.03.2020
2025 Clear 13 1010 53 16093 4.6 130 08:49 02.03.2020
2026 Clouds 13 1011 43 16093 2.6 80 08:23 02.03.2020
2027 Clear 13 1010 33 16093 4.1 130 07:51 02.03.2020
2028 Clouds 13 1012 43 16093 4.1 130 07:31 02.03.2020
2029 Clear 13 1011 43 16093 5.1 150 06:51 02.03.2020
2030 Clear 13 1013 37 16093 1.5 90 06:26 02.03.2020
2031 Clear 14 1012 35 16093 4.1 70 05:25 02.03.2020
2032 Clear 15 1013 26 16093 3.1 200 03:28 02.03.2020
2033 Clear 16 1012 25 16093 2.1 200 02:55 02.03.2020
2034 Clear 17 1013 25 16093 5.7 200 02:30 02.03.2020
2035 Clear 18 1012 22 16093 2.1 210 01:36 02.03.2020
2036 Clear 18 1012 25 16093 4.1 160 01:18 02.03.2020
2037 Clear 19 1013 24 16093 5.1 170 00:22 02.03.2020
2038 Clear 19 1012 19 16093 3.1 230 23:42 01.03.2020
2039 Clouds 19 1013 24 16093 4.6 180 23:22 01.03.2020
2040 Clear 19 1012 20 16093 4.6 200 22:45 01.03.2020
2041 Clouds 19 1014 25 16093 3.6 200 22:21 01.03.2020
2042 Clear 19 1013 20 16093 4.6 200 21:58 01.03.2020
2043 Clear 19 1013 20 16093 4.6 200 21:39 01.03.2020
2044 Clear 19 1015 27 16093 4.6 210 21:20 01.03.2020
2045 Clear 18 1014 22 16093 3.6 190 20:45 01.03.2020
2046 Clear 18 1015 27 16093 4.1 180 20:26 01.03.2020
2047 Clouds 18 1015 27 16093 5.7 220 19:59 01.03.2020
2048 Clouds 18 1015 27 16093 5.7 220 19:41 01.03.2020
2049 Clouds 17 1015 27 16093 4.1 190 19:21 01.03.2020
2050 Clouds 17 1015 27 16093 4.1 190 19:21 01.03.2020
2051 Clear 17 1015 25 16093 6.2 200 18:56 01.03.2020
2052 Clear 17 1015 25 16093 6.2 200 18:38 01.03.2020
2053 Clear 16 1015 29 16093 4.1 190 18:18 01.03.2020
2054 Clear 16 1014 29 16093 7.2 180 17:55 01.03.2020
2055 Clear 15 1014 29 16093 7.2 180 17:36 01.03.2020
2056 Clear 15 1015 35 16093 3.6 170 17:18 01.03.2020
2057 Rain 14 1014 35 16093 3.6 130 16:40 01.03.2020
2058 Rain 14 1014 35 16093 3.6 130 16:40 01.03.2020
2059 Rain 14 1014 35 16093 3.6 130 16:40 01.03.2020
2060 Rain 13 1014 50 16093 7.97 195 16:20 01.03.2020
2061 Rain 13 1014 37 16093 7.97 195 15:59 01.03.2020
2062 Clear 13 1014 37 16093 7.97 195 15:40 01.03.2020
2063 Clear 13 1014 50 16093 7.97 195 15:22 01.03.2020
2064 Clear 12 1013 35 16093 3.1 250 14:58 01.03.2020
2065 Clear 12 1013 35 16093 3.1 250 14:39 01.03.2020
2066 Clear 13 1014 35 16093 5.1 160 14:21 01.03.2020
2067 Clear 13 1014 35 16093 5.1 160 14:21 01.03.2020
2068 Clear 13 1014 35 16093 5.1 160 14:21 01.03.2020
2069 Clear 13 1014 31 16093 2.6 130 13:59 01.03.2020
2070 Clear 13 1014 31 16093 2.6 130 13:41 01.03.2020
2071 Clear 13 1014 40 16093 3.6 120 13:20 01.03.2020
2072 Clear 13 1013 37 16093 2.6 100 12:56 01.03.2020
2073 Clear 13 1013 37 16093 2.6 100 12:38 01.03.2020
2074 Clear 13 1014 35 16093 2.6 90 12:19 01.03.2020
2075 Clear 13 1013 33 16093 2.6 90 11:40 01.03.2020
2076 Clear 13 1014 28 16093 2.6 170 11:19 01.03.2020
2077 Clear 14 1013 28 16093 2.6 140 10:56 01.03.2020
2078 Clear 13 1013 28 16093 2.6 140 10:37 01.03.2020
2079 Clear 14 1015 26 16093 3.6 150 10:18 01.03.2020
2080 Clear 14 1015 26 16093 3.6 150 10:18 01.03.2020
2081 Clear 13 1014 26 16093 3.1 120 09:42 01.03.2020
2082 Clear 13 1014 26 16093 3.1 120 09:42 01.03.2020
2083 Clear 14 1015 29 16093 4.1 160 09:23 01.03.2020
2084 Clear 14 1015 29 16093 1.5 110 08:46 01.03.2020
2085 Clear 14 1015 30 16093 2.1 150 08:28 01.03.2020
2086 Clear 14 1015 30 16093 1.5 70 07:56 01.03.2020
2087 Clear 15 1016 31 16093 2.6 230 07:38 01.03.2020
2088 Clear 15 1016 31 16093 2.6 230 07:19 01.03.2020
2089 Clear 16 1015 33 16093 5.5 189 06:41 01.03.2020
2090 Clear 17 1016 36 16093 2.6 240 05:35 01.03.2020
2091 Clear 20 1013 19 16093 1.5 300 02:59 01.03.2020
2092 Clear 21 1015 19 16093 2.1 250 02:23 01.03.2020
2093 Clear 22 1013 15 16093 1.5 340 01:45 01.03.2020
2094 Clouds 24 1014 13 16093 1.5 320 00:51 01.03.2020
2095 Clouds 24 1015 13 16093 3.1 320 00:25 01.03.2020
2096 Clear 24 1014 12 16093 6.99 243 23:58 29.02.2020
2097 Clear 24 1014 12 16093 6.99 243 23:40 29.02.2020
2098 Clear 24 1015 12 16093 2.1 220 23:22 29.02.2020
2099 Clear 24 1016 12 16093 1.5 250 22:38 29.02.2020
2100 Clear 24 1016 12 16093 1.5 250 22:20 29.02.2020
2101 Clouds 23 1016 12 16093 6.48 257 21:39 29.02.2020
2102 Clouds 23 1017 12 16093 2.6 230 21:20 29.02.2020
2103 Clouds 23 1017 14 16093 1.5 20 20:42 29.02.2020
2104 Clouds 22 1018 13 16093 1.5 240 20:21 29.02.2020
2105 Clouds 22 1018 15 16093 1.5 240 19:56 29.02.2020
2106 Clouds 22 1018 15 16093 1.5 240 19:37 29.02.2020
2107 Clouds 21 1019 16 16093 2.25 232 19:18 29.02.2020
2108 Clear 20 1019 19 16093 2.25 232 18:42 29.02.2020
2109 Clear 20 1020 22 16093 2.25 232 18:23 29.02.2020
2110 Clear 18 1019 27 16093 3.1 100 17:56 29.02.2020
2111 Clear 18 1019 27 16093 3.1 100 17:37 29.02.2020
2112 Clear 16 1020 26 16093 2.1 140 17:19 29.02.2020
2113 Clear 14 1019 35 16093 4.1 110 16:44 29.02.2020
2114 Clear 12 1019 34 16093 3.1 120 16:20 29.02.2020
2115 Clear 10 1019 49 16093 2.1 120 15:57 29.02.2020
2116 Clear 9 1019 49 16093 2.1 120 15:37 29.02.2020
2117 Clear 8 1019 52 16093 2.6 100 15:19 29.02.2020
2118 Clear 8 1018 49 16093 2.6 170 14:40 29.02.2020
2119 Clear 8 1018 45 16093 2.13 210 14:22 29.02.2020
2120 Clear 9 1019 28 16093 2.1 110 13:46 29.02.2020
2121 Clear 9 1019 42 16093 3.6 110 13:27 29.02.2020
2122 Clear 9 1018 27 16093 2.1 110 12:57 29.02.2020
2123 Clear 10 1018 27 16093 2.1 110 12:38 29.02.2020
2124 Clouds 10 1019 43 16093 1.5 140 12:20 29.02.2020
2125 Clear 11 1019 37 16093 2.1 218 11:45 29.02.2020
2126 Clouds 11 1019 43 16093 1.5 120 11:26 29.02.2020
2127 Clear 12 1019 37 16093 3.1 100 10:51 29.02.2020
2128 Clouds 11 1020 43 16093 2.6 90 10:31 29.02.2020
2129 Clear 11 1019 37 16093 3.6 100 09:56 29.02.2020
2130 Clear 12 1019 37 16093 3.6 100 09:38 29.02.2020
2131 Rain 12 1020 40 16093 3.1 110 09:18 29.02.2020
2132 Rain 12 1020 40 16093 2.6 110 08:40 29.02.2020
2133 Clouds 12 1021 40 16093 2.1 130 08:21 29.02.2020
2134 Clear 12 1020 21 16093 3.1 90 07:52 29.02.2020
2135 Clouds 12 1021 37 16093 4.1 110 07:25 29.02.2020
2136 Clear 12 1020 46 16093 2.6 100 06:55 29.02.2020
2137 Clouds 12 1021 21 16093 3.6 110 06:29 29.02.2020
2138 Clear 13 1020 50 16093 1.5 200 05:52 29.02.2020
2139 Clouds 14 1021 35 16093 2.6 140 05:32 29.02.2020
2140 Clear 17 1020 19 16093 1.5 10 03:59 29.02.2020
2141 Clouds 19 1020 18 16093 4.6 300 03:24 29.02.2020
2142 Clear 20 1020 25 16093 3.1 350 02:57 29.02.2020
2143 Clear 23 1019 15 16093 4.6 290 01:59 29.02.2020
2144 Clear 25 1019 7 16093 1.5 340 00:52 29.02.2020
2145 Clouds 25 1020 8 16093 4.45 216 00:28 29.02.2020
2146 Rain 25 1019 7 16093 2.6 160 23:41 28.02.2020
2147 Rain 25 1020 8 16093 3.1 90 23:23 28.02.2020
2148 -273 0 0 0 0 0 22:43 28.02.2020
2149 Clouds 24 1021 8 16093 3.6 110 22:22 28.02.2020
2150 Clear 24 1020 8 16093 3.1 150 21:42 28.02.2020
2151 Clouds 24 1022 10 16093 6.2 110 21:22 28.02.2020
2152 Clear 24 1021 8 16093 5.7 150 20:58 28.02.2020
2153 Clear 24 1021 8 16093 5.7 150 20:39 28.02.2020
2154 Clouds 23 1023 10 16093 8.2 100 20:20 28.02.2020
2155 Clear 22 1022 15 16093 6.3 113 19:57 28.02.2020
2156 Clear 22 1022 15 16093 6.3 113 19:57 28.02.2020
2157 Clear 22 1022 15 16093 6.3 113 19:38 28.02.2020
2158 Clouds 22 1023 8 16093 10.3 100 19:20 28.02.2020
2159 Clear 21 1022 22 16093 3.1 70 18:46 28.02.2020
2160 Clouds 20 1023 13 16093 5.7 100 18:25 28.02.2020
2161 Clear 18 1023 37 16093 1.5 70 17:57 28.02.2020
2162 Clear 18 1023 37 16093 1.5 70 17:38 28.02.2020
2163 Clouds 14 1024 24 16093 5.1 120 17:20 28.02.2020
2164 Clear 12 1023 37 16093 2.6 120 16:38 28.02.2020
2165 Clouds 12 1023 24 16093 5.1 120 16:19 28.02.2020
2166 Clear 11 1023 52 16093 4.32 121 15:56 28.02.2020
2167 Clear 11 1023 52 16093 4.32 121 15:38 28.02.2020
2168 Clouds 10 1023 27 16093 4.6 130 15:18 28.02.2020
2169 Clear 10 1022 75 16093 4.32 121 14:45 28.02.2020
2170 Clear 11 1022 27 16093 4.6 120 14:20 28.02.2020
2171 Clear 10 1022 75 16093 2.1 60 13:59 28.02.2020
2172 Clear 10 1022 75 16093 2.1 60 13:40 28.02.2020
2173 Clouds 10 1022 29 16093 2.6 130 13:20 28.02.2020
2174 Clear 10 1021 65 16093 4.76 110 12:45 28.02.2020
2175 Clouds 10 1022 36 14484 2.6 120 12:27 28.02.2020
2176 Clouds 10 1022 36 14484 2.6 120 12:27 28.02.2020
2177 Clear 10 1021 25 16093 4.76 110 11:56 28.02.2020
2178 Clear 10 1021 25 16093 4.76 110 11:37 28.02.2020
2179 Clear 10 1022 29 11265 5.1 110 11:19 28.02.2020
2180 Clear 11 1022 25 16093 2.94 92 10:43 28.02.2020
2181 Clouds 11 1023 27 16093 1.5 110 10:24 28.02.2020
2182 Clear 10 1023 25 16093 2.6 110 09:49 28.02.2020
2183 Clear 10 1023 25 16093 2.6 110 09:49 28.02.2020
2184 Clear 10 1023 25 16093 2.6 110 09:49 28.02.2020
2185 Clear 10 1023 25 16093 2.6 110 09:49 28.02.2020
2186 Clear 10 1023 25 16093 2.6 110 09:49 28.02.2020
2187 Clouds 11 1023 34 16093 2.1 140 09:22 28.02.2020
2188 Clear 10 1023 61 16093 2.94 92 08:59 28.02.2020
2189 Clear 10 1023 61 16093 2.94 92 08:41 28.02.2020
2190 Clear 10 1023 61 16093 2.94 92 08:41 28.02.2020
2191 Haze 10 1024 49 6437 1.5 120 08:20 28.02.2020
2192 Clear 10 1023 61 16093 2.1 140 07:45 28.02.2020
2193 Haze 10 1024 39 8047 1.65 95 07:25 28.02.2020
2194 Clear 12 1024 57 16093 2.1 190 06:48 28.02.2020
2195 Clouds 12 1024 37 16093 2.6 240 06:28 28.02.2020
2196 Clear 14 1022 43 16093 3.38 103 04:50 28.02.2020
2197 Haze 15 1023 31 6437 1.5 30 04:20 28.02.2020
2198 Clear 17 1021 22 16093 3.38 103 02:47 28.02.2020
2199 Clear 18 1022 24 16093 2.6 330 02:28 28.02.2020
2200 Clear 20 1021 19 16093 3.1 320 01:26 28.02.2020
2201 Clear 22 1021 16 16093 2.6 320 00:30 28.02.2020
2202 Clear 22 1021 18 16093 3.1 330 23:42 27.02.2020
2203 Clear 22 1022 13 16093 3.1 330 23:21 27.02.2020
2204 Clear 22 1022 18 16093 2.6 340 22:46 27.02.2020
2205 Clear 22 1022 15 16093 3.1 290 22:26 27.02.2020
2206 Clear 22 1023 16 16093 3.1 310 21:59 27.02.2020
2207 Clear 21 1023 16 16093 3.1 310 21:39 27.02.2020
2208 Clear 21 1023 16 16093 6.29 86 21:19 27.02.2020
2209 Clear 21 1024 16 16093 3.1 330 20:57 27.02.2020
2210 Clear 20 1024 16 16093 3.1 330 20:38 27.02.2020
2211 Clear 19 1024 15 16093 1.5 350 20:20 27.02.2020
2212 Clear 19 1024 15 16093 1.5 350 20:20 27.02.2020
2213 Clear 19 1024 15 16093 1.5 350 20:20 27.02.2020
2214 Clear 19 1025 19 16093 6.35 87 19:55 27.02.2020
2215 Clear 18 1025 19 16093 6.35 87 19:37 27.02.2020
2216 Clear 17 1025 14 16093 6.35 87 19:18 27.02.2020
2217 Clear 16 1025 15 16093 6.35 87 18:40 27.02.2020
2218 Clear 15 1025 15 16093 6.35 87 18:22 27.02.2020
2219 Clear 14 1025 23 16093 3.1 120 17:58 27.02.2020
2220 Clear 13 1025 23 16093 3.1 120 17:39 27.02.2020
2221 Clear 12 1025 19 16093 2.1 100 17:19 27.02.2020
2222 Clear 10 1025 36 16093 2.1 110 16:56 27.02.2020
2223 Clear 8 1025 24 16093 5.1 100 16:37 27.02.2020
2224 Clear 8 1025 24 16093 5.1 100 16:18 27.02.2020
2225 Clear 7 1025 51 16093 2.6 90 15:56 27.02.2020
2226 Clear 4 1025 51 16093 2.6 90 15:36 27.02.2020
2227 Clear 4 1024 30 16093 4.1 100 15:18 27.02.2020
2228 Clear 4 1024 30 16093 4.1 100 15:18 27.02.2020
2229 Clear 4 1024 30 16093 4.1 100 15:18 27.02.2020
2230 Clear 4 1024 51 16093 2.99 84 14:41 27.02.2020
2231 Clear 4 1024 33 16093 4.1 90 14:23 27.02.2020
2232 Clear 4 1024 64 16093 2.1 110 13:57 27.02.2020
2233 Clear 4 1024 24 16093 1.5 340 13:39 27.02.2020
2234 Clear 4 1024 24 16093 1.5 340 13:20 27.02.2020
2235 Clear 4 1024 59 16093 3.02 87 12:45 27.02.2020
2236 Clear 4 1023 24 16093 3.02 87 12:22 27.02.2020
2237 Clear 4 1023 59 16093 1.5 50 11:56 27.02.2020
2238 Clear 5 1023 59 16093 1.5 50 11:37 27.02.2020
2239 Clear 6 1023 24 16093 4.1 110 11:18 27.02.2020
2240 Clear 6 1024 60 16093 2.1 100 10:41 27.02.2020
2241 Clear 6 1024 28 16093 4.6 110 10:20 27.02.2020
2242 Clear 6 1024 55 16093 4.03 99 09:45 27.02.2020
2243 Clear 6 1024 30 16093 2.1 100 09:26 27.02.2020
2244 Clear 6 1024 52 16093 1.5 180 08:56 27.02.2020
2245 Clear 6 1024 52 16093 1.5 180 08:37 27.02.2020
2246 Clear 8 1024 35 16093 5.1 130 08:18 27.02.2020
2247 Clear 8 1024 48 16093 4.22 99 07:42 27.02.2020
2248 Clear 8 1024 30 16093 4.1 120 07:24 27.02.2020
2249 Clear 8 1025 36 16093 3.1 120 06:30 27.02.2020
2250 Clear 10 1024 25 16093 2.1 90 05:23 27.02.2020
2251 Clear 13 1023 19 16093 6.7 50 03:19 27.02.2020
2252 Clear 16 1023 15 16093 6.7 50 01:34 27.02.2020
2253 Clear 17 1023 13 16093 2.1 170 00:41 27.02.2020
2254 Clear 17 1024 11 16093 7.61 78 23:56 26.02.2020
2255 Clear 17 1024 11 16093 7.61 78 23:37 26.02.2020
2256 Clear 16 1024 15 16093 8.2 20 23:18 26.02.2020
2257 Clear 16 1024 15 16093 8.2 20 23:18 26.02.2020
2258 Clear 16 1025 11 16093 1.5 180 22:55 26.02.2020
2259 Clear 16 1025 14 16093 7.2 10 22:37 26.02.2020
2260 Clear 16 1025 14 16093 7.2 10 22:18 26.02.2020
2261 Clear 16 1026 12 16093 1.5 160 21:39 26.02.2020
2262 Clear 15 1026 14 16093 6.7 40 21:20 26.02.2020
2263 Clear 15 1027 12 16093 2.6 300 20:56 26.02.2020
2264 Clear 15 1027 12 16093 2.6 300 20:56 26.02.2020
2265 Clear 15 1027 12 16093 2.6 300 20:38 26.02.2020
2266 Clear 14 1027 15 16093 7.2 140 20:19 26.02.2020
2267 Clear 14 1027 16 16093 6.2 60 19:56 26.02.2020
2268 Clear 13 1027 13 16093 9.82 86 19:37 26.02.2020
2269 Clear 13 1027 17 16093 1.5 180 19:18 26.02.2020
2270 Clear 13 1028 21 16093 2.6 320 18:56 26.02.2020
2271 Clear 12 1027 17 16093 4.6 30 18:37 26.02.2020
2272 Clear 12 1027 17 16093 4.6 30 18:18 26.02.2020
2273 Clear 11 1028 28 16093 9.82 86 17:40 26.02.2020
2274 Clear 10 1028 16 16093 2.6 60 17:19 26.02.2020
2275 Clear 9 1027 24 16093 5.1 50 16:56 26.02.2020
2276 Clear 9 1027 24 16093 5.1 50 16:38 26.02.2020
2277 Clear 8 1027 24 16093 5.1 50 16:19 26.02.2020
2278 Clear 7 1027 19 16093 7.2 20 15:44 26.02.2020
2279 Clear 7 1027 19 16093 7.2 20 15:25 26.02.2020
2280 Clear 6 1027 55 16093 2.6 190 14:43 26.02.2020
2281 Clear 6 1027 19 16093 6.2 50 14:23 26.02.2020
2282 Clear 6 1027 55 16093 2.1 220 13:56 26.02.2020
2283 Clear 6 1027 55 16093 2.1 220 13:38 26.02.2020
2284 Clear 6 1026 20 16093 6.2 40 13:18 26.02.2020
2285 Clear 6 1027 51 16093 5.48 90 12:38 26.02.2020
2286 Clear 7 1027 19 16093 7.7 30 12:19 26.02.2020
2287 Clear 7 1027 51 16093 2.1 190 11:43 26.02.2020
2288 Clear 7 1026 19 16093 5.7 30 11:23 26.02.2020
2289 Clear 7 1026 51 16093 3.1 210 10:59 26.02.2020
2290 Clear 7 1026 51 16093 3.1 210 10:39 26.02.2020
2291 Clear 8 1026 19 16093 5.7 40 10:21 26.02.2020
2292 Clear 8 1027 18 16093 3.6 60 09:44 26.02.2020
2293 Clear 7 1026 20 16093 3.6 70 09:24 26.02.2020
2294 Clear 7 1026 16 16093 4.1 50 08:58 26.02.2020
2295 Clear 7 1026 16 16093 4.1 50 08:37 26.02.2020
2296 Clear 7 1027 18 16093 3.1 50 08:18 26.02.2020
2297 Clear 8 1026 15 16093 4.1 50 07:42 26.02.2020
2298 Clear 8 1027 22 16093 6.03 91 07:24 26.02.2020
2299 Clear 9 1026 14 16093 5.7 30 06:50 26.02.2020
2300 Clear 9 1025 18 16093 5.1 50 06:32 26.02.2020
2301 Clear 9 1026 16 16093 4.1 30 05:51 26.02.2020
2302 Clear 9 1025 18 16093 3.1 350 05:23 26.02.2020
2303 Clear 10 1025 16 16093 3.6 360 04:19 26.02.2020
2304 Clear 13 1023 11 16093 7.2 340 02:21 26.02.2020
2305 Clear 14 1023 11 16093 4.1 20 01:40 26.02.2020
2306 Clear 15 1022 13 16093 5.7 10 00:48 26.02.2020
2307 Clear 16 1021 14 16093 5.1 90 00:22 26.02.2020
2308 Clear 16 1021 14 16093 5.1 90 00:22 26.02.2020
2309 Clear 16 1022 13 16093 5.1 30 23:45 25.02.2020
2310 Clear 16 1021 14 16093 5.7 20 23:26 25.02.2020
2311 Clear 16 1022 13 16093 5.7 20 22:59 25.02.2020
2312 Clear 16 1022 13 16093 5.7 20 22:41 25.02.2020
2313 Clear 16 1021 11 16093 10.3 320 22:19 25.02.2020
2314 Clear 17 1021 9 16093 8.2 310 21:39 25.02.2020
2315 Clear 17 1021 10 16093 9.3 340 21:21 25.02.2020
2316 -273 0 0 0 0 0 21:21 25.02.2020
2317 Clear 17 1023 14 16093 8.2 360 20:58 25.02.2020
2318 Clear 17 1023 14 16093 8.2 360 20:39 25.02.2020
2319 Clear 16 1022 25 16093 1.5 310 20:20 25.02.2020
2320 Clear 16 1023 30 16093 4.6 30 19:59 25.02.2020
2321 Clear 16 1023 30 16093 4.6 30 19:40 25.02.2020
2322 Clear 16 1022 58 16093 2.6 360 19:19 25.02.2020
2323 Clear 14 1022 54 16093 5.7 320 18:42 25.02.2020
2324 Clear 14 1022 66 16093 2.1 300 18:21 25.02.2020
2325 Clear 13 1022 71 16093 2.1 290 17:58 25.02.2020
2326 Clear 13 1022 71 16093 2.1 290 17:38 25.02.2020
2327 Clear 12 1022 71 16093 1.97 322 17:19 25.02.2020
2328 Clear 11 1022 87 16093 1.97 322 16:58 25.02.2020
2329 Clear 10 1022 87 16093 1.97 322 16:39 25.02.2020
2330 Clear 9 1021 87 16093 1.97 322 16:21 25.02.2020
2331 Clear 6 1021 93 16093 1.97 322 15:56 25.02.2020
2332 Clear 6 1021 93 16093 1.97 322 15:56 25.02.2020
2333 Clear 6 1021 93 16093 1.97 322 15:37 25.02.2020
2334 Clear 5 1020 93 16093 2.1 140 15:18 25.02.2020
2335 Clear 5 1020 100 16093 1.97 322 14:54 25.02.2020
2336 Clear 5 1020 86 16093 2.1 120 14:36 25.02.2020
2337 Clear 5 1020 86 16093 2.1 120 14:18 25.02.2020
2338 Clear 5 1019 93 16093 2.6 80 13:54 25.02.2020
2339 Clear 5 1019 93 16093 2.6 80 13:54 25.02.2020
2340 Clear 5 1019 93 16093 2.6 80 13:36 25.02.2020
2341 Clear 5 1019 87 16093 0.64 215 13:18 25.02.2020
2342 Clear 7 1019 93 16093 0.64 215 12:40 25.02.2020
2343 Clear 7 1019 75 16093 2.1 80 12:20 25.02.2020
2344 Clear 7 1019 87 16093 0.64 215 11:56 25.02.2020
2345 Clear 7 1019 87 16093 0.64 215 11:38 25.02.2020
2346 Clear 7 1019 81 16093 2.6 150 11:19 25.02.2020
2347 Clear 7 1019 81 16093 2.6 150 11:19 25.02.2020
2348 Clear 7 1019 87 16093 1.14 260 10:56 25.02.2020
2349 Clear 7 1019 87 16093 1.14 260 10:38 25.02.2020
2350 Clear 7 1019 81 16093 2.6 140 10:19 25.02.2020
2351 Clear 8 1019 87 16093 1.5 90 09:40 25.02.2020
2352 Clear 8 1019 81 16093 3.6 130 09:19 25.02.2020
2353 Clear 9 1019 76 16093 1.14 260 08:44 25.02.2020
2354 Clear 9 1019 76 16093 3.1 110 08:25 25.02.2020
2355 Clear 9 1019 76 16093 1.5 210 07:51 25.02.2020
2356 Clear 9 1019 66 16093 3.1 230 07:25 25.02.2020
2357 Clear 10 1019 81 16093 1.22 243 06:59 25.02.2020
2358 Clear 10 1019 66 16093 3.6 240 06:26 25.02.2020
2359 Clear 12 1019 62 16093 2.6 290 05:23 25.02.2020
2360 Clear 14 1018 48 16093 3.06 321 02:38 25.02.2020
2361 Clear 17 1017 36 16093 5.7 310 01:19 25.02.2020
2362 Clear 18 1018 39 16093 4.6 310 00:34 25.02.2020
2363 Clear 18 1018 39 16093 1.5 270 23:57 24.02.2020
2364 Clear 18 1018 39 16093 1.5 270 23:38 24.02.2020
2365 Clear 18 1018 39 16093 5.7 290 23:18 24.02.2020
2366 Clear 18 1019 42 16093 4.1 300 22:37 24.02.2020
2367 Clear 18 1019 42 16093 5.7 310 22:19 24.02.2020
2368 Clear 18 1020 45 16093 5.1 310 21:55 24.02.2020
2369 Clear 18 1020 45 16093 5.1 310 21:37 24.02.2020
2370 Clear 18 1020 45 16093 2.6 300 21:18 24.02.2020
2371 Clear 17 1021 42 16093 3.6 330 20:55 24.02.2020
2372 Clear 17 1021 42 16093 3.6 330 20:37 24.02.2020
2373 Clear 16 1022 44 16093 2.1 350 20:18 24.02.2020
2374 Clear 16 1021 51 16093 3.1 320 19:55 24.02.2020
2375 Clear 15 1021 51 16093 3.1 320 19:37 24.02.2020
2376 Clear 15 1022 58 16093 2.83 347 19:19 24.02.2020
2377 Rain 14 1022 62 16093 2.83 347 18:41 24.02.2020
2378 Rain 13 1022 62 16093 2.83 347 18:23 24.02.2020
2379 Clear 12 1023 66 16093 2.83 347 17:57 24.02.2020
2380 Clear 12 1023 66 16093 2.83 347 17:38 24.02.2020
2381 Clear 11 1023 66 16093 0.19 152 17:19 24.02.2020
2382 Clear 9 1023 81 16093 1.5 80 16:55 24.02.2020
2383 Clear 9 1023 81 16093 1.5 80 16:37 24.02.2020
2384 Clear 8 1022 81 16093 0.19 152 16:18 24.02.2020
2385 Clear 6 1022 100 16093 0.19 152 15:55 24.02.2020
2386 Clear 5 1022 100 16093 0.19 152 15:37 24.02.2020
2387 Clear 4 1022 86 16093 0.19 152 15:19 24.02.2020
2388 Clear 5 1022 93 16093 0.19 152 14:40 24.02.2020
2389 Clear 4 1022 86 16093 0.19 152 14:22 24.02.2020
2390 Clear 4 1022 93 16093 2.6 100 13:58 24.02.2020
2391 Clear 5 1022 93 16093 2.6 100 13:40 24.02.2020
2392 Clear 5 1022 93 16093 1.5 110 13:22 24.02.2020
2393 Clear 5 1022 100 16093 0.19 260 12:58 24.02.2020
2394 Clear 5 1022 100 16093 0.19 260 12:39 24.02.2020
2395 Clear 5 1022 86 16093 0.19 260 12:21 24.02.2020
2396 Clear 6 1022 100 16093 0.19 260 11:47 24.02.2020
2397 Clear 5 1022 93 16093 2.6 110 11:29 24.02.2020
2398 Clear 5 1022 87 16093 1.11 179 10:51 24.02.2020
2399 Clear 6 1022 87 16093 2.1 110 10:31 24.02.2020
2400 Clear 6 1022 87 16093 1.11 179 09:55 24.02.2020
2401 Clear 6 1022 87 16093 1.11 179 09:37 24.02.2020
2402 Clear 7 1023 81 16093 2.1 140 09:18 24.02.2020
2403 Clear 7 1022 87 16093 1.5 100 08:47 24.02.2020
2404 Clear 7 1022 87 16093 1.5 100 08:47 24.02.2020
2405 Clear 7 1023 81 16093 1.11 179 08:28 24.02.2020
2406 Clouds 7 1023 87 16093 2.1 170 07:48 24.02.2020
2407 Clear 8 1023 76 16093 2.1 190 07:28 24.02.2020
2408 Clear 8 1023 81 16093 1.16 319 06:37 24.02.2020
2409 Clear 9 1023 66 16093 2.1 310 06:18 24.02.2020
2410 Clear 10 1023 71 16093 1.5 310 05:30 24.02.2020
2411 Clear 10 1023 71 16093 3.45 337 04:42 24.02.2020
2412 Clouds 12 1022 58 16093 3.45 337 02:56 24.02.2020
2413 Clouds 13 1021 54 16093 2.6 20 01:47 24.02.2020
2414 Clouds 13 1021 54 16093 4.1 340 01:18 24.02.2020
2415 Clouds 14 1021 54 16093 2.1 350 00:36 24.02.2020
2416 Clouds 14 1021 54 16093 4.1 340 00:18 24.02.2020
2417 Clouds 14 1021 51 16093 2.6 310 23:41 23.02.2020
2418 Clouds 14 1021 54 16093 4.6 320 23:20 23.02.2020
2419 Clouds 13 1021 54 16093 3.6 320 22:57 23.02.2020
2420 Clouds 14 1021 54 16093 3.6 320 22:39 23.02.2020
2421 Clouds 14 1021 50 16093 4.1 340 22:19 23.02.2020
2422 Clouds 14 1022 50 16093 2.6 330 21:45 23.02.2020
2423 Clouds 14 1022 54 16093 5.77 304 21:20 23.02.2020
2424 Clouds 14 1022 47 16093 5.77 304 20:57 23.02.2020
2425 Clouds 14 1022 47 16093 5.77 304 20:57 23.02.2020
2426 Clouds 14 1022 47 16093 5.77 304 20:57 23.02.2020
2427 Clouds 14 1022 47 16093 5.77 304 20:39 23.02.2020
2428 Clouds 14 1023 50 16093 2.1 320 20:20 23.02.2020
2429 Clouds 14 1023 50 16093 3.19 280 19:57 23.02.2020
2430 Clouds 14 1023 50 16093 3.19 280 19:38 23.02.2020
2431 Clouds 13 1023 58 16093 3.1 240 19:18 23.02.2020
2432 Clouds 13 1023 58 16093 3.1 240 19:18 23.02.2020
2433 Clouds 13 1023 54 16093 2.6 220 18:56 23.02.2020
2434 Clear 12 1023 62 16093 1.5 210 18:36 23.02.2020
2435 Rain 12 1023 62 16093 1.5 210 18:18 23.02.2020
2436 Rain 12 1023 62 16093 3.6 220 17:56 23.02.2020
2437 Rain 12 1023 62 16093 3.6 220 17:37 23.02.2020
2438 Clouds 11 1023 71 16093 2.6 160 17:18 23.02.2020
2439 Clear 10 1022 76 16093 2.6 200 16:45 23.02.2020
2440 Clouds 10 1022 81 16093 2.54 243 16:26 23.02.2020
2441 Clouds 9 1021 81 16093 1.5 210 15:58 23.02.2020
2442 Clouds 8 1021 81 16093 1.5 210 15:38 23.02.2020
2443 Clouds 8 1021 81 16093 1.5 240 15:20 23.02.2020
2444 Clouds 8 1020 81 16093 2.6 200 14:57 23.02.2020
2445 Clouds 8 1020 81 16093 2.6 200 14:38 23.02.2020
2446 Clouds 8 1020 81 16093 4.31 223 14:20 23.02.2020
2447 Clouds 8 1020 87 16093 3.1 190 13:57 23.02.2020
2448 Clouds 8 1020 87 16093 3.1 190 13:38 23.02.2020
2449 Clouds 8 1019 81 16093 3.55 215 13:20 23.02.2020
2450 Clouds 8 1019 81 16093 2.6 210 12:42 23.02.2020
2451 Clear 8 1018 81 16093 1.5 240 12:21 23.02.2020
2452 Clouds 8 1018 81 16093 3.55 215 11:54 23.02.2020
2453 Clouds 8 1018 81 16093 3.55 215 11:36 23.02.2020
2454 Clouds 8 1018 81 16093 3.55 215 11:36 23.02.2020
2455 Clear 8 1018 81 16093 3.1 170 11:18 23.02.2020
2456 Clouds 8 1018 81 16093 2.6 250 10:41 23.02.2020
2457 Clouds 9 1019 71 16093 4.19 223 10:23 23.02.2020
2458 Clear 9 1018 76 16093 1.5 200 09:56 23.02.2020
2459 Clear 9 1018 76 16093 1.5 200 09:56 23.02.2020
2460 Clear 9 1018 76 16093 1.5 200 09:38 23.02.2020
2461 Clouds 9 1018 71 16093 1.5 230 09:20 23.02.2020
2462 Clear 9 1018 71 16093 3.1 210 08:50 23.02.2020
2463 Clouds 9 1019 66 16093 2.1 240 08:29 23.02.2020
2464 Clear 10 1018 66 16093 3.1 180 07:48 23.02.2020
2465 Clouds 10 1019 71 16093 2.1 330 07:30 23.02.2020
2466 Clouds 11 1019 81 16093 4.1 310 06:39 23.02.2020
2467 Clear 11 1018 66 16093 5.7 220 05:43 23.02.2020
2468 Clear 13 1017 76 16093 4.1 230 04:26 23.02.2020
2469 Clear 14 1016 72 16093 4.1 240 02:58 23.02.2020
2470 Clear 15 1016 82 16093 4.6 210 01:48 23.02.2020
2471 Rain 16 1016 77 16093 7.2 180 01:22 23.02.2020
2472 Rain 16 1016 87 16093 5.1 220 00:45 23.02.2020
2473 Rain 17 1016 63 16093 8.2 170 00:23 23.02.2020
2474 Rain 17 1015 72 16093 4.1 250 23:44 22.02.2020
2475 Rain 17 1016 59 16093 6.2 190 23:25 22.02.2020
2476 Rain 17 1015 72 16093 2.6 160 22:46 22.02.2020
2477 Rain 17 1016 63 16093 1.5 70 22:22 22.02.2020
2478 Rain 17 1015 68 16093 5.7 180 21:59 22.02.2020
2479 Rain 17 1015 68 16093 5.7 180 21:59 22.02.2020
2480 Clouds 17 1015 68 16093 5.7 180 21:40 22.02.2020
2481 Clouds 17 1017 72 16093 2.1 80 21:21 22.02.2020
2482 Clouds 16 1016 68 16093 4.6 120 20:41 22.02.2020
2483 Rain 16 1018 72 16093 4.1 100 20:23 22.02.2020
2484 Rain 16 1018 72 16093 4.6 90 19:43 22.02.2020
2485 Drizzle 16 1018 77 16093 5.7 100 19:25 22.02.2020
2486 Clouds 16 1017 63 16093 7.7 130 18:59 22.02.2020
2487 Clouds 15 1017 63 16093 7.7 130 18:39 22.02.2020
2488 Rain 15 1019 82 16093 7.2 100 18:20 22.02.2020
2489 Rain 15 1017 77 16093 6.7 130 17:55 22.02.2020
2490 Rain 15 1017 77 16093 6.7 130 17:37 22.02.2020
2491 Rain 15 1019 87 16093 5.1 90 17:37 22.02.2020
2492 Rain 15 1019 87 16093 5.1 90 17:37 22.02.2020
2493 Rain 14 1019 87 16093 5.1 90 17:19 22.02.2020
2494 Rain 14 1018 82 16093 6.7 120 16:54 22.02.2020
2495 Rain 14 1018 82 16093 6.7 120 16:36 22.02.2020
2496 Rain 13 1019 93 16093 3.1 80 16:18 22.02.2020
2497 Rain 13 1020 93 16093 6.7 100 15:42 22.02.2020
2498 Rain 13 1019 93 16093 5.1 80 15:22 22.02.2020
2499 Rain 13 1018 93 16093 7.2 120 14:43 22.02.2020
2500 Rain 13 1020 93 16093 5.1 80 14:22 22.02.2020
2501 Rain 13 1018 100 16093 5.1 110 13:55 22.02.2020
2502 Rain 13 1018 100 16093 5.1 110 13:55 22.02.2020
2503 Rain 13 1018 100 16093 5.1 110 13:36 22.02.2020
2504 Rain 13 1020 93 12874 2.6 90 13:18 22.02.2020
2505 Rain 13 1019 93 6437 4.1 120 12:41 22.02.2020
2506 Rain 13 1020 93 14484 3.1 90 12:22 22.02.2020
2507 Rain 13 1019 87 16093 5.1 120 11:44 22.02.2020
2508 Rain 13 1021 87 16093 2.78 105 11:26 22.02.2020
2509 Rain 14 1020 82 16093 3.1 130 10:56 22.02.2020
2510 Rain 14 1020 82 16093 3.1 130 10:38 22.02.2020
2511 Rain 14 1021 87 16093 2.6 100 10:19 22.02.2020
2512 Rain 15 1020 63 16093 4.6 120 09:56 22.02.2020
2513 Rain 15 1020 63 16093 4.6 120 09:37 22.02.2020
2514 Rain 15 1020 63 16093 4.6 120 09:37 22.02.2020
2515 Drizzle 15 1020 67 16093 3.1 100 09:19 22.02.2020
2516 Clouds 16 1019 52 16093 6.7 130 08:44 22.02.2020
2517 Drizzle 16 1020 72 16093 7.7 110 08:26 22.02.2020
2518 Drizzle 16 1020 72 16093 7.7 110 08:26 22.02.2020
2519 Drizzle 17 1021 63 16093 7.2 110 07:43 22.02.2020
2520 Clouds 17 1021 63 16093 5.7 110 07:19 22.02.2020
2521 Clouds 17 1019 37 16093 8.2 130 06:46 22.02.2020
2522 Clouds 18 1020 32 16093 8.7 120 05:54 22.02.2020
2523 Clouds 18 1021 42 16093 6.7 90 04:29 22.02.2020
2524 Clear 18 1018 30 16093 7.2 120 02:44 22.02.2020
2525 Clear 18 1017 28 16093 6.7 120 01:57 22.02.2020
2526 Clear 19 1017 28 16093 6.7 120 01:39 22.02.2020
2527 Clouds 19 1019 39 16093 8.2 90 01:21 22.02.2020
2528 Clouds 19 1017 26 16093 7.7 120 00:39 22.02.2020
2529 Clouds 19 1019 37 16093 8.2 100 00:19 22.02.2020
2530 Clear 20 1017 26 16093 7.7 130 23:38 21.02.2020
2531 Clouds 20 1019 37 16093 9.3 90 23:20 21.02.2020
2532 Clear 21 1018 26 16093 5.7 140 22:42 21.02.2020
2533 Clouds 21 1019 34 16093 11.3 100 22:24 21.02.2020
2534 Clouds 21 1018 26 16093 7.7 120 21:56 21.02.2020
2535 Clouds 21 1018 26 16093 7.7 120 21:37 21.02.2020
2536 Clouds 20 1020 37 16093 9.8 100 21:19 21.02.2020
2537 Clear 20 1019 28 16093 9.3 120 20:46 21.02.2020
2538 Clouds 20 1021 36 16093 12.3 100 20:27 21.02.2020
2539 Clear 19 1020 30 16093 7.2 130 19:40 21.02.2020
2540 Clouds 18 1021 39 16093 10.8 90 19:22 21.02.2020
2541 Clear 18 1020 32 16093 8.7 130 18:44 21.02.2020
2542 Clouds 18 1022 44 16093 7.7 80 18:24 21.02.2020
2543 Clouds 17 1021 47 16093 10.3 100 17:58 21.02.2020
2544 Clear 16 1021 31 16093 10.8 130 17:38 21.02.2020
2545 Clear 16 1021 31 16093 10.8 130 17:38 21.02.2020
2546 Clouds 15 1022 44 16093 11.3 100 17:20 21.02.2020
2547 Clear 15 1020 31 16093 10.8 120 16:55 21.02.2020
2548 Clear 15 1020 31 16093 10.8 120 16:37 21.02.2020
2549 Clouds 15 1021 41 16093 9.3 90 16:19 21.02.2020
2550 Clouds 14 1019 33 16093 8.7 120 15:40 21.02.2020
2551 Clouds 14 1020 44 16093 10.3 100 15:19 21.02.2020
2552 Clear 14 1019 31 16093 7.7 110 14:43 21.02.2020
2553 Clear 15 1021 36 16093 7.7 110 14:22 21.02.2020
2554 Clear 15 1018 31 16093 9.3 120 13:59 21.02.2020
2555 Clear 15 1018 31 16093 9.3 120 13:40 21.02.2020
2556 Clouds 15 1020 41 16093 8.2 110 13:20 21.02.2020
2557 Clear 15 1018 33 16093 3.1 110 12:45 21.02.2020
2558 Clouds 15 1019 36 16093 4.1 80 12:27 21.02.2020
2559 Clear 15 1018 41 16093 2.6 70 11:57 21.02.2020
2560 Clear 15 1018 41 16093 2.6 70 11:38 21.02.2020
2561 Clouds 15 1020 39 16093 5.1 90 11:19 21.02.2020
2562 Clear 15 1019 41 16093 5.78 107 10:42 21.02.2020
2563 Clouds 15 1020 39 16093 7.2 90 10:22 21.02.2020
2564 Clear 15 1019 47 16093 5.78 107 09:58 21.02.2020
2565 Clear 16 1019 47 16093 5.78 107 09:39 21.02.2020
2566 Clear 16 1021 36 16093 6.2 100 09:20 21.02.2020
2567 Clear 15 1021 36 16093 6.2 100 09:20 21.02.2020
2568 Clear 15 1019 47 16093 5.78 107 08:55 21.02.2020
2569 Clear 15 1020 44 16093 3.1 90 08:36 21.02.2020
2570 Clear 16 1020 44 16093 3.1 90 08:18 21.02.2020
2571 Clear 15 1019 41 16093 7.66 109 07:41 21.02.2020
2572 Clouds 16 1020 47 16093 2.6 90 07:20 21.02.2020
2573 Clear 16 1019 41 16093 7.66 109 06:55 21.02.2020
2574 Clear 16 1020 47 16093 2.1 120 06:31 21.02.2020
2575 Clear 17 1019 36 16093 2.6 220 05:55 21.02.2020
2576 Clear 19 1019 33 16093 2.6 270 04:50 21.02.2020
2577 Clear 19 1019 32 16093 3.1 190 04:25 21.02.2020
2578 Clear 20 1018 33 16093 2.6 330 03:46 21.02.2020
2579 Clear 21 1018 33 16093 3.1 350 02:58 21.02.2020
2580 Clouds 24 1018 22 16093 6.2 330 01:29 21.02.2020
2581 Clear 25 1018 17 16093 3.6 340 00:46 21.02.2020
2582 Clouds 25 1018 19 16093 5.1 310 00:24 21.02.2020
2583 Clear 26 1018 17 16093 3.6 330 23:57 20.02.2020
2584 Clear 26 1018 17 16093 3.6 330 23:39 20.02.2020
2585 Clouds 26 1019 18 16093 4.1 310 23:20 20.02.2020
2586 Clear 25 1019 17 16093 3.1 360 22:39 20.02.2020
2587 Clouds 25 1019 16 16093 1.5 20 22:21 20.02.2020
2588 Clouds 25 1019 16 16093 1.5 20 22:21 20.02.2020
2589 Clouds 25 1019 16 16093 1.5 20 22:21 20.02.2020
2590 Clear 25 1019 19 16093 3.6 330 21:57 20.02.2020
2591 Clear 25 1019 19 16093 3.6 330 21:57 20.02.2020
2592 Clear 25 1019 19 16093 3.6 330 21:37 20.02.2020
2593 Clear 25 1019 19 16093 3.6 330 21:37 20.02.2020
2594 Clouds 25 1020 22 16093 2.6 30 21:19 20.02.2020
2595 Clear 24 1020 18 16093 1.5 320 20:56 20.02.2020
2596 Clear 24 1020 18 16093 1.5 320 20:56 20.02.2020
2597 Clouds 24 1021 26 16093 2.6 20 20:37 20.02.2020
2598 Clouds 23 1021 26 16093 2.6 20 20:19 20.02.2020
2599 Clear 23 1021 24 16093 3.7 99 19:58 20.02.2020
2600 Clear 23 1021 24 16093 3.7 99 19:58 20.02.2020
2601 Clear 22 1021 24 16093 3.7 99 19:40 20.02.2020
2602 Clear 21 1022 32 16093 3.7 99 19:21 20.02.2020
2603 Clear 20 1022 29 16093 3.1 90 18:40 20.02.2020
2604 Clear 18 1022 36 16093 3.7 99 18:20 20.02.2020
2605 Clear 17 1022 41 16093 3.6 120 17:56 20.02.2020
2606 Clear 16 1022 44 16093 4.6 110 17:38 20.02.2020
2607 Clear 15 1022 44 16093 4.6 110 17:18 20.02.2020
2608 Clear 13 1021 57 16093 1.34 85 16:55 20.02.2020
2609 Haze 12 1021 61 9656 3.6 140 16:37 20.02.2020
2610 Haze 11 1021 61 9656 3.6 140 16:18 20.02.2020
2611 Clear 8 1020 61 16093 3.6 100 15:42 20.02.2020
2612 Haze 8 1021 70 9656 1.34 85 15:21 20.02.2020
2613 Clear 7 1020 61 16093 3.1 100 14:57 20.02.2020
2614 Clear 7 1020 61 16093 3.1 100 14:39 20.02.2020
2615 Haze 7 1020 65 6437 3.1 130 14:20 20.02.2020
2616 Clear 7 1019 61 16093 0.25 77 13:46 20.02.2020
2617 Haze 7 1020 65 6437 4.6 120 13:20 20.02.2020
2618 Clear 7 1019 61 16093 0.12 89 12:59 20.02.2020
2619 Clear 8 1019 61 16093 0.12 89 12:40 20.02.2020
2620 Haze 8 1019 65 4828 4.6 110 12:19 20.02.2020
2621 Clear 8 1019 65 16093 0.12 89 11:56 20.02.2020
2622 Clear 9 1019 65 16093 0.12 89 11:37 20.02.2020
2623 Haze 8 1019 70 6437 4.1 120 11:19 20.02.2020
2624 Clear 9 1019 61 16093 1.28 316 10:42 20.02.2020
2625 Clear 9 1019 66 16093 3.6 140 10:22 20.02.2020
2626 Clear 9 1019 66 16093 3.6 140 10:22 20.02.2020
2627 Clear 9 1019 61 16093 1.28 316 09:55 20.02.2020
2628 Clear 9 1019 61 16093 1.28 316 09:55 20.02.2020
2629 Clear 10 1019 61 16093 1.28 316 09:37 20.02.2020
2630 Clear 10 1019 61 16093 1.28 316 09:19 20.02.2020
2631 Clear 11 1019 57 16093 1.28 316 08:40 20.02.2020
2632 Haze 11 1019 61 6437 3.1 130 08:22 20.02.2020
2633 Clear 12 1018 53 16093 1.48 273 07:47 20.02.2020
2634 Haze 12 1019 62 4828 4.6 120 07:26 20.02.2020
2635 Clear 12 1018 43 16093 1.48 273 06:56 20.02.2020
2636 Clear 12 1019 50 16093 1.5 170 06:30 20.02.2020
2637 Clear 13 1018 41 16093 1.48 273 05:47 20.02.2020
2638 Clear 15 1018 41 16093 2.86 312 05:18 20.02.2020
2639 Clear 15 1018 36 16093 1.5 300 04:28 20.02.2020
2640 Clear 17 1016 32 16093 2.86 312 03:40 20.02.2020
2641 Clear 19 1016 32 16093 2.86 312 02:37 20.02.2020
2642 Clear 22 1016 24 16093 2.6 310 01:21 20.02.2020
2643 Clear 23 1016 26 16093 2.1 330 00:34 20.02.2020
2644 Clear 23 1015 20 16093 5.1 340 23:54 19.02.2020
2645 Clouds 23 1016 25 16093 2.6 330 23:23 19.02.2020
2646 Clear 23 1015 20 16093 2.46 277 22:56 19.02.2020
2647 Clear 23 1016 26 16093 3.1 320 22:38 19.02.2020
2648 Clear 23 1016 26 16093 3.1 320 22:20 19.02.2020
2649 Clear 23 1016 20 16093 2.46 277 21:55 19.02.2020
2650 Clear 23 1016 20 16093 2.46 277 21:37 19.02.2020
2651 Clouds 23 1017 26 16093 2.1 310 21:18 19.02.2020
2652 Clear 22 1017 26 16093 2.46 277 20:55 19.02.2020
2653 Clear 22 1018 30 16093 2.1 240 20:36 19.02.2020
2654 Clear 21 1018 30 16093 2.1 240 20:18 19.02.2020
2655 Clear 21 1018 29 16093 1.42 275 19:55 19.02.2020
2656 Clouds 20 1018 34 16093 1.42 275 19:36 19.02.2020
2657 Clouds 19 1018 34 16093 1.42 275 19:18 19.02.2020
2658 Clear 18 1018 38 16093 1.42 275 18:55 19.02.2020
2659 Clear 17 1018 38 16093 1.42 275 18:37 19.02.2020
2660 Clouds 17 1018 41 16093 1.5 150 18:19 19.02.2020
2661 Clear 15 1017 44 16093 4.1 110 17:42 19.02.2020
2662 Clouds 13 1018 50 16093 1.16 235 17:19 19.02.2020
2663 Clear 12 1017 47 16093 1.16 235 16:44 19.02.2020
2664 Clouds 11 1017 57 16093 2.1 130 16:19 19.02.2020
2665 Clear 10 1016 57 16093 2.1 120 15:58 19.02.2020
2666 Clear 10 1016 57 16093 2.1 120 15:39 19.02.2020
2667 Clear 10 1016 57 16093 1.16 235 15:20 19.02.2020
2668 Clear 10 1016 53 16093 3.6 120 14:42 19.02.2020
2669 Clear 9 1017 50 16093 2.1 130 14:23 19.02.2020
2670 Clear 9 1016 61 16093 0.8 202 13:59 19.02.2020
2671 Clear 9 1016 61 16093 0.8 202 13:39 19.02.2020
2672 Clear 10 1016 57 16093 2.1 110 13:19 19.02.2020
2673 Clear 10 1015 50 16093 4.6 100 12:39 19.02.2020
2674 Clear 10 1015 53 16093 3.6 110 12:19 19.02.2020
2675 Clear 10 1015 50 16093 2.6 110 11:55 19.02.2020
2676 Clear 10 1015 50 16093 2.6 110 11:37 19.02.2020
2677 Clear 10 1016 57 16093 3.6 120 11:18 19.02.2020
2678 Clear 10 1015 50 16093 1.28 159 10:56 19.02.2020
2679 Clear 10 1016 57 16093 4.6 110 10:37 19.02.2020
2680 Clear 10 1016 57 16093 4.6 110 10:18 19.02.2020
2681 Clear 10 1016 46 16093 1.28 159 09:54 19.02.2020
2682 Clear 10 1017 53 16093 2.1 140 09:36 19.02.2020
2683 Clear 10 1017 53 16093 2.1 140 09:18 19.02.2020
2684 Clear 11 1016 46 16093 1.28 159 08:42 19.02.2020
2685 Clear 11 1016 46 16093 1.28 159 08:42 19.02.2020
2686 Clear 11 1017 57 16093 4.6 110 08:23 19.02.2020
2687 Clear 12 1016 50 16093 1.23 281 07:41 19.02.2020
2688 Clear 12 1016 57 16093 2.6 110 07:20 19.02.2020
2689 Clear 13 1016 43 16093 1.23 281 06:47 19.02.2020
2690 Clear 14 1015 43 16093 1.23 281 05:40 19.02.2020
2691 Clear 16 1015 37 16093 0.88 300 03:59 19.02.2020
2692 Clear 19 1014 29 16093 3.6 320 02:49 19.02.2020
2693 Clear 20 1014 28 16093 3.1 310 02:29 19.02.2020
2694 Clear 23 1014 20 16093 3.1 280 01:23 19.02.2020
2695 Clear 24 1013 17 16093 3.22 320 00:43 19.02.2020
2696 Clear 24 1014 19 16093 1.5 280 00:24 19.02.2020
2697 Clear 24 1013 16 16093 3.22 320 23:41 18.02.2020
2698 Clear 24 1014 20 16093 2.6 260 23:20 18.02.2020
2699 Clear 24 1014 18 16093 2.6 300 22:56 18.02.2020
2700 Clear 24 1014 18 16093 2.6 300 22:37 18.02.2020
2701 Clear 23 1014 20 14484 2.6 260 22:19 18.02.2020
2702 Clear 23 1014 18 16093 1.62 264 21:55 18.02.2020
2703 Clear 23 1015 24 16093 1.62 264 21:37 18.02.2020
2704 Clear 23 1015 24 16093 1.62 264 21:18 18.02.2020
2705 Clear 22 1015 21 16093 1.62 264 20:55 18.02.2020
2706 Clear 22 1015 21 16093 1.62 264 20:37 18.02.2020
2707 Clear 21 1016 30 16093 0.42 68 20:18 18.02.2020
2708 Clear 21 1016 28 16093 0.31 41 19:42 18.02.2020
2709 Clear 20 1017 32 16093 0.31 41 19:20 18.02.2020
2710 Clear 19 1016 28 16093 0.31 41 18:58 18.02.2020
2711 Clear 18 1016 28 16093 0.31 41 18:40 18.02.2020
2712 Clear 17 1017 36 16093 0.31 41 18:19 18.02.2020
2713 Clear 16 1017 41 16093 3.6 120 17:42 18.02.2020
2714 Clear 14 1017 41 16093 3.6 120 17:20 18.02.2020
2715 Clear 12 1016 53 16093 4.1 100 16:41 18.02.2020
2716 Clear 10 1016 49 16093 3.6 100 16:22 18.02.2020
2717 Clear 10 1016 49 16093 3.6 100 16:22 18.02.2020
2718 Clear 8 1016 61 16093 0.26 216 15:58 18.02.2020
2719 Clear 7 1016 61 16093 0.26 216 15:39 18.02.2020
2720 Clear 6 1016 70 16093 4.1 120 15:19 18.02.2020
2721 Clear 6 1016 49 16093 4.1 140 14:56 18.02.2020
2722 Clear 6 1016 49 16093 4.1 140 14:56 18.02.2020
2723 Clear 6 1016 49 16093 4.1 140 14:37 18.02.2020
2724 Clear 6 1016 47 16093 4.1 140 14:19 18.02.2020
2725 Clear 6 1015 61 16093 0.87 239 13:41 18.02.2020
2726 Clear 6 1015 65 16093 4.1 120 13:21 18.02.2020
2727 Clear 6 1015 61 16093 0.82 238 12:54 18.02.2020
2728 Clear 6 1015 61 16093 0.82 238 12:54 18.02.2020
2729 Clear 7 1015 61 16093 0.82 238 12:36 18.02.2020
2730 Clear 7 1015 70 16093 3.6 120 12:18 18.02.2020
2731 Clear 7 1014 61 16093 0.82 238 11:42 18.02.2020
2732 Clear 8 1015 70 16093 2.1 120 11:24 18.02.2020
2733 Clear 8 1015 53 16093 2.6 120 10:55 18.02.2020
2734 Clear 8 1015 65 16093 3.6 120 10:36 18.02.2020
2735 Clear 8 1015 65 16093 3.6 120 10:18 18.02.2020
2736 Clear 8 1015 53 16093 1.85 227 09:55 18.02.2020
2737 Clear 9 1015 61 16093 3.6 100 09:36 18.02.2020
2738 Clear 9 1015 61 16093 3.6 100 09:18 18.02.2020
2739 Clear 9 1015 57 16093 1.85 227 08:41 18.02.2020
2740 Clear 10 1015 61 16093 4.1 130 08:20 18.02.2020
2741 Clear 10 1016 50 16093 2.6 150 07:56 18.02.2020
2742 Clear 11 1015 57 16093 4.1 130 07:30 18.02.2020
2743 Clear 11 1014 39 16093 1.49 201 06:56 18.02.2020
2744 Clear 11 1014 39 16093 1.49 201 06:36 18.02.2020
2745 Clear 12 1014 46 16093 1.49 201 05:56 18.02.2020
2746 Clear 13 1014 41 16093 1.5 220 05:27 18.02.2020
2747 Clear 16 1013 29 16093 1.71 310 03:59 18.02.2020
2748 Clear 18 1012 24 16093 1.71 310 02:59 18.02.2020
2749 Clear 20 1012 19 16093 3.6 320 01:58 18.02.2020
2750 Clear 23 1011 18 16093 4.1 330 00:46 18.02.2020
2751 Clear 23 1011 18 16093 4.1 330 00:46 18.02.2020
2752 Clear 23 1012 20 16093 2.1 310 00:20 18.02.2020
2753 Clear 23 1011 17 16093 3.1 300 23:44 17.02.2020
2754 Clear 23 1012 21 16093 2.6 310 23:25 17.02.2020
2755 Clear 23 1012 16 16093 2.6 320 22:59 17.02.2020
2756 Clear 23 1012 16 16093 2.6 320 22:41 17.02.2020
2757 Clear 23 1012 19 16093 2.1 330 22:20 17.02.2020
2758 Clear 22 1012 15 16093 2.45 309 21:41 17.02.2020
2759 Clear 22 1014 18 16093 2.6 300 21:20 17.02.2020
2760 Clear 22 1013 19 16093 2.45 309 20:59 17.02.2020
2761 Clear 22 1013 19 16093 2.45 309 20:39 17.02.2020
2762 Clear 21 1015 20 16093 2.6 240 20:20 17.02.2020
2763 Clear 20 1015 24 16093 1.16 298 19:56 17.02.2020
2764 Clear 20 1015 24 16093 1.16 298 19:37 17.02.2020
2765 Clear 19 1015 22 16093 1.16 298 19:19 17.02.2020
2766 Clear 18 1015 22 16093 2.1 100 18:37 17.02.2020
2767 Clear 17 1015 22 16093 2.1 100 18:19 17.02.2020
2768 Clear 16 1015 22 16093 3.1 110 17:55 17.02.2020
2769 Clear 15 1015 22 16093 3.1 110 17:36 17.02.2020
2770 Clear 15 1015 22 16093 3.1 110 17:36 17.02.2020
2771 Clear 14 1015 39 16093 2.1 90 17:18 17.02.2020
2772 Clear 11 1015 39 16093 4.1 110 16:43 17.02.2020
2773 Clear 11 1015 52 16093 4.1 120 16:23 17.02.2020
2774 Clear 7 1014 39 16093 4.1 110 15:59 17.02.2020
2775 Clear 6 1014 39 16093 4.1 110 15:41 17.02.2020
2776 Clear 6 1014 39 16093 4.1 110 15:41 17.02.2020
2777 Clear 6 1015 39 16093 2.6 110 15:22 17.02.2020
2778 Clear 6 1014 39 16093 1.5 110 14:46 17.02.2020
2779 -273 0 0 0 0 0 14:27 17.02.2020
2780 Clear 6 1014 40 16093 1.55 219 13:59 17.02.2020
2781 Clear 6 1014 40 16093 1.55 219 13:40 17.02.2020
2782 Clear 6 1014 40 16093 2.1 90 13:19 17.02.2020
2783 Clear 6 1015 38 16093 3.6 120 12:54 17.02.2020
2784 Clear 6 1015 38 16093 3.6 120 12:54 17.02.2020
2785 Clear 7 1014 38 16093 4.1 100 12:36 17.02.2020
2786 Clear 7 1015 38 16093 3.6 120 12:18 17.02.2020
2787 Clear 8 1014 38 16093 3.1 90 11:43 17.02.2020
2788 Clear 7 1015 38 16093 2.6 110 11:22 17.02.2020
2789 Clear 8 1015 38 16093 4.1 90 10:56 17.02.2020
2790 Clear 8 1015 38 16093 4.1 110 10:37 17.02.2020
2791 Clear 8 1015 38 16093 4.1 110 10:19 17.02.2020
2792 Clear 8 1015 38 16093 4.1 110 10:19 17.02.2020
2793 Clear 8 1015 38 16093 1.36 180 09:54 17.02.2020
2794 Clear 8 1016 38 16093 4.1 110 09:36 17.02.2020
2795 Clear 8 1016 38 16093 4.1 110 09:18 17.02.2020
2796 Clear 9 1015 61 16093 1.36 180 08:41 17.02.2020
2797 Clear 9 1016 61 16093 3.1 140 08:22 17.02.2020
2798 Clear 9 1016 37 16093 0.94 287 07:55 17.02.2020
2799 Clear 10 1017 57 16093 2.6 110 07:26 17.02.2020
2800 Clear 10 1016 37 16093 0.94 287 06:56 17.02.2020
2801 Clear 10 1017 57 16093 2.6 120 06:36 17.02.2020
2802 Clear 11 1016 37 16093 0.94 287 05:59 17.02.2020
2803 Clear 11 1016 37 16093 0.94 287 05:59 17.02.2020
2804 Clear 11 1016 37 16093 0.94 287 05:38 17.02.2020
2805 Clear 15 1016 23 16093 1.5 300 03:24 17.02.2020
2806 Clear 20 1016 15 16093 3.17 343 01:59 17.02.2020
2807 Clear 22 1016 14 16093 1.5 290 00:55 17.02.2020
2808 Clear 22 1016 17 16093 3.6 300 00:23 17.02.2020
2809 Clear 22 1016 13 16093 1.5 330 23:54 16.02.2020
2810 Clear 22 1016 13 16093 1.5 330 23:54 16.02.2020
2811 Clear 22 1017 14 16093 1.5 300 23:33 16.02.2020
2812 Clear 22 1016 14 16093 3.1 280 22:58 16.02.2020
2813 Clear 22 1016 14 16093 3.1 280 22:58 16.02.2020
2814 Clear 22 1016 14 16093 3.1 280 22:39 16.02.2020
2815 Clear 22 1016 14 16093 3.1 280 22:39 16.02.2020
2816 Clear 22 1017 19 16093 1.5 360 22:21 16.02.2020
2817 Clear 22 1017 19 16093 1.5 360 22:21 16.02.2020
2818 Clear 22 1017 16 16093 2.1 280 21:58 16.02.2020
2819 Clear 21 1017 16 16093 2.1 280 21:40 16.02.2020
2820 Clear 21 1018 22 16093 1.46 328 21:22 16.02.2020
2821 Clear 21 1019 22 16093 1.46 328 20:58 16.02.2020
2822 Clear 20 1019 22 16093 1.46 328 20:39 16.02.2020
2823 Clear 19 1020 24 16093 1.5 330 20:21 16.02.2020
2824 Clear 19 1020 24 16093 1.5 330 20:21 16.02.2020
2825 Clear 19 1020 29 16093 0.84 120 19:58 16.02.2020
2826 Clear 18 1020 29 16093 0.84 120 19:38 16.02.2020
2827 Clear 18 1021 33 16093 0.84 120 19:19 16.02.2020
2828 Clear 18 1021 33 16093 0.84 120 19:19 16.02.2020
2829 Clear 16 1022 31 16093 2.6 160 18:44 16.02.2020
2830 Clear 15 1022 26 16093 1.5 150 18:25 16.02.2020
2831 Clear 14 1022 26 16093 3.6 150 17:57 16.02.2020
2832 Clear 13 1022 53 16093 0.84 120 17:39 16.02.2020
2833 Clear 11 1022 50 16093 3.6 150 17:19 16.02.2020
2834 Clear 10 1021 50 16093 0.25 135 16:55 16.02.2020
2835 Clear 8 1021 50 16093 0.25 135 16:36 16.02.2020
2836 Clear 7 1022 60 16093 0.25 135 16:18 16.02.2020
2837 Clear 4 1022 50 16093 1.5 150 15:41 16.02.2020
2838 Clear 4 1022 50 16093 1.5 150 15:41 16.02.2020
2839 Clear 4 1022 50 16093 1.5 150 15:22 16.02.2020
2840 Clear 4 1021 50 16093 2.6 140 14:44 16.02.2020
2841 Clear 4 1021 50 16093 2.6 140 14:44 16.02.2020
2842 Clear 4 1021 65 16093 4.6 120 14:23 16.02.2020
2843 Clear 5 1022 80 16093 2.6 130 13:57 16.02.2020
2844 Clear 5 1022 80 16093 2.6 130 13:38 16.02.2020
2845 Clear 5 1021 65 16093 3.6 120 13:20 16.02.2020
2846 Clear 5 1021 49 16093 3.6 110 12:39 16.02.2020
2847 Clear 5 1021 49 16093 3.6 110 12:39 16.02.2020
2848 Clear 5 1021 49 16093 3.1 100 12:19 16.02.2020
2849 Clear 5 1021 49 16093 3.1 100 12:19 16.02.2020
2850 Clear 6 1021 49 16093 0.63 113 11:40 16.02.2020
2851 Clear 5 1021 48 16093 4.6 110 11:20 16.02.2020
2852 Clear 6 1021 48 16093 4.1 120 10:58 16.02.2020
2853 Clear 6 1021 48 16093 4.1 120 10:58 16.02.2020
2854 Clear 6 1021 48 16093 4.1 120 10:58 16.02.2020
2855 Clear 6 1021 48 16093 4.1 120 10:40 16.02.2020
2856 Clear 6 1021 48 16093 2.6 120 10:22 16.02.2020
2857 Clear 6 1021 48 16093 0.42 49 09:59 16.02.2020
2858 Clear 6 1021 48 16093 0.42 49 09:38 16.02.2020
2859 Clear 6 1021 48 16093 0.42 49 09:38 16.02.2020
2860 Clear 6 1021 48 16093 0.42 49 09:38 16.02.2020
2861 Clear 7 1021 70 16093 3.6 110 09:20 16.02.2020
2862 Clear 7 1021 65 16093 0.42 49 08:56 16.02.2020
2863 Clear 7 1021 65 16093 0.42 49 08:38 16.02.2020
2864 Clear 8 1022 70 16093 3.1 130 08:18 16.02.2020
2865 Clear 8 1021 45 16093 0.83 267 07:41 16.02.2020
2866 Clear 9 1021 45 16093 0.83 267 06:54 16.02.2020
2867 Clear 9 1021 53 16093 2.1 240 06:29 16.02.2020
2868 Clear 11 1020 34 16093 2.21 340 04:37 16.02.2020
2869 Clear 14 1020 30 16093 2.21 340 03:20 16.02.2020
2870 Clear 18 1019 20 16093 3.6 330 01:58 16.02.2020
2871 Clear 18 1019 20 16093 3.6 330 01:38 16.02.2020
2872 Clear 19 1019 22 16093 2.1 260 01:19 16.02.2020
2873 Clear 20 1019 19 16093 3.6 300 00:42 16.02.2020
2874 Clear 20 1019 22 16093 3.1 290 00:22 16.02.2020
2875 Clear 20 1019 19 11265 3.1 280 23:43 15.02.2020
2876 Clear 20 1020 22 16093 3.1 300 23:25 15.02.2020
2877 Clear 20 1020 19 16093 2.13 328 22:57 15.02.2020
2878 Clear 20 1020 22 16093 2.13 328 22:39 15.02.2020
2879 Clear 20 1020 22 16093 2.13 328 22:19 15.02.2020
2880 Clear 20 1020 22 16093 2.13 328 21:56 15.02.2020
2881 Clear 20 1020 22 16093 2.13 328 21:37 15.02.2020
2882 Clear 19 1021 23 16093 2.1 240 21:19 15.02.2020
2883 Clear 19 1022 25 16093 2.13 328 20:38 15.02.2020
2884 Clear 18 1022 25 16093 0.13 231 20:20 15.02.2020
2885 Clear 18 1022 33 16093 0.76 340 19:43 15.02.2020
2886 Clear 17 1022 33 16093 0.76 340 19:22 15.02.2020
2887 Clear 15 1022 41 16093 0.76 340 18:43 15.02.2020
2888 Clear 15 1022 33 16093 1.5 100 18:22 15.02.2020
2889 Clear 13 1022 57 16093 0.76 340 17:57 15.02.2020
2890 Clear 13 1022 57 16093 0.76 340 17:57 15.02.2020
2891 Clear 13 1022 57 16093 0.76 340 17:37 15.02.2020
2892 Clear 11 1022 55 16093 3.1 130 17:19 15.02.2020
2893 Clear 9 1021 61 16093 3.6 120 16:42 15.02.2020
2894 Clear 8 1021 55 16093 4.1 120 16:24 15.02.2020
2895 Clear 5 1021 70 16093 0.27 156 15:57 15.02.2020
2896 Clear 4 1021 70 16093 0.27 156 15:39 15.02.2020
2897 Clear 4 1021 55 16093 3.6 130 15:20 15.02.2020
2898 Clear 4 1021 70 16093 4.1 110 14:43 15.02.2020
2899 Clear 4 1020 54 16093 3.6 110 14:19 15.02.2020
2900 Clear 5 1020 75 16093 0.25 24 13:43 15.02.2020
2901 Clear 5 1020 53 16093 4.6 120 13:25 15.02.2020
2902 Clear 5 1020 70 16093 0.41 4 12:59 15.02.2020
2903 Clear 6 1020 70 16093 0.41 4 12:41 15.02.2020
2904 Clear 6 1020 70 16093 0.41 4 12:41 15.02.2020
2905 Clear 5 1020 75 16093 4.1 120 12:22 15.02.2020
2906 Clear 5 1020 70 16093 0.41 4 11:48 15.02.2020
2907 Clear 6 1020 75 16093 2.6 130 11:29 15.02.2020
2908 Clear 6 1020 70 16093 1.18 291 10:51 15.02.2020
2909 Clear 6 1020 75 16093 4.1 120 10:30 15.02.2020
2910 Clear 7 1020 65 16093 1.18 291 09:58 15.02.2020
2911 Clear 7 1020 65 16093 1.18 291 09:39 15.02.2020
2912 Clear 7 1020 70 16093 1.5 130 09:21 15.02.2020
2913 Clear 8 1020 44 16093 1.18 291 08:43 15.02.2020
2914 Clear 8 1020 70 16093 2.1 140 08:25 15.02.2020
2915 Clear 9 1020 57 16093 0.88 270 07:51 15.02.2020
2916 Clear 9 1019 61 16093 3.1 130 07:31 15.02.2020
2917 Clear 9 1019 57 16093 0.88 270 06:54 15.02.2020
2918 Clouds 10 1019 61 16093 3.1 150 06:36 15.02.2020
2919 Clear 11 1019 50 16093 0.88 270 05:41 15.02.2020
2920 Clear 13 1018 46 16093 2.58 290 04:46 15.02.2020
2921 Clear 14 1017 33 16093 2.1 20 03:39 15.02.2020
2922 Clear 16 1017 27 16093 2.1 350 02:51 15.02.2020
2923 Clear 17 1017 36 16093 4.1 310 02:22 15.02.2020
2924 Clear 19 1016 22 16093 2.1 360 01:40 15.02.2020
2925 Clear 20 1016 24 16093 3.6 350 00:42 15.02.2020
2926 Clear 21 1016 21 16093 4.1 330 00:21 15.02.2020
2927 Clear 21 1016 22 16093 3.1 330 23:40 14.02.2020
2928 Clear 21 1016 22 16093 2.1 330 23:19 14.02.2020
2929 Clear 21 1016 13 16093 3.6 250 22:44 14.02.2020
2930 Clear 21 1017 20 16093 4.12 228 22:23 14.02.2020
2931 Clear 21 1017 15 16093 4.12 228 21:52 14.02.2020
2932 Clear 21 1018 22 16093 1.5 240 21:34 14.02.2020
2933 Clear 21 1018 22 16093 4.12 228 20:59 14.02.2020
2934 Clear 20 1018 22 16093 4.12 228 20:41 14.02.2020
2935 Clear 19 1018 29 16093 1.67 187 20:19 14.02.2020
2936 Clear 19 1018 36 16093 1.27 187 19:54 14.02.2020
2937 Clear 18 1018 36 16093 1.27 187 19:36 14.02.2020
2938 Clear 18 1019 38 16093 2.1 140 19:18 14.02.2020
2939 Clear 17 1018 38 16093 1.27 187 18:54 14.02.2020
2940 Clear 16 1019 47 16093 3.1 180 18:36 14.02.2020
2941 Clear 15 1019 47 16093 3.1 180 18:18 14.02.2020
2942 Clear 13 1018 50 16093 3.1 120 17:40 14.02.2020
2943 Clear 12 1019 53 16093 4.1 130 17:18 14.02.2020
2944 Clear 9 1018 61 16093 4.6 110 16:42 14.02.2020
2945 Clear 9 1018 61 16093 4.6 110 16:42 14.02.2020
2946 Clear 8 1018 70 16093 4.1 120 16:24 14.02.2020
2947 Clear 7 1018 65 16093 4.1 120 15:58 14.02.2020
2948 Clear 6 1018 65 16093 4.1 120 15:39 14.02.2020
2949 Clear 6 1018 65 16093 5.1 100 15:21 14.02.2020
2950 Clear 5 1017 70 16093 3.6 120 14:59 14.02.2020
2951 Clear 5 1017 70 16093 3.6 120 14:59 14.02.2020
2952 Clear 5 1017 70 16093 3.6 120 14:41 14.02.2020
2953 Clear 6 1018 80 16093 4.1 100 14:22 14.02.2020
2954 Clear 6 1017 75 16093 2.6 120 13:56 14.02.2020
2955 Clear 6 1017 75 16093 2.6 120 13:38 14.02.2020
2956 Clear 6 1017 80 16093 4.6 110 13:19 14.02.2020
2957 Clear 6 1017 65 16093 4.1 100 12:56 14.02.2020
2958 Clear 6 1017 65 16093 4.1 100 12:38 14.02.2020
2959 Clear 6 1017 75 16093 4.6 120 12:20 14.02.2020
2960 Clear 6 1017 65 16093 3.6 130 11:55 14.02.2020
2961 Clear 6 1017 65 16093 3.6 130 11:37 14.02.2020
2962 Clear 7 1017 75 16093 4.6 120 11:19 14.02.2020
2963 Clear 7 1017 65 16093 0.65 305 10:41 14.02.2020
2964 Clear 7 1018 75 16093 2.1 120 10:22 14.02.2020
2965 Clear 7 1018 75 16093 2.1 120 10:22 14.02.2020
2966 Clear 7 1018 65 16093 0.65 305 09:45 14.02.2020
2967 Clear 7 1018 75 16093 3.1 130 09:24 14.02.2020
2968 Clear 7 1017 65 16093 0.65 305 08:58 14.02.2020
2969 Clear 7 1017 65 16093 0.65 305 08:39 14.02.2020
2970 Clear 7 1018 75 16093 3.1 110 08:21 14.02.2020
2971 Clear 8 1018 70 16093 1.03 265 07:49 14.02.2020
2972 Clear 8 1018 75 16093 3.1 160 07:29 14.02.2020
2973 Clear 9 1018 61 16093 1.03 265 06:39 14.02.2020
2974 Clear 9 1018 65 16093 2.1 160 06:20 14.02.2020
2975 Clear 10 1018 61 16093 1.03 265 05:29 14.02.2020
2976 Clear 12 1017 37 16093 2.02 324 03:49 14.02.2020
2977 Clear 13 1017 35 16093 2.02 324 02:58 14.02.2020
2978 Clear 16 1016 25 16093 3.08 346 01:57 14.02.2020
2979 Clear 18 1016 23 16093 2.6 340 00:46 14.02.2020
2980 Clear 18 1016 23 16093 3.19 345 00:27 14.02.2020
2981 Clear 18 1017 25 16093 2.1 340 23:57 13.02.2020
2982 Clear 18 1017 25 16093 2.6 250 23:38 13.02.2020
2983 Clear 18 1017 25 16093 2.6 250 23:18 13.02.2020
2984 Clear 18 1017 27 16093 2.6 360 22:40 13.02.2020
2985 Clear 18 1017 27 16093 1.5 320 22:19 13.02.2020
2986 Clear 17 1018 29 16093 1.75 37 21:57 13.02.2020
2987 Clear 17 1018 31 16093 3.1 20 21:37 13.02.2020
2988 Clear 17 1018 31 16093 3.1 20 21:19 13.02.2020
2989 Clear 16 1019 28 16093 1.75 37 20:42 13.02.2020
2990 Clear 16 1019 23 16093 2.1 70 20:22 13.02.2020
2991 Clear 15 1019 43 16093 2.74 87 19:57 13.02.2020
2992 Clear 15 1019 43 16093 2.74 87 19:38 13.02.2020
2993 Clear 14 1019 31 16093 2.74 87 19:20 13.02.2020
2994 Clear 14 1019 50 16093 2.74 87 18:57 13.02.2020
2995 Clear 13 1019 50 16093 2.74 87 18:39 13.02.2020
2996 Clear 12 1019 31 16093 1.5 90 18:20 13.02.2020
2997 Clear 11 1019 61 16093 1.5 140 17:57 13.02.2020
2998 Clear 10 1019 61 16093 1.5 140 17:37 13.02.2020
2999 Clear 9 1019 56 16093 4.1 110 17:18 13.02.2020
3000 Clear 6 1020 80 16093 1.14 87 16:42 13.02.2020
3001 Clear 5 1019 56 16093 3.6 110 16:21 13.02.2020
3002 Clear 4 1019 56 16093 1.14 87 15:57 13.02.2020
3003 Clear 2 1019 56 16093 1.14 87 15:39 13.02.2020
3004 Clear 2 1019 80 16093 1.14 87 15:19 13.02.2020
3005 Clear 2 1019 80 16093 2.6 120 14:59 13.02.2020
3006 Clear 2 1019 80 16093 2.6 120 14:39 13.02.2020
3007 Clear 2 1018 55 16093 2.6 120 14:21 13.02.2020
3008 Clear 3 1018 80 16093 1.06 56 13:48 13.02.2020
3009 Clear 2 1018 55 16093 3.1 130 13:19 13.02.2020
3010 Clear 3 1018 80 16093 0.72 47 12:58 13.02.2020
3011 Clear 3 1018 80 16093 0.72 47 12:40 13.02.2020
3012 Clear 3 1018 86 16093 3.6 130 12:22 13.02.2020
3013 Clear 3 1019 86 16093 0.72 47 11:55 13.02.2020
3014 Clear 3 1019 86 16093 0.72 47 11:37 13.02.2020
3015 Clear 4 1019 80 16093 4.1 110 11:18 13.02.2020
3016 Clear 4 1019 80 16093 0.26 306 10:41 13.02.2020
3017 Clear 4 1019 86 16093 2.6 110 10:22 13.02.2020
3018 Clear 4 1019 80 16093 0.26 306 09:44 13.02.2020
3019 Clear 5 1019 80 16093 2.1 120 09:23 13.02.2020
3020 Clear 5 1019 80 16093 0.26 306 08:46 13.02.2020
3021 Clouds 5 1019 75 16093 1.47 285 08:19 13.02.2020
3022 Clear 6 1019 75 16093 1.47 285 07:43 13.02.2020
3023 Clouds 6 1019 75 16093 2.1 150 07:23 13.02.2020
3024 Clear 6 1018 65 16093 1.47 285 06:53 13.02.2020
3025 Clouds 7 1018 75 16093 2.6 130 06:33 13.02.2020
3026 Clear 7 1018 65 16093 1.47 285 05:52 13.02.2020
3027 Clear 8 1018 66 16093 1.75 293 04:48 13.02.2020
3028 Clear 8 1018 66 16093 1.75 293 04:22 13.02.2020
3029 Clear 9 1018 50 16093 1.75 293 03:41 13.02.2020
3030 Clear 11 1017 37 16093 1.75 293 02:58 13.02.2020
3031 Clear 12 1017 47 16093 3.1 300 02:20 13.02.2020
3032 Clear 13 1017 26 16093 2.1 340 01:41 13.02.2020
3033 Clear 13 1017 26 16093 2.1 340 01:41 13.02.2020
3034 Clear 14 1017 23 16093 3.1 340 00:57 13.02.2020
3035 Clear 15 1017 41 16093 5.1 300 00:27 13.02.2020
3036 Clouds 15 1017 34 16093 3.6 330 23:43 12.02.2020
3037 Clear 15 1017 41 16093 2.6 300 23:23 12.02.2020
3038 Clear 15 1017 41 16093 2.6 300 23:23 12.02.2020
3039 Clear 15 1017 37 16093 2.45 314 22:59 12.02.2020
3040 Clear 14 1017 37 16093 2.45 314 22:41 12.02.2020
3041 Clear 14 1017 47 16093 2.1 290 22:22 12.02.2020
3042 Clear 14 1017 35 16093 2.45 314 21:55 12.02.2020
3043 Clear 14 1017 35 16093 2.45 314 21:37 12.02.2020
3044 Clouds 13 1018 50 16093 2.1 260 21:18 12.02.2020
3045 Clear 13 1019 37 16093 2.45 314 20:43 12.02.2020
3046 Clouds 13 1019 50 16093 2.45 314 20:25 12.02.2020
3047 Clear 12 1019 54 16093 1.01 251 19:57 12.02.2020
3048 Clear 12 1019 61 16093 2.1 210 19:39 12.02.2020
3049 Clear 11 1019 61 16093 2.1 210 19:21 12.02.2020
3050 Clear 11 1019 62 16093 1.1 230 18:50 12.02.2020
3051 Rain 10 1019 70 16093 1.1 230 18:20 12.02.2020
3052 Rain 10 1019 70 16093 1.1 230 18:20 12.02.2020
3053 Rain 10 1019 70 16093 1.1 230 18:20 12.02.2020
3054 Rain 9 1019 81 16093 1.01 251 17:59 12.02.2020
3055 Rain 9 1019 81 16093 1.01 251 17:40 12.02.2020
3056 Clear 8 1019 75 16093 1.84 194 17:19 12.02.2020
3057 Rain 7 1019 93 16093 1.84 194 16:56 12.02.2020
3058 Rain 6 1018 93 16093 2.1 130 16:36 12.02.2020
3059 Rain 6 1018 93 16093 2.1 130 16:18 12.02.2020
3060 Rain 6 1018 93 16093 2.1 130 16:18 12.02.2020
3061 Clear 4 1018 100 11265 1.84 194 15:38 12.02.2020
3062 Clouds 4 1017 93 16093 1.5 130 15:19 12.02.2020
3063 Clouds 5 1017 93 16093 2.6 150 14:43 12.02.2020
3064 Clouds 5 1017 86 16093 2.1 160 14:21 12.02.2020
3065 Clear 5 1017 93 16093 0.99 266 13:59 12.02.2020
3066 Clear 5 1017 93 16093 0.99 266 13:40 12.02.2020
3067 Clear 5 1016 93 16093 2.1 130 13:22 12.02.2020
3068 Clouds 5 1017 93 16093 0.99 266 12:58 12.02.2020
3069 Clouds 5 1017 93 16093 0.99 266 12:39 12.02.2020
3070 Rain 5 1016 93 16093 2.1 180 12:19 12.02.2020
3071 Rain 5 1016 100 16093 0.99 266 11:59 12.02.2020
3072 Rain 5 1016 100 16093 0.99 266 11:40 12.02.2020
3073 Rain 5 1016 93 16093 2.1 150 11:21 12.02.2020
3074 Clouds 5 1016 93 16093 1.4 279 10:58 12.02.2020
3075 Clouds 5 1016 93 16093 1.4 279 10:39 12.02.2020
3076 Clouds 6 1016 93 16093 1.5 200 10:20 12.02.2020
3077 Clouds 6 1017 81 16093 1.4 279 09:42 12.02.2020
3078 Clouds 6 1017 81 16093 1.4 279 09:42 12.02.2020
3079 Clouds 6 1016 87 16093 1.5 210 09:24 12.02.2020
3080 Clouds 6 1016 87 16093 1.5 210 09:24 12.02.2020
3081 Clouds 6 1016 87 16093 2.6 200 08:59 12.02.2020
3082 Clouds 6 1016 81 16093 1.4 279 08:38 12.02.2020
3083 Clouds 7 1017 87 16093 2.1 180 08:20 12.02.2020
3084 Clouds 7 1017 87 16093 2.1 180 08:20 12.02.2020
3085 Clouds 7 1017 81 16093 0.43 182 07:58 12.02.2020
3086 Clouds 7 1017 81 16093 0.43 182 07:58 12.02.2020
3087 Clouds 7 1017 81 16093 0.43 182 07:39 12.02.2020
3088 Clouds 7 1016 81 16093 2.1 170 07:19 12.02.2020
3089 Clouds 7 1016 81 16093 2.1 170 07:19 12.02.2020
3090 Clouds 7 1016 87 16093 2.6 150 06:41 12.02.2020
3091 Clouds 7 1016 81 16093 2.6 140 06:18 12.02.2020
3092 Clouds 7 1016 87 16093 2.1 200 05:30 12.02.2020
3093 Rain 8 1016 76 16093 1.4 340 04:42 12.02.2020
3094 Rain 8 1016 81 16093 1.4 340 03:57 12.02.2020
3095 Rain 8 1015 81 16093 1.4 340 03:28 12.02.2020
3096 Rain 8 1015 71 16093 2.6 190 02:43 12.02.2020
3097 Rain 8 1014 81 16093 2.04 314 02:24 12.02.2020
3098 Rain 9 1014 87 16093 4.6 250 01:29 12.02.2020
3099 Rain 9 1014 81 16093 2.1 170 00:40 12.02.2020
3100 Rain 10 1013 76 14484 6.2 280 00:21 12.02.2020
3101 Rain 11 1013 70 16093 5.7 290 23:47 11.02.2020
3102 Rain 11 1013 76 16093 1.37 241 23:29 11.02.2020
3103 Clouds 12 1013 47 16093 3.6 290 22:56 11.02.2020
3104 Clouds 12 1013 47 16093 3.6 290 22:56 11.02.2020
3105 Clouds 12 1013 47 16093 3.6 290 22:38 11.02.2020
3106 Drizzle 12 1013 58 14484 4.6 270 22:20 11.02.2020
3107 Clouds 12 1013 50 16093 4.1 310 21:56 11.02.2020
3108 Clouds 12 1013 50 16093 4.1 310 21:38 11.02.2020
3109 Clouds 12 1013 50 16093 2.1 230 21:18 11.02.2020
3110 Clouds 12 1014 54 16093 2.9 188 20:57 11.02.2020
3111 Clouds 12 1014 54 16093 2.9 188 20:38 11.02.2020
3112 Clouds 11 1014 62 16093 2.57 208 20:19 11.02.2020
3113 Clouds 11 1014 66 16093 1.5 220 19:54 11.02.2020
3114 Clouds 10 1014 66 16093 1.5 170 19:36 11.02.2020
3115 Clouds 11 1014 66 16093 1.5 170 19:18 11.02.2020
3116 Clear 10 1015 71 16093 1.5 232 18:42 11.02.2020
3117 Clouds 10 1014 75 16093 1.5 232 18:24 11.02.2020
3118 Clouds 9 1015 81 16093 1.5 232 17:55 11.02.2020
3119 Clouds 8 1015 81 16093 1.5 232 17:37 11.02.2020
3120 Rain 8 1014 87 16093 1.5 170 17:18 11.02.2020
3121 Rain 8 1014 87 16093 1.5 170 17:18 11.02.2020
3122 Rain 7 1015 81 16093 2.53 247 16:57 11.02.2020
3123 Rain 7 1015 81 16093 2.53 247 16:38 11.02.2020
3124 Rain 6 1014 87 16093 3.1 270 16:19 11.02.2020
3125 Rain 6 1014 87 16093 2.53 247 15:45 11.02.2020
3126 Rain 6 1014 87 16093 1.5 120 15:26 11.02.2020
3127 Rain 6 1014 93 16093 2.53 247 14:58 11.02.2020
3128 Rain 6 1014 75 16093 2.1 90 14:39 11.02.2020
3129 Rain 5 1014 75 16093 2.1 90 14:18 11.02.2020
3130 Clouds 5 1013 81 16093 2.33 217 13:42 11.02.2020
3131 Clouds 5 1013 93 16093 1.5 30 13:22 11.02.2020
3132 Rain 5 1013 81 16093 2.14 212 12:59 11.02.2020
3133 Rain 5 1013 81 16093 2.14 212 12:40 11.02.2020
3134 Rain 5 1012 86 16093 1.5 270 12:21 11.02.2020
3135 Clear 5 1012 87 16093 2.14 212 11:55 11.02.2020
3136 Clear 5 1012 87 16093 2.14 212 11:36 11.02.2020
3137 Clear 5 1012 93 16093 3.1 130 11:18 11.02.2020
3138 Rain 6 1013 81 16093 3.19 183 10:39 11.02.2020
3139 Rain 6 1013 81 16093 3.1 200 10:20 11.02.2020
3140 Rain 6 1012 81 16093 1.5 190 09:57 11.02.2020
3141 Clear 7 1012 81 16093 1.5 190 09:39 11.02.2020
3142 Clouds 7 1013 75 16093 4.1 170 09:20 11.02.2020
3143 Clouds 8 1013 81 16093 3.19 183 08:48 11.02.2020
3144 Clouds 8 1013 87 16093 3.6 160 08:24 11.02.2020
3145 Clouds 8 1012 87 16093 3.6 90 07:49 11.02.2020
3146 Rain 8 1013 87 16093 3.6 150 07:27 11.02.2020
3147 Rain 8 1013 100 16093 2.6 80 06:55 11.02.2020
3148 Rain 8 1013 100 16093 2.6 80 06:37 11.02.2020
3149 Rain 8 1013 93 16093 1.5 230 06:19 11.02.2020
3150 Rain 8 1013 87 16093 2.66 224 05:26 11.02.2020
3151 Drizzle 9 1012 87 16093 1.5 330 04:53 11.02.2020
3152 Rain 10 1010 87 16093 7.03 205 03:26 11.02.2020
3153 Rain 11 1010 87 16093 2.6 80 02:33 11.02.2020
3154 Rain 12 1009 87 16093 3.6 60 01:39 11.02.2020
3155 Thunderstorm 12 1010 58 16093 3.6 190 00:50 11.02.2020
3156 Thunderstorm 13 1010 58 16093 3.6 190 00:22 11.02.2020
3157 Rain 16 1009 39 16093 10.3 180 23:40 10.02.2020
3158 Rain 17 1009 42 16093 1.5 340 23:20 10.02.2020
3159 Rain 18 1009 39 16093 5.1 290 22:42 10.02.2020
3160 Clouds 18 1009 34 16093 6.7 240 22:21 10.02.2020
3161 Clouds 19 1009 30 16093 5.7 220 21:57 10.02.2020
3162 Clouds 19 1009 30 16093 5.7 220 21:39 10.02.2020
3163 Clouds 19 1009 34 16093 1.5 310 21:21 10.02.2020
3164 Clear 19 1010 36 16093 9.78 206 20:54 10.02.2020
3165 Clear 19 1011 45 16093 4.1 290 20:36 10.02.2020
3166 Clear 18 1011 45 16093 4.1 290 20:18 10.02.2020
3167 Clear 18 1012 45 16093 1.96 187 19:56 10.02.2020
3168 Clear 17 1012 51 16093 3.6 280 19:36 10.02.2020
3169 Clear 17 1012 51 16093 3.6 280 19:18 10.02.2020
3170 Clear 16 1012 54 16093 1.96 187 18:41 10.02.2020
3171 Clear 16 1013 47 16093 4.1 290 18:22 10.02.2020
3172 Clear 15 1013 66 16093 1.96 187 17:59 10.02.2020
3173 Clear 15 1013 66 16093 1.96 187 17:39 10.02.2020
3174 Clear 14 1013 58 16093 3.1 280 17:21 10.02.2020
3175 Clear 13 1012 76 8047 1.59 192 16:59 10.02.2020
3176 Clear 13 1012 76 8047 1.59 192 16:40 10.02.2020
3177 Clear 11 1012 70 16093 1.59 192 16:20 10.02.2020
3178 Clear 10 1012 76 16093 2.6 340 15:58 10.02.2020
3179 Clear 10 1012 76 16093 2.6 340 15:39 10.02.2020
3180 Clear 9 1011 71 16093 1.5 40 15:21 10.02.2020
3181 Clear 10 1011 81 16093 1.59 192 14:57 10.02.2020
3182 Clear 10 1011 81 16093 1.59 192 14:39 10.02.2020
3183 Clouds 11 1011 66 16093 0.96 220 14:19 10.02.2020
3184 Clear 11 1011 71 16093 0.96 220 13:44 10.02.2020
3185 Clouds 12 1010 66 16093 0.76 264 13:24 10.02.2020
3186 Clear 12 1010 76 16093 0.76 264 12:56 10.02.2020
3187 Clouds 12 1010 66 16093 3.6 30 12:38 10.02.2020
3188 Clouds 13 1010 66 16093 3.6 30 12:19 10.02.2020
3189 Rain 13 1010 71 16093 0.76 264 11:45 10.02.2020
3190 Rain 14 1011 44 16093 1.5 170 11:21 10.02.2020
3191 Rain 14 1011 66 16093 3.97 105 10:48 10.02.2020
3192 Rain 14 1011 66 16093 3.97 105 10:48 10.02.2020
3193 Rain 14 1011 41 16093 3.6 170 10:30 10.02.2020
3194 Rain 16 1011 44 16093 3.97 105 09:55 10.02.2020
3195 Clouds 16 1011 44 16093 3.97 105 09:36 10.02.2020
3196 Clouds 16 1011 36 16093 2.6 160 09:18 10.02.2020
3197 Clouds 16 1010 48 16093 3.97 105 08:38 10.02.2020
3198 Clouds 17 1011 50 16093 2.57 166 08:20 10.02.2020
3199 Clouds 17 1010 46 16093 2.31 164 07:52 10.02.2020
3200 Clouds 16 1011 31 16093 1.5 180 07:32 10.02.2020
3201 Clouds 17 1010 29 16093 2.6 240 06:44 10.02.2020
3202 Clear 17 1010 24 16093 6.7 170 04:51 10.02.2020
3203 Clear 18 1009 24 16093 6.7 190 03:53 10.02.2020
3204 Clear 18 1009 20 16093 5.7 180 02:58 10.02.2020
3205 Clouds 19 1010 24 16093 2.6 240 02:36 10.02.2020
3206 Clouds 19 1009 24 16093 2.1 280 01:21 10.02.2020
3207 Clear 20 1008 18 16093 8.7 190 00:37 10.02.2020
3208 Clear 21 1008 17 16093 9.3 190 23:59 09.02.2020
3209 Clear 21 1008 17 16093 9.3 190 23:41 09.02.2020
3210 Clouds 21 1009 17 16093 6.7 180 23:23 09.02.2020
3211 Clouds 21 1009 17 16093 6.7 180 23:23 09.02.2020
3212 Clear 22 1008 16 16093 8.7 200 22:43 09.02.2020
3213 Clouds 22 1009 19 16093 5.1 170 22:22 09.02.2020
3214 Clouds 22 1010 19 16093 7.2 170 21:54 09.02.2020
3215 Clouds 22 1011 22 16093 6.2 160 21:36 09.02.2020
3216 Clouds 21 1011 22 16093 6.2 160 21:18 09.02.2020
3217 Clouds 22 1012 21 16093 7.2 200 20:43 09.02.2020
3218 Clear 21 1012 25 16093 5.1 160 20:20 09.02.2020
3219 Clear 20 1011 21 16093 9.3 180 19:54 09.02.2020
3220 Clear 20 1013 25 16093 3.1 140 19:36 09.02.2020
3221 Clear 19 1013 25 16093 3.1 140 19:18 09.02.2020
3222 Clear 18 1012 23 16093 7.7 130 18:41 09.02.2020
3223 Clouds 18 1013 25 16093 5.7 80 18:23 09.02.2020
3224 Clear 15 1012 28 16093 6.2 130 17:43 09.02.2020
3225 Clouds 13 1013 40 16093 3.1 90 17:23 09.02.2020
3226 Clear 11 1012 37 16093 3.1 157 16:57 09.02.2020
3227 Clear 10 1012 37 16093 3.1 157 16:39 09.02.2020
3228 Clouds 9 1014 49 16093 2.1 110 16:20 09.02.2020
3229 Clear 9 1012 42 16093 3.1 157 15:57 09.02.2020
3230 Clear 10 1012 42 16093 3.1 157 15:39 09.02.2020
3231 Clear 9 1013 42 16093 2.6 100 15:20 09.02.2020
3232 Clear 9 1012 36 16093 5.1 100 14:42 09.02.2020
3233 Clear 9 1012 36 16093 5.1 100 14:42 09.02.2020
3234 Clear 8 1013 45 16093 4.6 110 14:23 09.02.2020
3235 Clear 8 1012 37 16093 3.31 173 13:55 09.02.2020
3236 Clear 9 1012 37 16093 3.31 173 13:37 09.02.2020
3237 Clear 9 1013 42 16093 4.6 80 13:18 09.02.2020
3238 Clear 9 1012 36 16093 2.1 120 12:42 09.02.2020
3239 Clear 9 1012 36 16093 2.1 120 12:42 09.02.2020
3240 Clear 9 1013 42 16093 3.6 80 12:20 09.02.2020
3241 Clear 10 1012 34 16093 3.14 172 11:58 09.02.2020
3242 Clear 10 1012 34 16093 3.14 172 11:39 09.02.2020
3243 Clear 10 1014 39 16093 3.6 50 11:19 09.02.2020
3244 Clear 11 1013 32 16093 3.1 100 10:43 09.02.2020
3245 Clear 11 1014 34 16093 3.1 80 10:23 09.02.2020
3246 Clear 11 1013 39 16093 4.6 100 09:57 09.02.2020
3247 Clear 11 1013 39 16093 4.6 100 09:38 09.02.2020
3248 Clear 11 1013 39 16093 4.6 100 09:38 09.02.2020
3249 Clear 11 1014 36 16093 4.1 90 09:19 09.02.2020
3250 Clear 10 1013 40 16093 3.6 120 08:39 09.02.2020
3251 Clear 10 1015 39 16093 4.1 110 08:20 09.02.2020
3252 Clear 10 1014 46 16093 4.1 120 07:51 09.02.2020
3253 Clear 10 1015 42 16093 5.1 110 07:26 09.02.2020
3254 Clear 11 1014 49 16093 3.72 199 06:37 09.02.2020
3255 Clear 11 1014 46 16093 3.72 199 05:52 09.02.2020
3256 Clear 11 1014 34 16093 3.6 140 05:32 09.02.2020
3257 Clear 12 1013 28 16093 4.45 222 04:43 09.02.2020
3258 Clear 16 1013 25 16093 2.1 340 02:50 09.02.2020
3259 Clear 17 1013 27 16093 4.1 290 02:32 09.02.2020
3260 Clear 20 1013 22 16093 2.1 330 01:38 09.02.2020
3261 Clear 22 1013 21 16093 3.1 330 00:56 09.02.2020
3262 Haze 22 1013 17 2615 4.6 300 00:29 09.02.2020
3263 Clear 23 1014 15 16093 5.1 300 23:49 08.02.2020
3264 Clear 23 1014 16 16093 3.1 280 23:24 08.02.2020
3265 Clear 23 1014 15 16093 4.1 270 22:58 08.02.2020
3266 Clear 23 1014 15 16093 4.1 270 22:39 08.02.2020
3267 Clear 23 1014 16 16093 1.5 260 22:20 08.02.2020
3268 Clear 23 1014 18 16093 1.5 320 21:45 08.02.2020
3269 Clear 23 1015 18 16093 4.76 234 21:27 08.02.2020
3270 Clear 22 1015 19 16093 4.76 234 20:59 08.02.2020
3271 Clear 21 1015 19 16093 4.76 234 20:40 08.02.2020
3272 Clear 20 1016 25 16093 2.1 150 20:19 08.02.2020
3273 Clear 19 1016 22 16093 2.1 120 19:56 08.02.2020
3274 Clear 19 1016 22 16093 2.1 120 19:38 08.02.2020
3275 Clear 18 1017 27 16093 1.34 180 19:19 08.02.2020
3276 Clear 16 1017 26 16093 5.1 110 18:44 08.02.2020
3277 Clear 15 1018 32 16093 2.1 120 18:26 08.02.2020
3278 Clear 14 1018 43 16093 4.6 100 17:59 08.02.2020
3279 Clear 13 1018 43 16093 4.6 100 17:41 08.02.2020
3280 Clear 11 1018 37 16093 3.1 170 17:19 08.02.2020
3281 Clear 8 1018 45 16093 1.48 138 16:41 08.02.2020
3282 Clear 6 1018 48 16093 4.6 110 16:22 08.02.2020
3283 Clear 5 1018 52 16093 5.7 120 15:57 08.02.2020
3284 Clear 4 1018 52 16093 5.7 120 15:39 08.02.2020
3285 Clear 4 1018 60 16093 4.1 130 15:18 08.02.2020
3286 Clear 4 1018 60 16093 4.1 130 15:18 08.02.2020
3287 Clear 4 1018 56 16093 1.5 100 14:44 08.02.2020
3288 Clear 4 1018 60 16093 2.6 90 14:21 08.02.2020
3289 Clear 4 1018 52 16093 5.7 100 13:57 08.02.2020
3290 Clear 4 1018 52 16093 5.7 100 13:38 08.02.2020
3291 Clear 4 1018 52 16093 5.7 100 13:38 08.02.2020
3292 Clear 4 1018 52 16093 3.6 120 13:20 08.02.2020
3293 Clear 4 1018 52 16093 3.6 130 12:40 08.02.2020
3294 Clear 4 1018 52 16093 3.6 130 12:21 08.02.2020
3295 Clear 5 1018 56 16093 1.18 188 11:55 08.02.2020
3296 Clear 5 1018 56 16093 1.18 188 11:37 08.02.2020
3297 Clear 5 1018 56 16093 4.1 120 11:18 08.02.2020
3298 Clear 5 1018 60 16093 1.08 232 10:42 08.02.2020
3299 Clear 5 1018 56 16093 4.1 100 10:21 08.02.2020
3300 Clear 6 1018 52 16093 1.08 232 09:51 08.02.2020
3301 Clear 6 1018 56 16093 3.1 110 09:27 08.02.2020
3302 Clear 6 1018 56 16093 1.08 232 08:54 08.02.2020
3303 Clear 6 1018 56 16093 3.6 110 08:36 08.02.2020
3304 Clear 6 1018 56 16093 3.6 110 08:36 08.02.2020
3305 Clear 7 1018 56 16093 3.6 110 08:18 08.02.2020
3306 Clear 7 1018 52 16093 0.8 114 07:43 08.02.2020
3307 Clear 7 1018 56 16093 2.1 110 07:18 08.02.2020
3308 Clear 8 1018 52 16093 2.6 120 06:23 08.02.2020
3309 Clear 9 1018 49 16093 0.8 114 05:40 08.02.2020
3310 Clear 9 1018 45 16093 1.5 130 05:21 08.02.2020
3311 Clear 10 1018 37 16093 1.18 350 04:37 08.02.2020
3312 Clear 12 1017 32 16093 1.18 350 03:41 08.02.2020
3313 Clear 14 1017 26 16093 1.18 350 02:43 08.02.2020
3314 Clear 17 1016 22 16093 3.58 320 01:37 08.02.2020
3315 Clear 18 1016 20 16093 2.6 330 00:59 08.02.2020
3316 Clear 19 1016 20 16093 4.6 280 00:37 08.02.2020
3317 Clear 19 1016 20 16093 4.6 280 00:37 08.02.2020
3318 Clear 19 1016 20 16093 4.6 280 00:18 08.02.2020
3319 Clear 19 1016 19 16093 1.5 270 23:42 07.02.2020
3320 Clear 19 1016 20 16093 5.7 290 23:20 07.02.2020
3321 Clear 19 1017 18 16093 2.91 331 22:55 07.02.2020
3322 Clear 18 1017 22 16093 4.6 270 22:37 07.02.2020
3323 Clear 18 1017 22 16093 4.6 270 22:18 07.02.2020
3324 Clear 17 1017 18 16093 2.91 331 21:41 07.02.2020
3325 Clear 17 1018 23 16093 2.6 250 21:21 07.02.2020
3326 Clear 16 1018 18 16093 2.91 331 20:40 07.02.2020
3327 Clear 15 1019 24 16093 1.5 50 20:21 07.02.2020
3328 Clear 15 1019 21 16093 1.35 14 19:56 07.02.2020
3329 Clear 15 1019 21 16093 1.35 14 19:37 07.02.2020
3330 Clear 14 1019 24 16093 1.35 14 19:19 07.02.2020
3331 Clear 13 1019 27 16093 1.35 14 18:45 07.02.2020
3332 Clear 12 1019 32 16093 2.6 150 18:25 07.02.2020
3333 Clear 11 1019 36 16093 4.1 120 17:55 07.02.2020
3334 Clear 10 1019 36 16093 4.1 120 17:37 07.02.2020
3335 Clear 8 1019 42 16093 3.1 110 17:19 07.02.2020
3336 Clear 6 1019 48 16093 4.1 110 16:46 07.02.2020
3337 Clear 4 1019 55 16093 4.1 120 16:23 07.02.2020
3338 Clear 2 1018 55 16093 1.05 170 15:55 07.02.2020
3339 Clear 1 1018 59 16093 1.05 170 15:29 07.02.2020
3340 Clear 1 1018 55 16093 1.05 170 14:57 07.02.2020
3341 Clear 1 1018 55 16093 1.05 170 14:38 07.02.2020
3342 Clear 1 1018 55 16093 2.1 160 14:19 07.02.2020
3343 Clear 2 1017 51 16093 0.42 339 13:57 07.02.2020
3344 Clear 1 1017 51 16093 0.42 339 13:57 07.02.2020
3345 Clear 2 1017 51 16093 0.42 339 13:38 07.02.2020
3346 Clear 2 1017 55 16093 2.1 110 13:20 07.02.2020
3347 Clear 2 1017 51 16093 0.06 6 12:42 07.02.2020
3348 Clear 2 1017 55 16093 3.1 130 12:23 07.02.2020
3349 Clear 2 1017 55 16093 3.1 130 12:23 07.02.2020
3350 Clear 2 1018 55 16093 0.06 6 11:45 07.02.2020
3351 Clear 2 1018 55 16093 3.6 120 11:24 07.02.2020
3352 Clear 2 1018 55 16093 1.2 275 10:59 07.02.2020
3353 Clear 2 1018 55 16093 1.2 275 10:39 07.02.2020
3354 Clear 3 1018 51 16093 2.1 130 10:20 07.02.2020
3355 Clear 3 1018 51 16093 1.2 275 09:45 07.02.2020
3356 Clear 3 1018 51 16093 2.1 90 09:25 07.02.2020
3357 Clear 3 1018 55 16093 1.2 275 08:57 07.02.2020
3358 Clear 3 1018 55 16093 1.2 275 08:36 07.02.2020
3359 Clear 4 1018 51 16093 1.5 60 08:18 07.02.2020
3360 Clear 4 1018 48 16093 1.64 292 07:40 07.02.2020
3361 Clear 4 1018 48 16093 3.6 130 07:19 07.02.2020
3362 Clear 5 1018 41 16093 1.64 292 06:42 07.02.2020
3363 Clear 5 1017 44 16093 3.1 120 06:22 07.02.2020
3364 Clear 6 1017 41 16093 1.64 292 05:43 07.02.2020
3365 Clear 9 1017 27 16093 0.51 277 03:55 07.02.2020
3366 Clear 11 1016 23 16093 3.1 290 02:28 07.02.2020
3367 Clear 13 1016 20 16093 2.6 280 01:25 07.02.2020
3368 Clear 14 1016 19 16093 2.1 340 00:37 07.02.2020
3369 Clear 14 1016 16 16093 5.07 324 23:39 06.02.2020
3370 Clear 14 1017 19 16093 2.6 220 23:21 06.02.2020
3371 Clear 13 1018 19 16093 3.6 320 22:58 06.02.2020
3372 Clear 13 1018 19 16093 3.6 320 22:40 06.02.2020
3373 Clear 13 1018 18 16093 4.1 220 22:22 06.02.2020
3374 Clear 13 1018 15 16093 3.51 313 21:37 06.02.2020
3375 Clear 12 1019 18 16093 3.1 280 21:19 06.02.2020
3376 Clear 12 1020 14 16093 3.51 313 20:56 06.02.2020
3377 Clear 11 1020 14 16093 3.51 313 20:37 06.02.2020
3378 Clear 11 1020 16 16093 1.5 230 20:18 06.02.2020
3379 Clear 10 1020 16 16093 0.88 270 19:57 06.02.2020
3380 Clear 10 1020 16 16093 0.88 270 19:38 06.02.2020
3381 Clear 9 1020 19 16093 0.88 270 19:20 06.02.2020
3382 Clear 9 1021 19 16093 0.88 270 18:55 06.02.2020
3383 Clear 8 1021 24 16093 4.6 110 18:37 06.02.2020
3384 Clear 7 1021 25 16093 0.88 270 18:19 06.02.2020
3385 Clear 6 1021 25 16093 4.6 100 17:42 06.02.2020
3386 Clear 4 1021 29 16093 2.1 120 17:20 06.02.2020
3387 Clear 2 1021 31 16093 4.6 120 16:45 06.02.2020
3388 Clear 1 1020 31 16093 3.6 110 16:27 06.02.2020
3389 Clear -1 1021 31 16093 2.6 110 15:58 06.02.2020
3390 Clear -2 1021 31 16093 2.6 110 15:40 06.02.2020
3391 Clear -2 1020 42 16093 3.1 110 15:20 06.02.2020
3392 Clear -2 1020 31 16093 1.72 222 14:46 06.02.2020
3393 Clear -2 1019 36 16093 3.1 120 14:25 06.02.2020
3394 Clear -2 1019 29 16093 4.1 110 13:46 06.02.2020
3395 Clear -2 1019 46 16093 2.1 100 13:27 06.02.2020
3396 Clear -2 1019 28 16093 1.88 214 12:56 06.02.2020
3397 Clear -2 1019 28 16093 1.88 214 12:37 06.02.2020
3398 Clear -2 1018 46 16093 3.1 110 12:37 06.02.2020
3399 Clear -2 1018 46 16093 3.1 110 12:18 06.02.2020
3400 Clear -2 1019 42 16093 1.88 214 11:55 06.02.2020
3401 Clear -2 1019 42 16093 2.6 150 11:37 06.02.2020
3402 Clear -2 1019 42 16093 2.6 150 11:37 06.02.2020
3403 Clear -2 1019 42 16093 2.6 150 11:18 06.02.2020
3404 Clear -1 1019 34 16093 1.67 220 10:41 06.02.2020
3405 Clear -1 1018 42 16093 2.6 110 10:22 06.02.2020
3406 Clear -1 1019 31 16093 5.1 100 09:59 06.02.2020
3407 Clear -1 1019 31 16093 5.1 100 09:40 06.02.2020
3408 Clear -1 1019 39 16093 3.6 120 09:20 06.02.2020
3409 Clear -1 1019 29 16093 1.67 220 08:45 06.02.2020
3410 Clear -1 1019 42 16093 2.1 190 08:23 06.02.2020
3411 Clear -1 1019 31 16093 0.82 278 07:55 06.02.2020
3412 Clear -1 1019 31 16093 0.82 278 07:55 06.02.2020
3413 Clear 0 1018 39 16093 2.1 160 07:29 06.02.2020
3414 Clear 0 1019 34 16093 0.82 278 06:48 06.02.2020
3415 Clear 1 1018 31 16093 2.1 210 06:19 06.02.2020
3416 Clear 1 1018 25 16093 3.1 260 05:32 06.02.2020
3417 Clear 3 1018 23 16093 2.8 314 03:47 06.02.2020
3418 Clear 4 1017 21 16093 2.8 314 02:58 06.02.2020
3419 Clouds 6 1017 17 16093 5.1 330 01:55 06.02.2020
3420 Clear 7 1016 17 16093 7.2 290 01:24 06.02.2020
3421 Clear 7 1015 17 16093 6.7 290 00:29 06.02.2020
3422 Clear 8 1016 14 16093 4.6 310 23:57 05.02.2020
3423 Clear 8 1016 14 16093 4.6 310 23:39 05.02.2020
3424 Clouds 8 1015 16 16093 7.7 290 23:20 05.02.2020
3425 Clear 8 1016 16 16093 7.2 290 22:41 05.02.2020
3426 Clear 8 1016 15 16093 5.1 310 22:41 05.02.2020
3427 Clear 8 1016 16 16093 7.2 290 22:23 05.02.2020
3428 Clear 8 1017 15 16093 5.7 290 21:57 05.02.2020
3429 Clear 8 1017 15 16093 5.7 290 21:39 05.02.2020
3430 Clear 8 1017 15 16093 5.7 290 21:39 05.02.2020
3431 Clear 8 1016 19 16093 4.1 270 21:20 05.02.2020
3432 Clear 8 1018 17 16093 3.1 320 20:39 05.02.2020
3433 Clear 7 1017 22 16093 3.6 310 20:21 05.02.2020
3434 Clear 7 1019 22 16093 4.3 306 19:59 05.02.2020
3435 Clear 6 1019 22 16093 4.3 306 19:41 05.02.2020
3436 Clear 6 1018 27 16093 3.6 290 19:19 05.02.2020
3437 Clear 5 1019 27 16093 4.3 306 18:57 05.02.2020
3438 Clear 5 1019 27 16093 4.3 306 18:39 05.02.2020
3439 Clear 4 1018 31 16093 2.1 270 18:19 05.02.2020
3440 Clear 4 1018 31 16093 2.1 270 18:19 05.02.2020
3441 Clear 3 1019 29 16093 4.3 306 17:39 05.02.2020
3442 Clear 2 1018 34 16093 1.5 230 17:20 05.02.2020
3443 Clear 1 1018 46 16093 1.61 272 16:58 05.02.2020
3444 Clear 0 1018 46 16093 1.61 272 16:40 05.02.2020
3445 Clear -1 1017 46 16093 2.1 140 16:22 05.02.2020
3446 Clear -4 1018 62 16093 1.61 272 15:47 05.02.2020
3447 Clear -4 1016 53 16093 1.5 190 15:20 05.02.2020
3448 Clear -4 1017 63 16093 1.61 272 14:59 05.02.2020
3449 Clear -4 1017 63 16093 1.61 272 14:41 05.02.2020
3450 Clear -4 1017 63 16093 1.61 272 14:41 05.02.2020
3451 Clear -4 1016 58 16093 2.6 130 14:21 05.02.2020
3452 Clear -3 1016 73 16093 3.29 276 13:43 05.02.2020
3453 Clear -3 1015 58 16093 2.6 120 13:23 05.02.2020
3454 Clear -3 1016 63 16093 3.53 282 12:59 05.02.2020
3455 Clear -3 1015 53 16093 3.53 282 12:37 05.02.2020
3456 Clear -3 1015 53 16093 3.53 282 12:18 05.02.2020
3457 Clear -2 1016 58 16093 3.53 282 11:41 05.02.2020
3458 Clear -2 1015 49 16093 3.1 150 11:23 05.02.2020
3459 Clear -2 1016 54 16093 2.37 285 10:57 05.02.2020
3460 Clear -2 1016 54 16093 2.37 285 10:39 05.02.2020
3461 Clear -2 1015 46 16093 3.6 120 10:18 05.02.2020
3462 Clear -1 1016 54 16093 2.37 285 09:40 05.02.2020
3463 Clear -1 1015 46 16093 3.1 160 09:21 05.02.2020
3464 Clear -1 1016 34 16093 2.37 285 08:55 05.02.2020
3465 Clear -1 1016 34 16093 2.37 285 08:37 05.02.2020
3466 Clear -1 1015 46 16093 2.1 160 08:19 05.02.2020
3467 Clear 0 1016 37 16093 2.65 302 07:42 05.02.2020
3468 Clear 0 1015 42 16093 2.65 302 07:19 05.02.2020
3469 Clear 1 1016 40 16093 2.65 302 06:39 05.02.2020
3470 Clear 1 1016 40 16093 2.65 302 06:39 05.02.2020
3471 Clear 1 1016 40 16093 2.65 302 06:20 05.02.2020
3472 Clear 2 1016 34 16093 3.57 315 05:20 05.02.2020
3473 Clear 2 1015 32 16093 3.57 315 04:58 05.02.2020
3474 Clear 3 1015 25 16093 3.1 280 04:25 05.02.2020
3475 Clear 4 1015 23 16093 3.57 315 02:52 05.02.2020
3476 Clear 5 1014 18 16093 6.7 280 02:21 05.02.2020
3477 Clear 7 1013 17 16093 5.7 310 01:29 05.02.2020
3478 Clear 8 1013 15 16093 5.7 280 00:24 05.02.2020
3479 Clear 8 1014 14 16093 3.6 300 23:40 04.02.2020
3480 Clear 8 1013 16 16093 5.7 290 23:21 04.02.2020
3481 Clear 8 1014 15 16093 3.6 340 22:57 04.02.2020
3482 Clear 8 1014 15 16093 3.6 340 22:57 04.02.2020
3483 Clear 8 1014 15 16093 3.6 340 22:39 04.02.2020
3484 Clear 8 1013 13 16093 6.7 290 22:20 04.02.2020
3485 Clear 8 1013 13 16093 6.7 290 22:20 04.02.2020
3486 Clear 8 1014 15 16093 1.5 310 21:56 04.02.2020
3487 Clear 8 1014 15 16093 1.5 310 21:37 04.02.2020
3488 Clear 7 1014 14 16093 4.1 290 21:18 04.02.2020
3489 Clear 7 1015 16 16093 5.56 306 20:54 04.02.2020
3490 Clear 7 1015 16 16093 5.56 306 20:36 04.02.2020
3491 Clear 7 1015 15 16093 3.6 310 20:18 04.02.2020
3492 Clear 6 1016 17 16093 2.6 280 19:42 04.02.2020
3493 Clear 6 1015 17 16093 2.6 270 19:24 04.02.2020
3494 Clear 5 1016 17 16093 3.44 284 18:59 04.02.2020
3495 Clear 5 1016 17 16093 3.44 284 18:39 04.02.2020
3496 Clouds 5 1015 18 16093 3.6 280 18:20 04.02.2020
3497 Clear 4 1015 15 16093 2.6 300 17:54 04.02.2020
3498 Clear 4 1015 16 16093 3.44 284 17:36 04.02.2020
3499 Clear 4 1015 16 16093 4.99 298 17:18 04.02.2020
3500 Clouds 3 1013 17 16093 5.7 290 16:38 04.02.2020
3501 Clouds 3 1013 17 16093 5.7 290 16:20 04.02.2020
3502 Clouds 3 1014 26 16093 4.99 298 15:56 04.02.2020
3503 Clouds 3 1014 26 16093 4.99 298 15:38 04.02.2020
3504 Clouds 3 1013 18 16093 5.7 300 15:20 04.02.2020
3505 Clouds 3 1013 22 16093 2.6 310 14:45 04.02.2020
3506 Clouds 4 1012 19 16093 4.1 300 14:26 04.02.2020
3507 Clouds 4 1013 15 16093 1.52 280 13:59 04.02.2020
3508 Clouds 4 1013 15 16093 1.52 280 13:59 04.02.2020
3509 Clouds 4 1013 15 16093 1.52 280 13:40 04.02.2020
3510 Clouds 4 1012 18 16093 4.6 290 13:22 04.02.2020
3511 Clouds 5 1012 20 16093 3.26 276 12:54 04.02.2020
3512 Clouds 5 1012 20 16093 3.26 276 12:36 04.02.2020
3513 Clouds 5 1011 18 16093 5.1 300 12:18 04.02.2020
3514 Clouds 5 1012 22 16093 3.26 276 11:54 04.02.2020
3515 Clouds 5 1011 15 16093 3.1 300 11:36 04.02.2020
3516 Clouds 5 1011 15 16093 3.1 300 11:18 04.02.2020
3517 Clouds 6 1012 17 16093 2.6 330 10:41 04.02.2020
3518 Clouds 6 1011 15 16093 5.7 300 10:22 04.02.2020
3519 Clouds 6 1012 14 16093 4.52 294 09:42 04.02.2020
3520 Clouds 7 1011 16 16093 5.7 290 09:23 04.02.2020
3521 Clouds 7 1012 13 16093 3.1 330 08:58 04.02.2020
3522 Clouds 7 1012 13 16093 3.1 330 08:39 04.02.2020
3523 Clouds 7 1011 22 16093 4.1 290 08:21 04.02.2020
3524 Clouds 8 1012 18 16093 6.67 301 07:46 04.02.2020
3525 Clouds 8 1011 23 16093 5.7 290 07:22 04.02.2020
3526 Clouds 9 1012 23 16093 6.67 301 06:43 04.02.2020
3527 Clouds 9 1011 24 16093 7.7 290 06:18 04.02.2020
3528 Clouds 9 1009 27 16093 7.7 290 05:28 04.02.2020
3529 Clouds 10 1009 22 16093 3.6 330 03:52 04.02.2020
3530 Clear 10 1009 27 16093 4.1 260 03:32 04.02.2020
3531 Clouds 11 1009 23 16093 7.77 301 02:55 04.02.2020
3532 Clear 11 1008 27 16093 7.7 280 02:31 04.02.2020
3533 Clouds 11 1008 20 16093 5.1 310 01:53 04.02.2020
3534 Clear 12 1007 32 16093 9.8 290 01:35 04.02.2020
3535 Clear 12 1007 32 16093 9.8 290 01:35 04.02.2020
3536 Clouds 13 1007 20 16093 6.2 320 00:44 04.02.2020
3537 Clear 14 1006 30 16093 9.8 300 00:21 04.02.2020
3538 Clear 14 1007 24 16093 6.7 320 23:39 03.02.2020
3539 Clouds 16 1005 38 16093 10.8 300 23:19 03.02.2020
3540 Clouds 16 1005 33 16093 8.2 340 22:39 03.02.2020
3541 Clouds 16 1005 33 16093 8.2 340 22:39 03.02.2020
3542 Clouds 17 1005 29 16093 7.7 280 22:20 03.02.2020
3543 Clouds 17 1006 33 16093 8.7 320 21:55 03.02.2020
3544 Clouds 18 1006 33 16093 8.7 320 21:37 03.02.2020
3545 Clear 19 1005 39 16093 8.2 240 21:18 03.02.2020
3546 Clouds 19 1006 30 16093 6.2 220 20:42 03.02.2020
3547 Clear 19 1006 37 16093 8.7 190 20:19 03.02.2020
3548 Clear 19 1006 37 16093 8.7 190 20:19 03.02.2020
3549 Clouds 19 1006 28 16093 10.3 250 19:56 03.02.2020
3550 Clouds 19 1006 28 16093 10.3 250 19:38 03.02.2020
3551 Clear 18 1008 42 16093 8.7 200 19:19 03.02.2020
3552 Clear 18 1007 39 16093 6.2 220 18:43 03.02.2020
3553 Clear 17 1008 59 16093 2.6 80 18:24 03.02.2020
3554 Clear 17 1007 51 16093 6.7 190 17:59 03.02.2020
3555 Clear 17 1007 51 16093 6.7 190 17:59 03.02.2020
3556 Clear 16 1007 51 16093 6.7 190 17:39 03.02.2020
3557 Clouds 15 1008 58 16093 4.1 120 17:20 03.02.2020
3558 Clouds 15 1008 58 16093 4.1 120 17:20 03.02.2020
3559 Clouds 15 1008 58 16093 4.1 120 17:20 03.02.2020
3560 Clouds 15 1008 55 16093 10.3 210 16:55 03.02.2020
3561 Clear 14 1009 62 16093 3.6 170 16:37 03.02.2020
3562 Clear 14 1009 62 16093 3.6 170 16:18 03.02.2020
3563 Clear 13 1007 58 16093 8.2 190 15:54 03.02.2020
3564 Clouds 12 1008 58 16093 5.7 180 15:36 03.02.2020
3565 Clouds 12 1008 58 16093 5.7 180 15:18 03.02.2020
3566 Clouds 12 1008 58 16093 5.7 180 15:18 03.02.2020
3567 Clear 12 1007 50 16093 7.2 180 14:39 03.02.2020
3568 Clear 13 1008 50 16093 2.6 220 14:21 03.02.2020
3569 Clear 13 1006 38 16093 3.6 170 13:55 03.02.2020
3570 Clear 13 1006 38 16093 3.6 170 13:37 03.02.2020
3571 Clear 13 1007 57 16093 4.1 80 13:18 03.02.2020
3572 Clear 13 1007 41 16093 8.47 190 12:41 03.02.2020
3573 Clear 13 1008 50 16093 4.6 80 12:22 03.02.2020
3574 Clear 13 1007 51 16093 8.7 150 11:58 03.02.2020
3575 Clear 13 1007 51 16093 8.7 150 11:38 03.02.2020
3576 Clear 13 1010 57 16093 5.7 110 11:18 03.02.2020
3577 Clear 13 1008 54 16093 9.3 160 10:41 03.02.2020
3578 Clear 13 1011 54 16093 4.6 140 10:23 03.02.2020
3579 Clear 13 1009 33 16093 9.3 180 09:49 03.02.2020
3580 Clear 13 1011 54 16093 5.7 190 09:27 03.02.2020
3581 Clear 13 1009 35 16093 6.2 170 08:58 03.02.2020
3582 Clear 13 1009 35 16093 6.2 170 08:40 03.02.2020
3583 Clear 13 1009 35 16093 6.2 170 08:40 03.02.2020
3584 Clear 13 1012 37 16093 1.5 90 08:21 03.02.2020
3585 Clear 13 1010 34 16093 6.98 192 07:41 03.02.2020
3586 Clear 13 1012 40 16093 2.6 230 07:22 03.02.2020
3587 Clear 13 1012 40 16093 2.6 230 07:22 03.02.2020
3588 Clear 13 1011 37 16093 6.98 192 06:55 03.02.2020
3589 Clear 13 1012 37 16093 4.1 120 06:30 03.02.2020
3590 Clear 14 1011 30 16093 6.98 192 05:48 03.02.2020
3591 Clear 14 1013 34 16093 3.6 140 05:30 03.02.2020
3592 Clear 15 1013 28 16093 1.5 150 04:30 03.02.2020
3593 Clear 19 1012 18 16093 3.6 240 02:37 03.02.2020
3594 Clear 20 1012 18 16093 3.6 240 02:18 03.02.2020
3595 Clear 24 1012 12 16093 7.2 250 00:48 03.02.2020
3596 Clear 24 1013 14 16093 7.2 240 00:25 03.02.2020
3597 Clear 24 1012 9 16093 8.2 250 23:39 02.02.2020
3598 Clear 24 1014 13 16093 5.1 190 23:21 02.02.2020
3599 Clear 25 1013 10 16093 9.3 250 22:58 02.02.2020
3600 Clear 25 1013 10 16093 9.3 250 22:39 02.02.2020
3601 Clear 25 1013 10 16093 9.3 250 22:39 02.02.2020
3602 Clear 24 1015 12 16093 2.6 140 22:21 02.02.2020
3603 Clear 24 1014 9 8047 2.6 240 21:57 02.02.2020
3604 Clear 24 1014 9 8047 2.6 240 21:38 02.02.2020
3605 Clear 24 1016 12 16093 1.5 140 21:20 02.02.2020
3606 Clear 24 1015 13 16093 4.6 130 20:56 02.02.2020
3607 Clear 24 1015 13 16093 4.6 130 20:37 02.02.2020
3608 Clear 23 1018 13 16093 4.69 202 20:19 02.02.2020
3609 Clear 23 1018 13 16093 4.69 202 20:19 02.02.2020
3610 Clear 22 1017 15 16093 4.6 120 19:55 02.02.2020
3611 Clear 21 1017 15 16093 4.6 120 19:37 02.02.2020
3612 Clear 21 1019 16 16093 3.6 110 19:19 02.02.2020
3613 Clear 18 1018 20 16093 5.1 110 18:39 02.02.2020
3614 Clear 17 1019 21 16093 5.1 130 18:21 02.02.2020
3615 Clear 16 1018 26 16093 5.1 110 17:58 02.02.2020
3616 Clear 15 1018 26 16093 5.1 110 17:38 02.02.2020
3617 Clear 12 1019 30 16093 4.1 150 17:19 02.02.2020
3618 Clear 10 1018 32 16093 3.6 120 16:58 02.02.2020
3619 Clear 8 1019 42 16093 3.6 140 16:39 02.02.2020
3620 Clear 7 1019 42 16093 3.6 140 16:19 02.02.2020
3621 Rain 7 1018 31 16093 4.1 130 15:59 02.02.2020
3622 Clear 7 1018 31 16093 4.1 130 15:39 02.02.2020
3623 Clear 8 1019 34 16093 5.1 130 15:20 02.02.2020
3624 Clear 8 1018 36 16093 2.25 157 14:57 02.02.2020
3625 Clear 8 1018 36 16093 2.25 157 14:39 02.02.2020
3626 Clear 8 1019 31 16093 4.1 130 14:18 02.02.2020
3627 Clear 8 1019 64 16093 2.1 110 13:55 02.02.2020
3628 Clear 8 1019 64 16093 2.1 110 13:36 02.02.2020
3629 Clear 8 1019 31 16093 5.1 140 13:18 02.02.2020
3630 Clear 8 1018 37 16093 5.1 100 12:42 02.02.2020
3631 Clear 9 1019 26 16093 2.41 150 12:22 02.02.2020
3632 Clear 8 1018 42 16093 3.6 120 11:56 02.02.2020
3633 Clear 8 1018 42 16093 3.6 120 11:38 02.02.2020
3634 Clear 9 1019 27 16093 2.6 100 11:18 02.02.2020
3635 Clear 9 1019 43 16093 5.7 110 10:55 02.02.2020
3636 Clear 9 1019 43 16093 5.7 110 10:55 02.02.2020
3637 Clear 9 1019 43 16093 5.7 110 10:36 02.02.2020
3638 Clear 9 1020 39 16093 4.6 140 10:18 02.02.2020
3639 Clear 10 1019 49 16093 2.83 112 09:41 02.02.2020
3640 Clear 10 1021 39 16093 4.1 140 09:21 02.02.2020
3641 Clear 10 1020 46 16093 2.83 112 08:57 02.02.2020
3642 Clear 10 1020 46 16093 3.26 123 08:39 02.02.2020
3643 Clear 11 1020 27 16093 5.7 100 08:20 02.02.2020
3644 Clear 11 1020 43 16093 3.33 111 07:44 02.02.2020
3645 Clear 11 1021 37 16093 4.1 100 07:26 02.02.2020
3646 Clear 12 1021 33 16093 3.33 111 06:39 02.02.2020
3647 Clear 12 1022 34 16093 3.6 100 06:21 02.02.2020
3648 Clear 12 1021 46 16093 3.33 111 05:47 02.02.2020
3649 Clear 14 1022 33 16093 3.39 113 04:34 02.02.2020
3650 Clear 16 1022 20 16093 2.1 340 03:25 02.02.2020
3651 Clear 19 1022 20 16093 2.1 340 02:27 02.02.2020
3652 Clear 20 1021 18 16093 2.1 320 01:52 02.02.2020
3653 Clear 22 1022 15 16093 4.59 72 01:19 02.02.2020
3654 Clear 23 1021 12 16093 2.6 330 00:41 02.02.2020
3655 Clear 23 1022 13 16093 4.63 75 00:19 02.02.2020
3656 Clear 23 1022 12 16093 4.63 75 23:45 01.02.2020
3657 Clear 23 1022 13 16093 1.5 60 23:21 01.02.2020
3658 Clear 23 1022 14 16093 5.37 84 22:48 01.02.2020
3659 Clear 22 1023 13 16093 1.5 60 22:19 01.02.2020
3660 Clear 22 1023 19 16093 5.37 84 21:44 01.02.2020
3661 Clear 22 1024 15 16093 5.37 84 21:20 01.02.2020
3662 Clear 22 1024 15 16093 5.37 84 21:20 01.02.2020
3663 Clear 21 1025 22 16093 5.37 84 20:57 01.02.2020
3664 Clear 21 1025 22 16093 5.37 84 20:39 01.02.2020
3665 Clear 20 1025 22 16093 4.97 95 20:20 01.02.2020
3666 Clear 19 1026 21 16093 4.97 95 19:56 01.02.2020
3667 Clear 19 1026 25 16093 1.5 290 19:38 01.02.2020
3668 Clear 18 1026 25 16093 1.5 290 19:19 01.02.2020
3669 Clear 17 1026 28 16093 4.97 95 18:56 01.02.2020
3670 Clear 16 1026 35 16093 4.97 95 18:37 01.02.2020
3671 Clear 15 1026 28 16093 4.97 95 18:19 01.02.2020
3672 Clear 14 1026 43 16093 4.97 95 17:55 01.02.2020
3673 Clear 13 1026 43 16093 4.97 95 17:37 01.02.2020
3674 Clear 11 1026 34 16093 2.66 93 17:18 01.02.2020
3675 Clear 8 1026 42 16093 2.66 93 16:41 01.02.2020
3676 -273 0 0 0 0 0 16:22 01.02.2020
3677 Clear 5 1026 56 16093 2.1 150 15:55 01.02.2020
3678 Clear 4 1026 45 16093 3.6 130 15:37 01.02.2020
3679 Clear 4 1026 45 16093 3.6 130 15:18 01.02.2020
3680 Clear 4 1026 56 16093 4.6 100 14:40 01.02.2020
3681 Clear 4 1026 45 16093 1.5 100 14:21 01.02.2020
3682 Clear 5 1026 69 16093 0.56 45 13:45 01.02.2020
3683 Clear 5 1026 48 16093 5.1 120 13:24 01.02.2020
3684 Clear 5 1025 64 16093 0.16 102 12:57 01.02.2020
3685 Clear 5 1025 64 16093 0.16 102 12:38 01.02.2020
3686 Clear 5 1025 52 16093 3.6 120 12:20 01.02.2020
3687 Clear 5 1025 56 16093 1.5 190 11:40 01.02.2020
3688 Clear 5 1026 56 16093 0.47 69 11:21 01.02.2020
3689 Clear 5 1025 60 16093 0.47 69 10:58 01.02.2020
3690 Clear 5 1025 60 16093 0.47 69 10:39 01.02.2020
3691 Clear 5 1025 56 16093 3.6 120 10:21 01.02.2020
3692 Clear 6 1025 52 16093 0.47 69 09:58 01.02.2020
3693 Clear 6 1025 52 16093 0.47 69 09:40 01.02.2020
3694 Clear 6 1025 60 16093 3.1 110 09:20 01.02.2020
3695 Clear 7 1025 48 16093 0.47 69 08:48 01.02.2020
3696 Clear 7 1025 48 16093 1.11 296 07:51 01.02.2020
3697 Clear 8 1025 60 16093 4.1 110 07:27 01.02.2020
3698 Clear 8 1025 42 16093 1.11 296 06:58 01.02.2020
3699 Clear 8 1025 42 16093 1.11 296 06:38 01.02.2020
3700 Clear 10 1024 37 16093 1.11 296 05:52 01.02.2020
3701 Clear 10 1024 37 16093 1.11 296 05:52 01.02.2020
3702 Clear 11 1024 37 16093 0.8 347 04:20 01.02.2020
3703 Clear 13 1023 30 16093 2.1 290 03:22 01.02.2020
3704 Clear 14 1023 28 16093 0.8 347 02:46 01.02.2020
3705 Clear 15 1023 26 16093 4.1 280 02:28 01.02.2020
3706 Clear 16 1022 20 16093 2.38 348 01:55 01.02.2020
3707 Clear 17 1023 23 16093 4.6 280 01:33 01.02.2020
3708 Clear 19 1023 22 16093 5.1 300 00:30 01.02.2020
3709 Clear 19 1023 17 16093 3.1 320 23:59 31.01.2020
3710 Clear 19 1023 17 16093 3.1 320 23:37 31.01.2020
3711 Clear 18 1023 18 16093 4.1 310 23:18 31.01.2020
3712 Clear 18 1023 20 16093 4.6 330 22:41 31.01.2020
3713 Clear 18 1023 21 16093 2.1 340 22:23 31.01.2020
3714 Clear 18 1024 21 16093 2.6 300 21:59 31.01.2020
3715 Clear 18 1024 21 16093 2.6 300 21:39 31.01.2020
3716 Clear 17 1024 23 16093 3.6 270 21:20 31.01.2020
3717 Clear 17 1025 23 16093 3.19 16 20:57 31.01.2020
3718 Clear 17 1025 23 16093 3.19 16 20:57 31.01.2020
3719 Clear 17 1025 23 16093 3.19 16 20:57 31.01.2020
3720 Clear 17 1025 23 16093 3.19 16 20:39 31.01.2020
3721 Clear 16 1025 23 16093 3.85 81 20:20 31.01.2020
3722 Clear 16 1025 30 16093 3.85 81 19:56 31.01.2020
3723 Clear 15 1025 30 16093 3.85 81 19:38 31.01.2020
3724 Clear 14 1025 37 16093 1.5 250 19:19 31.01.2020
3725 Clear 13 1026 37 16093 3.85 81 18:43 31.01.2020
3726 Clear 13 1025 40 16093 2.1 20 18:25 31.01.2020
3727 Clear 11 1025 52 16093 3.85 81 17:56 31.01.2020
3728 Clear 10 1025 52 16093 3.85 81 17:37 31.01.2020
3729 Clear 9 1025 56 16093 1.5 290 17:19 31.01.2020
3730 Clear 7 1024 47 16093 1.44 85 16:56 31.01.2020
3731 Clear 6 1024 47 16093 1.44 85 16:37 31.01.2020
3732 Clear 5 1024 60 16093 1.5 290 16:18 31.01.2020
3733 Clear 3 1024 74 16093 1.44 85 15:41 31.01.2020
3734 Clear 3 1023 64 16093 2.6 150 15:21 31.01.2020
3735 Clear 3 1023 74 16093 1.44 85 14:58 31.01.2020
3736 Clear 3 1023 74 16093 1.44 85 14:40 31.01.2020
3737 Clear 4 1022 64 16093 3.6 100 14:20 31.01.2020
3738 Clear 4 1022 80 16093 0.64 338 13:44 31.01.2020
3739 Clear 4 1021 74 16093 3.6 110 13:25 31.01.2020
3740 Clear 5 1021 80 16093 0.96 315 12:46 31.01.2020
3741 Clear 5 1021 69 16093 4.1 110 12:26 31.01.2020
3742 Clear 5 1021 47 16093 0.96 315 11:59 31.01.2020
3743 Clear 5 1021 47 16093 0.98 319 11:40 31.01.2020
3744 Clear 5 1021 69 16093 3.6 130 11:22 31.01.2020
3745 Clear 6 1021 74 16093 2 292 10:57 31.01.2020
3746 Clear 6 1020 60 16093 2.6 200 10:37 31.01.2020
3747 Clear 5 1020 60 16093 2.6 200 10:19 31.01.2020
3748 Clear 5 1021 43 16093 2 292 09:42 31.01.2020
3749 Clear 5 1020 43 16093 2.6 170 09:22 31.01.2020
3750 Clear 5 1020 80 16093 2 292 08:57 31.01.2020
3751 Clear 6 1020 80 16093 1.83 260 08:39 31.01.2020
3752 Clear 6 1020 49 16093 2.1 130 08:20 31.01.2020
3753 Clear 6 1020 75 16093 2.01 292 07:49 31.01.2020
3754 Clear 7 1020 49 16093 2.6 160 07:19 31.01.2020
3755 Clear 8 1019 49 16093 2.01 292 06:37 31.01.2020
3756 Clear 8 1019 49 16093 2.01 292 05:56 31.01.2020
3757 Clear 9 1019 43 16093 2.6 310 05:26 31.01.2020
3758 Clear 10 1018 40 16093 3.1 280 04:36 31.01.2020
3759 Clear 12 1017 48 16093 2.45 299 02:50 31.01.2020
3760 Clouds 15 1017 38 16093 4.1 310 01:31 31.01.2020
3761 Clear 15 1017 31 16093 4.1 310 00:40 31.01.2020
3762 Clouds 16 1017 38 16093 5.1 310 00:22 31.01.2020
3763 Clear 17 1017 36 16093 4.1 330 23:42 30.01.2020
3764 Clear 17 1016 33 16093 5.7 330 23:21 30.01.2020
3765 Clear 17 1017 37 16093 5.7 340 22:39 30.01.2020
3766 Clear 17 1016 37 16093 4.1 310 22:21 30.01.2020
3767 Clear 17 1017 37 16093 3.6 340 21:58 30.01.2020
3768 Clear 16 1017 37 16093 3.6 340 21:40 30.01.2020
3769 Clear 16 1017 38 16093 2.6 340 21:18 30.01.2020
3770 Clear 16 1018 37 16093 3.6 325 20:56 30.01.2020
3771 Clear 15 1018 37 16093 3.6 325 20:38 30.01.2020
3772 Clear 14 1017 43 16093 1.17 359 20:19 30.01.2020
3773 Clear 14 1018 47 16093 1.17 359 19:44 30.01.2020
3774 Clear 14 1018 47 16093 1.17 359 19:44 30.01.2020
3775 Clear 13 1019 46 16093 1.17 359 19:19 30.01.2020
3776 Clear 13 1019 46 16093 1.17 359 19:19 30.01.2020
3777 Clear 13 1018 53 16093 1.17 359 18:58 30.01.2020
3778 Clear 12 1018 53 16093 1.17 359 18:37 30.01.2020
3779 Clear 11 1018 53 16093 1.17 359 18:18 30.01.2020
3780 Clear 9 1018 61 16093 1.17 359 17:41 30.01.2020
3781 Clear 8 1017 65 16093 2.1 110 17:19 30.01.2020
3782 Clear 7 1017 75 16093 0.37 334 16:58 30.01.2020
3783 Clear 6 1017 75 16093 0.37 334 16:39 30.01.2020
3784 Clear 4 1017 74 16093 3.6 120 16:21 30.01.2020
3785 Clear 2 1017 74 16093 0.37 334 15:44 30.01.2020
3786 Clear 2 1016 80 16093 3.6 130 15:21 30.01.2020
3787 Clear 2 1016 86 16093 0.37 334 14:58 30.01.2020
3788 Clear 3 1016 86 16093 0.37 334 14:39 30.01.2020
3789 Clear 3 1015 73 16093 0.77 312 14:20 30.01.2020
3790 Clear 3 1015 86 16093 0.77 312 13:41 30.01.2020
3791 Clear 3 1015 86 16093 0.77 312 13:41 30.01.2020
3792 Clear 3 1014 73 16093 3.1 120 13:23 30.01.2020
3793 Clear 3 1014 80 16093 0.41 328 12:55 30.01.2020
3794 Clear 4 1014 80 16093 0.41 328 12:37 30.01.2020
3795 Clear 3 1014 76 16093 4.1 110 12:19 30.01.2020
3796 Clear 4 1014 80 16093 0.41 328 11:41 30.01.2020
3797 Clear 4 1014 80 16093 3.1 120 11:22 30.01.2020
3798 Clear 4 1014 80 16093 0.81 255 10:58 30.01.2020
3799 Clear 4 1014 80 16093 0.81 255 10:39 30.01.2020
3800 Clear 4 1014 80 16093 1.5 110 10:20 30.01.2020
3801 Clear 5 1014 75 16093 0.81 255 09:45 30.01.2020
3802 Clear 6 1014 75 16093 2.6 90 09:24 30.01.2020
3803 Clear 6 1014 70 16093 0.81 255 08:43 30.01.2020
3804 Clear 6 1014 75 16093 3.6 120 08:22 30.01.2020
3805 Clear 7 1013 70 16093 1.43 274 07:58 30.01.2020
3806 Clear 7 1013 70 16093 1.43 274 07:39 30.01.2020
3807 Clear 7 1013 65 16093 2.6 290 07:18 30.01.2020
3808 Clear 8 1013 70 16093 1.43 274 06:43 30.01.2020
3809 Clear 8 1013 65 16093 1.43 274 06:25 30.01.2020
3810 Clear 9 1012 53 16093 2.6 250 05:29 30.01.2020
3811 Clear 10 1012 57 16093 3.8 309 04:50 30.01.2020
3812 Clear 11 1012 53 16093 3.8 309 03:47 30.01.2020
3813 Clouds 13 1012 50 16093 3.8 309 02:56 30.01.2020
3814 Clear 15 1010 29 16093 8.2 270 01:23 30.01.2020
3815 Clear 17 1010 25 16093 8.2 270 00:30 30.01.2020
3816 Clear 17 1010 25 16093 4.1 330 23:56 29.01.2020
3817 Clear 17 1010 25 16093 4.1 330 23:38 29.01.2020
3818 Clear 17 1010 23 16093 4.6 280 23:20 29.01.2020
3819 Clear 17 1010 22 16093 5.1 340 22:55 29.01.2020
3820 Clear 17 1010 23 16093 6.2 300 22:37 29.01.2020
3821 Clear 17 1010 23 16093 6.2 300 22:18 29.01.2020
3822 Clear 17 1011 23 16093 4.1 340 21:54 29.01.2020
3823 Clear 17 1011 29 16093 3.6 310 21:36 29.01.2020
3824 Clear 16 1011 29 16093 3.6 310 21:18 29.01.2020
3825 Clear 16 1011 29 16093 3.6 310 21:18 29.01.2020
3826 Clear 16 1012 25 16093 4.16 313 20:40 29.01.2020
3827 Clear 15 1013 30 16093 2.1 270 20:21 29.01.2020
3828 Clear 15 1013 35 16093 1.46 283 19:58 29.01.2020
3829 Clear 14 1013 32 16093 2.1 270 19:38 29.01.2020
3830 Clear 14 1013 32 16093 2.1 270 19:38 29.01.2020
3831 Clear 14 1013 32 16093 2.1 270 19:20 29.01.2020
3832 Clear 14 1014 40 16093 1.46 283 18:58 29.01.2020
3833 Clear 12 1013 37 16093 2.1 140 18:37 29.01.2020
3834 Clear 12 1013 37 16093 2.1 140 18:18 29.01.2020
3835 Clear 11 1014 45 16093 2.1 130 17:40 29.01.2020
3836 Clear 9 1014 45 16093 3.6 140 17:22 29.01.2020
3837 Clear 7 1014 60 16093 4.6 110 16:43 29.01.2020
3838 Clear 7 1014 60 16093 4.6 110 16:43 29.01.2020
3839 Clear 5 1014 64 16093 3.1 130 16:24 29.01.2020
3840 Clear 4 1014 74 16093 0.81 132 15:59 29.01.2020
3841 Clear 3 1014 74 16093 0.81 132 15:38 29.01.2020
3842 Clear 3 1014 69 16093 3.1 130 15:20 29.01.2020
3843 Clear 3 1014 69 16093 3.1 130 15:20 29.01.2020
3844 Clear 3 1014 64 16093 0.81 132 14:45 29.01.2020
3845 Clear 4 1014 69 16093 2.1 100 14:22 29.01.2020
3846 Clear 4 1015 42 16093 0.41 244 13:57 29.01.2020
3847 Clear 4 1015 42 16093 0.41 244 13:38 29.01.2020
3848 Clear 4 1015 69 16093 3.6 120 13:20 29.01.2020
3849 Clear 4 1015 69 16093 0.44 206 12:56 29.01.2020
3850 Clear 4 1015 69 16093 0.44 206 12:37 29.01.2020
3851 Clear 4 1015 64 16093 0.44 206 12:19 29.01.2020
3852 Clear 4 1015 65 16093 3.1 100 11:45 29.01.2020
3853 Clear 4 1015 52 16093 0.44 206 11:22 29.01.2020
3854 Clear 5 1016 60 16093 2.6 70 10:47 29.01.2020
3855 Clear 5 1015 60 16093 5.1 120 10:28 29.01.2020
3856 Clear 5 1016 69 16093 3.6 120 09:59 29.01.2020
3857 Clear 5 1016 69 16093 3.6 120 09:40 29.01.2020
3858 Clear 5 1016 69 16093 3.6 120 09:20 29.01.2020
3859 Clear 5 1016 40 16093 0.77 143 08:56 29.01.2020
3860 Clear 5 1017 60 16093 0.77 143 08:38 29.01.2020
3861 Clear 6 1017 60 16093 0.51 154 08:18 29.01.2020
3862 Clear 6 1017 56 16093 0.51 154 07:43 29.01.2020
3863 Clear 7 1017 40 16093 3.1 120 07:23 29.01.2020
3864 Clear 7 1017 40 16093 3.1 120 07:23 29.01.2020
3865 Clear 7 1017 40 16093 0.51 154 06:38 29.01.2020
3866 Clear 7 1018 40 16093 3.1 120 06:20 29.01.2020
3867 Clear 7 1017 52 16093 0.51 154 05:54 29.01.2020
3868 Clear 7 1018 52 16093 0.51 154 05:35 29.01.2020
3869 Clear 9 1018 33 16093 2.09 269 04:39 29.01.2020
3870 Clear 10 1018 40 16093 2.09 269 04:18 29.01.2020
3871 Clear 13 1018 21 16093 2.6 320 02:40 29.01.2020
3872 Clear 16 1018 21 16093 3.1 300 01:34 29.01.2020
3873 Clear 18 1018 18 16093 3.1 340 00:39 29.01.2020
3874 Clear 18 1018 20 16093 3.1 300 00:21 29.01.2020
3875 Clear 18 1019 16 16093 3.1 320 23:41 28.01.2020
3876 Clear 18 1019 23 16093 2.6 310 23:20 28.01.2020
3877 Clear 18 1019 16 16093 1.7 348 22:56 28.01.2020
3878 Clear 18 1019 16 16093 1.7 348 22:37 28.01.2020
3879 Clear 18 1019 27 16093 2.1 320 22:18 28.01.2020
3880 Clear 18 1019 20 16093 1.7 348 21:41 28.01.2020
3881 Clear 17 1020 26 16093 1.7 348 21:20 28.01.2020
3882 Clear 17 1020 25 16093 1.7 348 20:46 28.01.2020
3883 Clear 17 1021 21 16093 1.7 348 20:28 28.01.2020
3884 Clear 16 1021 33 16093 1 71 19:58 28.01.2020
3885 Clear 15 1022 32 16093 2.1 80 19:38 28.01.2020
3886 Clear 15 1022 32 16093 2.1 80 19:19 28.01.2020
3887 Clear 14 1022 46 16093 1 71 18:54 28.01.2020
3888 Clear 13 1022 46 16093 1 71 18:36 28.01.2020
3889 Clear 13 1022 46 16093 1 71 18:36 28.01.2020
3890 Clear 12 1022 32 16093 1 71 18:18 28.01.2020
3891 Clear 12 1022 53 16093 1 71 17:55 28.01.2020
3892 Clear 10 1022 57 16093 2.6 150 17:36 28.01.2020
3893 Clear 9 1022 57 16093 2.6 150 17:18 28.01.2020
3894 Clear 7 1022 75 16093 0.24 20 16:44 28.01.2020
3895 Clear 6 1022 80 16093 3.1 120 16:25 28.01.2020
3896 Clear 4 1022 55 16093 0.24 20 15:57 28.01.2020
3897 Clear 4 1022 55 16093 0.24 20 15:38 28.01.2020
3898 Clear 4 1021 80 16093 3.1 130 15:18 28.01.2020
3899 Clear 4 1021 86 16093 0.24 20 14:44 28.01.2020
3900 Clear 4 1020 80 16093 4.1 130 14:20 28.01.2020
3901 Clear 4 1020 75 16093 0.52 335 13:43 28.01.2020
3902 Clear 5 1020 80 16093 3.6 140 13:24 28.01.2020
3903 Clear 5 1020 75 16093 0.36 6 12:45 28.01.2020
3904 Clear 5 1020 70 16093 1.5 30 12:25 28.01.2020
3905 Clear 6 1020 75 16093 0.36 6 11:59 28.01.2020
3906 Clear 6 1020 75 16093 0.36 6 11:41 28.01.2020
3907 Clear 6 1021 75 16093 3.1 120 11:22 28.01.2020
3908 Clear 6 1020 75 16093 1.25 281 10:55 28.01.2020
3909 Clear 6 1021 70 16093 4.1 110 10:36 28.01.2020
3910 Clear 6 1021 70 16093 4.1 110 10:18 28.01.2020
3911 Clear 6 1020 70 16093 1.25 281 09:41 28.01.2020
3912 Clear 7 1021 65 16093 4.1 110 09:20 28.01.2020
3913 Clear 7 1021 65 16093 4.1 110 09:20 28.01.2020
3914 Clear 7 1021 65 16093 4.1 110 09:20 28.01.2020
3915 Clear 7 1021 75 16093 1.25 281 08:45 28.01.2020
3916 Clear 7 1021 70 16093 2.6 160 08:26 28.01.2020
3917 Clear 8 1021 75 16093 1.57 270 07:53 28.01.2020
3918 Clear 8 1021 61 16093 2.6 180 07:31 28.01.2020
3919 Clear 9 1021 57 16093 1.57 270 06:47 28.01.2020
3920 Clear 9 1021 53 16093 3.1 210 06:24 28.01.2020
3921 Clear 10 1020 57 16093 1.57 270 05:38 28.01.2020
3922 Clear 10 1021 40 16093 2.87 315 05:20 28.01.2020
3923 Clear 13 1020 45 16093 2.87 315 03:47 28.01.2020
3924 Clear 14 1020 31 16093 2.87 315 02:44 28.01.2020
3925 Clear 15 1020 33 16093 8.2 300 02:25 28.01.2020
3926 Clear 15 1019 29 16093 3.6 310 01:53 28.01.2020
3927 Clear 17 1019 29 16093 6.7 290 01:20 28.01.2020
3928 Clear 18 1019 24 16093 6.2 310 00:41 28.01.2020
3929 Clear 18 1019 36 16093 5.1 320 00:19 28.01.2020
3930 Clear 18 1019 24 16093 6.2 310 23:42 27.01.2020
3931 Clear 18 1019 36 16093 6.2 300 23:19 27.01.2020
3932 Clear 18 1019 39 16093 7.7 300 22:45 27.01.2020
3933 Clear 18 1019 39 16093 7.7 300 22:20 27.01.2020
3934 Clear 18 1019 39 16093 7.7 300 22:20 27.01.2020
3935 Clear 18 1019 39 16093 7.7 300 22:20 27.01.2020
3936 Clear 18 1019 39 16093 4.1 300 21:57 27.01.2020
3937 Clear 18 1019 39 16093 4.1 300 21:39 27.01.2020
3938 Clear 18 1019 39 16093 4.1 300 21:19 27.01.2020
3939 Clear 18 1019 34 16093 4.6 310 20:56 27.01.2020
3940 Clear 18 1020 45 16093 4.1 250 20:37 27.01.2020
3941 Clear 18 1020 45 16093 4.1 250 20:19 27.01.2020
3942 Clear 17 1020 42 16093 2.6 300 19:42 27.01.2020
3943 Clear 17 1021 48 16093 3.6 250 19:24 27.01.2020
3944 Clear 16 1020 51 16093 3.64 296 19:00 27.01.2020
3945 Clear 16 1020 51 16093 3.64 296 18:39 27.01.2020
3946 Clear 16 1020 51 16093 3.64 296 18:39 27.01.2020
3947 Clear 15 1021 58 16093 2.1 240 18:21 27.01.2020
3948 Clear 14 1020 66 16093 3.64 296 17:57 27.01.2020
3949 Clear 14 1020 66 16093 3.64 296 17:37 27.01.2020
3950 Clear 13 1021 81 16093 1.16 223 17:18 27.01.2020
3951 Clear 11 1020 76 16093 1.5 80 16:42 27.01.2020
3952 Clear 9 1019 87 16093 2.6 120 16:24 27.01.2020
3953 Clear 8 1019 76 16093 3.1 110 15:59 27.01.2020
3954 Clear 8 1019 76 16093 3.1 110 15:40 27.01.2020
3955 Clouds 9 1019 81 16093 1.16 223 15:19 27.01.2020
3956 Clouds 9 1019 76 16093 1.16 223 14:55 27.01.2020
3957 Clouds 9 1019 76 16093 1.16 223 14:37 27.01.2020
3958 Clouds 9 1019 76 16093 2.6 160 14:18 27.01.2020
3959 Clouds 9 1018 81 16093 1.24 331 13:42 27.01.2020
3960 Clouds 9 1019 81 16093 1.89 293 13:21 27.01.2020
3961 Clouds 9 1018 71 16093 1.89 293 12:56 27.01.2020
3962 Clouds 9 1018 71 16093 1.89 293 12:37 27.01.2020
3963 Clouds 10 1018 76 16093 2.1 130 12:19 27.01.2020
3964 Clouds 10 1018 76 16093 2.1 130 12:19 27.01.2020
3965 Clouds 10 1018 71 16093 1.89 293 11:42 27.01.2020
3966 Clouds 9 1019 81 16093 3.1 170 11:21 27.01.2020
3967 Clouds 9 1019 81 16093 3.1 170 11:21 27.01.2020
3968 Clear 10 1018 76 16093 0.94 266 10:44 27.01.2020
3969 Clouds 10 1019 81 16093 2.1 140 10:25 27.01.2020
3970 Clouds 9 1018 76 16093 2.1 130 09:58 27.01.2020
3971 Clouds 9 1018 76 16093 2.1 130 09:39 27.01.2020
3972 Clouds 9 1019 87 16093 2.1 150 09:18 27.01.2020
3973 Clear 9 1019 81 16093 0.94 266 08:46 27.01.2020
3974 Clear 9 1019 81 16093 2.6 140 08:22 27.01.2020
3975 Clear 10 1018 81 16093 0.9 234 07:54 27.01.2020
3976 Clear 10 1018 76 16093 2.1 140 07:35 27.01.2020
3977 Clear 10 1018 71 16093 0.9 234 06:55 27.01.2020
3978 Clear 11 1018 76 16093 2.1 160 06:27 27.01.2020
3979 Clear 11 1018 71 16093 0.9 234 05:28 27.01.2020
3980 Clear 14 1017 55 16093 1.4 230 03:58 27.01.2020
3981 Clear 16 1017 51 16093 2.1 350 02:43 27.01.2020
3982 Clear 19 1017 37 16093 4.1 300 01:31 27.01.2020
3983 Clear 20 1017 35 16093 2.6 350 00:58 27.01.2020
3984 Clear 21 1018 28 16093 5.1 280 00:37 27.01.2020
3985 Clear 21 1018 28 16093 5.1 280 00:18 27.01.2020
3986 Clear 22 1018 30 16093 5.7 320 23:41 26.01.2020
3987 Clear 22 1018 30 16093 5.7 320 23:41 26.01.2020
3988 Clear 22 1018 32 16093 2.1 310 23:19 26.01.2020
3989 Clear 21 1018 32 16093 3.29 256 22:55 26.01.2020
3990 Clear 21 1019 37 16093 2.6 310 22:36 26.01.2020
3991 Clear 21 1019 37 16093 2.6 310 22:18 26.01.2020
3992 Clear 21 1019 37 16093 2.6 310 22:18 26.01.2020
3993 Clear 21 1019 32 16093 2.1 310 21:55 26.01.2020
3994 Clear 21 1019 32 16093 2.1 310 21:37 26.01.2020
3995 Clear 21 1020 40 16093 1.5 310 21:19 26.01.2020
3996 Clear 21 1020 42 16093 2.6 260 20:55 26.01.2020
3997 Clear 20 1021 42 16093 2.1 110 20:36 26.01.2020
3998 Clear 20 1021 42 16093 2.1 110 20:18 26.01.2020
3999 Clear 19 1021 45 16093 2.6 130 19:56 26.01.2020
4000 Clear 19 1021 45 16093 2.6 130 19:36 26.01.2020
4001 Clear 18 1022 48 16093 1.5 140 19:18 26.01.2020
4002 Clear 17 1021 58 16093 3.6 30 18:41 26.01.2020
4003 Clear 16 1022 54 16093 1.5 160 18:22 26.01.2020
4004 Clear 15 1021 66 16093 3.1 100 17:58 26.01.2020
4005 Clear 14 1021 66 16093 3.1 100 17:39 26.01.2020
4006 Clear 12 1021 66 16093 2.1 140 17:19 26.01.2020
4007 Clear 10 1021 81 16093 1.54 178 16:58 26.01.2020
4008 Clear 9 1021 81 16093 1.54 178 16:39 26.01.2020
4009 Clear 8 1021 81 16093 1.5 120 16:20 26.01.2020
4010 Clear 7 1022 81 16093 4.1 140 15:57 26.01.2020
4011 Clear 7 1022 81 16093 4.1 140 15:39 26.01.2020
4012 Clear 6 1022 81 16093 4.1 140 15:18 26.01.2020
4013 Clear 7 1022 81 16093 3.1 150 14:40 26.01.2020
4014 Clear 7 1022 87 16093 1.5 110 14:20 26.01.2020
4015 Clear 6 1022 87 16093 1.5 110 13:43 26.01.2020
4016 Clear 6 1021 85 0 0.5 242 13:21 26.01.2020
4017 Clear 7 1022 70 0 0.49 259 12:58 26.01.2020
4018 Clear 7 1021 85 0 0.49 259 12:40 26.01.2020
4019 Clear 7 1021 83 0 0.49 259 12:21 26.01.2020
4020 Clear 7 1021 81 0 0.49 259 11:57 26.01.2020
4021 Clear 7 1020 88 0 0.49 259 11:38 26.01.2020
4022 Clear 7 1021 81 16093 2.6 90 11:18 26.01.2020
4023 Clear 7 1021 81 16093 2.6 90 10:58 26.01.2020
4024 Clear 8 1021 81 16093 2.6 90 10:38 26.01.2020
4025 Clear 8 1021 81 16093 2.6 90 10:38 26.01.2020
4026 Clear 8 1021 81 16093 2.6 90 10:38 26.01.2020
4027 Clear 8 1021 81 16093 2.6 90 10:20 26.01.2020
4028 Clear 8 1020 81 16093 0.87 170 09:56 26.01.2020
4029 Clear 8 1020 81 16093 0.87 170 09:38 26.01.2020
4030 Clear 8 1020 81 16093 2.1 110 09:20 26.01.2020
4031 Clear 9 1020 76 16093 2.6 110 08:42 26.01.2020
4032 Clear 9 1020 81 16093 1.5 90 08:22 26.01.2020
4033 Clear 9 1020 81 16093 2.6 90 07:54 26.01.2020
4034 Clear 10 1020 81 16093 2.6 90 07:36 26.01.2020
4035 Clear 10 1020 81 16093 2.6 90 07:36 26.01.2020
4036 Clear 10 1021 71 16093 2.1 150 07:18 26.01.2020
4037 Clear 10 1020 76 16093 2.6 130 06:26 26.01.2020
4038 Clear 11 1020 62 16093 2.6 260 05:29 26.01.2020
4039 Clear 12 1019 76 16093 2.1 220 04:43 26.01.2020
4040 Clear 16 1018 58 16093 2.6 330 02:38 26.01.2020
4041 Clear 18 1017 45 16093 4.1 310 01:46 26.01.2020
4042 Clear 18 1017 37 16093 3.1 320 01:23 26.01.2020
4043 Clear 20 1017 40 16093 2.6 320 00:43 26.01.2020
4044 Clear 20 1017 37 16093 3.6 290 00:25 26.01.2020
4045 Clear 21 1018 33 16093 4.1 290 23:40 25.01.2020
4046 Clear 21 1018 33 16093 4.1 290 23:21 25.01.2020
4047 Clear 21 1018 33 16093 4.1 290 22:56 25.01.2020
4048 Clear 21 1018 33 16093 4.1 290 22:56 25.01.2020
4049 Clouds 21 1016 37 0 1.79 298 22:37 25.01.2020
4050 Clouds 21 1016 37 0 1.79 298 22:37 25.01.2020
4051 Clouds 21 1017 38 0 0.45 0 22:18 25.01.2020
4052 Clear 21 1019 42 16093 1.57 281 21:55 25.01.2020
4053 Clear 21 1019 42 16093 1.57 281 21:55 25.01.2020
4054 Clear 21 1019 42 16093 1.57 281 21:55 25.01.2020
4055 Clear 21 1019 42 16093 1.57 281 21:36 25.01.2020
4056 Clouds 19 1016 30 0 1.57 281 21:18 25.01.2020
4057 Clouds 19 1016 30 0 1.57 281 20:43 25.01.2020
4058 Clear 20 1020 48 16093 1.57 281 20:24 25.01.2020
4059 Clear 16 1018 41 0 0.56 200 19:48 25.01.2020
4060 Clear 16 1018 41 0 0.56 200 19:48 25.01.2020
4061 Clear 18 1020 51 0 0.56 200 19:20 25.01.2020
4062 Clear 17 1020 51 0 0.65 190 18:59 25.01.2020
4063 Clear 15 1020 71 16093 0.56 200 18:41 25.01.2020
4064 Clear 15 1020 58 0 0.45 0 18:20 25.01.2020
4065 Clear 14 1016 65 0 0.65 190 17:42 25.01.2020
4066 Clear 12 1020 67 0 0.45 61 17:23 25.01.2020
4067 Clear 10 1019 75 0 0.57 164 16:58 25.01.2020
4068 Clear 9 1019 80 0 0.57 164 16:40 25.01.2020
4069 Clear 8 1019 87 16093 0.57 164 16:21 25.01.2020
4070 Clear 6 1019 93 16093 0.57 164 15:47 25.01.2020
4071 Clear 6 1019 93 16093 0.57 164 15:25 25.01.2020
4072 Clear 6 1019 93 16093 0.57 164 14:59 25.01.2020
4073 Clear 6 1018 87 16093 3.6 110 14:41 25.01.2020
4074 Clear 6 1018 87 16093 3.6 110 14:18 25.01.2020
4075 Clouds 6 1017 87 0 0.28 319 13:43 25.01.2020
4076 Clouds 6 1017 87 0 0.28 319 13:24 25.01.2020
4077 Clear 7 1017 81 16093 2.6 70 12:46 25.01.2020
4078 Clear 7 1017 81 16093 2.6 70 12:26 25.01.2020
4079 Clear 7 1017 81 16093 2.6 70 11:46 25.01.2020
4080 Clear 7 1017 81 16093 3.1 120 11:22 25.01.2020
4081 Clear 8 1016 81 16093 2.1 110 10:59 25.01.2020
4082 Clear 8 1016 81 16093 2.1 110 10:40 25.01.2020
4083 Clear 8 1017 87 16093 1.5 110 10:20 25.01.2020
4084 Clear 8 1017 81 16093 2.1 70 09:54 25.01.2020
4085 Clear 8 1017 87 16093 2.1 100 09:36 25.01.2020
4086 Clear 8 1017 87 16093 2.1 100 09:18 25.01.2020
4087 Clear 9 1017 81 16093 0.72 165 08:42 25.01.2020
4088 Clear 10 1017 87 16093 2.6 70 07:51 25.01.2020
4089 Clear 10 1017 76 16093 1.5 190 06:54 25.01.2020
4090 Clear 11 1017 81 16093 2.1 130 06:29 25.01.2020
4091 Clear 11 1017 71 16093 0.76 268 05:48 25.01.2020
4092 Clear 12 1017 62 16093 2.1 240 05:23 25.01.2020
4093 Clear 13 1015 66 16093 1.5 320 03:53 25.01.2020
4094 Clear 14 1015 58 16093 3.1 280 03:22 25.01.2020
4095 Clear 16 1014 55 16093 3.6 290 02:22 25.01.2020
4096 Clear 17 1014 51 16093 2.1 290 01:48 25.01.2020
4097 Clear 19 1014 45 16093 3.6 320 00:44 25.01.2020
4098 Clear 20 1014 35 16093 5.7 300 00:26 25.01.2020
4099 Clear 20 1014 39 16093 3.1 310 23:58 24.01.2020
4100 Clear 21 1014 39 16093 3.1 310 23:40 24.01.2020
4101 Clear 21 1014 39 16093 3.1 310 23:40 24.01.2020
4102 Clear 21 1014 26 16093 2.1 290 23:22 24.01.2020
4103 Clear 22 1014 34 16093 3.1 300 22:44 24.01.2020
4104 Haze 22 1014 26 6437 1.5 290 22:25 24.01.2020
4105 Clear 22 1015 34 16093 3.1 340 21:43 24.01.2020
4106 Clear 21 1015 35 16093 2.08 250 21:21 24.01.2020
4107 Clear 21 1016 39 16093 2.6 30 20:59 24.01.2020
4108 Clear 20 1017 34 16093 3.1 110 20:40 24.01.2020
4109 Clear 20 1017 34 16093 3.1 110 20:20 24.01.2020
4110 Clear 19 1017 42 16093 3.1 100 19:57 24.01.2020
4111 Clear 18 1017 36 16093 2.6 60 19:38 24.01.2020
4112 Clear 17 1017 36 16093 2.6 60 19:20 24.01.2020
4113 Clear 16 1017 50 16093 5.7 100 18:43 24.01.2020
4114 Clear 15 1018 58 16093 3.1 160 18:24 24.01.2020
4115 Clear 13 1017 71 16093 5.1 100 17:54 24.01.2020
4116 Clear 12 1018 57 16093 6.7 120 17:36 24.01.2020
4117 Clear 10 1018 57 16093 6.7 120 17:18 24.01.2020
4118 Clear 8 1017 76 16093 4.1 100 16:39 24.01.2020
4119 Clear 7 1017 81 16093 2.6 130 16:20 24.01.2020
4120 Clear 6 1017 87 16093 2.6 150 15:43 24.01.2020
4121 Clear 6 1017 81 16093 0.82 168 15:22 24.01.2020
4122 Clear 6 1017 93 16093 2.6 100 14:57 24.01.2020
4123 Clear 6 1017 93 16093 2.6 100 14:38 24.01.2020
4124 Clear 6 1017 86 16093 3.1 130 14:20 24.01.2020
4125 Rain 6 1016 93 16093 0.6 356 13:42 24.01.2020
4126 Rain 6 1016 81 16093 2.1 160 13:23 24.01.2020
4127 Clear 6 1016 93 16093 0.53 328 12:44 24.01.2020
4128 Clear 6 1017 87 16093 2.1 120 12:22 24.01.2020
4129 Clear 6 1017 87 16093 3.1 90 11:45 24.01.2020
4130 Clear 7 1017 87 16093 3.1 90 11:20 24.01.2020
4131 Clear 7 1017 93 16093 2.6 110 10:59 24.01.2020
4132 Clear 7 1017 93 16093 2.6 110 10:41 24.01.2020
4133 Clear 7 1017 93 16093 2.6 110 10:41 24.01.2020
4134 Clear 7 1017 87 16093 3.1 130 10:19 24.01.2020
4135 Clear 7 1017 87 16093 1.5 140 09:42 24.01.2020
4136 Clear 7 1017 87 16093 1.5 140 09:42 24.01.2020
4137 Clear 7 1017 87 16093 3.1 140 09:24 24.01.2020
4138 Clear 7 1017 81 16093 3.1 110 08:59 24.01.2020
4139 Clear 8 1017 87 16093 2.6 120 08:36 24.01.2020
4140 Clear 8 1017 87 16093 2.6 120 08:18 24.01.2020
4141 Clear 8 1017 81 16093 2.1 130 07:42 24.01.2020
4142 Clear 9 1017 87 16093 3.6 130 07:18 24.01.2020
4143 Clear 9 1017 81 16093 1.36 304 06:42 24.01.2020
4144 Clear 9 1017 87 16093 2.1 140 06:18 24.01.2020
4145 Clear 10 1017 76 16093 1.14 309 05:20 24.01.2020
4146 Clear 14 1016 71 16093 2.1 320 02:56 24.01.2020
4147 Clear 14 1016 71 16093 2.1 320 02:38 24.01.2020
4148 Clear 15 1016 67 16093 4.6 290 02:18 24.01.2020
4149 Clear 17 1016 55 16093 3.1 290 01:37 24.01.2020
4150 Clear 18 1016 48 16093 4.1 310 00:39 24.01.2020
4151 Clear 19 1016 52 16093 2.1 320 23:59 23.01.2020
4152 Clear 19 1016 52 16093 2.1 320 23:59 23.01.2020
4153 Clear 19 1016 52 16093 2.1 320 23:40 23.01.2020
4154 Clear 19 1017 42 16093 4.1 290 23:21 23.01.2020
4155 Clear 19 1017 51 16093 1.5 320 22:55 23.01.2020
4156 Clear 19 1017 51 16093 1.5 320 22:55 23.01.2020
4157 Clear 19 1018 45 16093 4.1 270 22:36 23.01.2020
4158 Clear 19 1018 45 16093 4.1 270 22:36 23.01.2020
4159 Clear 18 1018 45 16093 4.1 270 22:18 23.01.2020
4160 Clear 18 1018 45 16093 4.1 270 22:18 23.01.2020
4161 Clear 18 1018 51 16093 1.5 300 21:54 23.01.2020
4162 Clear 18 1018 51 16093 1.5 300 21:36 23.01.2020
4163 Clear 17 1018 51 16093 1.5 300 21:18 23.01.2020
4164 Clear 16 1019 54 16093 1.5 360 20:39 23.01.2020
4165 Clear 16 1019 54 16093 1.5 360 20:39 23.01.2020
4166 Clear 16 1020 58 16093 1.65 40 20:21 23.01.2020
4167 Clear 15 1021 62 16093 1.65 40 19:56 23.01.2020
4168 Clear 15 1021 62 16093 1.65 40 19:38 23.01.2020
4169 Clear 14 1021 62 16093 1.5 110 19:20 23.01.2020
4170 Clear 13 1021 76 16093 1.65 40 18:56 23.01.2020
4171 Clear 12 1021 76 16093 1.65 40 18:37 23.01.2020
4172 Clear 12 1022 76 16093 2.1 120 18:19 23.01.2020
4173 Clear 11 1021 81 16093 1.65 40 17:43 23.01.2020
4174 Clear 9 1021 87 16093 0.98 20 17:20 23.01.2020
4175 Clear 8 1021 87 16093 3.1 100 16:58 23.01.2020
4176 Rain 6 1021 93 16093 2.1 130 16:37 23.01.2020
4177 Rain 5 1021 93 16093 2.1 130 16:18 23.01.2020
4178 Rain 4 1021 100 8047 0.98 20 15:57 23.01.2020
4179 Rain 4 1021 100 8047 0.98 20 15:37 23.01.2020
4180 Rain 4 1020 93 16093 2.6 120 15:18 23.01.2020
4181 Rain 4 1020 93 16093 1.5 120 14:56 23.01.2020
4182 Clear 4 1020 93 16093 1.5 120 14:38 23.01.2020
4183 Clear 4 1020 93 16093 1.5 140 14:20 23.01.2020
4184 Clear 5 1020 100 16093 2.1 130 13:44 23.01.2020
4185 Rain 5 1020 86 16093 0.5 336 13:20 23.01.2020
4186 Rain 5 1020 100 16093 0.5 336 12:54 23.01.2020
4187 Rain 5 1020 86 16093 1.5 110 12:36 23.01.2020
4188 Rain 5 1020 86 16093 1.5 110 12:18 23.01.2020
4189 Rain 5 1020 100 16093 0.4 331 11:42 23.01.2020
4190 Rain 5 1020 93 16093 3.1 110 11:23 23.01.2020
4191 Rain 5 1020 93 16093 0.88 296 10:56 23.01.2020
4192 Rain 5 1020 93 16093 0.88 296 10:38 23.01.2020
4193 Rain 6 1020 87 16093 1.5 100 10:18 23.01.2020
4194 Clear 6 1020 93 16093 0.88 296 09:40 23.01.2020
4195 Clear 6 1021 87 16093 2.1 130 09:21 23.01.2020
4196 Clear 6 1021 100 11265 0.77 280 08:43 23.01.2020
4197 Clear 7 1021 93 16093 1.5 120 08:25 23.01.2020
4198 Clear 7 1021 93 16093 1.62 317 07:52 23.01.2020
4199 Clear 7 1021 93 16093 2.1 180 07:27 23.01.2020
4200 Clear 8 1020 100 16093 1.62 317 06:55 23.01.2020
4201 Clear 8 1020 87 16093 1.62 317 06:25 23.01.2020
4202 Clear 8 1020 93 16093 1.5 320 05:59 23.01.2020
4203 Clouds 10 1020 81 16093 1.69 303 04:25 23.01.2020
4204 Clear 11 1019 71 16093 1.5 320 02:50 23.01.2020
4205 Clear 13 1019 62 16093 4.6 320 01:51 23.01.2020
4206 Clouds 14 1019 62 16093 3.1 300 00:41 23.01.2020
4207 Clouds 14 1019 62 16093 2.6 290 00:20 23.01.2020
4208 Clouds 14 1019 58 16093 2.6 330 23:45 22.01.2020
4209 Clouds 14 1019 58 16093 3.1 240 23:27 22.01.2020
4210 Clouds 14 1019 62 16093 3.1 330 22:43 22.01.2020
4211 Clouds 14 1019 62 16093 3.6 290 22:24 22.01.2020
4212 Clouds 14 1019 67 16093 2.6 290 21:58 22.01.2020
4213 Clouds 14 1020 62 16093 4.1 290 21:36 22.01.2020
4214 Clouds 14 1020 62 16093 4.1 290 21:18 22.01.2020
4215 Clouds 14 1020 67 16093 2.6 310 20:41 22.01.2020
4216 Clear 13 1020 71 16093 3.6 290 20:23 22.01.2020
4217 Clouds 13 1021 76 16093 2.1 310 19:58 22.01.2020
4218 Clouds 13 1021 76 16093 2.1 310 19:40 22.01.2020
4219 Clouds 13 1021 76 16093 2.1 290 19:20 22.01.2020
4220 Clouds 12 1021 93 16093 1.5 290 18:58 22.01.2020
4221 Clouds 12 1021 93 16093 1.5 290 18:38 22.01.2020
4222 Clouds 11 1021 81 16093 1.5 270 18:20 22.01.2020
4223 Clouds 11 1021 81 16093 2.1 290 17:55 22.01.2020
4224 Clouds 11 1021 81 16093 2.1 290 17:37 22.01.2020
4225 Rain 10 1020 87 16093 3.1 260 17:19 22.01.2020
4226 Rain 10 1021 100 11265 2.6 320 16:43 22.01.2020
4227 Rain 10 1020 87 16093 2.6 270 16:23 22.01.2020
4228 Clouds 10 1020 87 16093 2.6 260 15:59 22.01.2020
4229 Clouds 10 1020 87 16093 2.6 260 15:41 22.01.2020
4230 Clouds 10 1020 93 16093 2.6 250 15:22 22.01.2020
4231 Clouds 10 1020 81 16093 2.1 310 14:58 22.01.2020
4232 Clouds 10 1019 93 16093 3.6 270 14:37 22.01.2020
4233 Clouds 10 1019 93 16093 3.6 270 14:18 22.01.2020
4234 Clouds 10 1019 100 8047 0.62 300 13:54 22.01.2020
4235 Rain 10 1019 93 16093 4.1 280 13:36 22.01.2020
4236 Rain 10 1019 93 16093 4.1 280 13:18 22.01.2020
4237 Rain 10 1019 93 16093 3.6 280 12:55 22.01.2020
4238 Rain 10 1019 100 8047 1.22 330 12:37 22.01.2020
4239 Rain 10 1020 87 16093 2.6 350 12:18 22.01.2020
4240 Drizzle 10 1019 100 11265 3.1 290 11:56 22.01.2020
4241 Rain 10 1020 93 9656 1.5 280 11:37 22.01.2020
4242 Rain 10 1020 93 9656 1.5 280 11:18 22.01.2020
4243 Rain 10 1020 93 9656 2.1 290 10:43 22.01.2020
4244 Rain 10 1019 93 14484 0.59 348 10:20 22.01.2020
4245 Rain 10 1020 93 9656 1.5 280 09:43 22.01.2020
4246 Rain 10 1020 93 12874 1.5 290 09:25 22.01.2020
4247 Rain 11 1020 93 11265 1.5 280 08:57 22.01.2020
4248 Rain 10 1020 93 11265 1.5 280 08:39 22.01.2020
4249 Rain 11 1020 93 11265 2.1 290 08:21 22.01.2020
4250 Rain 11 1021 93 11265 2.1 350 07:48 22.01.2020
4251 Rain 11 1020 93 12874 1.5 300 07:30 22.01.2020
4252 Drizzle 11 1020 93 9656 2.6 320 06:50 22.01.2020
4253 Rain 11 1021 93 6437 2.1 330 06:26 22.01.2020
4254 Rain 11 1020 81 16093 1.5 270 05:33 22.01.2020
4255 Drizzle 11 1020 93 16093 2.1 290 04:18 22.01.2020
4256 Rain 11 1020 87 8047 2.1 360 03:21 22.01.2020
4257 Clouds 13 1019 76 16093 3.6 300 01:43 22.01.2020
4258 Clouds 13 1018 76 16093 2.1 330 00:44 22.01.2020
4259 Clouds 13 1018 67 16093 1.5 320 00:26 22.01.2020
4260 Clouds 14 1018 67 16093 3.1 320 23:38 21.01.2020
4261 Clouds 14 1018 67 16093 1.5 290 23:20 21.01.2020
4262 Clouds 14 1018 62 16093 2.67 300 22:56 21.01.2020
4263 Clouds 14 1018 62 16093 2.67 300 22:56 21.01.2020
4264 Clouds 14 1018 62 16093 2.67 300 22:37 21.01.2020
4265 Clouds 14 1018 62 16093 2.67 300 22:37 21.01.2020
4266 Clouds 14 1018 67 16093 2.67 300 22:19 21.01.2020
4267 Clouds 13 1018 67 16093 2.67 300 21:55 21.01.2020
4268 Clouds 13 1018 67 16093 2.67 300 21:37 21.01.2020
4269 Clouds 13 1019 71 16093 3.1 120 21:18 21.01.2020
4270 Clouds 13 1019 76 16093 2.67 300 20:55 21.01.2020
4271 Clouds 12 1020 76 16093 3.6 120 20:37 21.01.2020
4272 Clouds 12 1020 76 16093 3.6 120 20:18 21.01.2020
4273 Clouds 12 1020 76 16093 3.6 120 20:18 21.01.2020
4274 Rain 11 1020 81 16093 2.99 202 19:55 21.01.2020
4275 Rain 11 1019 87 16093 3.6 110 19:36 21.01.2020
4276 Rain 11 1019 87 16093 3.6 110 19:18 21.01.2020
4277 Rain 10 1020 93 16093 3.6 140 18:54 21.01.2020
4278 Rain 10 1019 93 16093 3.6 80 18:36 21.01.2020
4279 Rain 10 1019 93 16093 3.6 80 18:18 21.01.2020
4280 Rain 10 1018 87 16093 7.7 120 17:42 21.01.2020
4281 Rain 9 1021 93 12874 1.5 270 17:19 21.01.2020
4282 Rain 9 1021 93 8047 4.1 300 16:56 21.01.2020
4283 Rain 9 1022 87 4023 4.1 280 16:36 21.01.2020
4284 Rain 10 1021 87 11265 3.1 300 16:18 21.01.2020
4285 Rain 10 1021 87 8047 4.6 280 15:39 21.01.2020
4286 Rain 10 1020 87 16093 3.1 250 15:20 21.01.2020
4287 Rain 11 1020 81 16093 3.1 360 14:55 21.01.2020
4288 Drizzle 11 1019 62 16093 4.1 290 14:36 21.01.2020
4289 Drizzle 12 1019 62 16093 4.1 290 14:18 21.01.2020
4290 Rain 12 1018 62 16093 4.6 310 13:38 21.01.2020
4291 Rain 13 1018 62 16093 4.6 310 13:18 21.01.2020
4292 Rain 12 1018 81 16093 3.1 330 12:43 21.01.2020
4293 Clouds 13 1017 62 16093 3.6 280 12:24 21.01.2020
4294 Clouds 13 1018 58 16093 4.1 340 11:56 21.01.2020
4295 Clouds 13 1018 58 16093 4.1 340 11:38 21.01.2020
4296 Clouds 13 1018 58 16093 4.1 340 11:38 21.01.2020
4297 Clouds 13 1018 58 16093 4.1 340 11:38 21.01.2020
4298 Clouds 13 1018 58 16093 0.94 88 11:19 21.01.2020
4299 Clouds 14 1017 58 16093 0.94 88 10:43 21.01.2020
4300 Clouds 14 1017 47 16093 3.6 160 10:23 21.01.2020
4301 Clouds 14 1017 44 16093 0.94 88 09:57 21.01.2020
4302 Clouds 14 1017 44 16093 0.94 88 09:39 21.01.2020
4303 Clouds 14 1018 47 16093 5.7 120 09:21 21.01.2020
4304 Clouds 14 1017 51 16093 4.1 110 08:45 21.01.2020
4305 Clouds 14 1018 47 16093 5.1 120 08:27 21.01.2020
4306 Clouds 14 1017 54 16093 5.7 110 07:44 21.01.2020
4307 Clouds 14 1019 54 16093 2.6 160 07:25 21.01.2020
4308 Clear 14 1018 58 16093 2.6 80 06:58 21.01.2020
4309 Clear 14 1018 58 16093 2.6 80 06:38 21.01.2020
4310 Clear 14 1019 47 16093 2.1 200 06:20 21.01.2020
4311 Clear 15 1018 58 16093 2.75 99 05:40 21.01.2020
4312 Clear 16 1018 54 16093 2.33 104 04:38 21.01.2020
4313 Clouds 19 1018 34 16093 2.1 170 02:29 21.01.2020
4314 Clouds 20 1018 30 16093 2.6 160 01:36 21.01.2020
4315 Clear 22 1017 28 16093 5.1 290 00:51 21.01.2020
4316 Clear 23 1017 28 16093 4.1 160 00:28 21.01.2020
4317 Clear 23 1016 22 16093 2.1 130 23:56 20.01.2020
4318 Clouds 24 1017 27 16093 4.1 140 23:36 20.01.2020
4319 Clouds 24 1017 27 16093 4.1 140 23:18 20.01.2020
4320 Clear 24 1017 20 16093 4.1 140 22:40 20.01.2020
4321 Clouds 24 1018 27 16093 5.7 150 22:21 20.01.2020
4322 Clear 24 1018 20 16093 5.1 120 21:58 20.01.2020
4323 Clear 24 1018 20 16093 5.1 120 21:38 20.01.2020
4324 Clouds 24 1019 27 16093 6.2 140 21:20 20.01.2020
4325 Clear 24 1019 30 16093 3.6 160 20:59 20.01.2020
4326 Clear 24 1019 30 16093 3.6 160 20:41 20.01.2020
4327 Clear 23 1019 28 16093 8.7 140 20:20 20.01.2020
4328 Clear 23 1019 23 16093 7.2 130 19:58 20.01.2020
4329 Clear 22 1019 23 16093 7.2 130 19:40 20.01.2020
4330 Clear 22 1021 28 16093 7.2 130 19:19 20.01.2020
4331 Clear 21 1020 26 16093 5.1 130 18:54 20.01.2020
4332 Clear 19 1021 32 16093 7.2 150 18:36 20.01.2020
4333 Clear 19 1021 32 16093 7.2 150 18:18 20.01.2020
4334 Clear 18 1020 33 16093 1.5 240 17:38 20.01.2020
4335 Clouds 16 1021 33 16093 5.1 170 17:19 20.01.2020
4336 Clear 14 1020 52 16093 4.96 108 16:46 20.01.2020
4337 Clear 14 1021 38 16093 4.6 150 16:26 20.01.2020
4338 Clear 13 1019 52 16093 4.96 108 15:59 20.01.2020
4339 Clear 13 1019 52 16093 4.96 108 15:40 20.01.2020
4340 Clouds 13 1020 52 16093 9.8 140 15:21 20.01.2020
4341 Clear 13 1019 52 16093 4.6 110 14:56 20.01.2020
4342 Clear 12 1019 52 16093 4.6 110 14:37 20.01.2020
4343 Clouds 12 1020 50 16093 7.2 130 14:19 20.01.2020
4344 Clear 12 1019 50 16093 3.6 110 13:42 20.01.2020
4345 Clear 11 1020 43 16093 4.6 140 13:23 20.01.2020
4346 Clear 11 1019 50 16093 4.6 110 12:56 20.01.2020
4347 Clear 11 1019 50 16093 4.6 110 12:38 20.01.2020
4348 Clear 11 1020 46 16093 4.6 120 12:19 20.01.2020
4349 Clear 12 1019 46 16093 4.6 100 11:43 20.01.2020
4350 Clear 12 1020 50 16093 5.1 150 11:24 20.01.2020
4351 Clear 12 1019 48 16093 2.6 100 10:57 20.01.2020
4352 Clear 12 1019 48 16093 2.6 100 10:39 20.01.2020
4353 Clear 12 1020 47 16093 5.1 150 10:20 20.01.2020
4354 Clear 12 1019 46 16093 3.1 110 09:41 20.01.2020
4355 Clear 12 1020 41 16093 2.1 120 09:22 20.01.2020
4356 Clear 12 1020 50 16093 2.1 100 08:51 20.01.2020
4357 Clear 12 1021 41 16093 3.6 150 08:31 20.01.2020
4358 Clear 12 1020 43 16093 4.6 110 07:55 20.01.2020
4359 Clear 12 1020 54 16093 3.6 140 07:31 20.01.2020
4360 Rain 12 1020 41 16093 3.1 100 06:59 20.01.2020
4361 Rain 12 1020 41 16093 3.1 100 06:59 20.01.2020
4362 Rain 12 1021 62 16093 3.6 160 06:34 20.01.2020
4363 Clear 13 1020 47 16093 2.6 160 05:49 20.01.2020
4364 Clear 13 1021 58 16093 3.1 130 05:30 20.01.2020
4365 Clear 13 1021 58 16093 3.1 130 05:30 20.01.2020
4366 Clear 14 1019 54 16093 2.6 110 04:58 20.01.2020
4367 Clear 15 1020 47 16093 2.6 180 03:46 20.01.2020
4368 Clear 19 1019 26 16093 2.6 350 01:58 20.01.2020
4369 Clear 20 1019 26 16093 2.6 350 01:38 20.01.2020
4370 Clear 22 1018 26 16093 5.7 310 00:46 20.01.2020
4371 Clear 23 1018 29 16093 1.5 80 00:26 20.01.2020
4372 Clear 24 1018 26 16093 4.6 340 23:54 19.01.2020
4373 Clear 24 1018 29 16093 2.6 100 23:36 19.01.2020
4374 Clear 24 1018 25 16093 2.6 100 23:18 19.01.2020
4375 Clear 24 1018 25 16093 2.6 100 23:18 19.01.2020
4376 Clear 24 1018 24 16093 2.6 340 22:54 19.01.2020
4377 Clear 23 1019 25 16093 3.1 120 22:36 19.01.2020
4378 Clear 23 1019 25 16093 3.1 120 22:18 19.01.2020
4379 Clear 23 1020 23 16093 5.1 130 21:54 19.01.2020
4380 Clear 23 1020 23 16093 5.1 130 21:36 19.01.2020
4381 Clear 23 1019 28 16093 2.1 10 21:36 19.01.2020
4382 Clear 23 1020 23 16093 5.1 130 21:18 19.01.2020
4383 Clear 22 1020 24 16093 4.78 94 20:54 19.01.2020
4384 Clear 21 1021 25 16093 6.2 140 20:36 19.01.2020
4385 Clear 20 1021 32 16093 6.2 140 20:18 19.01.2020
4386 Clear 20 1022 32 16093 2.1 90 19:54 19.01.2020
4387 Clear 19 1022 32 16093 4.1 110 19:36 19.01.2020
4388 Clear 19 1022 32 16093 4.1 110 19:18 19.01.2020
4389 Clear 17 1022 32 16093 4.1 100 18:54 19.01.2020
4390 Clear 16 1022 32 16093 5.1 150 18:36 19.01.2020
4391 Clear 16 1022 32 16093 5.1 150 18:36 19.01.2020
4392 Clear 15 1022 32 16093 5.1 150 18:18 19.01.2020
4393 Clear 14 1022 43 16093 1.5 90 17:55 19.01.2020
4394 Clear 13 1022 32 16093 6.2 140 17:37 19.01.2020
4395 Clear 12 1022 54 16093 6.2 140 17:18 19.01.2020
4396 Clear 9 1022 81 16093 1.5 120 16:41 19.01.2020
4397 Clear 8 1022 54 16093 5.1 150 16:22 19.01.2020
4398 Clear 7 1023 80 16093 2.1 140 16:00 19.01.2020
4399 Clear 7 1023 80 16093 2.1 140 15:40 19.01.2020
4400 Clear 7 1023 80 16093 2.1 140 15:40 19.01.2020
4401 Clear 6 1022 75 16093 1.5 190 15:21 19.01.2020
4402 Clear 6 1022 86 16093 2.86 101 14:59 19.01.2020
4403 Clear 6 1022 86 16093 2.86 101 14:59 19.01.2020
4404 Clear 6 1022 86 16093 2.86 101 14:40 19.01.2020
4405 Clear 6 1022 75 16093 2.25 105 14:19 19.01.2020
4406 Clear 7 1021 86 16093 2.25 105 13:58 19.01.2020
4407 Clear 7 1021 86 16093 2.25 105 13:38 19.01.2020
4408 Clear 7 1021 75 16093 2.6 140 13:20 19.01.2020
4409 Clear 7 1021 75 16093 5.7 150 12:56 19.01.2020
4410 Clear 8 1021 75 16093 5.7 150 12:37 19.01.2020
4411 Clear 7 1021 86 16093 1.5 350 12:37 19.01.2020
4412 Clear 8 1021 50 16093 5.7 140 12:19 19.01.2020
4413 Clear 7 1021 70 16093 4.1 130 11:43 19.01.2020
4414 Clear 8 1022 70 16093 3.1 140 11:21 19.01.2020
4415 Clear 7 1021 70 16093 4.6 110 10:57 19.01.2020
4416 Clear 8 1021 70 16093 4.6 140 10:39 19.01.2020
4417 Clear 8 1021 70 16093 4.6 110 10:39 19.01.2020
4418 Clear 8 1021 70 16093 4.6 140 10:19 19.01.2020
4419 Clear 8 1021 75 16093 1.5 110 09:56 19.01.2020
4420 Clear 8 1021 75 16093 1.5 110 09:56 19.01.2020
4421 Clear 8 1021 75 16093 1.5 110 09:56 19.01.2020
4422 Clear 8 1021 75 16093 1.5 110 09:56 19.01.2020
4423 Clear 8 1022 75 16093 4.1 170 09:37 19.01.2020
4424 Clear 7 1022 75 16093 4.1 170 09:19 19.01.2020
4425 Clear 8 1021 70 16093 3.6 120 08:52 19.01.2020
4426 Clear 8 1022 81 16093 2.1 130 08:30 19.01.2020
4427 Clear 8 1022 75 16093 2.6 90 07:46 19.01.2020
4428 Clear 8 1022 87 16093 2.1 150 07:26 19.01.2020
4429 Clear 8 1022 65 16093 1.53 76 06:54 19.01.2020
4430 Clear 8 1022 81 16093 2.1 160 06:21 19.01.2020
4431 Clear 13 1021 47 16093 2.6 290 02:47 19.01.2020
4432 Clear 14 1021 51 16093 1.5 320 02:24 19.01.2020
4433 Clear 17 1021 45 16093 3.6 320 01:28 19.01.2020
4434 Clear 18 1021 32 16093 5.1 300 00:54 19.01.2020
4435 Clear 18 1021 32 16093 4.6 310 00:29 19.01.2020
4436 Clear 19 1021 32 16093 3.6 290 23:58 18.01.2020
4437 Clear 19 1021 32 16093 3.6 290 23:40 18.01.2020
4438 Clear 19 1020 34 16093 4.6 330 23:21 18.01.2020
4439 Clear 19 1021 34 16093 5.1 320 22:55 18.01.2020
4440 Clear 19 1021 34 16093 5.1 320 22:37 18.01.2020
4441 Clear 19 1021 34 16093 5.1 320 22:37 18.01.2020
4442 Clear 19 1021 37 16093 3.6 330 22:19 18.01.2020
4443 Clear 19 1022 39 16093 3.1 310 21:57 18.01.2020
4444 Clear 19 1022 39 16093 3.1 310 21:37 18.01.2020
4445 Clear 19 1022 39 16093 3.1 310 21:37 18.01.2020
4446 Clear 19 1022 34 16093 2.1 30 21:19 18.01.2020
4447 Clear 18 1023 38 16093 1.5 340 20:43 18.01.2020
4448 Clear 17 1023 39 16093 3.1 90 20:21 18.01.2020
4449 Clear 16 1024 44 16093 1.35 85 19:57 18.01.2020
4450 Clear 16 1024 47 16093 2.1 150 19:39 18.01.2020
4451 Clear 15 1024 47 16093 2.1 150 19:21 18.01.2020
4452 Clear 13 1024 62 16093 1.35 85 18:42 18.01.2020
4453 Clear 12 1024 54 16093 1.5 140 18:21 18.01.2020
4454 Clear 11 1024 70 16093 3.1 110 17:55 18.01.2020
4455 Clear 11 1024 70 16093 3.1 110 17:37 18.01.2020
4456 Clear 9 1024 76 16093 2.1 130 17:18 18.01.2020
4457 Clear 6 1024 81 16093 4.6 130 16:41 18.01.2020
4458 Clear 5 1024 86 16093 1.5 60 16:23 18.01.2020
4459 Clear 4 1025 93 16093 3.1 90 15:59 18.01.2020
4460 Clear 4 1025 93 16093 3.1 90 15:40 18.01.2020
4461 Clear 4 1023 93 16093 3.1 150 15:22 18.01.2020
4462 Clear 4 1023 93 16093 0.8 86 14:44 18.01.2020
4463 Clear 4 1023 86 16093 0.8 86 14:24 18.01.2020
4464 Clear 4 1023 93 16093 1.5 170 13:59 18.01.2020
4465 Clear 4 1023 93 16093 1.5 170 13:41 18.01.2020
4466 Clear 4 1022 86 16093 0.69 13 13:21 18.01.2020
4467 Clear 4 1022 81 16093 0.41 334 12:55 18.01.2020
4468 Clear 4 1022 81 16093 0.41 334 12:55 18.01.2020
4469 Clear 4 1022 81 16093 0.41 334 12:37 18.01.2020
4470 Rain 4 1022 86 16093 2.1 130 12:19 18.01.2020
4471 Rain 4 1022 87 16093 2.6 110 11:44 18.01.2020
4472 Clear 4 1022 86 16093 2.1 150 11:21 18.01.2020
4473 Clear 5 1022 75 16093 0.75 332 10:54 18.01.2020
4474 Clear 5 1022 87 16093 2.1 160 10:36 18.01.2020
4475 Clear 5 1022 87 16093 2.1 160 10:18 18.01.2020
4476 Clear 5 1022 86 16093 1.5 110 09:42 18.01.2020
4477 Clear 6 1023 87 16093 2.1 140 09:20 18.01.2020
4478 Clear 6 1023 75 16093 0.75 332 08:55 18.01.2020
4479 Clear 6 1023 87 16093 1.5 170 08:36 18.01.2020
4480 Clear 6 1023 87 16093 1.5 170 08:18 18.01.2020
4481 Clear 6 1023 75 16093 0.1 52 07:40 18.01.2020
4482 Clear 7 1023 87 16093 2.1 140 07:20 18.01.2020
4483 Clear 7 1022 75 16093 0.1 52 06:45 18.01.2020
4484 Clear 8 1022 70 16093 2.1 250 05:53 18.01.2020
4485 Clear 9 1022 66 16093 1.18 304 04:28 18.01.2020
4486 Clear 12 1021 58 16093 2.6 340 02:49 18.01.2020
4487 Clear 15 1021 44 16093 1.5 310 01:40 18.01.2020
4488 Clear 17 1021 39 16093 4.6 340 00:39 18.01.2020
4489 Clear 17 1020 48 16093 5.7 340 00:20 18.01.2020
4490 Clear 17 1020 42 16093 4.1 360 23:58 17.01.2020
4491 Clear 17 1020 42 16093 4.1 360 23:39 17.01.2020
4492 Clear 18 1020 42 16093 5.7 340 23:18 17.01.2020
4493 Clear 18 1020 45 16093 3.6 360 22:42 17.01.2020
4494 Clear 18 1020 45 16093 2.6 350 22:20 17.01.2020
4495 Clear 18 1020 42 16093 3.1 350 21:56 17.01.2020
4496 Clear 17 1021 45 16093 3.6 300 21:38 17.01.2020
4497 Clear 17 1021 45 16093 3.6 300 21:19 17.01.2020
4498 Clear 17 1021 45 16093 1.7 318 20:43 17.01.2020
4499 Clear 17 1021 51 16093 2.45 258 20:21 17.01.2020
4500 Clear 16 1022 51 16093 2.45 270 19:58 17.01.2020
4501 Clear 16 1022 51 16093 2.45 270 19:39 17.01.2020
4502 Clear 15 1022 62 16093 2.6 220 19:21 17.01.2020
4503 Clear 15 1021 66 16093 2.6 130 18:58 17.01.2020
4504 Clear 14 1021 66 16093 2.6 130 18:40 17.01.2020
4505 Clear 13 1022 71 16093 2.6 180 18:21 17.01.2020
4506 Clear 12 1021 76 16093 2.6 180 17:40 17.01.2020
4507 Rain 10 1021 76 16093 2.6 180 17:22 17.01.2020
4508 Rain 8 1021 100 16093 2.6 100 16:57 17.01.2020
4509 Rain 8 1021 100 16093 2.6 100 16:39 17.01.2020
4510 Rain 7 1020 87 16093 3.6 170 16:19 17.01.2020
4511 Rain 5 1020 100 16093 1.5 110 15:45 17.01.2020
4512 Rain 6 1020 93 16093 2.6 190 15:26 17.01.2020
4513 Clear 6 1019 100 16093 1.5 80 14:46 17.01.2020
4514 Clear 6 1019 87 16093 4.1 140 14:27 17.01.2020
4515 Clear 6 1019 93 16093 2.67 181 13:58 17.01.2020
4516 Clear 6 1019 93 16093 2.67 181 13:38 17.01.2020
4517 Clear 6 1019 87 16093 4.6 170 13:19 17.01.2020
4518 Clear 6 1018 93 16093 3.6 120 12:44 17.01.2020
4519 Clear 6 1019 87 16093 4.6 160 12:22 17.01.2020
4520 Rain 6 1019 100 16093 2.28 181 11:40 17.01.2020
4521 Rain 6 1019 93 16093 3.1 160 11:19 17.01.2020
4522 Rain 7 1019 87 16093 2.1 140 10:44 17.01.2020
4523 Rain 7 1019 93 16093 2.6 170 10:23 17.01.2020
4524 Rain 7 1019 87 16093 2.6 130 09:58 17.01.2020
4525 Clear 7 1020 93 16093 3.1 120 09:40 17.01.2020
4526 Clear 7 1020 93 16093 3.1 120 09:20 17.01.2020
4527 Clear 7 1019 87 16093 3.6 90 08:45 17.01.2020
4528 Clear 8 1020 87 16093 2.1 130 08:25 17.01.2020
4529 Rain 8 1019 81 16093 5.1 100 07:55 17.01.2020
4530 Rain 8 1020 93 16093 3.6 130 07:32 17.01.2020
4531 Clear 8 1019 87 16093 4.1 100 06:58 17.01.2020
4532 Clear 8 1019 87 16093 4.1 100 06:58 17.01.2020
4533 Clear 8 1019 87 16093 4.1 100 06:40 17.01.2020
4534 Clear 9 1019 87 16093 4.1 100 05:53 17.01.2020
4535 Rain 10 1020 87 16093 2.1 80 03:39 17.01.2020
4536 Rain 10 1020 93 16093 4.6 110 02:52 17.01.2020
4537 Rain 11 1020 81 11265 3.1 90 01:47 17.01.2020
4538 Rain 11 1020 81 11265 3.1 90 01:29 17.01.2020
4539 Rain 12 1019 87 16093 4.6 140 00:49 17.01.2020
4540 Rain 12 1019 87 16093 4.6 140 00:23 17.01.2020
4541 Rain 12 1019 87 16093 4.6 60 23:44 16.01.2020
4542 Rain 12 1019 87 16093 4.6 60 23:25 16.01.2020
4543 Rain 12 1018 51 16093 8.2 100 22:56 16.01.2020
4544 Rain 12 1018 51 16093 8.2 100 22:38 16.01.2020
4545 Rain 13 1019 82 16093 6.7 90 22:19 16.01.2020
4546 Rain 13 1019 58 16093 3.1 150 21:54 16.01.2020
4547 Rain 14 1019 58 16093 3.1 150 21:36 16.01.2020
4548 Rain 14 1019 58 16093 3.1 150 21:18 16.01.2020
4549 Rain 15 1020 51 16093 5.7 170 20:40 16.01.2020
4550 Drizzle 16 1020 45 16093 4.6 160 20:21 16.01.2020
4551 Clouds 16 1018 42 16093 2.6 70 19:58 16.01.2020
4552 Clear 16 1020 42 16093 4.6 130 19:40 16.01.2020
4553 Clear 16 1020 42 16093 4.6 130 19:22 16.01.2020
4554 Drizzle 16 1020 44 16093 3.6 110 18:57 16.01.2020
4555 Clouds 15 1019 44 16093 2.6 70 18:38 16.01.2020
4556 Clouds 15 1019 54 16093 3.6 80 18:19 16.01.2020
4557 Clouds 14 1019 54 16093 2.6 120 17:58 16.01.2020
4558 Clouds 14 1018 50 16093 2.1 160 17:39 16.01.2020
4559 Rain 14 1019 58 16093 3.1 160 17:20 16.01.2020
4560 Clouds 13 1017 57 16093 2.1 20 16:41 16.01.2020
4561 Clouds 13 1017 41 16093 2.1 140 16:23 16.01.2020
4562 Rain 13 1018 37 16093 2.1 0 15:58 16.01.2020
4563 Rain 12 1018 37 16093 2.1 0 15:39 16.01.2020
4564 Rain 13 1018 37 16093 2.1 0 15:39 16.01.2020
4565 Rain 12 1018 37 16093 2.1 0 15:20 16.01.2020
4566 Clouds 12 1016 50 16093 1.83 164 14:44 16.01.2020
4567 Clouds 12 1018 35 16093 1.5 110 14:24 16.01.2020
4568 Clouds 12 1018 35 16093 1.5 110 14:24 16.01.2020
4569 Clouds 11 1016 57 16093 1.53 187 13:56 16.01.2020
4570 Clouds 11 1016 57 16093 1.53 187 13:37 16.01.2020
4571 Clear 11 1017 35 16093 2.6 150 13:19 16.01.2020
4572 Clouds 11 1016 61 16093 2.1 170 12:42 16.01.2020
4573 Clear 11 1017 47 16093 3.1 240 12:22 16.01.2020
4574 Clear 11 1016 50 16093 1.5 150 11:43 16.01.2020
4575 Clear 11 1017 53 16093 2.6 50 11:24 16.01.2020
4576 Clear 11 1016 54 16093 2.6 100 10:59 16.01.2020
4577 Clear 11 1016 54 16093 2.6 100 10:38 16.01.2020
4578 Clouds 11 1017 50 16093 1.29 151 10:20 16.01.2020
4579 Clear 11 1016 57 16093 2.6 120 09:54 16.01.2020
4580 Clouds 11 1017 50 16093 3.6 100 09:36 16.01.2020
4581 Clouds 11 1017 50 16093 3.6 100 09:18 16.01.2020
4582 Clear 11 1017 66 16093 2.6 100 08:42 16.01.2020
4583 Clouds 11 1017 53 16093 1.5 120 08:22 16.01.2020
4584 Clear 11 1017 57 16093 0.73 243 07:43 16.01.2020
4585 Clouds 11 1017 61 16093 0.73 243 07:25 16.01.2020
4586 Clear 11 1017 62 16093 0.73 243 06:55 16.01.2020
4587 Clouds 11 1017 54 16093 1.5 60 06:35 16.01.2020
4588 Clear 12 1017 58 16093 0.73 243 05:56 16.01.2020
4589 Clear 12 1017 50 16093 2.1 120 05:25 16.01.2020
4590 Clear 13 1017 47 16093 1.5 140 04:23 16.01.2020
4591 Clear 14 1016 41 16093 4.1 290 03:27 16.01.2020
4592 Clouds 16 1015 36 16093 3.1 290 02:23 16.01.2020
4593 Clear 19 1014 34 16093 2.6 310 00:44 16.01.2020
4594 Clouds 19 1015 22 16093 2.6 310 00:23 16.01.2020
4595 Clear 21 1014 24 16093 2.6 310 23:45 15.01.2020
4596 Clouds 21 1015 11 16093 1.5 270 23:22 15.01.2020
4597 Clear 22 1014 19 16093 2.1 300 22:57 15.01.2020
4598 Clear 22 1014 19 16093 2.1 300 22:38 15.01.2020
4599 Clear 22 1015 14 16093 0.78 154 22:18 15.01.2020
4600 Clouds 22 1016 19 16093 0.78 154 21:56 15.01.2020
4601 Clouds 22 1016 19 16093 0.78 154 21:56 15.01.2020
4602 Clouds 22 1016 19 16093 0.78 154 21:37 15.01.2020
4603 Clouds 21 1016 19 16093 0.78 154 21:19 15.01.2020
4604 Clouds 20 1017 23 16093 2.6 180 20:55 15.01.2020
4605 Clouds 20 1017 23 16093 2.6 180 20:37 15.01.2020
4606 Clouds 19 1017 23 16093 2.6 180 20:19 15.01.2020
4607 Clear 19 1017 25 16093 2.1 120 19:54 15.01.2020
4608 Clear 18 1017 25 16093 2.1 120 19:36 15.01.2020
4609 Clouds 17 1017 25 16093 2.1 120 19:18 15.01.2020
4610 Clouds 17 1017 25 16093 2.1 120 19:18 15.01.2020
4611 Clear 16 1017 35 16093 2.1 150 18:55 15.01.2020
4612 Clear 15 1017 35 16093 2.1 150 18:37 15.01.2020
4613 Clear 14 1018 28 16093 3.6 140 18:19 15.01.2020
4614 Clear 14 1018 28 16093 3.6 140 18:19 15.01.2020
4615 Clear 13 1017 40 16093 1.5 80 17:41 15.01.2020
4616 Clear 11 1017 32 16093 3.6 110 17:23 15.01.2020
4617 Clear 10 1016 34 16093 1.5 150 16:59 15.01.2020
4618 Clear 9 1016 34 16093 1.5 150 16:39 15.01.2020
4619 Clouds 9 1017 39 16093 3.6 120 16:21 15.01.2020
4620 Clear 8 1016 34 16093 1.07 149 15:43 15.01.2020
4621 Clouds 7 1016 36 16093 1.5 110 15:21 15.01.2020
4622 Clouds 7 1016 36 16093 1.5 110 15:21 15.01.2020
4623 Clouds 7 1016 36 16093 1.5 110 15:21 15.01.2020
4624 Clear 7 1016 34 16093 1.07 149 14:58 15.01.2020
4625 Clear 8 1016 34 16093 1.07 149 14:39 15.01.2020
4626 Clouds 7 1016 36 16093 4.6 120 14:18 15.01.2020
4627 Clear 8 1016 32 16093 1.34 205 13:45 15.01.2020
4628 Clouds 8 1016 45 16093 3.1 130 13:24 15.01.2020
4629 Clear 8 1016 49 16093 4.1 110 12:57 15.01.2020
4630 Clear 8 1016 49 16093 4.1 110 12:39 15.01.2020
4631 Clouds 8 1016 45 16093 1.5 110 12:19 15.01.2020
4632 Clear 8 1016 32 16093 2.6 100 11:56 15.01.2020
4633 Clouds 8 1017 42 16093 3.6 120 11:36 15.01.2020
4634 Clouds 9 1017 42 16093 3.6 120 11:18 15.01.2020
4635 Clouds 9 1017 42 16093 3.6 120 11:18 15.01.2020
4636 Clear 9 1016 35 16093 2.6 100 10:41 15.01.2020
4637 Clouds 9 1017 45 16093 3.1 110 10:21 15.01.2020
4638 Clear 9 1016 57 16093 0.88 176 09:42 15.01.2020
4639 Clear 9 1017 49 16093 3.1 120 09:22 15.01.2020
4640 Clear 9 1017 57 16093 1.5 110 08:46 15.01.2020
4641 Clear 10 1017 35 16093 0.41 258 08:28 15.01.2020
4642 Clear 10 1017 33 16093 2.6 110 07:59 15.01.2020
4643 Clear 10 1017 33 16093 2.6 110 07:41 15.01.2020
4644 Clear 10 1017 33 16093 2.1 140 07:21 15.01.2020
4645 Clear 10 1017 57 16093 2.6 110 06:43 15.01.2020
4646 Clear 11 1017 57 16093 0.95 207 05:52 15.01.2020
4647 Clear 13 1016 34 16093 2.1 240 03:56 15.01.2020
4648 Clear 15 1017 25 16093 2.6 280 02:28 15.01.2020
4649 Clear 18 1017 25 16093 2.6 300 01:22 15.01.2020
4650 Clear 20 1016 22 16093 3.6 320 00:44 15.01.2020
4651 Clear 20 1016 15 16093 3.1 320 00:25 15.01.2020
4652 Clear 21 1016 19 16093 3.1 320 23:47 14.01.2020
4653 Clear 21 1017 14 16093 1.44 291 23:29 14.01.2020
4654 Clear 22 1017 18 16093 1.5 330 22:58 14.01.2020
4655 Clear 22 1017 18 16093 1.5 330 22:40 14.01.2020
4656 Clear 22 1017 14 16093 2.6 310 22:19 14.01.2020
4657 Clear 22 1018 16 16093 1.5 300 21:58 14.01.2020
4658 Clear 22 1018 16 16093 3.78 239 21:39 14.01.2020
4659 Clear 22 1018 16 16093 3.78 239 21:20 14.01.2020
4660 Clear 21 1018 19 16093 3.78 239 20:56 14.01.2020
4661 Clear 21 1018 19 16093 3.78 239 20:38 14.01.2020
4662 Clear 20 1020 24 16093 2.1 80 20:18 14.01.2020
4663 Clear 19 1019 23 16093 2.6 110 19:55 14.01.2020
4664 Clear 19 1019 23 16093 2.6 110 19:37 14.01.2020
4665 Clear 18 1020 26 16093 1.95 198 19:18 14.01.2020
4666 Clear 16 1020 30 16093 3.1 120 18:41 14.01.2020
4667 Clear 15 1021 37 16093 3.1 100 18:20 14.01.2020
4668 Clear 14 1020 37 16093 3.6 120 17:58 14.01.2020
4669 Clear 12 1020 37 16093 3.6 120 17:37 14.01.2020
4670 Clear 11 1020 37 16093 4.1 150 17:18 14.01.2020
4671 Clear 8 1019 45 16093 4.6 130 16:43 14.01.2020
4672 Clear 7 1019 39 16093 3.6 140 16:23 14.01.2020
4673 Clear 7 1019 39 16093 3.6 140 16:23 14.01.2020
4674 Clear 6 1018 52 16093 3.6 110 15:58 14.01.2020
4675 Clear 6 1018 52 16093 3.6 110 15:40 14.01.2020
4676 Clear 6 1019 48 16093 6.2 120 15:19 14.01.2020
4677 Clear 6 1018 48 16093 5.7 110 14:44 14.01.2020
4678 Clear 6 1019 45 16093 4.1 130 14:21 14.01.2020
4679 Clear 6 1018 52 16093 5.1 110 13:57 14.01.2020
4680 Clear 6 1018 52 16093 5.1 110 13:38 14.01.2020
4681 Clear 7 1019 48 16093 3.6 130 13:18 14.01.2020
4682 Clear 6 1018 52 16093 4.1 110 12:42 14.01.2020
4683 Clear 6 1019 39 16093 5.1 120 12:22 14.01.2020
4684 Clear 6 1019 56 16093 2.16 175 11:56 14.01.2020
4685 Clear 6 1019 45 16093 5.1 130 11:36 14.01.2020
4686 Clear 6 1019 45 16093 5.1 130 11:18 14.01.2020
4687 Clear 6 1018 49 16093 4.6 120 10:40 14.01.2020
4688 Clear 6 1019 48 16093 5.7 120 10:20 14.01.2020
4689 Clear 6 1019 49 16093 3.6 120 09:58 14.01.2020
4690 Clear 6 1019 49 16093 3.6 120 09:40 14.01.2020
4691 Clear 6 1020 52 16093 2.6 100 09:21 14.01.2020
4692 Clear 6 1019 49 16093 3.6 110 08:48 14.01.2020
4693 Clear 6 1020 56 16093 4.1 120 08:26 14.01.2020
4694 Clear 6 1019 52 16093 2.1 130 07:56 14.01.2020
4695 Clear 6 1020 60 16093 4.1 110 07:34 14.01.2020
4696 Clear 7 1019 52 16093 3.6 110 06:57 14.01.2020
4697 Clear 7 1019 52 16093 3.6 110 06:39 14.01.2020
4698 Clear 7 1019 52 16093 3.6 110 06:39 14.01.2020
4699 Clear 8 1019 52 16093 2.6 150 05:28 14.01.2020
4700 Clear 10 1019 43 11265 2.1 240 03:57 14.01.2020
4701 Clear 12 1019 30 16093 1.14 172 03:35 14.01.2020
4702 Clear 16 1018 25 16093 2.6 290 01:58 14.01.2020
4703 Clear 19 1018 17 16093 5.1 330 00:53 14.01.2020
4704 Clear 20 1018 15 16093 2.6 320 00:35 14.01.2020
4705 Clear 21 1018 16 16093 3.6 330 23:56 13.01.2020
4706 Clear 21 1018 16 16093 3.6 330 23:37 13.01.2020
4707 Clear 21 1018 16 16093 1.77 284 23:18 13.01.2020
4708 Clear 21 1018 16 16093 1.77 284 23:18 13.01.2020
4709 Clear 21 1018 15 16093 3.6 340 22:43 13.01.2020
4710 Clear 21 1018 16 16093 2.1 320 22:22 13.01.2020
4711 Clear 21 1018 16 16093 2.1 320 22:22 13.01.2020
4712 Clear 20 1018 14 16093 2.1 300 21:58 13.01.2020
4713 Clear 20 1018 14 16093 2.1 300 21:58 13.01.2020
4714 Clear 20 1019 16 16093 1.77 284 21:38 13.01.2020
4715 Clear 20 1019 16 16093 1.77 284 21:19 13.01.2020
4716 Clear 20 1019 17 16093 1.77 284 20:59 13.01.2020
4717 Clear 20 1019 17 16093 1.77 284 20:59 13.01.2020
4718 Clear 20 1019 17 16093 1.77 284 20:41 13.01.2020
4719 Clear 19 1020 16 16093 1.5 90 20:22 13.01.2020
4720 Clear 18 1020 20 16093 2.1 90 19:59 13.01.2020
4721 Clear 18 1020 25 16093 3.1 120 19:40 13.01.2020
4722 Clear 17 1020 20 16093 2.1 90 19:20 13.01.2020
4723 Clear 16 1020 28 16093 3.1 100 18:56 13.01.2020
4724 Clear 15 1020 28 16093 3.1 100 18:37 13.01.2020
4725 Clear 14 1020 24 16093 3.1 100 18:19 13.01.2020
4726 Clear 13 1019 37 16093 3.1 100 17:44 13.01.2020
4727 Clear 11 1019 32 16093 1.5 140 17:25 13.01.2020
4728 Clear 8 1019 60 16093 3.1 110 16:58 13.01.2020
4729 Clear 7 1019 55 16093 3.1 150 16:38 13.01.2020
4730 Clear 5 1019 59 16093 2.1 190 16:20 13.01.2020
4731 Clear 4 1019 68 0 1.69 208 15:54 13.01.2020
4732 Clear 3 1018 59 0 1.69 208 15:36 13.01.2020
4733 Clear 4 1019 66 0 1.69 208 15:18 13.01.2020
4734 Clear 4 1018 63 0 1.69 208 14:40 13.01.2020
4735 Clear 4 1018 60 0 2.68 197 14:22 13.01.2020
4736 Clear 4 1018 60 0 2.68 197 13:56 13.01.2020
4737 Clear 4 1018 60 0 2.68 197 13:56 13.01.2020
4738 Clear 4 1018 60 0 2.04 197 13:37 13.01.2020
4739 Clear 4 1017 60 0 2.04 197 13:19 13.01.2020
4740 Clear 4 1017 69 16093 3.1 100 12:43 13.01.2020
4741 Clear 4 1017 69 16093 3.1 100 12:23 13.01.2020
4742 Clear 4 1017 69 16093 3.1 100 12:23 13.01.2020
4743 Clear 4 1017 69 16093 3.1 100 11:59 13.01.2020
4744 Clear 4 1017 69 16093 3.1 100 11:38 13.01.2020
4745 Clear 4 1017 69 16093 3.1 100 11:38 13.01.2020
4746 Clear 4 1017 55 16093 5.1 120 11:19 13.01.2020
4747 Clear 5 1017 69 16093 2.71 188 10:56 13.01.2020
4748 Clear 5 1017 41 16093 2.1 80 10:38 13.01.2020
4749 Clear 5 1017 41 16093 2.1 80 10:19 13.01.2020
4750 Clear 6 1017 64 16093 2.71 188 09:44 13.01.2020
4751 Clear 6 1017 45 16093 2.1 90 09:26 13.01.2020
4752 Clear 6 1017 56 16093 2.71 188 08:57 13.01.2020
4753 Clear 6 1017 56 16093 2.71 188 08:37 13.01.2020
4754 Clear 6 1017 48 16093 5.7 120 08:18 13.01.2020
4755 Clear 6 1017 52 16093 1.38 195 07:44 13.01.2020
4756 Clear 6 1018 56 16093 2.6 100 07:26 13.01.2020
4757 Clear 6 1017 60 16093 1.5 150 06:39 13.01.2020
4758 Clear 7 1017 60 16093 2.6 170 05:42 13.01.2020
4759 Clear 7 1017 45 16093 2.1 190 05:19 13.01.2020
4760 Clear 10 1016 52 16093 3.1 300 03:44 13.01.2020
4761 Clear 11 1016 39 16093 2.6 310 02:51 13.01.2020
4762 Clear 12 1016 24 16093 1.5 300 02:30 13.01.2020
4763 Clear 15 1015 18 16093 1.5 330 01:33 13.01.2020
4764 Clear 18 1015 17 16093 2.6 310 00:46 13.01.2020
4765 Clear 18 1015 14 16093 1.5 310 00:26 13.01.2020
4766 Clear 19 1015 16 16093 2.1 300 23:58 12.01.2020
4767 Clear 19 1015 16 16093 2.1 300 23:40 12.01.2020
4768 Clear 19 1016 14 16093 1.83 205 23:21 12.01.2020
4769 Clear 19 1016 14 16093 1.83 205 23:21 12.01.2020
4770 Clear 19 1016 16 16093 1.83 205 22:56 12.01.2020
4771 Clear 19 1016 16 16093 1.83 205 22:37 12.01.2020
4772 Clear 18 1016 16 16093 1.83 205 22:18 12.01.2020
4773 Clear 18 1017 20 16093 1.5 290 21:42 12.01.2020
4774 Clear 18 1017 20 16093 1.5 290 21:20 12.01.2020
4775 Clear 17 1018 22 16093 1.83 205 20:59 12.01.2020
4776 Clear 17 1018 22 16093 1.83 205 20:59 12.01.2020
4777 Clear 17 1018 22 16093 1.83 205 20:40 12.01.2020
4778 Clear 16 1018 22 16093 0.71 66 20:21 12.01.2020
4779 Clear 15 1019 28 16093 0.71 66 19:57 12.01.2020
4780 Clear 15 1019 27 16093 3.1 90 19:39 12.01.2020
4781 Clear 13 1019 28 16093 0.71 66 19:19 12.01.2020
4782 Clear 13 1019 28 16093 0.71 66 19:19 12.01.2020
4783 Clear 13 1020 34 16093 2.6 110 18:58 12.01.2020
4784 Clear 12 1020 36 16093 3.6 90 18:40 12.01.2020
4785 Clear 11 1020 34 16093 2.6 110 18:22 12.01.2020
4786 Clear 9 1019 56 16093 2.6 120 17:59 12.01.2020
4787 Clear 9 1019 56 16093 2.6 120 17:41 12.01.2020
4788 Clear 6 1019 45 16093 5.1 130 17:19 12.01.2020
4789 Clear 5 1019 59 16093 5.1 100 16:56 12.01.2020
4790 Clear 5 1019 59 16093 5.1 100 16:56 12.01.2020
4791 Clear 4 1020 55 16093 4.1 140 16:37 12.01.2020
4792 Clear 3 1019 51 16093 3.6 140 16:19 12.01.2020
4793 Clear 1 1019 64 16093 0.96 148 15:43 12.01.2020
4794 Clear 1 1019 51 16093 4.1 110 15:25 12.01.2020
4795 Clear 1 1018 64 16093 2.1 120 14:57 12.01.2020
4796 Clear 1 1018 51 16093 3.1 110 14:38 12.01.2020
4797 Clear 1 1018 50 16093 3.1 110 14:20 12.01.2020
4798 Clear 1 1019 50 16093 0.7 79 13:54 12.01.2020
4799 Clear 1 1019 50 16093 0.7 79 13:36 12.01.2020
4800 Clear 2 1018 69 16093 0.6 143 13:18 12.01.2020
4801 Clear 2 1018 80 16093 2.6 100 12:43 12.01.2020
4802 Clear 2 1018 64 16093 4.6 120 12:20 12.01.2020
4803 Clear 2 1018 74 16093 2.1 110 11:59 12.01.2020
4804 Clear 2 1018 74 16093 2.1 110 11:59 12.01.2020
4805 Clear 2 1018 74 16093 2.1 110 11:39 12.01.2020
4806 Clear 2 1018 64 16093 3.1 120 11:20 12.01.2020
4807 Clear 3 1018 74 16093 1.35 305 10:42 12.01.2020
4808 Clear 3 1018 74 16093 2.6 150 10:22 12.01.2020
4809 Clear 3 1018 74 16093 2.1 110 09:57 12.01.2020
4810 Clear 3 1018 74 16093 2.1 110 09:39 12.01.2020
4811 Clear 3 1018 69 16093 1.35 305 09:20 12.01.2020
4812 Clear 3 1018 74 16093 2.1 110 08:45 12.01.2020
4813 Clear 4 1017 69 16093 1.46 290 08:21 12.01.2020
4814 Clear 4 1017 64 16093 1.46 290 07:42 12.01.2020
4815 Clear 5 1017 64 16093 3.6 130 07:24 12.01.2020
4816 Clear 6 1017 69 16093 1.46 290 06:49 12.01.2020
4817 Clear 6 1017 56 16093 3.1 160 06:30 12.01.2020
4818 Clear 7 1016 56 16093 1.5 110 05:37 12.01.2020
4819 Clear 7 1015 52 16093 2.6 130 04:51 12.01.2020
4820 Clear 9 1015 39 16093 1.4 289 03:27 12.01.2020
4821 Rain 11 1015 32 16093 1.4 289 02:34 12.01.2020
4822 Clear 13 1015 24 16093 0.75 237 01:55 12.01.2020
4823 Clear 15 1016 25 16093 0.75 237 01:29 12.01.2020
4824 Clear 16 1016 21 16093 1.5 270 00:42 12.01.2020
4825 Clear 17 1017 21 16093 0.81 280 00:20 12.01.2020
4826 Clear 17 1016 21 16093 0.81 280 23:42 11.01.2020
4827 Clear 17 1016 21 16093 0.81 280 23:42 11.01.2020
4828 Clear 17 1017 21 16093 1.4 255 23:20 11.01.2020
4829 Clear 17 1017 18 16093 1.4 255 22:59 11.01.2020
4830 Clear 17 1017 18 16093 1.4 255 22:41 11.01.2020
4831 Clear 16 1018 21 16093 1.4 255 22:21 11.01.2020
4832 Clear 16 1018 22 16093 1.4 255 21:58 11.01.2020
4833 Clear 16 1018 22 16093 1.4 255 21:40 11.01.2020
4834 Clear 15 1019 26 16093 1.4 255 21:18 11.01.2020
4835 Clear 14 1019 26 16093 1.4 255 20:42 11.01.2020
4836 Clear 14 1020 32 16093 3.6 130 20:22 11.01.2020
4837 Clear 13 1021 32 16093 4.6 120 19:59 11.01.2020
4838 Clear 13 1021 32 16093 4.6 120 19:39 11.01.2020
4839 Clear 13 1021 32 16093 4.6 120 19:39 11.01.2020
4840 Clear 12 1021 32 16093 5.7 120 19:21 11.01.2020
4841 Clear 11 1022 42 16093 5.1 130 18:59 11.01.2020
4842 Clear 10 1022 42 16093 4.1 100 18:39 11.01.2020
4843 Clear 9 1022 42 16093 5.1 130 18:20 11.01.2020
4844 Clear 8 1022 52 16093 5.1 100 17:58 11.01.2020
4845 Clear 8 1022 52 16093 5.1 100 17:58 11.01.2020
4846 Clear 8 1022 52 16093 5.1 100 17:39 11.01.2020
4847 Clear 6 1022 52 16093 3.1 120 17:19 11.01.2020
4848 Clear 3 1021 64 16093 6.2 110 16:45 11.01.2020
4849 Clear 2 1022 74 16093 3.1 130 16:27 11.01.2020
4850 Clear 0 1022 74 16093 6.2 100 15:59 11.01.2020
4851 Clear 0 1022 74 16093 6.2 100 15:40 11.01.2020
4852 Clear 0 1022 59 16093 3.6 120 15:22 11.01.2020
4853 Clear 1 1022 74 16093 3.6 100 14:56 11.01.2020
4854 Clear 1 1022 74 16093 3.6 100 14:38 11.01.2020
4855 Clear 1 1023 74 16093 3.6 150 14:19 11.01.2020
4856 Clear 1 1024 62 16093 1.5 120 13:39 11.01.2020
4857 Clear 1 1022 74 16093 5.1 120 13:20 11.01.2020
4858 Clear 1 1022 74 16093 5.1 120 13:20 11.01.2020
4859 Clear 1 1022 69 16093 5.1 120 12:57 11.01.2020
4860 Clear 1 1022 69 16093 5.1 120 12:38 11.01.2020
4861 Clear 1 1023 80 16093 3.6 120 12:20 11.01.2020
4862 Clear 1 1023 74 16093 2.1 100 11:46 11.01.2020
4863 Clear 1 1023 80 16093 4.1 110 11:25 11.01.2020
4864 Clear 2 1023 60 16093 3.6 100 10:50 11.01.2020
4865 Clear 2 1023 74 16093 4.1 110 10:30 11.01.2020
4866 Clear 2 1023 74 16093 4.1 110 10:30 11.01.2020
4867 Clear 2 1023 86 16093 0.83 197 09:55 11.01.2020
4868 Clear 2 1023 74 16093 2.6 130 09:37 11.01.2020
4869 Clear 2 1023 74 16093 2.6 130 09:18 11.01.2020
4870 Clear 2 1023 60 16093 0.83 197 08:41 11.01.2020
4871 Clear 3 1023 80 16093 0.33 241 08:21 11.01.2020
4872 Clear 3 1023 60 16093 1.5 90 07:43 11.01.2020
4873 Clear 3 1023 74 16093 3.6 110 07:25 11.01.2020
4874 Clear 4 1024 60 16093 0.72 211 06:45 11.01.2020
4875 Clear 5 1022 69 16093 2.1 170 05:33 11.01.2020
4876 Clear 6 1022 52 16093 1.5 140 04:45 11.01.2020
4877 Clear 6 1022 56 16093 2.1 260 04:27 11.01.2020
4878 Clear 8 1022 52 16093 1.5 270 02:48 11.01.2020
4879 Clear 10 1022 43 16093 3.1 300 01:48 11.01.2020
4880 Clear 11 1022 30 16093 4.6 340 01:30 11.01.2020
4881 Clear 12 1021 32 16093 4.6 320 00:58 11.01.2020
4882 Clear 12 1021 32 16093 4.6 320 00:58 11.01.2020
4883 Clear 12 1021 30 16093 4.6 340 00:29 11.01.2020
4884 Clear 13 1021 34 16093 3.1 310 23:59 10.01.2020
4885 Clear 13 1021 34 16093 3.1 310 23:59 10.01.2020
4886 Clear 13 1021 34 16093 3.1 310 23:39 10.01.2020
4887 Clear 13 1021 32 16093 5.1 360 23:20 10.01.2020
4888 Clear 13 1020 37 16093 3.6 310 22:54 10.01.2020
4889 Clear 12 1020 40 16093 5.7 280 22:36 10.01.2020
4890 Clear 12 1020 40 16093 5.7 280 22:18 10.01.2020
4891 Clear 12 1020 40 16093 4.1 290 21:41 10.01.2020
4892 Clear 12 1020 46 16093 4.1 270 21:21 10.01.2020
4893 Clear 12 1020 41 16093 2.6 300 20:59 10.01.2020
4894 Clear 11 1020 41 16093 2.6 300 20:41 10.01.2020
4895 Clear 11 1020 53 16093 3.6 270 20:23 10.01.2020
4896 Clear 10 1020 53 16093 5.1 290 19:41 10.01.2020
4897 Clear 10 1021 66 16093 5.7 260 19:21 10.01.2020
4898 Clear 9 1021 61 16093 2.6 310 18:57 10.01.2020
4899 Clear 9 1021 61 16093 2.6 310 18:39 10.01.2020
4900 Clear 9 1020 70 16093 2.6 240 18:18 10.01.2020
4901 Clear 8 1020 75 16093 3.9 306 17:56 10.01.2020
4902 Clear 8 1019 87 16093 2.1 210 17:38 10.01.2020
4903 Clear 7 1019 87 16093 2.1 210 17:19 10.01.2020
4904 Clear 6 1019 86 16093 2.1 180 16:43 10.01.2020
4905 Clouds 5 1018 86 16093 3.19 280 16:22 10.01.2020
4906 Rain 5 1018 100 16093 1.5 200 15:58 10.01.2020
4907 Rain 5 1018 100 16093 1.5 200 15:39 10.01.2020
4908 Rain 5 1017 86 16093 1.5 220 15:20 10.01.2020
4909 Rain 5 1017 86 16093 3.19 280 14:59 10.01.2020
4910 Rain 5 1017 86 16093 3.19 280 14:41 10.01.2020
4911 Rain 5 1016 87 16093 2.6 270 14:20 10.01.2020
4912 Rain 5 1016 81 16093 5.08 273 13:58 10.01.2020
4913 Clear 6 1016 81 16093 5.08 273 13:39 10.01.2020
4914 Clouds 6 1015 87 16093 4.68 268 13:21 10.01.2020
4915 Clouds 6 1015 87 16093 4.68 268 12:57 10.01.2020
4916 Clouds 6 1015 87 16093 4.68 268 12:38 10.01.2020
4917 Clouds 6 1014 87 16093 1.5 190 12:18 10.01.2020
4918 Clouds 6 1014 87 16093 4.68 268 11:54 10.01.2020
4919 Clouds 6 1014 93 16093 2.6 190 11:36 10.01.2020
4920 Clouds 6 1014 93 16093 2.6 190 11:18 10.01.2020
4921 Rain 6 1013 87 16093 2.1 220 10:39 10.01.2020
4922 Rain 6 1013 87 16093 2.1 220 10:21 10.01.2020
4923 Rain 7 1013 87 16093 2.1 210 09:56 10.01.2020
4924 Rain 7 1013 93 16093 4.24 253 09:37 10.01.2020
4925 Drizzle 7 1013 93 16093 1.5 260 09:19 10.01.2020
4926 Drizzle 7 1013 93 16093 1.5 260 09:19 10.01.2020
4927 Rain 7 1013 87 16093 1.5 220 08:40 10.01.2020
4928 Rain 7 1013 93 16093 5.47 280 08:22 10.01.2020
4929 Rain 7 1013 81 16093 5.47 280 07:44 10.01.2020
4930 Rain 8 1013 81 16093 5.47 280 07:23 10.01.2020
4931 Drizzle 8 1012 70 16093 2.1 280 06:45 10.01.2020
4932 Rain 8 1012 66 16093 6.2 310 06:25 10.01.2020
4933 Rain 9 1012 87 16093 1.5 120 05:46 10.01.2020
4934 Clouds 12 1010 37 16093 6.7 280 03:35 10.01.2020
4935 Clouds 13 1010 58 16093 6.7 270 02:58 10.01.2020
4936 Clouds 13 1010 58 16093 6.7 270 02:37 10.01.2020
4937 Clouds 14 1010 37 16093 6.75 234 01:38 10.01.2020
4938 Clouds 14 1009 37 16093 1.5 360 00:58 10.01.2020
4939 Clouds 15 1009 37 16093 1.5 360 00:38 10.01.2020
4940 Clouds 16 1009 32 16093 5.56 234 23:57 09.01.2020
4941 Clear 16 1009 20 16093 4.6 280 23:38 09.01.2020
4942 Clear 16 1009 20 16093 4.6 280 23:38 09.01.2020
4943 Clear 16 1009 20 16093 4.6 280 23:38 09.01.2020
4944 Clear 16 1009 20 16093 4.6 280 23:38 09.01.2020
4945 Clear 16 1009 20 16093 4.6 280 23:38 09.01.2020
4946 Clear 16 1009 20 16093 4.6 280 23:19 09.01.2020
4947 Clouds 17 1009 16 16093 6.7 230 22:57 09.01.2020
4948 Clouds 17 1009 16 16093 6.7 230 22:37 09.01.2020
4949 Clouds 17 1009 16 16093 6.7 230 22:18 09.01.2020
4950 Clouds 17 1010 26 16093 1.5 270 21:56 09.01.2020
4951 Clouds 17 1010 26 16093 1.5 270 21:37 09.01.2020
4952 Clouds 17 1010 26 16093 1.5 270 21:37 09.01.2020
4953 Clouds 17 1011 17 16093 3.6 220 21:37 09.01.2020
4954 Clouds 17 1011 17 16093 3.6 220 21:37 09.01.2020
4955 Clouds 17 1011 17 16093 3.6 220 21:18 09.01.2020
4956 Clouds 16 1012 21 16093 1.5 60 20:55 09.01.2020
4957 Clouds 16 1012 21 16093 1.5 60 20:37 09.01.2020
4958 Clouds 15 1012 21 16093 1.5 60 20:19 09.01.2020
4959 Clouds 14 1013 24 16093 2.1 70 19:39 09.01.2020
4960 Clouds 14 1013 24 16093 2.1 70 19:21 09.01.2020
4961 Clouds 13 1013 24 16093 2.1 70 18:59 09.01.2020
4962 Clouds 13 1014 28 16093 3.1 100 18:40 09.01.2020
4963 Clouds 12 1014 28 16093 3.1 100 18:21 09.01.2020
4964 Clouds 11 1014 34 16093 3.1 140 17:57 09.01.2020
4965 Clouds 10 1014 34 16093 3.1 140 17:39 09.01.2020
4966 Clouds 9 1014 34 16093 3.1 140 17:18 09.01.2020
4967 Clear 7 1013 45 16093 1.73 227 16:42 09.01.2020
4968 Clear 7 1013 45 16093 1.73 227 16:21 09.01.2020
4969 Clear 6 1012 48 16093 4.1 100 15:43 09.01.2020
4970 Clear 5 1012 48 16093 4.1 100 15:23 09.01.2020
4971 Clear 5 1013 44 16093 3.1 90 14:59 09.01.2020
4972 Clear 4 1013 44 16093 3.6 120 14:41 09.01.2020
4973 Clear 4 1013 44 16093 3.6 120 14:19 09.01.2020
4974 Clear 4 1013 44 16093 3.1 110 13:55 09.01.2020
4975 Clear 4 1013 44 16093 4.6 100 13:37 09.01.2020
4976 Clear 4 1014 55 16093 4.1 110 13:19 09.01.2020
4977 Clear 4 1013 44 16093 4.6 110 12:56 09.01.2020
4978 Clear 4 1013 44 16093 4.6 110 12:56 09.01.2020
4979 Clear 4 1013 51 16093 3.6 110 12:38 09.01.2020
4980 Clear 4 1014 51 16093 2.1 90 12:18 09.01.2020
4981 Clear 5 1013 48 16093 2.6 90 11:42 09.01.2020
4982 Clear 4 1013 48 16093 2.6 90 11:24 09.01.2020
4983 Clear 5 1013 48 16093 4.1 100 10:58 09.01.2020
4984 Clear 5 1014 48 16093 3.1 110 10:39 09.01.2020
4985 Clear 5 1014 48 16093 3.1 110 10:21 09.01.2020
4986 Clear 5 1014 41 16093 1.5 110 09:46 09.01.2020
4987 Clear 6 1014 41 16093 1.5 110 09:25 09.01.2020
4988 Clear 6 1014 48 16093 4.6 110 08:58 09.01.2020
4989 Clear 6 1015 48 16093 3.36 200 08:39 09.01.2020
4990 Clear 6 1015 48 16093 2.11 213 08:20 09.01.2020
4991 Clear 6 1015 48 16093 2.11 213 08:20 09.01.2020
4992 Clear 7 1015 33 16093 1.79 227 07:47 09.01.2020
4993 Clear 7 1015 33 16093 1.79 227 07:28 09.01.2020
4994 Clear 8 1014 34 16093 1.79 227 06:40 09.01.2020
4995 Clear 8 1014 34 16093 1.79 227 06:22 09.01.2020
4996 Clear 9 1014 34 16093 1.79 227 05:51 09.01.2020
4997 Clear 9 1014 25 16093 2.6 180 05:18 09.01.2020
4998 Clear 10 1013 29 16093 4.1 190 04:38 09.01.2020
4999 Clear 13 1013 25 16093 2.1 130 03:27 09.01.2020
5000 Clear 14 1013 22 16093 3.6 310 02:46 09.01.2020
5001 Clear 17 1012 16 16093 3.6 270 01:42 09.01.2020
5002 Clear 19 1012 12 16093 4.1 240 00:57 09.01.2020
5003 Clear 20 1012 12 16093 4.6 230 00:37 09.01.2020
5004 Clear 20 1012 12 16093 4.6 230 00:19 09.01.2020
5005 Clear 21 1012 17 16093 2.1 240 23:39 08.01.2020
5006 Clear 21 1013 15 16093 4.1 250 23:20 08.01.2020
5007 Clear 21 1013 15 16093 4.1 300 22:40 08.01.2020
5008 Clear 21 1013 15 16093 4.1 300 22:22 08.01.2020
5009 Clear 21 1013 16 16093 4.6 280 21:59 08.01.2020
5010 Clear 21 1014 18 16093 3.1 230 21:40 08.01.2020
5011 Clear 21 1014 18 16093 3.1 230 21:40 08.01.2020
5012 Clear 21 1014 18 16093 3.1 230 21:21 08.01.2020
5013 Clear 21 1014 18 16093 3.1 230 20:59 08.01.2020
5014 Clear 20 1014 19 16093 4.1 190 20:41 08.01.2020
5015 Clear 19 1014 19 16093 4.1 190 20:21 08.01.2020
5016 Clear 19 1015 21 16093 3.6 290 19:58 08.01.2020
5017 Clear 19 1015 20 16093 4.1 140 19:38 08.01.2020
5018 Clear 18 1015 21 16093 3.53 166 19:19 08.01.2020
5019 Clear 17 1015 26 16093 1.5 130 18:57 08.01.2020
5020 Clear 16 1015 27 16093 4.6 120 18:38 08.01.2020
5021 Clear 14 1015 27 16093 4.6 120 18:19 08.01.2020
5022 Clear 13 1016 29 16093 3.6 110 17:56 08.01.2020
5023 Clear 12 1016 31 16093 3.1 130 17:37 08.01.2020
5024 Clear 10 1016 27 16093 3.1 130 17:18 08.01.2020
5025 Clear 8 1015 36 16093 3.6 120 16:55 08.01.2020
5026 Clear 7 1015 38 16093 4.6 130 16:37 08.01.2020
5027 Clear 6 1016 44 16093 2.6 130 16:18 08.01.2020
5028 Clear 5 1015 48 16093 3.6 130 15:44 08.01.2020
5029 Clear 5 1015 48 16093 3.6 130 15:21 08.01.2020
5030 Clear 4 1017 74 16093 1.5 180 14:58 08.01.2020
5031 Clear 5 1017 74 16093 1.5 180 14:39 08.01.2020
5032 Clear 6 1015 35 16093 2.44 143 14:20 08.01.2020
5033 Clear 6 1016 35 16093 4.1 120 13:40 08.01.2020
5034 Clear 6 1016 35 16093 4.1 120 13:20 08.01.2020
5035 Clear 6 1016 38 16093 2.1 140 12:43 08.01.2020
5036 Clear 6 1016 38 16093 2.1 140 12:20 08.01.2020
5037 Clear 6 1016 31 16093 4.6 110 11:59 08.01.2020
5038 Clear 7 1016 33 16093 4.1 100 11:41 08.01.2020
5039 Clear 7 1016 33 16093 4.1 100 11:19 08.01.2020
5040 Clear 7 1017 33 16093 4.1 140 10:56 08.01.2020
5041 Clear 7 1017 33 16093 3.6 120 10:38 08.01.2020
5042 Clear 7 1017 33 16093 3.6 120 10:19 08.01.2020
5043 Clear 7 1017 41 16093 2.1 150 09:42 08.01.2020
5044 Clear 7 1017 41 16093 2.1 150 09:20 08.01.2020
5045 Clear 7 1017 29 16093 3.6 130 08:57 08.01.2020
5046 Clear 7 1017 31 16093 4.6 110 08:37 08.01.2020
5047 Clear 8 1017 31 16093 4.6 110 08:19 08.01.2020
5048 Clear 9 1018 33 16093 3.1 120 07:49 08.01.2020
5049 Clear 8 1018 29 16093 3.1 100 07:30 08.01.2020
5050 Clear 8 1018 36 16093 5.1 100 06:49 08.01.2020
5051 Clear 8 1018 34 16093 5.1 110 06:25 08.01.2020
5052 Clear 9 1018 52 16093 4.6 120 05:53 08.01.2020
5053 Clear 9 1018 52 16093 4.6 120 05:53 08.01.2020
5054 Clear 10 1018 31 16093 2.6 110 04:59 08.01.2020
5055 Clear 10 1018 52 16093 3.77 106 04:26 08.01.2020
5056 Clear 14 1018 37 16093 3.77 106 02:45 08.01.2020
5057 Clear 14 1018 37 16093 3.77 106 02:45 08.01.2020
5058 Clear 15 1018 37 16093 3.77 106 02:23 08.01.2020
5059 Clear 17 1018 28 16093 2.6 300 01:50 08.01.2020
5060 Clear 18 1018 25 16093 3.1 310 01:23 08.01.2020
5061 Clear 19 1018 22 16093 3.1 330 00:38 08.01.2020
5062 Clear 21 1018 22 16093 3.1 330 00:20 08.01.2020
5063 Clear 20 1018 18 16093 5.7 330 23:43 07.01.2020
5064 Clear 22 1019 10 16093 4.6 110 23:20 07.01.2020
5065 Clear 22 1019 10 16093 4.6 110 23:20 07.01.2020
5066 Clear 22 1019 8 16093 6.2 100 22:40 07.01.2020
5067 Clear 22 1019 8 16093 6.2 100 22:20 07.01.2020
5068 Clear 22 1020 7 16093 9.3 110 21:57 07.01.2020
5069 Clear 21 1020 7 16093 9.3 110 21:38 07.01.2020
5070 Clear 21 1020 7 16093 9.3 110 21:20 07.01.2020
5071 Clear 20 1022 12 16093 3.1 120 20:55 07.01.2020
5072 Clear 20 1022 12 16093 3.1 120 20:37 07.01.2020
5073 Clear 19 1021 15 16093 2.6 80 20:19 07.01.2020
5074 Clear 18 1023 15 16093 3.1 100 19:38 07.01.2020
5075 Clear 18 1023 15 16093 3.1 100 19:20 07.01.2020
5076 Clear 17 1024 18 16093 7.7 100 18:58 07.01.2020
5077 Clear 16 1024 18 16093 7.7 100 18:40 07.01.2020
5078 Clear 14 1024 19 16093 5.7 110 18:19 07.01.2020
5079 Clear 13 1024 19 16093 5.7 110 17:59 07.01.2020
5080 Clear 12 1024 23 16093 3.6 100 17:39 07.01.2020
5081 Clear 12 1024 23 16093 3.6 100 17:39 07.01.2020
5082 Clear 10 1024 45 16093 2.1 90 17:20 07.01.2020
5083 Clear 9 1024 27 16093 6.2 110 16:56 07.01.2020
5084 Clear 8 1024 27 16093 6.2 110 16:37 07.01.2020
5085 Clear 8 1024 27 16093 6.2 110 16:37 07.01.2020
5086 Clear 7 1024 27 16093 6.2 110 16:19 07.01.2020
5087 Clear 6 1023 35 16093 4.59 114 15:57 07.01.2020
5088 Clear 6 1023 35 16093 4.59 114 15:38 07.01.2020
5089 Clear 6 1023 31 16093 5.7 120 15:19 07.01.2020
5090 Clear 6 1023 74 16093 4.59 114 14:42 07.01.2020
5091 Clear 5 1023 74 16093 4.59 114 14:24 07.01.2020
5092 Clear 5 1023 69 16093 4.28 113 13:56 07.01.2020
5093 Clear 5 1023 69 16093 4.28 113 13:38 07.01.2020
5094 Clear 6 1023 69 16093 4.29 112 13:18 07.01.2020
5095 Clear 5 1023 80 16093 4.29 112 12:41 07.01.2020
5096 Clear 6 1023 80 16093 4.29 112 12:19 07.01.2020
5097 Clear 6 1024 64 16093 3.1 90 11:44 07.01.2020
5098 Clear 6 1024 64 16093 3.1 90 11:23 07.01.2020
5099 Clear 6 1024 74 16093 3.1 70 10:59 07.01.2020
5100 Clear 7 1024 74 16093 3.1 70 10:40 07.01.2020
5101 Clear 7 1024 74 16093 3.1 70 10:22 07.01.2020
5102 Clear 6 1024 60 16093 3.84 118 09:56 07.01.2020
5103 Clear 6 1024 60 16093 3.84 118 09:37 07.01.2020
5104 Clear 7 1024 60 16093 3.84 118 09:19 07.01.2020
5105 Clear 7 1024 32 16093 3.84 118 08:41 07.01.2020
5106 Clear 6 1025 52 16093 5.1 110 08:21 07.01.2020
5107 Clear 6 1025 65 16093 1.5 140 07:51 07.01.2020
5108 Clear 7 1025 60 16093 4.26 115 07:26 07.01.2020
5109 Clear 7 1025 31 16093 3.1 110 06:52 07.01.2020
5110 Clear 7 1026 60 16093 1.5 130 06:32 07.01.2020
5111 Clear 8 1025 56 16093 4.26 115 05:46 07.01.2020
5112 Clear 9 1025 40 16093 1.5 290 03:52 07.01.2020
5113 Clear 10 1025 40 16093 2.1 330 03:25 07.01.2020
5114 Clear 14 1025 35 16093 2.1 290 02:21 07.01.2020
5115 Clear 15 1024 26 16093 3.1 290 01:45 07.01.2020
5116 Clear 17 1025 22 16093 3.6 290 01:21 07.01.2020
5117 Clear 18 1024 17 16093 4.6 330 00:22 07.01.2020
5118 Clear 18 1024 18 16093 7.7 330 23:58 06.01.2020
5119 Clear 19 1024 22 16093 5.1 310 23:39 06.01.2020
5120 Clear 19 1024 22 16093 5.1 310 23:21 06.01.2020
5121 Clear 19 1025 22 16093 4.1 360 22:56 06.01.2020
5122 Clear 18 1024 25 16093 3.1 290 22:37 06.01.2020
5123 Clear 18 1024 25 16093 3.1 290 22:18 06.01.2020
5124 Clear 18 1024 21 16093 2.6 310 21:54 06.01.2020
5125 Clear 18 1024 21 16093 2.6 310 21:36 06.01.2020
5126 Clear 18 1024 21 16093 2.6 310 21:18 06.01.2020
5127 Clear 17 1025 21 16093 2.6 300 20:54 06.01.2020
5128 Clear 17 1025 21 16093 2.6 300 20:54 06.01.2020
5129 Clear 17 1025 21 16093 2.6 300 20:36 06.01.2020
5130 Clear 16 1025 36 16093 2.6 300 20:18 06.01.2020
5131 Clear 16 1025 36 16093 2.6 300 20:18 06.01.2020
5132 Clear 15 1026 34 16093 1.5 320 19:54 06.01.2020
5133 Clear 15 1026 34 16093 1.5 320 19:36 06.01.2020
5134 Clear 15 1026 34 16093 1.5 320 19:18 06.01.2020
5135 Clear 13 1027 50 16093 2.34 66 18:41 06.01.2020
5136 Clear 12 1027 50 16093 2.34 66 18:19 06.01.2020
5137 Clear 10 1027 65 16093 1.5 120 17:39 06.01.2020
5138 Clear 8 1027 65 16093 1.5 120 17:19 06.01.2020
5139 Clear 7 1027 73 0 0.89 0 16:55 06.01.2020
5140 Clear 6 1026 80 16093 1.47 20 16:37 06.01.2020
5141 Clear 4 1026 80 16093 1.47 20 16:18 06.01.2020
5142 Clear 3 1026 62 16093 1.47 20 15:43 06.01.2020
5143 Clear 2 1026 62 16093 1.47 20 15:21 06.01.2020
5144 Clear 3 1025 62 16093 1.47 20 14:59 06.01.2020
5145 Clear 2 1025 62 16093 3.1 150 14:41 06.01.2020
5146 Clear 3 1025 63 16093 3.1 150 14:22 06.01.2020
5147 Clear 3 1024 80 16093 2.6 100 13:58 06.01.2020
5148 Clear 4 1024 80 16093 3.1 90 13:38 06.01.2020
5149 Clear 4 1024 80 16093 3.1 90 13:20 06.01.2020
5150 Clear 4 1024 86 16093 1.5 70 12:44 06.01.2020
5151 Clear 4 1024 86 16093 1.5 70 12:21 06.01.2020
5152 Clear 4 1024 86 16093 4.6 110 11:59 06.01.2020
5153 Clear 4 1024 86 16093 2.1 90 11:41 06.01.2020
5154 Clear 4 1024 86 16093 2.6 110 11:23 06.01.2020
5155 Clear 4 1024 93 16093 2.6 80 10:57 06.01.2020
5156 Clear 4 1024 86 16093 1.19 334 10:39 06.01.2020
5157 Clear 5 1024 86 16093 1.19 334 10:20 06.01.2020
5158 Clear 5 1024 86 16093 1.19 334 10:20 06.01.2020
5159 Clear 5 1024 93 16093 2.6 220 09:39 06.01.2020
5160 Clear 5 1024 93 16093 2.6 220 09:20 06.01.2020
5161 Clear 5 1024 80 16093 1.19 334 08:48 06.01.2020
5162 Clear 5 1024 80 16093 1.19 334 08:48 06.01.2020
5163 Clear 5 1024 93 16093 1.5 80 08:30 06.01.2020
5164 Clear 6 1024 86 16093 2.6 80 07:53 06.01.2020
5165 Clear 7 1024 86 16093 1.85 329 07:33 06.01.2020
5166 Clear 7 1024 75 16093 1.85 329 06:46 06.01.2020
5167 Clear 7 1024 75 16093 1.85 329 06:23 06.01.2020
5168 Clear 8 1023 70 16093 1.85 329 05:45 06.01.2020
5169 Clear 10 1023 70 16093 1.19 294 04:38 06.01.2020
5170 Clear 10 1023 70 16093 1.19 294 04:19 06.01.2020
5171 Clear 13 1022 54 16093 1.5 280 02:46 06.01.2020
5172 Clear 14 1022 54 16093 1.5 280 02:24 06.01.2020
5173 Clear 17 1022 38 16093 3.1 310 01:44 06.01.2020
5174 Clear 18 1022 38 16093 3.1 310 01:26 06.01.2020
5175 Clear 20 1022 30 16093 4.1 330 00:42 06.01.2020
5176 Clear 21 1022 30 16093 4.1 330 00:23 06.01.2020
5177 Clear 22 1022 24 16093 2.6 320 23:42 05.01.2020
5178 Clear 22 1022 24 16093 2.6 320 23:42 05.01.2020
5179 Clear 22 1022 24 16093 2.6 320 23:22 05.01.2020
5180 Clear 22 1023 18 16093 0.35 113 22:56 05.01.2020
5181 Clear 22 1023 18 16093 0.35 113 22:38 05.01.2020
5182 Clear 22 1023 18 16093 0.35 113 22:19 05.01.2020
5183 Clear 22 1024 28 16093 0.35 113 21:54 05.01.2020
5184 Clear 22 1024 28 16093 0.35 113 21:36 05.01.2020
5185 Clear 21 1024 28 16093 0.35 113 21:18 05.01.2020
5186 Clear 20 1025 31 16093 0.35 113 20:55 05.01.2020
5187 Clear 20 1025 31 16093 0.35 113 20:55 05.01.2020
5188 Clear 20 1025 31 16093 0.35 113 20:36 05.01.2020
5189 Clear 19 1025 31 16093 0.77 68 20:18 05.01.2020
5190 Clear 18 1027 26 16093 1.5 150 19:55 05.01.2020
5191 Clear 17 1026 38 16093 0.77 68 19:37 05.01.2020
5192 Clear 17 1026 38 16093 0.77 68 19:18 05.01.2020
5193 Clear 15 1026 37 16093 3.1 120 18:54 05.01.2020
5194 Clear 15 1027 40 16093 0.77 68 18:36 05.01.2020
5195 Clear 14 1027 40 16093 0.77 68 18:18 05.01.2020
5196 Clear 11 1027 61 16093 2.1 120 17:40 05.01.2020
5197 Clear 9 1026 70 16093 4.1 110 17:21 05.01.2020
5198 Clear 7 1026 42 16093 1.08 120 16:58 05.01.2020
5199 Clear 7 1025 52 16093 4.1 150 16:40 05.01.2020
5200 Clear 5 1025 42 16093 1.08 120 16:21 05.01.2020
5201 Clear 4 1025 42 16093 1.08 120 15:41 05.01.2020
5202 Clear 4 1025 42 16093 1.08 120 15:23 05.01.2020
5203 Clear 4 1026 42 16093 1.08 120 14:58 05.01.2020
5204 Clear 5 1026 42 16093 1.08 120 14:40 05.01.2020
5205 Clear 5 1026 42 16093 1.08 120 14:40 05.01.2020
5206 Clear 4 1024 43 16093 1.5 85 14:22 05.01.2020
5207 Clear 5 1024 56 16093 1.5 340 13:59 05.01.2020
5208 Clear 5 1025 43 16093 3.6 110 13:39 05.01.2020
5209 Clear 5 1024 45 16093 1.36 75 13:20 05.01.2020
5210 Clear 5 1024 45 16093 1.36 75 12:57 05.01.2020
5211 Clear 5 1024 45 16093 1.36 75 12:38 05.01.2020
5212 Clear 5 1024 45 16093 1.36 75 12:20 05.01.2020
5213 Clear 5 1025 45 16093 1.36 75 11:55 05.01.2020
5214 Clear 5 1025 45 16093 1.36 75 11:37 05.01.2020
5215 Clear 5 1025 45 16093 1.36 75 11:37 05.01.2020
5216 Clear 5 1025 45 16093 1.36 75 11:37 05.01.2020
5217 Clear 5 1025 49 16093 1.5 320 11:18 05.01.2020
5218 Clear 6 1024 70 16093 2.6 110 10:41 05.01.2020
5219 Clear 6 1024 70 16093 2.6 110 10:20 05.01.2020
5220 Clear 6 1025 80 16093 1.14 136 09:57 05.01.2020
5221 Clear 6 1025 80 16093 1.5 130 09:38 05.01.2020
5222 Clear 6 1025 80 16093 1.5 130 09:38 05.01.2020
5223 Clear 6 1025 80 16093 1.5 130 09:20 05.01.2020
5224 Clear 6 1026 70 16093 2.1 340 08:45 05.01.2020
5225 Clear 6 1026 70 16093 2.1 340 08:21 05.01.2020
5226 Clear 6 1026 70 16093 3.6 130 07:47 05.01.2020
5227 Clear 6 1026 70 16093 3.6 130 07:29 05.01.2020
5228 Clear 7 1026 65 16093 2.6 150 06:55 05.01.2020
5229 Clear 8 1026 70 16093 3.1 100 05:43 05.01.2020
5230 Clear 9 1026 61 16093 2.1 140 04:56 05.01.2020
5231 Clear 9 1025 65 16093 2.6 170 04:19 05.01.2020
5232 Clear 10 1026 53 16093 0.89 51 03:38 05.01.2020
5233 Clear 12 1025 42 16093 0.89 51 02:35 05.01.2020
5234 Clear 14 1025 35 16093 2.6 290 01:52 05.01.2020
5235 Clear 16 1025 36 16093 4.6 300 01:20 05.01.2020
5236 Clear 17 1025 31 16093 3.1 320 00:58 05.01.2020
5237 Clear 18 1025 34 16093 5.7 340 00:39 05.01.2020
5238 Clear 19 1025 34 16093 5.7 340 00:20 05.01.2020
5239 Clear 19 1024 31 16093 2.1 310 23:42 04.01.2020
5240 Clear 19 1024 31 16093 2.1 310 23:42 04.01.2020
5241 Clear 19 1024 25 16093 4.6 290 23:21 04.01.2020
5242 Clear 19 1024 22 16093 1.5 290 22:59 04.01.2020
5243 Clear 19 1024 22 16093 1.5 290 22:39 04.01.2020
5244 Clear 20 1024 22 16093 1.5 290 22:20 04.01.2020
5245 Clear 20 1025 25 16093 1.5 30 21:56 04.01.2020
5246 Clear 19 1025 25 16093 1.5 30 21:37 04.01.2020
5247 Clear 19 1025 25 16093 1.5 30 21:19 04.01.2020
5248 Clear 18 1027 25 16093 1.5 20 20:55 04.01.2020
5249 Clear 18 1027 25 16093 1.5 20 20:36 04.01.2020
5250 Clear 18 1027 25 16093 1.5 20 20:36 04.01.2020
5251 Clear 17 1027 25 16093 1.5 20 20:18 04.01.2020
5252 Clear 15 1027 30 16093 4.1 130 19:41 04.01.2020
5253 Clear 15 1027 30 16093 4.1 130 19:41 04.01.2020
5254 Clear 14 1027 30 16093 4.1 130 19:23 04.01.2020
5255 Clear 14 1028 34 16093 3.6 120 18:57 04.01.2020
5256 Clear 13 1028 43 16093 2.1 160 18:38 04.01.2020
5257 Clear 12 1028 43 16093 2.1 160 18:20 04.01.2020
5258 Clear 11 1028 49 16093 3.6 130 17:55 04.01.2020
5259 Clear 9 1028 56 16093 3.1 130 17:37 04.01.2020
5260 Clear 8 1028 45 16093 1.2 108 17:18 04.01.2020
5261 Clear 6 1027 74 16093 3.1 70 16:41 04.01.2020
5262 Clear 4 1027 74 16093 3.1 70 16:23 04.01.2020
5263 Clear 3 1028 46 16093 2.6 170 15:57 04.01.2020
5264 Clear 2 1028 46 16093 2.6 170 15:38 04.01.2020
5265 Clear 2 1028 46 16093 2.6 170 15:38 04.01.2020
5266 Clear 2 1027 86 16093 1.2 108 15:19 04.01.2020
5267 Clear 2 1026 80 16093 2.1 230 14:56 04.01.2020
5268 Clear 2 1026 74 16093 2.1 170 14:37 04.01.2020
5269 Clear 2 1026 60 16093 1.5 130 14:19 04.01.2020
5270 Clear 2 1026 74 16093 2.6 110 13:54 04.01.2020
5271 Clear 2 1026 74 16093 2.1 90 13:36 04.01.2020
5272 Clear 2 1026 56 16093 2.1 130 13:18 04.01.2020
5273 Clear 2 1026 80 16093 2.6 150 12:41 04.01.2020
5274 Clear 2 1026 80 16093 2.6 150 12:19 04.01.2020
5275 Clear 3 1026 46 16093 3.1 60 11:57 04.01.2020
5276 Clear 3 1026 46 16093 1.32 87 11:38 04.01.2020
5277 Clear 3 1026 50 16093 0.73 57 11:19 04.01.2020
5278 Clear 3 1026 50 16093 2.1 170 10:42 04.01.2020
5279 Clear 3 1026 50 16093 2.1 170 10:23 04.01.2020
5280 Clear 4 1026 50 16093 3.1 100 09:57 04.01.2020
5281 Clear 4 1026 50 16093 3.1 100 09:39 04.01.2020
5282 Clear 4 1026 50 16093 3.1 100 09:20 04.01.2020
5283 Clear 4 1026 50 16093 2.6 110 08:40 04.01.2020
5284 Clear 4 1026 49 16093 2.6 110 08:20 04.01.2020
5285 Clear 4 1027 49 16093 2.6 110 07:42 04.01.2020
5286 Clear 5 1027 49 16093 2.6 110 07:19 04.01.2020
5287 Clear 5 1026 49 16093 0.76 9 06:33 04.01.2020
5288 Clear 6 1026 70 16093 1.5 140 05:20 04.01.2020
5289 Clear 6 1026 47 16093 0.29 294 04:34 04.01.2020
5290 Clear 7 1025 47 16093 0.29 294 03:52 04.01.2020
5291 Clear 8 1025 47 16093 0.29 294 03:18 04.01.2020
5292 Clear 10 1025 43 16093 2.1 260 02:21 04.01.2020
5293 Clear 12 1024 37 16093 2.1 280 01:55 04.01.2020
5294 Clear 13 1024 35 16093 2.6 310 01:31 04.01.2020
5295 Clear 14 1024 30 16093 3.1 330 00:44 04.01.2020
5296 Clear 15 1024 30 16093 3.1 330 00:23 04.01.2020
5297 Clear 15 1024 30 16093 3.1 320 23:46 03.01.2020
5298 Clear 15 1024 30 16093 3.1 320 23:25 03.01.2020
5299 Clear 15 1024 32 16093 2.1 300 22:41 03.01.2020
5300 Clear 15 1024 32 16093 2.1 300 22:41 03.01.2020
5301 Clear 15 1024 32 16093 2.1 300 22:20 03.01.2020
5302 Clear 15 1024 32 16093 1.5 290 21:59 03.01.2020
5303 Clear 14 1024 37 16093 2.14 6 21:38 03.01.2020
5304 Clear 14 1024 37 16093 2.14 6 21:19 03.01.2020
5305 Clear 13 1026 40 16093 2.14 6 20:58 03.01.2020
5306 Clear 13 1025 40 16093 2.14 6 20:40 03.01.2020
5307 Clear 12 1025 40 16093 1.44 62 20:18 03.01.2020
5308 Clear 12 1025 37 16093 2.1 90 19:56 03.01.2020
5309 Clear 11 1025 37 16093 2.1 90 19:37 03.01.2020
5310 Clear 11 1025 37 16093 2.1 90 19:19 03.01.2020
5311 Clear 10 1025 52 16093 1.44 62 18:43 03.01.2020
5312 Clear 9 1025 52 16093 1.44 62 18:24 03.01.2020
5313 Clear 8 1025 80 16093 1.44 62 17:55 03.01.2020
5314 Clear 7 1025 37 16093 1.44 62 17:37 03.01.2020
5315 Clear 5 1024 65 16093 1.5 110 17:18 03.01.2020
5316 Rain 3 1024 66 11265 1.5 80 16:42 03.01.2020
5317 Rain 3 1024 66 11265 1.5 80 16:23 03.01.2020
5318 Rain 1 1023 66 16093 0.11 295 15:57 03.01.2020
5319 Clear 1 1022 66 16093 0.11 295 15:38 03.01.2020
5320 Clear 1 1022 80 16093 3.6 110 15:18 03.01.2020
5321 Clear 1 1021 66 16093 2.6 100 14:38 03.01.2020
5322 Clear 1 1021 80 16093 0.04 279 14:19 03.01.2020
5323 Clear 2 1020 68 16093 1.5 140 13:44 03.01.2020
5324 Clear 2 1020 68 16093 1.5 140 13:44 03.01.2020
5325 Clear 2 1020 68 16093 1.5 140 13:44 03.01.2020
5326 Clear 2 1020 68 16093 1.5 140 13:24 03.01.2020
5327 Clear 2 1020 86 16093 2.6 130 12:59 03.01.2020
5328 Clear 2 1020 67 16093 4.1 100 12:39 03.01.2020
5329 Clear 2 1020 67 16093 4.1 100 12:21 03.01.2020
5330 Clear 2 1020 86 16093 0.12 169 11:45 03.01.2020
5331 Clear 2 1020 86 16093 0.75 211 11:21 03.01.2020
5332 Clear 2 1020 80 16093 4.6 100 10:46 03.01.2020
5333 Clear 2 1020 80 16093 4.6 100 10:27 03.01.2020
5334 Clear 3 1020 75 16093 4.1 100 09:58 03.01.2020
5335 Clear 3 1020 80 16093 3.6 110 09:39 03.01.2020
5336 Clear 3 1020 80 16093 3.6 110 09:21 03.01.2020
5337 Clear 3 1019 93 16093 0.75 211 08:57 03.01.2020
5338 Clear 3 1019 93 16093 0.75 211 08:38 03.01.2020
5339 Clear 3 1019 93 16093 0.83 239 08:19 03.01.2020
5340 Clear 4 1018 86 16093 0.83 239 07:40 03.01.2020
5341 Clear 4 1018 86 16093 0.83 239 07:18 03.01.2020
5342 Clear 4 1018 80 16093 0.83 239 06:49 03.01.2020
5343 Clear 4 1018 86 16093 0.83 239 06:49 03.01.2020
5344 Clear 4 1018 86 16093 0.83 239 06:30 03.01.2020
5345 Clear 5 1017 80 16093 0.83 239 05:45 03.01.2020
5346 Clear 7 1016 70 16093 2.5 309 04:22 03.01.2020
5347 Clear 8 1016 61 16093 2.5 309 02:56 03.01.2020
5348 Clear 8 1016 61 16093 2.5 309 02:56 03.01.2020
5349 Clear 9 1015 61 16093 1.5 320 02:33 03.01.2020
5350 Clear 10 1015 50 16093 2.6 330 01:42 03.01.2020
5351 Clear 12 1014 46 16093 4.1 330 00:50 03.01.2020
5352 Clear 12 1013 46 16093 3.1 300 00:30 03.01.2020
5353 Clear 13 1012 46 16093 3.1 280 23:55 02.01.2020
5354 Clear 13 1012 46 16093 3.1 320 23:37 02.01.2020
5355 Clear 13 1012 45 16093 3.1 320 23:19 02.01.2020
5356 Clear 13 1012 45 16093 4.1 310 22:45 02.01.2020
5357 Clear 13 1012 45 16093 4.1 310 22:22 02.01.2020
5358 Clouds 12 1011 46 16093 3.6 270 22:00 02.01.2020
5359 Clear 12 1012 45 16093 2.6 340 21:41 02.01.2020
5360 Clear 12 1012 45 16093 2.6 340 21:23 02.01.2020
5361 Clouds 12 1012 45 16093 4.1 270 20:59 02.01.2020
5362 Clear 12 1012 45 16093 3.1 300 20:39 02.01.2020
5363 Clear 11 1012 43 16093 3.1 300 20:21 02.01.2020
5364 Clear 11 1013 43 16093 2.6 310 19:55 02.01.2020
5365 Clear 11 1013 43 16093 2.6 310 19:55 02.01.2020
5366 Clear 11 1013 43 16093 2.6 310 19:55 02.01.2020
5367 Clear 11 1013 43 16093 3.6 290 19:37 02.01.2020
5368 Clear 10 1012 61 16093 1.5 270 19:19 02.01.2020
5369 Clear 10 1013 57 16093 4.22 295 18:56 02.01.2020
5370 Clear 10 1013 65 16093 4.22 295 18:38 02.01.2020
5371 Clear 9 1013 65 16093 4.22 295 18:20 02.01.2020
5372 Clear 8 1012 75 16093 4.22 295 17:56 02.01.2020
5373 Clear 8 1012 75 16093 4.22 295 17:36 02.01.2020
5374 Clear 7 1011 81 16093 2.6 150 17:18 02.01.2020
5375 Clear 5 1011 93 16093 1.48 256 16:56 02.01.2020
5376 Clear 5 1011 93 11265 1.48 256 16:38 02.01.2020
5377 Clear 3 1011 93 11265 1.48 256 16:19 02.01.2020
5378 Clear 2 1010 100 16093 1.48 256 15:42 02.01.2020
5379 Clear 2 1010 86 16093 2.1 170 15:24 02.01.2020
5380 Clear 3 1010 93 11265 1.48 256 14:58 02.01.2020
5381 Clear 3 1010 93 16093 2.1 130 14:37 02.01.2020
5382 Clear 3 1009 93 16093 1.5 90 14:19 02.01.2020
5383 Clear 3 1010 93 16093 1.85 258 13:58 02.01.2020
5384 Clear 4 1009 93 16093 2.1 60 13:38 02.01.2020
5385 Clear 5 1009 93 16093 1.48 261 12:59 02.01.2020
5386 Clouds 4 1009 86 16093 1.48 261 12:40 02.01.2020
5387 Clouds 5 1009 86 16093 1.48 261 12:20 02.01.2020
5388 Rain 6 1009 86 16093 1.48 261 11:41 02.01.2020
5389 Rain 6 1009 75 16093 4.1 100 11:21 02.01.2020
5390 Rain 6 1009 87 16093 3.6 160 10:45 02.01.2020
5391 Rain 7 1009 87 16093 3.6 160 10:27 02.01.2020
5392 Rain 6 1010 81 16093 2.28 282 09:56 02.01.2020
5393 Clouds 6 1010 81 16093 2.28 282 09:35 02.01.2020
5394 Clouds 6 1009 81 16093 2.28 282 08:53 02.01.2020
5395 Clouds 6 1009 86 16093 2.1 100 08:32 02.01.2020
5396 Clear 6 1010 86 16093 2.1 130 07:58 02.01.2020
5397 Clear 6 1011 86 16093 2.21 212 07:31 02.01.2020
5398 Clear 6 1011 86 16093 2.21 212 06:58 02.01.2020
5399 Clear 6 1010 81 16093 2.21 212 06:39 02.01.2020
5400 Clear 7 1011 75 16093 2.21 212 05:38 02.01.2020
5401 Clear 8 1011 70 16093 0.79 225 04:34 02.01.2020
5402 Clear 9 1011 66 16093 1.5 140 03:23 02.01.2020
5403 Clear 11 1012 57 16093 3.1 320 02:20 02.01.2020
5404 Clear 12 1012 50 16093 3.1 330 01:48 02.01.2020
5405 Clear 13 1012 46 16093 4.58 316 01:23 02.01.2020
5406 Clear 14 1012 46 16093 2.6 330 00:38 02.01.2020
5407 Clear 14 1012 46 16093 2.6 330 00:38 02.01.2020
5408 Clear 14 1012 46 16093 2.6 330 00:19 02.01.2020
5409 Clear 15 1013 41 16093 2.6 310 23:41 01.01.2020
5410 Clear 15 1012 40 16093 2.1 320 23:21 01.01.2020
5411 Clear 15 1013 38 16093 1.5 210 22:39 01.01.2020
5412 Rain 15 1013 38 16093 1.5 210 22:20 01.01.2020
5413 Rain 15 1014 40 16093 2.1 260 21:58 01.01.2020
5414 Rain 15 1014 43 16093 3.64 316 21:39 01.01.2020
5415 Clear 15 1015 44 16093 2.6 240 21:20 01.01.2020
5416 Clear 14 1015 46 16093 3.64 316 20:56 01.01.2020
5417 Clear 14 1016 54 16093 3.64 316 20:38 01.01.2020
5418 Clear 13 1016 54 16093 0.84 293 20:19 01.01.2020
5419 Clear 13 1018 53 16093 0.84 293 19:55 01.01.2020
5420 Clear 13 1018 53 16093 0.84 293 19:55 01.01.2020
5421 Clear 13 1018 53 16093 0.84 293 19:55 01.01.2020
5422 Clear 13 1018 53 16093 0.84 293 19:55 01.01.2020
5423 Clear 12 1018 57 16093 0.84 293 19:37 01.01.2020
5424 Clear 12 1018 57 16093 0.84 293 19:19 01.01.2020
5425 Clear 11 1018 61 16093 0.84 293 18:56 01.01.2020
5426 Clear 10 1019 65 16093 2.1 100 18:36 01.01.2020
5427 Clear 10 1018 61 16093 3.1 150 18:18 01.01.2020
5428 Clear 9 1018 70 16093 2.1 100 17:56 01.01.2020
5429 Clear 9 1018 70 16093 2.1 100 17:56 01.01.2020
5430 Clear 8 1018 70 16093 2.1 110 17:38 01.01.2020
5431 Clear 6 1018 70 16093 2.1 110 17:19 01.01.2020
5432 Clear 4 1018 86 16093 2.1 110 16:42 01.01.2020
5433 Clear 3 1018 86 16093 2.1 110 16:24 01.01.2020
5434 Clear 2 1018 93 16093 2.6 120 15:58 01.01.2020
5435 Clear 2 1018 86 16093 2.1 150 15:40 01.01.2020
5436 Clear 2 1018 86 16093 2.1 150 15:22 01.01.2020
5437 Clear 2 1017 64 16093 3.6 110 14:59 01.01.2020
5438 Clear 2 1017 86 16093 2.6 100 14:40 01.01.2020
5439 Clear 2 1017 86 16093 2.6 100 14:22 01.01.2020
5440 Clear 2 1017 80 11265 2.1 140 13:56 01.01.2020
5441 Clear 2 1017 80 11265 2.1 140 13:56 01.01.2020
5442 Clear 2 1017 80 11265 2.6 110 13:37 01.01.2020
5443 Clear 2 1017 80 11265 2.6 110 13:18 01.01.2020
5444 Clear 2 1017 86 11265 3.1 130 12:57 01.01.2020
5445 Clear 2 1018 86 11265 3.1 100 12:39 01.01.2020
5446 Clear 2 1018 62 16093 1.5 140 12:19 01.01.2020
5447 Clear 3 1018 62 16093 1.5 70 11:43 01.01.2020
5448 Clear 3 1018 62 16093 1.5 70 11:23 01.01.2020
5449 Clear 3 1018 86 16093 1.12 305 10:59 01.01.2020
5450 Clear 3 1018 86 16093 1.12 305 10:41 01.01.2020
5451 Clear 3 1018 86 14484 3.6 120 10:21 01.01.2020
5452 Clear 3 1018 86 16093 1.12 305 10:21 01.01.2020
5453 Clear 3 1018 80 16093 1.12 305 09:58 01.01.2020
5454 Clear 3 1018 80 16093 1.12 305 09:37 01.01.2020
5455 Clear 4 1018 86 16093 3.1 120 09:18 01.01.2020
5456 Clear 4 1018 80 16093 1.12 305 09:18 01.01.2020
5457 Clear 4 1018 80 16093 1.12 305 08:55 01.01.2020
5458 Clear 4 1018 80 16093 1.12 305 08:36 01.01.2020
5459 Clear 4 1018 80 16093 1.14 289 08:18 01.01.2020
5460 Clear 4 1018 80 16093 1.14 289 07:54 01.01.2020
5461 Clear 5 1018 75 16093 3.1 100 07:35 01.01.2020
5462 Clear 5 1018 75 16093 2.6 90 06:44 01.01.2020
5463 Clear 5 1018 75 16093 2.6 90 06:20 01.01.2020
5464 Clear 7 1018 75 16093 2.03 317 05:21 01.01.2020
5465 Clouds 9 1017 57 16093 3.6 210 03:43 01.01.2020
5466 Clouds 10 1017 57 16093 3.6 210 03:22 01.01.2020
5467 Clouds 10 1016 57 16093 5.1 170 02:56 01.01.2020
5468 Clouds 11 1016 53 16093 2.03 317 02:33 01.01.2020
5469 Clear 12 1015 43 16093 3.6 290 01:45 01.01.2020
5470 Clear 13 1015 43 16093 3.6 290 01:25 01.01.2020
5471 Clear 14 1015 42 16093 4.6 300 00:57 01.01.2020
5472 Clear 14 1015 42 16093 4.1 300 00:38 01.01.2020
5473 Clear 15 1015 42 16093 4.1 300 00:20 01.01.2020
5474 Clear 16 1014 35 16093 4.6 310 23:40 31.12.2019
5475 Clear 16 1014 35 16093 4.6 310 23:21 31.12.2019
5476 Clear 16 1014 33 16093 3.6 320 22:57 31.12.2019
5477 Clear 16 1014 33 16093 4.1 320 22:38 31.12.2019
5478 Clear 16 1014 33 16093 4.6 130 22:18 31.12.2019
5479 Clear 16 1014 33 16093 5.1 310 21:55 31.12.2019
5480 Clear 17 1015 33 16093 4.1 330 21:36 31.12.2019
5481 Clear 16 1014 29 16093 5.1 70 21:18 31.12.2019
5482 Clear 16 1015 34 16093 3.67 106 20:40 31.12.2019
5483 Clear 14 1015 33 16093 4.6 80 20:22 31.12.2019
5484 Clear 14 1015 33 16093 4.6 80 19:59 31.12.2019
5485 Clouds 14 1016 34 16093 2.6 30 19:40 31.12.2019
5486 Clouds 13 1016 34 16093 2.6 30 19:22 31.12.2019
5487 Clouds 13 1016 34 16093 2.6 30 19:22 31.12.2019
5488 Clouds 13 1017 39 16093 1.5 70 18:58 31.12.2019
5489 Clear 12 1017 39 16093 2.6 110 18:40 31.12.2019
5490 Clear 11 1017 39 16093 5.1 120 18:20 31.12.2019
5491 Clear 10 1016 52 16093 3.1 130 17:56 31.12.2019
5492 Clouds 10 1016 70 16093 3.6 120 17:38 31.12.2019
5493 Clouds 8 1016 70 16093 3.6 120 17:19 31.12.2019
5494 Clear 8 1016 75 16093 3.7 92 16:57 31.12.2019
5495 Clear 7 1015 80 16093 3.7 92 16:38 31.12.2019
5496 Clear 7 1015 80 16093 3.7 92 16:19 31.12.2019
5497 Clear 7 1015 86 16093 3.7 92 15:56 31.12.2019
5498 Clear 7 1015 86 16093 3.7 92 15:38 31.12.2019
5499 Clear 7 1015 86 16093 3.7 92 15:20 31.12.2019
5500 Clear 7 1014 75 16093 3.7 92 14:57 31.12.2019
5501 Clear 7 1014 80 16093 3.7 92 14:38 31.12.2019
5502 Clear 7 1014 80 16093 3.7 92 14:38 31.12.2019
5503 Clear 7 1014 80 16093 3.53 101 14:19 31.12.2019
5504 Clear 7 1014 80 16093 3.53 101 13:57 31.12.2019
5505 Clear 7 1013 80 16093 3.53 101 13:39 31.12.2019
5506 Clear 7 1013 43 16093 1.5 100 13:20 31.12.2019
5507 Clear 7 1014 80 16093 3.73 107 12:56 31.12.2019
5508 Clear 7 1014 80 16093 3.73 107 12:56 31.12.2019
5509 Clear 7 1014 80 16093 1.5 310 12:38 31.12.2019
5510 Clear 7 1014 80 16093 1.5 310 12:19 31.12.2019
5511 Clear 7 1014 80 16093 2.1 40 11:56 31.12.2019
5512 Clear 8 1014 80 16093 1.5 30 11:37 31.12.2019
5513 Clear 8 1014 80 16093 1.5 30 11:19 31.12.2019
5514 Clear 7 1014 56 16093 4.4 102 10:56 31.12.2019
5515 Clear 7 1014 56 16093 2.6 120 10:37 31.12.2019
5516 Clear 7 1014 56 16093 2.6 120 10:19 31.12.2019
5517 Clear 7 1014 80 16093 3.1 110 09:58 31.12.2019
5518 Clear 7 1014 80 16093 1.5 70 09:38 31.12.2019
5519 Clear 7 1014 80 16093 1.5 70 09:19 31.12.2019
5520 Clear 7 1014 86 16093 4.4 102 08:43 31.12.2019
5521 Clear 7 1014 86 16093 3.98 103 08:24 31.12.2019
5522 Clear 7 1014 80 16093 3.98 103 07:59 31.12.2019
5523 Clear 6 1014 75 16093 3.98 103 07:41 31.12.2019
5524 Clear 6 1014 75 16093 3.98 103 07:19 31.12.2019
5525 Clear 6 1014 80 16093 1.5 160 06:42 31.12.2019
5526 Clear 6 1014 86 16093 3.98 103 05:45 31.12.2019
5527 Clear 7 1014 75 16093 3.97 98 04:27 31.12.2019
5528 Clear 8 1014 70 16093 3.97 98 03:27 31.12.2019
5529 Clear 9 1014 46 16093 3.97 98 02:39 31.12.2019
5530 Clear 10 1014 61 16093 5.19 81 01:53 31.12.2019
5531 Clear 10 1014 39 16093 5.19 81 01:32 31.12.2019
5532 Clear 11 1014 40 16093 2.1 310 00:56 31.12.2019
5533 Clear 12 1014 40 16093 2.6 310 00:37 31.12.2019
5534 Clear 13 1013 33 16093 2.1 30 00:18 31.12.2019
5535 Clear 13 1013 33 16093 2.1 30 00:18 31.12.2019
5536 Clear 13 1013 30 16093 4.6 50 23:55 30.12.2019
5537 Clear 13 1013 30 16093 4.6 50 23:36 30.12.2019
5538 Clear 14 1013 30 16093 4.6 50 23:18 30.12.2019
5539 Clear 14 1013 33 16093 2.6 50 22:55 30.12.2019
5540 Clear 14 1013 33 16093 2.6 50 22:37 30.12.2019
5541 Clear 14 1013 33 16093 2.6 50 22:18 30.12.2019
5542 Clouds 13 1014 35 16093 3.1 50 21:55 30.12.2019
5543 Clouds 13 1014 35 16093 3.1 50 21:55 30.12.2019
5544 Clouds 13 1014 35 16093 3.1 50 21:55 30.12.2019
5545 Clouds 13 1014 35 16093 3.1 50 21:37 30.12.2019
5546 Clouds 12 1014 35 16093 3.1 50 21:18 30.12.2019
5547 Clouds 11 1015 34 16093 2.6 60 20:54 30.12.2019
5548 Clear 11 1016 45 16093 5.12 94 20:36 30.12.2019
5549 Clouds 10 1015 34 16093 2.6 60 20:18 30.12.2019
5550 Clear 9 1016 48 16093 4.17 106 19:55 30.12.2019
5551 Clear 9 1017 48 16093 2.1 90 19:36 30.12.2019
5552 Clear 8 1017 40 16093 2.1 40 19:18 30.12.2019
5553 Clear 8 1018 60 16093 3.1 80 18:41 30.12.2019
5554 Clear 7 1018 60 16093 3.1 80 18:21 30.12.2019
5555 Clear 6 1018 60 16093 3.6 90 17:59 30.12.2019
5556 Clear 6 1018 69 16093 4.1 90 17:40 30.12.2019
5557 Clear 5 1018 69 16093 4.1 90 17:19 30.12.2019
5558 Clear 3 1018 80 16093 1.71 127 16:59 30.12.2019
5559 Clear 3 1018 80 16093 1.71 127 16:39 30.12.2019
5560 Clear 2 1018 80 16093 1.71 127 16:20 30.12.2019
5561 Clear 1 1017 69 16093 2.1 210 15:56 30.12.2019
5562 Clear 1 1017 69 16093 2.1 130 15:38 30.12.2019
5563 Clear 0 1017 74 16093 2.1 120 15:19 30.12.2019
5564 Clear 0 1017 80 16093 3.6 110 14:43 30.12.2019
5565 Clear 0 1017 80 16093 3.6 110 14:21 30.12.2019
5566 Clear 0 1017 69 16093 1.39 95 13:59 30.12.2019
5567 Clear 0 1017 58 16093 2.1 190 13:41 30.12.2019
5568 -273 0 0 0 0 0 13:22 30.12.2019
5569 Rain 1 1017 59 16093 1.5 50 12:57 30.12.2019
5570 Rain 1 1017 86 16093 1.5 350 12:38 30.12.2019
5571 Rain 1 1017 86 16093 1.5 350 12:19 30.12.2019
5572 Rain 1 1017 86 16093 1.5 350 12:18 30.12.2019
5573 Clear 1 1017 86 16093 1.5 40 11:46 30.12.2019
5574 Rain 2 1017 64 16093 2.1 180 11:22 30.12.2019
5575 Rain 2 1018 61 16093 2.1 20 10:59 30.12.2019
5576 Rain 2 1018 61 16093 0.61 169 10:40 30.12.2019
5577 Rain 2 1018 61 16093 0.61 169 10:19 30.12.2019
5578 Clear 2 1018 80 16093 0.61 169 09:43 30.12.2019
5579 Clear 2 1018 80 16093 0.61 169 09:21 30.12.2019
5580 Clear 2 1018 74 16093 0.61 169 08:57 30.12.2019
5581 Clear 2 1018 74 16093 0.61 169 08:38 30.12.2019
5582 Clear 2 1018 74 16093 1.22 97 08:19 30.12.2019
5583 Clear 2 1019 80 16093 1.5 180 07:46 30.12.2019
5584 Clear 2 1019 80 16093 1.5 180 07:23 30.12.2019
5585 Clear 2 1020 80 16093 2.6 210 06:30 30.12.2019
5586 Clear 3 1020 64 16093 2.6 10 04:31 30.12.2019
5587 Clear 4 1020 60 16093 2.1 360 03:47 30.12.2019
5588 Clear 5 1020 60 16093 2.1 350 02:45 30.12.2019
5589 Clear 5 1020 60 16093 2.1 350 02:25 30.12.2019
5590 Clear 7 1020 39 16093 2.1 340 01:27 30.12.2019
5591 Clear 8 1020 34 16093 1.92 9 00:56 30.12.2019
5592 Clear 9 1020 34 16093 1.92 9 00:36 30.12.2019
5593 Clear 9 1020 33 16093 1.92 9 23:42 29.12.2019
5594 Clear 9 1020 33 16093 0.92 338 23:24 29.12.2019
5595 Clear 9 1020 36 16093 0.92 338 22:58 29.12.2019
5596 Clear 9 1020 33 16093 0.92 338 22:38 29.12.2019
5597 Clear 9 1020 33 16093 0.92 338 22:38 29.12.2019
5598 Clear 9 1020 33 16093 0.92 338 22:20 29.12.2019
5599 Clear 9 1021 33 16093 1.5 310 21:56 29.12.2019
5600 Clear 8 1021 33 16093 0.92 338 21:38 29.12.2019
5601 Clear 8 1021 39 16093 2.1 320 21:19 29.12.2019
5602 Clear 8 1022 36 16093 0.92 338 20:55 29.12.2019
5603 Clear 8 1022 41 16093 0.92 338 20:37 29.12.2019
5604 Clear 7 1022 45 16093 0.57 105 20:18 29.12.2019
5605 Clear 7 1023 41 16093 0.57 105 19:55 29.12.2019
5606 Clear 7 1024 44 16093 0.57 105 19:37 29.12.2019
5607 Clear 6 1023 48 16093 1.5 40 19:18 29.12.2019
5608 Clear 6 1024 48 16093 0.57 105 18:54 29.12.2019
5609 Clear 5 1024 55 16093 0.57 105 18:36 29.12.2019
5610 Clear 5 1023 51 16093 1.5 130 18:18 29.12.2019
5611 Clear 4 1023 64 16093 0.57 105 17:55 29.12.2019
5612 Clear 3 1023 69 16093 0.57 105 17:36 29.12.2019
5613 Clear 3 1022 64 16093 3.6 140 17:18 29.12.2019
5614 Clear 1 1022 74 16093 2.1 130 16:55 29.12.2019
5615 Clear 0 1022 59 16093 2.6 110 16:36 29.12.2019
5616 Clear -1 1021 80 16093 3.1 130 16:18 29.12.2019
5617 Clear -2 1021 59 16093 3.1 100 15:55 29.12.2019
5618 Clear -2 1021 59 16093 3.1 110 15:37 29.12.2019
5619 Clear -3 1021 86 16093 3.6 110 15:18 29.12.2019
5620 Clear -2 1021 86 16093 2.1 90 14:47 29.12.2019
5621 Clear -2 1021 86 16093 2.1 90 14:19 29.12.2019
5622 Clear -2 1020 86 16093 3.1 120 14:00 29.12.2019
5623 Clear -2 1021 59 16093 1.65 219 13:40 29.12.2019
5624 Clear -2 1021 58 16093 1.94 203 13:22 29.12.2019
5625 Clear -2 1020 86 16093 1.94 203 12:58 29.12.2019
5626 Clear -1 1020 86 16093 1.94 203 12:40 29.12.2019
5627 Clear -1 1020 86 16093 1.94 203 12:22 29.12.2019
5628 Clear -1 1020 86 16093 1.94 203 12:22 29.12.2019
5629 Clear -1 1020 58 16093 1.94 203 11:43 29.12.2019
5630 Clear -1 1020 58 16093 1.94 203 11:23 29.12.2019
5631 Clear -1 1020 54 16093 2.18 232 10:59 29.12.2019
5632 Clear -1 1020 54 16093 2.18 232 10:40 29.12.2019
5633 Clear 0 1020 54 16093 2.18 232 10:18 29.12.2019
5634 Clear 0 1020 74 16093 1.5 180 09:47 29.12.2019
5635 Clear 0 1020 74 16093 1.5 180 09:28 29.12.2019
5636 Clear 0 1020 74 16093 1.5 180 09:28 29.12.2019
5637 Clear 0 1019 74 16093 2.1 160 08:59 29.12.2019
5638 Clear 1 1019 69 16093 2.1 150 08:40 29.12.2019
5639 Clear 1 1019 69 16093 2.1 150 08:40 29.12.2019
5640 Clear 1 1019 69 16093 2.1 150 08:21 29.12.2019
5641 Rain 2 1019 69 16093 1.5 110 07:44 29.12.2019
5642 Rain 2 1019 69 16093 1.5 110 07:25 29.12.2019
5643 Clouds 3 1019 64 16093 3.1 210 06:38 29.12.2019
5644 Clouds 3 1018 55 16093 3.6 220 06:18 29.12.2019
5645 Clouds 4 1018 60 16093 3.1 250 05:44 29.12.2019
5646 Clouds 4 1017 55 16093 2.6 260 04:32 29.12.2019
5647 Clouds 5 1017 48 16093 3.6 270 03:35 29.12.2019
5648 Clouds 6 1016 48 16093 4.1 320 02:27 29.12.2019
5649 Clouds 7 1016 48 16093 6.2 310 01:52 29.12.2019
5650 Clouds 7 1015 45 16093 6.7 310 01:29 29.12.2019
5651 Clouds 7 1015 45 16093 6.7 310 01:29 29.12.2019
5652 Clouds 8 1014 36 16093 7.2 280 00:45 29.12.2019
5653 Clouds 8 1014 36 16093 7.2 280 00:25 29.12.2019
5654 Clouds 9 1014 39 16093 6.7 280 23:55 28.12.2019
5655 Clouds 9 1013 52 16093 6.2 250 23:37 28.12.2019
5656 Drizzle 9 1013 50 16093 6.2 260 23:18 28.12.2019
5657 Clouds 9 1013 46 16093 8.7 260 22:37 28.12.2019
5658 Rain 9 1013 46 16093 8.2 270 22:18 28.12.2019
5659 Clouds 9 1014 42 16093 6.7 260 21:56 28.12.2019
5660 Clouds 9 1014 43 16093 5.7 250 21:37 28.12.2019
5661 Clouds 9 1014 49 16093 8.2 260 21:19 28.12.2019
5662 Clouds 9 1015 50 16093 8.2 260 20:42 28.12.2019
5663 Clouds 8 1015 47 16093 8.2 260 20:23 28.12.2019
5664 Clouds 8 1015 54 16093 7.7 240 19:59 28.12.2019
5665 Clear 8 1016 57 16093 5.1 260 19:41 28.12.2019
5666 Clear 8 1016 57 16093 5.1 260 19:23 28.12.2019
5667 Clouds 7 1017 54 16093 5.7 260 18:59 28.12.2019
5668 Clouds 7 1016 65 16093 5.7 240 18:40 28.12.2019
5669 Clouds 6 1016 70 16093 5.1 230 18:20 28.12.2019
5670 Clouds 6 1016 75 16093 3.1 220 17:58 28.12.2019
5671 Clouds 6 1016 75 16093 3.1 250 17:39 28.12.2019
5672 Clouds 5 1016 81 16093 3.1 230 17:19 28.12.2019
5673 Clouds 5 1016 81 16093 3.6 230 16:48 28.12.2019
5674 Clouds 5 1016 81 16093 3.6 230 16:26 28.12.2019
5675 Clouds 5 1015 87 16093 3.6 220 15:57 28.12.2019
5676 Clouds 5 1015 87 16093 3.1 210 15:39 28.12.2019
5677 Rain 5 1015 87 16093 3.1 210 15:20 28.12.2019
5678 Rain 5 1016 86 16093 3.31 219 14:45 28.12.2019
5679 Rain 5 1015 81 16093 3.31 219 14:24 28.12.2019
5680 Rain 5 1015 87 16093 2.1 190 13:57 28.12.2019
5681 Rain 5 1015 87 16093 2.1 200 13:38 28.12.2019
5682 Rain 5 1015 87 16093 2.1 200 13:19 28.12.2019
5683 Rain 5 1015 87 16093 2.18 239 12:44 28.12.2019
5684 Rain 5 1015 87 16093 2.18 239 12:44 28.12.2019
5685 Rain 5 1015 87 16093 2.18 239 12:24 28.12.2019
5686 Rain 5 1015 87 16093 2.18 239 11:58 28.12.2019
5687 Rain 5 1015 87 16093 2.1 210 11:39 28.12.2019
5688 Clouds 5 1015 87 16093 2.1 210 11:20 28.12.2019
5689 Clouds 5 1014 93 16093 1.5 220 10:46 28.12.2019
5690 Clouds 5 1014 93 16093 1.5 220 10:22 28.12.2019
5691 Clouds 5 1014 93 16093 1.5 220 10:22 28.12.2019
5692 Clouds 5 1014 93 16093 2.1 210 09:58 28.12.2019
5693 Clouds 5 1014 87 16093 1.5 210 09:40 28.12.2019
5694 Clouds 5 1013 86 16093 0.53 225 09:20 28.12.2019
5695 Clouds 5 1014 87 16093 1.5 210 09:20 28.12.2019
5696 Clouds 5 1013 81 16093 0.53 225 08:44 28.12.2019
5697 Clouds 5 1014 100 16093 0.53 225 08:26 28.12.2019
5698 Rain 5 1014 81 16093 0.62 64 07:55 28.12.2019
5699 Rain 5 1014 81 16093 1.5 280 07:32 28.12.2019
5700 Rain 5 1014 87 16093 1.5 270 06:41 28.12.2019
5701 Rain 6 1014 81 16093 1.66 260 04:59 28.12.2019
5702 Clouds 6 1013 87 16093 1.66 260 03:47 28.12.2019
5703 Rain 6 1014 93 16093 1.5 320 02:49 28.12.2019
5704 Rain 7 1012 75 16093 5.1 270 01:59 28.12.2019
5705 Rain 8 1012 81 16093 4.13 266 01:31 28.12.2019
5706 Clouds 8 1012 76 16093 1.5 180 00:58 28.12.2019
5707 Clouds 8 1012 76 16093 1.5 180 00:40 28.12.2019
5708 Clouds 8 1012 66 16093 3.6 350 00:20 28.12.2019
5709 Rain 9 1011 76 16093 2.6 290 23:44 27.12.2019
5710 Rain 9 1011 76 16093 2.6 290 23:44 27.12.2019
5711 Rain 8 1011 81 16093 2.1 290 23:20 27.12.2019
5712 Rain 8 1011 87 16093 1.5 310 22:58 27.12.2019
5713 Rain 8 1011 87 16093 1.5 310 22:39 27.12.2019
5714 Rain 8 1010 66 16093 4.6 230 22:20 27.12.2019
5715 Rain 8 1011 66 16093 5.1 260 21:56 27.12.2019
5716 Rain 8 1011 81 16093 6.7 250 21:37 27.12.2019
5717 Clouds 8 1011 81 16093 6.7 250 21:19 27.12.2019
5718 Rain 8 1011 70 16093 4.6 210 20:42 27.12.2019
5719 Rain 7 1011 70 16093 4.6 210 20:23 27.12.2019
5720 Rain 7 1012 81 16093 4.6 180 19:43 27.12.2019
5721 Rain 6 1012 75 16093 5.1 130 19:21 27.12.2019
5722 Rain 6 1012 81 16093 4.6 180 18:59 27.12.2019
5723 Rain 6 1012 81 16093 4.1 190 18:40 27.12.2019
5724 Rain 6 1012 81 16093 3.6 150 18:21 27.12.2019
5725 Rain 6 1012 87 16093 4.6 130 17:58 27.12.2019
5726 Drizzle 6 1012 87 16093 1.5 140 17:40 27.12.2019
5727 Rain 6 1012 93 16093 1.5 270 17:19 27.12.2019
5728 Rain 5 1012 81 11265 1.5 0 16:58 27.12.2019
5729 Drizzle 5 1011 81 16093 3.6 150 16:38 27.12.2019
5730 Rain 6 1011 93 4828 2.1 260 16:19 27.12.2019
5731 Rain 6 1010 75 16093 3.1 130 15:45 27.12.2019
5732 Clouds 6 1010 75 16093 3.1 130 15:22 27.12.2019
5733 Clouds 5 1010 75 16093 6.2 120 14:57 27.12.2019
5734 Clouds 5 1010 81 16093 7.2 120 14:39 27.12.2019
5735 Clouds 5 1010 86 16093 4.1 140 14:20 27.12.2019
5736 Clouds 5 1010 81 16093 7.2 120 14:20 27.12.2019
5737 Rain 5 1009 81 16093 6.7 120 13:55 27.12.2019
5738 Rain 5 1010 81 16093 6.2 120 13:37 27.12.2019
5739 Rain 5 1010 81 16093 6.2 120 13:18 27.12.2019
5740 Rain 5 1009 86 16093 6.7 100 12:40 27.12.2019
5741 Rain 5 1010 86 16093 5.7 110 12:22 27.12.2019
5742 Rain 5 1011 86 16093 3.1 120 11:46 27.12.2019
5743 Rain 5 1012 81 16093 3.6 120 11:26 27.12.2019
5744 Rain 5 1009 87 16093 7.7 100 10:58 27.12.2019
5745 Rain 5 1011 93 16093 4.6 290 10:39 27.12.2019
5746 Rain 5 1012 87 9656 2.6 320 10:21 27.12.2019
5747 Rain 5 1011 87 16093 5.7 290 09:43 27.12.2019
5748 Rain 5 1011 87 16093 5.7 290 09:21 27.12.2019
5749 Rain 6 1012 100 8047 2.6 320 08:58 27.12.2019
5750 Drizzle 6 1011 87 16093 7.7 290 08:36 27.12.2019
5751 Rain 7 1012 75 16093 6.2 300 07:51 27.12.2019
5752 Rain 7 1011 70 16093 5.1 320 07:32 27.12.2019
5753 Clouds 8 1012 81 16093 4.1 340 06:37 27.12.2019
5754 Clouds 10 1012 70 16093 3.6 270 05:38 27.12.2019
5755 Clear 12 1011 43 16093 4.1 230 03:44 27.12.2019
5756 Clouds 14 1009 62 16093 2.6 360 02:21 27.12.2019
5757 Clouds 15 1009 47 16093 1.5 300 01:38 27.12.2019
5758 Clouds 15 1009 47 16093 1.5 300 01:19 27.12.2019
5759 Clear 16 1010 45 16093 5.7 190 00:43 27.12.2019
5760 Clouds 16 1008 45 16093 6.2 220 00:24 27.12.2019
5761 Clouds 16 1008 45 16093 6.2 220 00:24 27.12.2019
5762 Clear 17 1008 45 16093 7.7 220 23:42 26.12.2019
5763 Clear 17 1008 35 16093 7.7 220 23:22 26.12.2019
5764 Clear 17 1009 35 16093 6.7 210 22:48 26.12.2019
5765 Clouds 17 1009 35 16093 5.1 220 22:23 26.12.2019
5766 Clear 17 1009 31 16093 1.5 180 21:59 26.12.2019
5767 Clouds 17 1010 35 16093 4.1 150 21:39 26.12.2019
5768 Clouds 17 1010 35 16093 4.1 150 21:20 26.12.2019
5769 Clear 16 1011 38 16093 5.7 120 20:46 26.12.2019
5770 Clear 16 1011 38 16093 5.7 120 20:23 26.12.2019
5771 Rain 15 1012 44 16093 4.1 180 19:59 26.12.2019
5772 Rain 15 1013 44 16093 5.7 120 19:40 26.12.2019
5773 Rain 14 1013 44 16093 5.7 120 19:22 26.12.2019
5774 Clear 13 1013 54 16093 5.1 120 18:58 26.12.2019
5775 Clear 13 1013 57 16093 3.6 130 18:39 26.12.2019
5776 Clear 11 1013 57 16093 3.6 130 18:19 26.12.2019
5777 Clear 11 1014 70 16093 3.1 130 17:57 26.12.2019
5778 Clear 9 1014 75 16093 2.6 120 17:38 26.12.2019
5779 Clear 9 1014 75 16093 2.6 120 17:38 26.12.2019
5780 Clear 8 1014 66 16093 4.6 120 17:18 26.12.2019
5781 Rain 6 1013 80 16093 2.6 130 16:43 26.12.2019
5782 Rain 5 1013 80 16093 2.6 130 16:23 26.12.2019
5783 Clear 4 1013 86 16093 2.6 140 15:56 26.12.2019
5784 Clear 4 1013 86 16093 2.6 140 15:56 26.12.2019
5785 Clear 4 1013 86 16093 1.5 120 15:38 26.12.2019
5786 Clear 4 1013 86 16093 1.5 120 15:18 26.12.2019
5787 Clear 4 1013 93 16093 2.02 165 14:40 26.12.2019
5788 Clear 4 1013 93 16093 1.67 132 14:22 26.12.2019
5789 Clear 4 1013 93 16093 1.67 132 13:44 26.12.2019
5790 Clear 4 1013 93 16093 1.59 127 13:22 26.12.2019
5791 Clear 4 1013 86 16093 2.1 220 12:58 26.12.2019
5792 Clear 4 1013 86 16093 3.1 140 12:39 26.12.2019
5793 Clear 4 1013 86 16093 3.1 140 12:39 26.12.2019
5794 Clear 4 1014 81 16093 4.6 110 12:20 26.12.2019
5795 Clouds 4 1014 86 16093 3.6 100 11:57 26.12.2019
5796 Rain 4 1014 86 16093 3.6 110 11:39 26.12.2019
5797 Rain 4 1014 86 16093 3.6 110 11:20 26.12.2019
5798 Rain 4 1014 93 16093 1.5 70 10:47 26.12.2019
5799 Clear 4 1014 93 16093 1.5 70 10:19 26.12.2019
5800 Clear 4 1014 93 16093 1.5 70 10:19 26.12.2019
5801 Clear 4 1015 100 16093 1.5 140 09:50 26.12.2019
5802 Clear 4 1015 100 16093 1.5 140 09:32 26.12.2019
5803 Clear 4 1015 93 16093 0.97 152 08:55 26.12.2019
5804 Clear 4 1015 93 16093 0.97 152 08:36 26.12.2019
5805 Clear 4 1015 86 16093 1.26 185 08:18 26.12.2019
5806 Clear 5 1016 100 16093 1.26 185 07:30 26.12.2019
5807 Clear 5 1016 100 16093 1.26 185 07:30 26.12.2019
5808 Clear 5 1015 100 16093 1.26 185 06:54 26.12.2019
5809 Clear 6 1015 93 16093 1.26 185 06:32 26.12.2019
5810 Clear 6 1015 93 16093 1.26 185 05:46 26.12.2019
5811 Clear 7 1015 87 16093 2.1 310 04:59 26.12.2019
5812 Clear 8 1015 87 16093 2.1 300 04:30 26.12.2019
5813 Clear 9 1015 71 16093 2.1 320 03:18 26.12.2019
5814 Clear 10 1014 66 16093 1.5 30 02:38 26.12.2019
5815 Clear 11 1014 66 16093 1.5 30 02:19 26.12.2019
5816 Clouds 12 1014 62 16093 3.1 350 01:41 26.12.2019
5817 Clouds 12 1014 62 16093 3.1 350 01:22 26.12.2019
5818 Clouds 14 1013 50 16093 6.7 290 00:41 26.12.2019
5819 Clouds 14 1013 38 16093 4.6 270 00:22 26.12.2019
5820 Clouds 14 1013 38 16093 5.7 280 23:42 25.12.2019
5821 Clouds 14 1013 38 16093 5.7 280 23:21 25.12.2019
5822 Clouds 14 1013 44 16093 5.1 250 22:59 25.12.2019
5823 Clouds 14 1013 44 16093 6.2 260 22:40 25.12.2019
5824 Clouds 14 1013 44 16093 6.2 260 22:22 25.12.2019
5825 Rain 14 1013 41 16093 4.1 250 21:59 25.12.2019
5826 Rain 14 1014 62 16093 7.18 222 21:39 25.12.2019
5827 Rain 13 1013 54 16093 6.2 250 21:20 25.12.2019
5828 Rain 13 1014 62 16093 7.18 222 20:56 25.12.2019
5829 Rain 13 1014 58 16093 6.7 200 20:38 25.12.2019
5830 Rain 13 1015 54 16093 7.7 210 20:18 25.12.2019
5831 Rain 13 1015 58 16093 4.6 180 19:43 25.12.2019
5832 Drizzle 13 1015 54 16093 6.2 170 19:25 25.12.2019
5833 Rain 12 1015 71 16093 2.1 110 18:58 25.12.2019
5834 Rain 12 1015 76 16093 2.6 110 18:37 25.12.2019
5835 Rain 12 1015 76 16093 2.6 110 18:18 25.12.2019
5836 Rain 11 1015 93 16093 2.6 130 17:41 25.12.2019
5837 Rain 10 1015 71 16093 1.5 120 17:19 25.12.2019
5838 Rain 9 1015 100 16093 3.57 193 16:58 25.12.2019
5839 Rain 9 1015 93 16093 1.5 210 16:37 25.12.2019
5840 Rain 8 1015 93 16093 1.5 210 16:18 25.12.2019
5841 Rain 8 1014 81 16093 3.57 193 15:57 25.12.2019
5842 Rain 8 1014 81 16093 3.57 193 15:57 25.12.2019
5843 Rain 8 1014 87 16093 3.1 150 15:38 25.12.2019
5844 Clouds 7 1014 87 16093 3.1 150 15:20 25.12.2019
5845 Clouds 7 1015 81 16093 1.5 100 14:57 25.12.2019
5846 Clouds 7 1015 81 16093 1.5 100 14:39 25.12.2019
5847 Clouds 7 1015 81 16093 1.5 100 14:39 25.12.2019
5848 Clouds 7 1013 81 16093 2.1 100 14:20 25.12.2019
5849 Clouds 7 1013 87 16093 3.1 120 13:44 25.12.2019
5850 Rain 8 1013 81 16093 3.69 203 13:21 25.12.2019
5851 Drizzle 8 1013 87 16093 2.6 100 12:57 25.12.2019
5852 Drizzle 8 1013 87 16093 2.6 100 12:38 25.12.2019
5853 Clouds 8 1013 87 16093 3.56 196 12:19 25.12.2019
5854 Clouds 8 1013 93 16093 3.56 196 11:43 25.12.2019
5855 Clouds 8 1013 93 16093 4.59 192 11:22 25.12.2019
5856 Clouds 8 1013 87 16093 4.59 192 10:59 25.12.2019
5857 Clouds 8 1013 87 16093 4.59 192 10:36 25.12.2019
5858 Rain 8 1013 81 16093 2.6 200 10:18 25.12.2019
5859 Rain 9 1013 87 16093 1.5 140 09:43 25.12.2019
5860 Clear 9 1013 87 16093 1.5 140 09:25 25.12.2019
5861 Clear 9 1013 87 16093 1.5 140 09:25 25.12.2019
5862 Clear 9 1013 81 16093 4.59 192 08:45 25.12.2019
5863 Clear 9 1013 81 16093 4.59 192 08:25 25.12.2019
5864 Clouds 9 1013 81 16093 2.1 180 07:45 25.12.2019
5865 Clouds 9 1013 81 16093 2.1 180 07:23 25.12.2019
5866 Clouds 10 1013 81 16093 2.1 180 06:47 25.12.2019
5867 Clouds 10 1013 81 16093 2.1 180 06:22 25.12.2019
5868 Clear 10 1012 87 16093 1.5 110 04:49 25.12.2019
5869 Clear 10 1012 87 16093 1.5 170 04:25 25.12.2019
5870 Clouds 10 1012 76 16093 3.6 190 03:58 25.12.2019
5871 Rain 10 1012 76 16093 3.6 190 03:39 25.12.2019
5872 Rain 11 1011 93 16093 4.1 170 02:32 25.12.2019
5873 Rain 11 1010 87 16093 1.5 100 01:58 25.12.2019
5874 Rain 11 1010 93 4828 1.5 110 01:25 25.12.2019
5875 Rain 12 1010 93 16093 7.23 201 00:48 25.12.2019
5876 Rain 12 1010 93 16093 7.23 201 00:28 25.12.2019
5877 Clouds 13 1008 54 16093 4.6 170 23:55 24.12.2019
5878 Clouds 13 1008 54 16093 8.2 120 23:37 24.12.2019
5879 Clouds 14 1008 54 16093 8.2 120 23:19 24.12.2019
5880 Clouds 14 1008 58 16093 9.3 130 22:39 24.12.2019
5881 Clouds 13 1008 58 16093 9.3 130 22:20 24.12.2019
5882 Clouds 12 1008 62 16093 10.8 130 21:42 24.12.2019
5883 Clouds 12 1008 62 16093 10.8 130 21:22 24.12.2019
5884 Clouds 12 1008 62 16093 10.8 130 21:22 24.12.2019
5885 Rain 11 1009 71 16093 10.3 140 20:45 24.12.2019
5886 Rain 11 1009 71 16093 10.3 140 20:24 24.12.2019
5887 Rain 10 1008 81 16093 9.8 110 19:57 24.12.2019
5888 Rain 9 1012 81 16093 9.3 120 19:39 24.12.2019
5889 Rain 9 1012 81 16093 9.3 120 19:18 24.12.2019
5890 Rain 9 1015 87 6437 6.7 110 18:42 24.12.2019
5891 Rain 10 1016 81 4828 7.7 170 18:20 24.12.2019
5892 Rain 10 1014 100 2414 7.52 161 17:50 24.12.2019
5893 Rain 11 1014 100 4023 3.1 260 17:24 24.12.2019
5894 Rain 11 1012 93 8047 6.7 270 16:59 24.12.2019
5895 Rain 11 1012 93 8047 6.7 270 16:59 24.12.2019
5896 Clouds 12 1012 87 16093 3.1 260 16:41 24.12.2019
5897 Clouds 12 1012 87 16093 3.1 260 16:22 24.12.2019
5898 Clouds 12 1012 87 16093 3.1 260 16:22 24.12.2019
5899 Rain 12 1011 87 16093 3.6 230 15:58 24.12.2019
5900 Rain 12 1010 87 16093 4.1 250 15:38 24.12.2019
5901 Rain 12 1010 87 16093 4.1 250 15:20 24.12.2019
5902 Rain 13 1011 76 6437 1.5 170 14:59 24.12.2019
5903 Rain 13 1011 76 6437 1.5 170 14:59 24.12.2019
5904 Rain 13 1011 76 16093 5.1 170 14:41 24.12.2019
5905 Rain 13 1011 76 16093 5.1 170 14:22 24.12.2019
5906 Rain 13 1009 66 16093 3.6 120 13:57 24.12.2019
5907 Clouds 13 1009 81 16093 3.1 90 13:39 24.12.2019
5908 Clouds 13 1009 81 16093 3.1 90 13:20 24.12.2019
5909 Rain 13 1010 81 16093 2.33 148 12:58 24.12.2019
5910 Clouds 13 1010 76 16093 2.33 148 12:38 24.12.2019
5911 Clouds 13 1012 58 16093 2.1 120 12:19 24.12.2019
5912 Clouds 13 1012 58 16093 2.1 120 12:19 24.12.2019
5913 Clouds 13 1010 76 16093 2.33 148 11:58 24.12.2019
5914 Clouds 13 1011 81 16093 2.1 130 11:38 24.12.2019
5915 Clouds 13 1011 81 16093 2.1 130 11:38 24.12.2019
5916 Clouds 13 1011 81 16093 2.1 130 11:20 24.12.2019
5917 Clouds 13 1011 76 16093 1.57 136 10:57 24.12.2019
5918 Clouds 13 1011 71 16093 1.5 250 10:38 24.12.2019
5919 Clouds 13 1011 71 16093 1.5 250 10:20 24.12.2019
5920 Clouds 13 1012 71 16093 1.57 136 09:59 24.12.2019
5921 Clouds 13 1012 71 16093 1.57 136 09:41 24.12.2019
5922 Clouds 13 1012 71 16093 1.57 136 09:22 24.12.2019
5923 Clouds 13 1012 58 16093 1.57 136 08:56 24.12.2019
5924 Clouds 13 1012 54 16093 1.57 136 08:37 24.12.2019
5925 Clouds 14 1012 54 16093 3.31 167 08:18 24.12.2019
5926 Clouds 14 1013 47 16093 2.1 30 07:43 24.12.2019
5927 Clouds 15 1013 47 16093 2.1 30 07:21 24.12.2019
5928 Clouds 15 1013 38 16093 3.31 167 06:40 24.12.2019
5929 Clouds 15 1013 38 16093 3.31 167 06:22 24.12.2019
5930 Clouds 16 1013 51 16093 4.1 190 05:54 24.12.2019
5931 Clear 16 1014 31 16093 4.6 100 05:19 24.12.2019
5932 Clouds 17 1014 31 16093 4.1 110 04:21 24.12.2019
5933 Clear 16 1012 27 16093 4.1 120 03:48 24.12.2019
5934 Clear 16 1012 27 16093 5.1 110 02:29 24.12.2019
5935 Clear 16 1012 29 16093 3.1 100 01:55 24.12.2019
5936 Clear 16 1012 27 16093 4.1 120 01:26 24.12.2019
5937 Clear 17 1012 25 16093 5.7 120 00:58 24.12.2019
5938 Clear 17 1012 25 16093 7.2 130 00:39 24.12.2019
5939 Clear 17 1012 25 16093 7.2 130 00:20 24.12.2019
5940 Clear 17 1012 23 16093 6.7 140 23:43 23.12.2019
5941 Clear 17 1012 23 16093 6.7 140 23:24 23.12.2019
5942 Clear 17 1012 23 16093 6.7 140 23:24 23.12.2019
5943 Clear 18 1012 22 16093 7.2 120 22:57 23.12.2019
5944 Clear 17 1012 22 16093 7.2 130 22:38 23.12.2019
5945 Clear 18 1012 22 16093 7.2 130 22:38 23.12.2019
5946 Clear 17 1012 22 16093 7.2 130 22:20 23.12.2019
5947 Clear 17 1012 23 16093 7.2 120 21:56 23.12.2019
5948 Clear 17 1013 25 16093 6.7 100 21:37 23.12.2019
5949 Clear 17 1013 25 16093 6.7 100 21:19 23.12.2019
5950 Clear 16 1014 25 16093 5.1 110 20:58 23.12.2019
5951 Clear 16 1014 25 16093 5.1 110 20:58 23.12.2019
5952 Clear 16 1014 23 16093 5.7 110 20:40 23.12.2019
5953 Clear 16 1016 25 16093 5.7 110 20:19 23.12.2019
5954 Clear 16 1016 25 16093 5.7 110 20:19 23.12.2019
5955 Clear 16 1016 25 16093 5.7 110 20:19 23.12.2019
5956 Clear 15 1015 24 16093 5.7 110 19:58 23.12.2019
5957 Clear 15 1015 22 16093 4.6 100 19:39 23.12.2019
5958 Clear 15 1015 22 16093 4.6 100 19:20 23.12.2019
5959 Clear 14 1016 24 16093 6.2 110 18:58 23.12.2019
5960 Clear 14 1016 24 16093 6.2 110 18:58 23.12.2019
5961 Clear 14 1016 24 16093 4.6 130 18:39 23.12.2019
5962 Clear 14 1017 22 16093 6.2 110 18:20 23.12.2019
5963 Clear 14 1017 22 16093 6.2 110 18:20 23.12.2019
5964 Clear 13 1016 24 16093 6.2 110 17:58 23.12.2019
5965 Clear 13 1015 25 16093 5.1 110 17:39 23.12.2019
5966 Clear 11 1015 25 16093 5.1 110 17:19 23.12.2019
5967 Clear 11 1015 27 16093 7.7 110 16:57 23.12.2019
5968 Clear 11 1015 27 16093 7.7 120 16:39 23.12.2019
5969 Clear 10 1015 27 16093 7.7 120 16:18 23.12.2019
5970 Clear 10 1015 27 16093 7.7 110 15:56 23.12.2019
5971 Clear 10 1015 27 16093 6.7 110 15:36 23.12.2019
5972 Clouds 10 1016 24 0 4.1 110 15:18 23.12.2019
5973 Clear 10 1015 27 16093 3.53 114 14:56 23.12.2019
5974 Clear 10 1015 27 16093 4.6 140 14:37 23.12.2019
5975 Clear 10 1016 25 16093 5.7 130 14:18 23.12.2019
5976 Clear 9 1015 29 16093 4.1 120 13:55 23.12.2019
5977 Clear 9 1014 29 16093 2.1 130 13:37 23.12.2019
5978 Clear 9 1014 29 16093 2.1 130 13:19 23.12.2019
5979 Clear 9 1015 27 16093 4.6 130 12:41 23.12.2019
5980 Clear 9 1015 27 16093 4.6 130 12:21 23.12.2019
5981 Clear 9 1015 29 16093 4.1 140 11:59 23.12.2019
5982 Clear 9 1015 27 16093 6.2 120 11:41 23.12.2019
5983 Clear 9 1016 29 16093 3.6 150 11:22 23.12.2019
5984 Clear 9 1015 27 16093 6.2 120 10:55 23.12.2019
5985 Clear 9 1015 29 16093 6.2 120 10:37 23.12.2019
5986 Clear 9 1015 29 16093 6.2 120 10:37 23.12.2019
5987 Clear 9 1016 29 16093 4.6 100 10:18 23.12.2019
5988 Clear 9 1015 36 16093 4.1 120 09:54 23.12.2019
5989 Clear 9 1016 36 16093 2.6 160 09:36 23.12.2019
5990 Clear 9 1017 34 16093 4.1 120 09:18 23.12.2019
5991 Clear 9 1016 27 16093 4.6 110 08:41 23.12.2019
5992 Clear 10 1016 27 16093 4.6 110 08:22 23.12.2019
5993 Clear 10 1016 31 16093 4.1 110 07:55 23.12.2019
5994 Clear 10 1016 34 16093 3.6 110 07:37 23.12.2019
5995 Clear 10 1017 22 16093 5.1 120 07:18 23.12.2019
5996 Clear 10 1016 37 16093 4.6 100 06:32 23.12.2019
5997 Clear 10 1016 39 16093 2.6 90 05:57 23.12.2019
5998 Clear 11 1016 37 16093 2.34 115 05:33 23.12.2019
5999 Clear 12 1016 37 16093 3.08 117 04:40 23.12.2019
6000 Clear 13 1016 43 16093 3.08 117 03:58 23.12.2019
6001 Clear 14 1016 26 16093 3.08 117 02:46 23.12.2019
6002 Clear 15 1016 26 16093 2.58 102 02:19 23.12.2019
6003 Clear 16 1016 21 16093 1.5 340 01:46 23.12.2019
6004 Clear 17 1016 21 16093 1.5 340 01:27 23.12.2019
6005 Clear 19 1016 13 16093 2.08 102 00:46 23.12.2019
6006 Clear 21 1016 13 16093 2.08 102 00:25 23.12.2019
6007 Clear 21 1016 12 16093 2.6 130 23:56 22.12.2019
6008 Clear 21 1016 10 16093 3.1 130 23:37 22.12.2019
6009 Clear 21 1016 10 16093 3.1 130 23:19 22.12.2019
6010 Clear 21 1017 11 16093 3.66 100 22:41 22.12.2019
6011 Clear 21 1017 11 16093 3.66 100 22:23 22.12.2019
6012 Clear 21 1018 11 16093 4.1 80 21:59 22.12.2019
6013 Clear 21 1018 12 16093 4.1 120 21:41 22.12.2019
6014 Clear 21 1018 12 16093 4.1 120 21:22 22.12.2019
6015 Clear 20 1018 12 16093 4.6 110 20:59 22.12.2019
6016 Clear 20 1019 11 16093 5.7 120 20:40 22.12.2019
6017 Clear 19 1020 13 16093 4.6 130 20:19 22.12.2019
6018 Clear 19 1019 12 16093 5.7 120 19:57 22.12.2019
6019 Clear 18 1020 12 16093 5.1 130 19:39 22.12.2019
6020 Clear 18 1020 12 16093 5.1 130 19:20 22.12.2019
6021 Clear 16 1020 14 16093 6.2 120 18:43 22.12.2019
6022 Clear 16 1020 14 16093 6.2 120 18:25 22.12.2019
6023 Clear 14 1019 16 16093 5.1 110 17:57 22.12.2019
6024 Clear 13 1019 16 16093 5.1 110 17:57 22.12.2019
6025 Clear 13 1019 17 16093 3.1 110 17:39 22.12.2019
6026 Clear 11 1020 15 16093 6.7 120 17:19 22.12.2019
6027 Clear 11 1020 15 16093 6.7 120 17:19 22.12.2019
6028 Clear 10 1020 25 16093 6.7 90 16:58 22.12.2019
6029 Clear 10 1020 25 16093 6.7 90 16:40 22.12.2019
6030 Clear 10 1020 25 16093 6.7 90 16:40 22.12.2019
6031 Clear 9 1019 18 16093 2.93 121 16:22 22.12.2019
6032 Clear 9 1020 16 16093 9.3 110 15:57 22.12.2019
6033 Clear 9 1020 16 16093 9.3 110 15:38 22.12.2019
6034 Clear 9 1019 18 16093 6.7 120 15:20 22.12.2019
6035 Clear 10 1020 27 16093 5.1 90 14:55 22.12.2019
6036 Clear 10 1018 16 16093 5.7 110 14:37 22.12.2019
6037 Clear 10 1020 18 16093 8.7 120 14:18 22.12.2019
6038 Clear 10 1018 15 16093 3.6 120 13:55 22.12.2019
6039 Clear 9 1018 15 16093 2.6 120 13:37 22.12.2019
6040 Clear 10 1019 15 16093 9.8 130 13:19 22.12.2019
6041 Clear 9 1018 15 16093 5.7 110 12:56 22.12.2019
6042 Clear 9 1018 15 16093 3.1 120 12:37 22.12.2019
6043 Clear 10 1020 17 16093 8.7 120 12:18 22.12.2019
6044 Clear 10 1018 18 16093 3.6 100 11:56 22.12.2019
6045 Clear 10 1019 18 16093 1.5 110 11:38 22.12.2019
6046 Clear 10 1020 19 16093 6.7 120 11:18 22.12.2019
6047 Clear 11 1019 25 16093 4.6 100 10:55 22.12.2019
6048 Clear 11 1019 27 16093 6.2 80 10:36 22.12.2019
6049 Clear 10 1020 17 16093 6.7 100 10:18 22.12.2019
6050 Clear 10 1020 20 16093 6.2 110 09:57 22.12.2019
6051 Clear 10 1020 20 16093 6.2 110 09:37 22.12.2019
6052 Clear 10 1020 20 16093 6.2 110 09:37 22.12.2019
6053 Clear 10 1019 29 16093 2.6 60 09:19 22.12.2019
6054 Clear 10 1020 25 16093 4.2 123 08:39 22.12.2019
6055 Clear 10 1021 20 16093 6.7 90 08:21 22.12.2019
6056 Clear 10 1020 25 16093 2.6 70 07:40 22.12.2019
6057 Clear 11 1020 25 16093 2.6 70 07:21 22.12.2019
6058 Clear 11 1020 25 16093 4.6 120 06:42 22.12.2019
6059 Clear 10 1020 25 16093 4.6 120 06:22 22.12.2019
6060 Clear 11 1020 34 16093 4.6 120 05:29 22.12.2019
6061 Clear 11 1021 49 16093 3.6 110 04:45 22.12.2019
6062 Clear 11 1021 49 16093 3.6 110 04:22 22.12.2019
6063 Clear 14 1020 32 16093 4.01 106 02:43 22.12.2019
6064 Clear 14 1020 32 16093 4.01 106 02:43 22.12.2019
6065 Clear 14 1020 32 16093 4.01 106 02:43 22.12.2019
6066 Clear 16 1020 28 16093 5.34 91 01:59 22.12.2019
6067 Clear 17 1020 29 16093 5.34 91 01:31 22.12.2019
6068 Clear 20 1020 20 16093 2.1 320 00:48 22.12.2019
6069 Clear 18 1020 19 16093 2.6 320 00:29 22.12.2019
6070 Clear 22 1021 18 16093 3.1 350 23:59 21.12.2019
6071 Clear 22 1021 16 16093 3.1 350 23:40 21.12.2019
6072 Clear 22 1021 16 16093 3.1 350 23:20 21.12.2019
6073 Clear 22 1022 15 16093 3.1 20 22:46 21.12.2019
6074 Clear 22 1022 7 16093 3.6 80 22:20 21.12.2019
6075 Clear 22 1022 12 16093 1.5 70 21:58 21.12.2019
6076 Clear 22 1022 13 16093 5.73 95 21:39 21.12.2019
6077 Clear 21 1023 8 16093 4.1 100 21:20 21.12.2019
6078 Clear 21 1023 8 16093 4.1 100 20:59 21.12.2019
6079 Clear 20 1024 14 16093 2.6 130 20:41 21.12.2019
6080 Clear 19 1024 14 16093 2.6 130 20:22 21.12.2019
6081 Clear 19 1026 13 16093 2.6 90 19:58 21.12.2019
6082 Clear 18 1026 13 16093 2.6 90 19:40 21.12.2019
6083 Clear 17 1026 13 16093 2.6 90 19:20 21.12.2019
6084 Clear 16 1026 18 16093 6.2 100 18:56 21.12.2019
6085 Clear 15 1026 23 16093 1.5 160 18:37 21.12.2019
6086 Clear 14 1026 18 16093 6.2 100 18:19 21.12.2019
6087 Clear 13 1026 36 16093 4.84 110 17:55 21.12.2019
6088 Clear 13 1026 36 16093 4.84 110 17:55 21.12.2019
6089 Clear 13 1026 36 16093 4.84 110 17:55 21.12.2019
6090 Clear 11 1026 21 16093 5.7 100 17:37 21.12.2019
6091 Clear 9 1026 21 16093 5.7 100 17:18 21.12.2019
6092 Clear 9 1026 21 16093 5.7 100 17:18 21.12.2019
6093 Clear 7 1025 28 16093 6.2 100 16:41 21.12.2019
6094 Clear 5 1025 64 16093 3.18 103 16:19 21.12.2019
6095 Clear 4 1025 51 16093 2.1 130 15:57 21.12.2019
6096 Clear 3 1025 55 16093 3.18 103 15:39 21.12.2019
6097 Clear 4 1025 30 16093 5.1 90 15:20 21.12.2019
6098 Clear 4 1025 69 16093 3.18 103 14:57 21.12.2019
6099 Clear 3 1025 34 16093 3.18 103 14:38 21.12.2019
6100 Clear 3 1025 28 16093 4.6 80 14:19 21.12.2019
6101 Clear 3 1025 69 16093 2.6 102 13:56 21.12.2019
6102 Clear 4 1025 35 16093 2.6 102 13:38 21.12.2019
6103 Clear 4 1026 55 16093 2.1 200 13:18 21.12.2019
6104 Clear 3 1025 74 16093 2.98 115 12:55 21.12.2019
6105 Clear 3 1025 69 16093 2.98 115 12:37 21.12.2019
6106 Clear 3 1026 55 16093 2.98 115 12:18 21.12.2019
6107 Clear 4 1025 74 16093 2.98 115 11:43 21.12.2019
6108 Clear 4 1025 74 16093 2.98 115 11:25 21.12.2019
6109 Clear 5 1025 48 16093 3.64 113 10:56 21.12.2019
6110 Clear 5 1025 60 16093 3.64 113 10:38 21.12.2019
6111 Clear 5 1026 64 16093 3.64 113 10:19 21.12.2019
6112 Clear 4 1025 69 16093 3.64 113 09:43 21.12.2019
6113 Clear 5 1025 69 16093 3.64 113 09:21 21.12.2019
6114 Clear 5 1025 74 16093 3.64 113 08:57 21.12.2019
6115 Clear 5 1025 69 16093 3.64 113 08:37 21.12.2019
6116 Clear 5 1025 69 16093 2.77 101 08:19 21.12.2019
6117 Clear 6 1025 56 16093 3.24 110 07:44 21.12.2019
6118 Clear 5 1026 41 16093 2.1 170 07:22 21.12.2019
6119 Clear 6 1025 56 16093 3.24 110 06:44 21.12.2019
6120 Clear 6 1025 56 16093 3.24 110 06:25 21.12.2019
6121 Clear 6 1024 60 16093 3.24 110 05:49 21.12.2019
6122 Clear 7 1024 52 16093 2.55 87 04:58 21.12.2019
6123 Clear 8 1024 39 16093 2.55 87 03:57 21.12.2019
6124 Clear 10 1024 32 16093 2.55 87 02:52 21.12.2019
6125 Clear 12 1023 30 16093 2.77 52 01:59 21.12.2019
6126 Clear 14 1023 26 16093 2.92 47 01:28 21.12.2019
6127 Clear 16 1023 21 16093 2.92 47 00:53 21.12.2019
6128 Clear 17 1023 21 16093 2.92 47 00:33 21.12.2019
6129 Clear 17 1023 21 16093 2.92 47 23:59 20.12.2019
6130 Clear 17 1023 23 16093 3.1 330 23:38 20.12.2019
6131 Clear 17 1023 21 16093 5.1 340 23:18 20.12.2019
6132 Clear 17 1023 18 16093 5.1 330 22:41 20.12.2019
6133 Clear 17 1023 18 16093 5.1 330 22:21 20.12.2019
6134 Clear 17 1023 18 16093 5.1 330 21:59 20.12.2019
6135 Clear 17 1024 29 16093 6.7 300 21:40 20.12.2019
6136 Clear 17 1023 23 16093 4.1 280 21:20 20.12.2019
6137 Clear 16 1024 30 16093 5.1 300 20:41 20.12.2019
6138 Clear 16 1024 28 16093 2.6 300 20:21 20.12.2019
6139 Clear 15 1024 28 16093 2.6 300 19:59 20.12.2019
6140 Clear 15 1024 24 16093 3.1 40 19:40 20.12.2019
6141 Clear 14 1024 24 16093 3.1 40 19:20 20.12.2019
6142 Clear 13 1025 37 16093 2.1 320 18:54 20.12.2019
6143 Clear 13 1025 37 16093 2.1 320 18:54 20.12.2019
6144 Clear 12 1025 34 16093 3.6 100 18:36 20.12.2019
6145 Clear 12 1025 34 16093 3.6 100 18:36 20.12.2019
6146 Clear 11 1024 30 16093 5.1 120 18:18 20.12.2019
6147 Clear 9 1024 36 16093 4.6 110 17:42 20.12.2019
6148 Clear 9 1024 36 16093 4.6 110 17:42 20.12.2019
6149 Clear 7 1024 36 16093 4.6 110 17:21 20.12.2019
6150 Clear 7 1024 36 16093 4.6 110 17:21 20.12.2019
6151 Clear 5 1024 69 16093 1.57 96 16:59 20.12.2019
6152 Clear 4 1024 69 16093 1.57 96 16:39 20.12.2019
6153 Clear 2 1024 59 16093 4.1 140 16:20 20.12.2019
6154 Clear 1 1024 69 16093 1.57 96 15:57 20.12.2019
6155 Clear 1 1024 51 16093 1.5 130 15:38 20.12.2019
6156 Clear 1 1024 51 16093 1.5 130 15:19 20.12.2019
6157 Clear 2 1024 74 16093 1.57 96 14:55 20.12.2019
6158 Clear 1 1024 69 16093 3.1 80 14:37 20.12.2019
6159 Clear 1 1024 69 16093 3.1 80 14:18 20.12.2019
6160 Clear 1 1024 74 16093 2.02 11 13:41 20.12.2019
6161 Clear 1 1023 59 16093 2.02 11 13:20 20.12.2019
6162 Clear 1 1024 80 16093 1.11 37 12:58 20.12.2019
6163 Clear 1 1024 80 16093 1.11 37 12:38 20.12.2019
6164 Clear 1 1023 59 16093 3.1 130 12:19 20.12.2019
6165 Clear 1 1023 69 16093 1.11 37 11:59 20.12.2019
6166 Clear 1 1023 69 16093 1.11 37 11:59 20.12.2019
6167 Clear 2 1023 69 16093 1.11 37 11:39 20.12.2019
6168 Clear 2 1023 74 16093 3.1 140 11:19 20.12.2019
6169 Clear 2 1023 74 16093 3.1 100 10:58 20.12.2019
6170 Clear 2 1023 74 16093 3.1 100 10:39 20.12.2019
6171 Clear 2 1022 69 16093 4.1 120 10:20 20.12.2019
6172 Clear 3 1022 69 16093 2.6 100 09:54 20.12.2019
6173 Clear 3 1022 64 16093 3.6 120 09:36 20.12.2019
6174 Clear 3 1022 64 16093 3.6 120 09:18 20.12.2019
6175 Clear 3 1022 69 16093 1.12 347 08:42 20.12.2019
6176 Clear 3 1022 64 16093 3.6 120 08:22 20.12.2019
6177 Clear 3 1022 69 16093 2.1 110 07:58 20.12.2019
6178 Clear 4 1022 69 16093 2.1 110 07:39 20.12.2019
6179 Clear 4 1022 64 16093 1.5 110 07:18 20.12.2019
6180 Clear 4 1022 64 16093 0.99 317 06:49 20.12.2019
6181 Clear 4 1022 60 16093 2.6 150 06:30 20.12.2019
6182 Clear 5 1022 60 16093 0.99 317 05:52 20.12.2019
6183 Clear 6 1021 56 16093 2.6 170 05:34 20.12.2019
6184 Clear 8 1020 52 16093 1.78 295 03:57 20.12.2019
6185 Clear 8 1019 39 16093 2.6 310 03:29 20.12.2019
6186 Clear 9 1019 45 16093 3.1 310 02:41 20.12.2019
6187 Clear 11 1018 34 16093 3.1 300 01:44 20.12.2019
6188 Clear 11 1018 34 16093 3.1 300 01:44 20.12.2019
6189 Clear 13 1018 26 16093 4.1 320 01:18 20.12.2019
6190 Clear 14 1018 28 16093 3.1 310 00:41 20.12.2019
6191 Clear 15 1017 26 16093 5.7 330 00:19 20.12.2019
6192 Clear 15 1017 24 16093 4.6 340 23:42 19.12.2019
6193 Clear 16 1017 25 16093 4.6 350 23:23 19.12.2019
6194 Clear 16 1016 26 16093 5.1 330 22:56 19.12.2019
6195 Clear 16 1016 26 16093 5.1 290 22:36 19.12.2019
6196 Clear 16 1016 26 16093 5.1 290 22:18 19.12.2019
6197 Clear 16 1017 26 16093 3.6 330 21:42 19.12.2019
6198 Clear 16 1017 25 16093 1.5 310 21:20 19.12.2019
6199 Clear 16 1017 26 16093 1.5 100 20:59 19.12.2019
6200 Clear 16 1017 26 16093 1.5 100 20:39 19.12.2019
6201 Clear 15 1017 26 16093 1.5 100 20:20 19.12.2019
6202 Clear 15 1017 26 16093 1.5 100 20:20 19.12.2019
6203 Clear 15 1018 32 16093 2.1 310 19:59 19.12.2019
6204 Clear 14 1018 32 16093 2.1 310 19:40 19.12.2019
6205 Clear 14 1018 28 16093 4.1 100 19:20 19.12.2019
6206 Clear 13 1018 29 16093 4.1 120 18:59 19.12.2019
6207 Clear 12 1018 29 16093 4.1 120 18:40 19.12.2019
6208 Clear 12 1018 29 16093 4.1 120 18:40 19.12.2019
6209 Clear 11 1019 32 16093 4.1 110 18:20 19.12.2019
6210 Clear 10 1018 34 16093 4.6 120 17:57 19.12.2019
6211 Clear 9 1018 36 16093 5.7 120 17:38 19.12.2019
6212 Clear 8 1018 36 16093 5.7 120 17:18 19.12.2019
6213 Clear 7 1018 42 16093 4.6 100 16:57 19.12.2019
6214 Clear 6 1018 42 16093 4.6 100 16:38 19.12.2019
6215 Clear 5 1018 48 16093 7.7 120 16:20 19.12.2019
6216 Clear 4 1017 59 16093 2.26 105 15:58 19.12.2019
6217 Clear 3 1017 59 16093 2.26 105 15:38 19.12.2019
6218 Clear 3 1017 59 16093 2.26 105 15:38 19.12.2019
6219 Clear 4 1017 41 16093 3.1 160 15:19 19.12.2019
6220 Clear 4 1017 59 16093 2.26 105 14:57 19.12.2019
6221 Clear 4 1017 59 16093 2.26 105 14:39 19.12.2019
6222 Clouds 5 1016 41 16093 4.1 140 14:18 19.12.2019
6223 Clear 5 1016 33 16093 3.6 110 13:39 19.12.2019
6224 Clouds 5 1016 39 16093 5.7 120 13:20 19.12.2019
6225 Clear 6 1016 36 16093 1.73 111 12:58 19.12.2019
6226 Clear 5 1016 36 16093 1.73 111 12:40 19.12.2019
6227 Clouds 5 1016 39 16093 6.7 120 12:19 19.12.2019
6228 Clear 5 1016 31 16093 1.73 111 11:59 19.12.2019
6229 Clear 5 1016 31 16093 1.73 111 11:41 19.12.2019
6230 Clear 6 1016 39 16093 6.7 100 11:19 19.12.2019
6231 Clear 6 1015 29 16093 4.6 150 10:59 19.12.2019
6232 Clear 6 1016 33 16093 8.2 100 10:38 19.12.2019
6233 Clear 6 1016 33 16093 8.2 100 10:38 19.12.2019
6234 Clear 6 1016 33 16093 8.2 100 10:20 19.12.2019
6235 Clear 6 1015 27 16093 8.7 130 09:56 19.12.2019
6236 Clear 6 1016 34 16093 7.7 100 09:37 19.12.2019
6237 Clear 7 1016 34 16093 7.7 100 09:19 19.12.2019
6238 Clear 6 1015 22 16093 7.7 130 08:55 19.12.2019
6239 Clear 7 1016 29 16093 9.3 110 08:37 19.12.2019
6240 Clear 7 1016 29 16093 9.3 110 08:18 19.12.2019
6241 Clear 8 1015 22 16093 7.7 130 07:43 19.12.2019
6242 Clear 7 1016 29 16093 6.7 100 07:24 19.12.2019
6243 Clear 8 1016 20 16093 5.7 130 06:59 19.12.2019
6244 Clear 8 1016 20 16093 5.7 130 06:41 19.12.2019
6245 Clear 8 1016 27 16093 4.6 90 06:21 19.12.2019
6246 Clear 8 1015 17 16093 5.7 120 05:42 19.12.2019
6247 Clear 8 1017 29 16093 4.1 80 05:19 19.12.2019
6248 Clear 10 1015 15 16093 6.7 130 03:53 19.12.2019
6249 Clear 12 1016 23 16093 5.1 70 02:28 19.12.2019
6250 Clear 13 1016 19 16093 5.1 80 01:25 19.12.2019
6251 Clear 14 1015 14 16093 7.2 110 00:57 19.12.2019
6252 Clear 15 1015 14 16093 7.2 110 00:38 19.12.2019
6253 Clear 15 1016 18 16093 9.3 120 00:19 19.12.2019
6254 Clear 16 1015 13 16093 9.3 130 23:44 18.12.2019
6255 Clear 16 1016 18 16093 8.05 108 23:19 18.12.2019
6256 Clear 16 1016 13 16093 10.3 140 22:56 18.12.2019
6257 Clear 16 1016 13 16093 10.3 140 22:38 18.12.2019
6258 Clouds 16 1018 19 16093 10.3 100 22:20 18.12.2019
6259 Clear 16 1016 13 16093 11.3 130 21:58 18.12.2019
6260 Clear 15 1016 13 16093 11.3 130 21:39 18.12.2019
6261 Clear 15 1016 13 16093 11.3 130 21:39 18.12.2019
6262 Clear 15 1019 17 16093 11.8 100 21:20 18.12.2019
6263 Clear 14 1017 13 16093 12.9 130 20:56 18.12.2019
6264 Clear 14 1018 19 16093 11.3 100 20:38 18.12.2019
6265 Clear 14 1018 19 16093 11.3 100 20:19 18.12.2019
6266 Clear 14 1018 12 16093 12.9 120 19:56 18.12.2019
6267 Clear 13 1020 17 16093 11.8 100 19:37 18.12.2019
6268 Clear 13 1020 17 16093 11.8 100 19:18 18.12.2019
6269 Rain 12 1020 18 16093 7.2 70 18:45 18.12.2019
6270 Rain 12 1020 18 16093 7.2 70 18:45 18.12.2019
6271 Rain 11 1020 18 16093 7.2 70 18:26 18.12.2019
6272 Clear 10 1020 18 16093 3.6 110 17:58 18.12.2019
6273 Clear 10 1020 18 16093 3.6 110 17:40 18.12.2019
6274 Clear 8 1021 20 16093 8.7 90 17:20 18.12.2019
6275 Clear 8 1021 20 16093 8.7 90 17:20 18.12.2019
6276 Clear 7 1020 20 16093 3.6 110 16:58 18.12.2019
6277 Clear 6 1020 22 16093 4.6 100 16:40 18.12.2019
6278 Clear 6 1020 22 16093 4.6 100 16:22 18.12.2019
6279 Clear 6 1020 25 16093 7.65 104 15:57 18.12.2019
6280 Clear 6 1020 25 16093 5.7 70 15:38 18.12.2019
6281 Clear 6 1021 24 16093 7.2 120 15:20 18.12.2019
6282 Clear 6 1020 43 16093 7.65 104 14:43 18.12.2019
6283 Clear 5 1020 22 16093 4.6 110 14:22 18.12.2019
6284 Clear 5 1020 37 16093 1.5 40 13:58 18.12.2019
6285 Clear 5 1019 27 16093 1.5 320 13:39 18.12.2019
6286 Clear 5 1019 27 16093 1.5 320 13:21 18.12.2019
6287 Clear 5 1020 27 16093 3.1 100 12:59 18.12.2019
6288 Clear 5 1020 32 16093 4.6 110 12:40 18.12.2019
6289 Clear 5 1020 17 16093 8.7 80 12:21 18.12.2019
6290 Clear 5 1020 23 16093 4.6 120 11:56 18.12.2019
6291 Clear 5 1021 34 16093 3.6 150 11:38 18.12.2019
6292 Clear 5 1021 18 16093 7.7 90 11:20 18.12.2019
6293 Clear 5 1021 43 16093 6.42 96 10:57 18.12.2019
6294 Clear 5 1021 43 16093 6.42 96 10:39 18.12.2019
6295 Clear 6 1021 43 16093 6.42 96 10:20 18.12.2019
6296 Clear 6 1021 37 16093 2.6 150 09:52 18.12.2019
6297 Clear 6 1022 19 16093 5.7 90 09:19 18.12.2019
6298 Clear 6 1022 35 16093 2.6 70 08:42 18.12.2019
6299 Clear 6 1022 35 16093 2.6 70 08:24 18.12.2019
6300 Clear 6 1023 35 16093 6.58 99 07:55 18.12.2019
6301 Clear 7 1023 28 16093 6.58 99 07:37 18.12.2019
6302 Rain 7 1023 19 16093 6.2 100 07:19 18.12.2019
6303 Rain 7 1023 19 16093 4.1 70 06:50 18.12.2019
6304 Clear 7 1023 19 16093 4.1 70 06:22 18.12.2019
6305 Clear 7 1023 30 16093 3.1 60 05:27 18.12.2019
6306 Clear 9 1023 15 16093 3.6 90 03:31 18.12.2019
6307 Clear 9 1023 16 16093 3.6 110 02:41 18.12.2019
6308 Clear 9 1023 16 16093 3.6 110 02:23 18.12.2019
6309 Clear 10 1023 13 16093 3.1 130 01:42 18.12.2019
6310 Clear 11 1023 13 16093 3.1 130 01:24 18.12.2019
6311 Clear 12 1023 11 16093 8.14 87 00:42 18.12.2019
6312 Clear 12 1023 11 16093 8.14 87 00:23 18.12.2019
6313 Clear 12 1023 12 16093 8.14 87 23:58 17.12.2019
6314 Clear 13 1024 12 16093 8.14 87 23:39 17.12.2019
6315 Clear 13 1024 12 16093 6.7 120 23:20 17.12.2019
6316 Clear 13 1024 12 16093 10.55 95 22:56 17.12.2019
6317 Clear 13 1024 13 16093 10.55 95 22:38 17.12.2019
6318 Clear 13 1024 15 16093 6.7 120 22:19 17.12.2019
6319 Clear 13 1024 15 16093 10.55 95 21:56 17.12.2019
6320 Clear 13 1024 15 16093 10.55 95 21:56 17.12.2019
6321 Clear 13 1024 16 16093 10.55 95 21:38 17.12.2019
6322 Clear 13 1025 15 16093 8.7 130 21:19 17.12.2019
6323 Clear 12 1025 17 16093 2.1 100 20:57 17.12.2019
6324 Clear 12 1025 18 16093 10.21 91 20:38 17.12.2019
6325 Clear 12 1026 17 16093 2.1 0 20:18 17.12.2019
6326 Clear 11 1027 23 16093 2.1 290 19:56 17.12.2019
6327 Clear 11 1027 24 16093 2.1 280 19:38 17.12.2019
6328 Clear 11 1027 20 16093 3.6 60 19:18 17.12.2019
6329 Clear 10 1027 30 16093 2.1 290 18:54 17.12.2019
6330 Clear 9 1027 43 16093 4.1 50 18:36 17.12.2019
6331 Clear 9 1027 43 16093 4.1 50 18:18 17.12.2019
6332 Clear 8 1028 65 16093 2.6 160 17:42 17.12.2019
6333 Clear 6 1028 48 16093 6.12 101 17:20 17.12.2019
6334 Clear 4 1028 51 16093 6.12 101 16:56 17.12.2019
6335 Clear 4 1028 51 16093 6.12 101 16:56 17.12.2019
6336 Clear 4 1027 33 16093 6.12 101 16:38 17.12.2019
6337 Clear 3 1027 33 16093 6.12 101 16:19 17.12.2019
6338 Clear 1 1027 63 16093 2.1 180 15:58 17.12.2019
6339 Clear 0 1027 63 16093 2.6 210 15:37 17.12.2019
6340 Clear 0 1026 50 16093 6.12 101 15:19 17.12.2019
6341 Clear 1 1027 33 16093 3.1 170 14:55 17.12.2019
6342 Clear 0 1027 33 16093 3.1 170 14:37 17.12.2019
6343 Clear 0 1025 68 16093 3.88 96 14:18 17.12.2019
6344 Clear 0 1025 68 16093 3.88 96 14:18 17.12.2019
6345 Clear 1 1026 33 16093 3.88 96 13:55 17.12.2019
6346 Clear 0 1026 33 16093 3.88 96 13:37 17.12.2019
6347 Clear 1 1025 33 16093 3.74 100 13:18 17.12.2019
6348 Clear 1 1026 33 16093 3.74 100 12:41 17.12.2019
6349 Clear 1 1025 55 16093 3.1 120 12:19 17.12.2019
6350 Clear 1 1026 33 16093 3.74 100 11:59 17.12.2019
6351 Clear 2 1025 55 16093 2.6 220 11:38 17.12.2019
6352 Clear 2 1025 55 16093 2.6 220 11:38 17.12.2019
6353 Clear 1 1025 51 16093 3.1 140 11:19 17.12.2019
6354 Clear 2 1025 55 16093 4.6 200 10:59 17.12.2019
6355 Clear 2 1025 55 16093 4.6 200 10:59 17.12.2019
6356 Clear 2 1025 59 16093 2.6 190 10:41 17.12.2019
6357 Clear 2 1025 59 16093 2.6 190 10:23 17.12.2019
6358 Clear 3 1025 59 16093 3.1 190 09:59 17.12.2019
6359 Clear 3 1025 59 16093 3.1 190 09:59 17.12.2019
6360 Clear 3 1025 51 16093 2.1 200 09:41 17.12.2019
6361 Clear 3 1024 55 16093 1.93 62 09:20 17.12.2019
6362 Clear 4 1025 55 16093 1.93 62 08:56 17.12.2019
6363 Clear 3 1025 55 16093 1.93 62 08:56 17.12.2019
6364 Clear 3 1025 51 16093 3.1 260 08:38 17.12.2019
6365 Clear 4 1024 64 16093 3.1 90 08:20 17.12.2019
6366 Clear 4 1025 47 16093 2.6 240 07:54 17.12.2019
6367 Clear 4 1025 28 16093 1.88 52 07:36 17.12.2019
6368 Clear 5 1024 64 16093 1.88 52 07:18 17.12.2019
6369 Clear 5 1024 20 16093 4.6 30 06:35 17.12.2019
6370 Clear 6 1024 20 16093 6.2 50 05:54 17.12.2019
6371 Clear 6 1024 20 16093 6.2 50 05:36 17.12.2019
6372 Clear 7 1024 39 16093 3.1 40 04:31 17.12.2019
6373 Clear 8 1023 49 16093 3.6 320 02:34 17.12.2019
6374 Clear 9 1022 45 16093 2.6 340 01:55 17.12.2019
6375 Clear 12 1022 30 16093 5.7 320 00:59 17.12.2019
6376 Clear 13 1021 26 16093 5.1 320 00:38 17.12.2019
6377 Clear 13 1021 37 16093 5.7 290 00:19 17.12.2019
6378 Clear 13 1021 32 16093 4.6 330 23:42 16.12.2019
6379 Clear 14 1021 28 16093 4.6 330 23:19 16.12.2019
6380 Clear 14 1021 28 16093 4.6 330 23:19 16.12.2019
6381 Clear 14 1021 28 16093 4.6 330 23:19 16.12.2019
6382 Clear 14 1021 28 16093 4.6 330 23:19 16.12.2019
6383 Clear 14 1021 35 16093 3.6 330 22:56 16.12.2019
6384 Clear 14 1021 35 16093 3.1 350 22:37 16.12.2019
6385 Clear 13 1021 35 16093 3.1 350 22:19 16.12.2019
6386 Clear 13 1021 35 16093 3.1 350 22:19 16.12.2019
6387 Clear 13 1021 28 16093 2.6 270 22:19 16.12.2019
6388 Clear 13 1022 40 16093 3.6 340 21:55 16.12.2019
6389 Clear 13 1022 40 16093 3.6 340 21:55 16.12.2019
6390 Clear 13 1022 40 16093 3.6 320 21:37 16.12.2019
6391 Clear 13 1021 37 16093 2.6 310 21:19 16.12.2019
6392 Clear 13 1022 43 16093 3.1 290 20:57 16.12.2019
6393 Clear 12 1022 46 16093 2.1 280 20:37 16.12.2019
6394 Clear 12 1022 42 16093 2.1 270 20:19 16.12.2019
6395 Clear 11 1023 49 16093 1.5 270 19:56 16.12.2019
6396 Clear 11 1023 49 16093 1.5 270 19:56 16.12.2019
6397 Clear 11 1023 49 16093 2.41 5 19:37 16.12.2019
6398 Clouds 10 1023 49 16093 2.41 5 19:18 16.12.2019
6399 Clear 10 1024 42 16093 2.41 5 18:56 16.12.2019
6400 Clear 10 1023 42 16093 2.41 5 18:38 16.12.2019
6401 Clear 9 1023 42 16093 2.41 5 18:19 16.12.2019
6402 Clear 9 1024 42 16093 2.41 5 17:57 16.12.2019
6403 Clear 8 1022 70 16093 2.41 5 17:38 16.12.2019
6404 Clear 7 1022 70 16093 1.13 357 17:19 16.12.2019
6405 Clear 5 1022 63 16093 1.13 357 16:55 16.12.2019
6406 Clear 4 1022 63 16093 1.13 357 16:37 16.12.2019
6407 Clear 3 1021 63 16093 3.1 130 16:19 16.12.2019
6408 Clear 2 1021 63 16093 1.5 130 15:57 16.12.2019
6409 Clear 1 1021 63 16093 1.13 357 15:38 16.12.2019
6410 Clear 1 1021 63 16093 2.1 100 15:20 16.12.2019
6411 Clear 1 1021 63 16093 1.13 357 14:55 16.12.2019
6412 Clear 1 1020 63 16093 1.13 357 14:36 16.12.2019
6413 Clear 1 1020 60 16093 1.12 229 14:18 16.12.2019
6414 Clear 2 1020 60 16093 2.1 120 13:55 16.12.2019
6415 Clear 2 1020 60 16093 2.6 130 13:37 16.12.2019
6416 Clear 2 1019 62 16093 2.6 130 13:19 16.12.2019
6417 Clear 2 1019 62 16093 2.1 70 12:54 16.12.2019
6418 Clear 2 1020 66 16093 0.47 264 12:36 16.12.2019
6419 Clear 3 1019 62 16093 3.1 130 12:18 16.12.2019
6420 Clear 3 1020 62 16093 1.06 251 11:55 16.12.2019
6421 Clear 3 1019 62 16093 1.06 251 11:37 16.12.2019
6422 Clear 3 1019 80 16093 2.6 150 11:19 16.12.2019
6423 Clear 4 1019 58 16093 1.29 279 10:40 16.12.2019
6424 Clear 4 1019 58 16093 1.29 279 10:21 16.12.2019
6425 Clear 4 1018 60 16093 1.39 286 09:56 16.12.2019
6426 Clear 5 1018 58 16093 1.29 279 09:37 16.12.2019
6427 Clear 5 1018 75 16093 2.6 200 09:19 16.12.2019
6428 Clear 6 1018 58 16093 1.29 279 08:39 16.12.2019
6429 Clear 6 1018 52 16093 3.6 270 08:19 16.12.2019
6430 Clear 6 1018 52 16093 3.6 270 08:19 16.12.2019
6431 Clear 6 1018 50 16093 1.5 310 07:51 16.12.2019
6432 Clear 7 1018 50 16093 2.1 310 07:31 16.12.2019
6433 Clear 7 1018 50 16093 2.1 310 07:31 16.12.2019
6434 Clear 8 1018 61 16093 2.64 297 06:48 16.12.2019
6435 Clear 8 1018 70 16093 2.64 297 06:27 16.12.2019
6436 Clear 8 1018 70 16093 2.64 297 05:58 16.12.2019
6437 Clear 8 1017 65 16093 2.64 297 05:39 16.12.2019
6438 Clear 9 1016 57 16093 2.6 260 05:21 16.12.2019
6439 Clear 11 1015 46 16093 3.32 298 02:50 16.12.2019
6440 Clear 13 1014 35 16093 6.7 330 01:45 16.12.2019
6441 Clear 14 1014 33 16093 5.1 330 00:55 16.12.2019
6442 Clear 15 1013 33 16093 5.7 330 00:36 16.12.2019
6443 Clear 16 1012 29 16093 6.7 280 00:18 16.12.2019
6444 Clear 17 1012 36 16093 5.7 320 23:40 15.12.2019
6445 Clear 17 1012 27 16093 8.2 290 23:21 15.12.2019
6446 Clear 17 1012 29 16093 7.2 320 22:56 15.12.2019
6447 Clear 17 1012 25 16093 5.1 300 22:38 15.12.2019
6448 Clear 17 1012 34 16093 6.2 280 22:18 15.12.2019
6449 Clear 18 1012 34 16093 5.7 300 21:57 15.12.2019
6450 Clear 18 1012 31 16093 7.2 300 21:38 15.12.2019
6451 Clear 18 1012 34 16093 6.7 290 21:19 15.12.2019
6452 Clear 18 1012 33 16093 5.1 260 20:56 15.12.2019
6453 Clear 18 1013 33 16093 5.1 260 20:37 15.12.2019
6454 Clear 18 1012 39 16093 3.6 310 20:19 15.12.2019
6455 Clear 17 1013 40 16093 3.6 280 19:57 15.12.2019
6456 Clear 17 1013 40 16093 2.6 270 19:39 15.12.2019
6457 Clear 17 1013 48 16093 6.08 247 19:18 15.12.2019
6458 Clear 17 1013 36 16093 4.6 270 18:56 15.12.2019
6459 Clear 17 1013 36 16093 4.6 270 18:56 15.12.2019
6460 Clear 16 1013 47 16093 2.6 230 18:38 15.12.2019
6461 Clear 16 1013 47 16093 2.6 230 18:38 15.12.2019
6462 Clear 16 1013 51 16093 6.08 247 18:18 15.12.2019
6463 Clear 15 1013 54 16093 1.5 260 17:56 15.12.2019
6464 Clear 15 1013 58 16093 5.03 235 17:37 15.12.2019
6465 Clear 14 1013 62 16093 1.5 190 17:18 15.12.2019
6466 Clear 13 1012 66 16093 3.43 215 16:56 15.12.2019
6467 Clear 12 1012 76 16093 2.6 120 16:38 15.12.2019
6468 Clear 11 1012 66 16093 3.43 215 16:19 15.12.2019
6469 Clear 10 1013 81 16093 1.5 150 15:54 15.12.2019
6470 Clear 10 1013 81 16093 1.5 150 15:54 15.12.2019
6471 Clear 10 1013 81 16093 1.5 150 15:36 15.12.2019
6472 Clear 10 1012 62 16093 2.81 224 15:18 15.12.2019
6473 Clear 10 1012 71 16093 2.81 224 14:55 15.12.2019
6474 Clear 10 1011 87 16093 2.1 20 14:36 15.12.2019
6475 Clouds 10 1011 71 16093 1.5 340 14:18 15.12.2019
6476 Clear 10 1011 87 16093 2.1 100 13:54 15.12.2019
6477 Clear 10 1010 81 16093 2.7 217 13:36 15.12.2019
6478 Clouds 10 1010 66 16093 3.1 160 13:18 15.12.2019
6479 Clouds 10 1010 66 16093 3.1 160 13:18 15.12.2019
6480 Clear 10 1010 81 16093 3.52 211 12:55 15.12.2019
6481 Clear 11 1009 76 16093 2.1 70 12:37 15.12.2019
6482 Clear 11 1009 76 16093 2.1 70 12:37 15.12.2019
6483 Clouds 11 1010 58 16093 2.1 140 12:19 15.12.2019
6484 Clear 11 1009 71 16093 3.1 100 11:38 15.12.2019
6485 Clouds 11 1009 58 16093 4.06 212 11:19 15.12.2019
6486 Clear 12 1009 71 16093 2.6 70 10:56 15.12.2019
6487 Clear 11 1009 66 16093 2.1 90 10:38 15.12.2019
6488 Clouds 11 1009 62 16093 2.6 140 10:19 15.12.2019
6489 Clear 11 1009 66 16093 3.1 110 09:58 15.12.2019
6490 Clear 11 1009 71 16093 2.1 100 09:37 15.12.2019
6491 Clouds 11 1009 71 16093 4.1 120 09:19 15.12.2019
6492 Clear 11 1009 71 16093 3.1 100 08:54 15.12.2019
6493 Clear 11 1009 71 16093 2.1 90 08:36 15.12.2019
6494 Clear 11 1010 71 16093 3.6 110 08:18 15.12.2019
6495 Clear 11 1009 66 16093 2.1 110 07:43 15.12.2019
6496 Clear 11 1009 66 16093 2.1 110 07:25 15.12.2019
6497 Clear 12 1010 54 16093 2.1 180 06:26 15.12.2019
6498 Clear 13 1010 54 16093 3.1 180 05:42 15.12.2019
6499 Clear 13 1011 71 16093 3.6 140 05:21 15.12.2019
6500 Clear 14 1010 51 16093 3.6 190 04:20 15.12.2019
6501 Clear 16 1009 55 16093 2.75 207 02:50 15.12.2019
6502 Clear 16 1009 55 16093 2.75 207 02:31 15.12.2019
6503 Clear 18 1010 37 16093 3.07 267 01:40 15.12.2019
6504 Clear 19 1011 45 16093 2.6 330 01:18 15.12.2019
6505 Clear 20 1010 32 16093 2.1 280 00:49 15.12.2019
6506 Clear 21 1010 32 16093 2.1 280 00:31 15.12.2019
6507 Clear 22 1010 32 16093 2.1 270 23:41 14.12.2019
6508 Clear 22 1011 33 16093 5.7 330 23:22 14.12.2019
6509 Clear 22 1010 32 16093 5.68 262 22:59 14.12.2019
6510 Clear 22 1011 32 11265 3.1 300 22:41 14.12.2019
6511 Clear 22 1011 32 11265 3.1 300 22:22 14.12.2019
6512 Clear 22 1012 28 16093 6.7 300 21:57 14.12.2019
6513 Clear 22 1012 30 8047 1.5 270 21:38 14.12.2019
6514 Clear 22 1012 30 16093 2.6 300 21:19 14.12.2019
6515 Clear 22 1012 30 16093 2.6 300 21:19 14.12.2019
6516 Clear 22 1012 30 16093 5.68 262 20:59 14.12.2019
6517 Clear 22 1013 32 16093 5.68 262 20:40 14.12.2019
6518 Clear 21 1014 30 16093 2.1 0 20:20 14.12.2019
6519 Clear 21 1013 32 16093 2.9 230 20:20 14.12.2019
6520 Clear 21 1014 40 16093 2.9 230 19:57 14.12.2019
6521 Clear 21 1014 40 16093 2.9 230 19:57 14.12.2019
6522 Clear 20 1014 39 16093 1.5 80 19:37 14.12.2019
6523 Clear 20 1014 39 16093 1.5 80 19:19 14.12.2019
6524 Clear 19 1014 44 16093 2.6 120 18:56 14.12.2019
6525 Rain 18 1015 45 16093 2.6 100 18:38 14.12.2019
6526 Rain 18 1015 45 16093 2.6 100 18:38 14.12.2019
6527 Rain 18 1015 45 16093 2.6 100 18:19 14.12.2019
6528 Clear 16 1014 54 16093 3.1 100 17:44 14.12.2019
6529 Clear 13 1014 54 16093 3.1 100 17:24 14.12.2019
6530 Clear 11 1014 57 16093 2.6 120 16:58 14.12.2019
6531 Clear 10 1014 66 16093 1.5 140 16:39 14.12.2019
6532 Clear 9 1015 66 16093 2.6 110 16:19 14.12.2019
6533 Clear 9 1015 66 16093 2.6 110 16:19 14.12.2019
6534 Clear 7 1014 70 16093 3.6 130 15:43 14.12.2019
6535 Clear 7 1014 70 16093 3.6 130 15:22 14.12.2019
6536 Clear 7 1014 70 16093 2.1 120 14:59 14.12.2019
6537 Clear 8 1014 66 16093 3.6 100 14:39 14.12.2019
6538 Clear 7 1014 66 16093 3.6 100 14:20 14.12.2019
6539 Clear 7 1014 66 16093 4.1 110 13:57 14.12.2019
6540 Clear 7 1014 66 16093 2.1 100 13:38 14.12.2019
6541 Clear 7 1015 75 16093 3.1 110 13:18 14.12.2019
6542 Clear 7 1014 70 16093 4.1 100 12:54 14.12.2019
6543 Clear 7 1014 70 16093 3.1 100 12:36 14.12.2019
6544 Clear 8 1015 70 16093 3.6 100 12:18 14.12.2019
6545 Clear 8 1014 70 16093 3.6 120 11:54 14.12.2019
6546 Clear 8 1015 70 16093 4.1 120 11:36 14.12.2019
6547 Clear 8 1015 75 16093 3.6 90 11:18 14.12.2019
6548 Clear 9 1015 71 16093 4.1 110 10:55 14.12.2019
6549 Clear 9 1015 71 16093 4.1 110 10:36 14.12.2019
6550 Clear 9 1016 70 16093 4.6 110 10:18 14.12.2019
6551 Rain 9 1016 71 16093 2.1 90 09:40 14.12.2019
6552 Rain 9 1016 71 16093 2.1 90 09:20 14.12.2019
6553 Rain 9 1016 66 16093 2.6 120 08:43 14.12.2019
6554 Rain 9 1016 66 16093 2.6 120 08:20 14.12.2019
6555 Rain 10 1017 76 16093 3.1 110 07:55 14.12.2019
6556 Rain 10 1016 76 16093 3.6 130 07:36 14.12.2019
6557 Rain 10 1018 76 16093 3.6 140 07:18 14.12.2019
6558 Clear 10 1017 87 16093 0.52 357 06:39 14.12.2019
6559 Clear 10 1018 76 16093 2.1 90 06:20 14.12.2019
6560 Clear 11 1018 71 16093 3.1 120 05:20 14.12.2019
6561 Clear 15 1017 62 16093 2.1 340 02:44 14.12.2019
6562 Clear 16 1017 62 16093 2.1 340 02:22 14.12.2019
6563 Clear 18 1017 48 16093 2.6 320 01:43 14.12.2019
6564 Clear 21 1017 39 16093 1.5 330 00:50 14.12.2019
6565 Clear 22 1017 34 16093 1.5 340 00:29 14.12.2019
6566 Clear 22 1017 34 16093 1.5 340 00:29 14.12.2019
6567 Clear 22 1017 34 16093 2.1 330 23:58 13.12.2019
6568 Clear 22 1017 30 16093 1.5 310 23:38 13.12.2019
6569 Clear 22 1018 18 16093 2.1 310 23:19 13.12.2019
6570 Clear 22 1018 26 16093 1.5 280 22:55 13.12.2019
6571 Clear 22 1018 26 16093 1.5 280 22:36 13.12.2019
6572 Clear 22 1018 26 16093 1.5 280 22:18 13.12.2019
6573 Clear 22 1019 28 16093 0.81 305 21:39 13.12.2019
6574 Clear 22 1019 28 16093 0.81 305 21:21 13.12.2019
6575 Clear 21 1021 32 16093 2.1 160 20:54 13.12.2019
6576 Clear 21 1021 32 16093 2.1 160 20:36 13.12.2019
6577 Clear 21 1021 32 16093 2.1 160 20:36 13.12.2019
6578 Clear 20 1021 23 16093 3.1 140 20:18 13.12.2019
6579 Clear 18 1021 38 16093 2.6 120 19:42 13.12.2019
6580 Clear 18 1022 39 16093 1.5 50 19:23 13.12.2019
6581 Clear 17 1023 44 16093 3.1 110 18:59 13.12.2019
6582 Clear 16 1022 47 16093 3.1 120 18:41 13.12.2019
6583 Rain 14 1023 44 16093 3.1 110 18:19 13.12.2019
6584 Clear 14 1022 53 16093 3.6 130 17:57 13.12.2019
6585 Clear 13 1022 53 16093 3.6 130 17:39 13.12.2019
6586 Clear 10 1023 53 16093 2.6 120 17:18 13.12.2019
6587 Clear 8 1023 81 16093 0.7 160 16:54 13.12.2019
6588 Clear 8 1023 54 16093 2.6 140 16:36 13.12.2019
6589 Clear 7 1023 54 16093 2.6 140 16:18 13.12.2019
6590 Clear 5 1022 75 16093 4.1 120 15:38 13.12.2019
6591 Clear 5 1023 75 16093 2.6 130 15:20 13.12.2019
6592 Clear 5 1022 81 16093 3.6 90 14:42 13.12.2019
6593 Clear 5 1022 70 16093 2.6 70 14:22 13.12.2019
6594 Clear 5 1021 75 16093 1.5 140 13:58 13.12.2019
6595 Clear 5 1021 75 16093 1.5 140 13:40 13.12.2019
6596 Clear 5 1022 75 16093 2.1 120 13:21 13.12.2019
6597 Clear 5 1022 81 16093 2.6 110 12:44 13.12.2019
6598 Clear 5 1022 81 16093 2.6 110 12:44 13.12.2019
6599 Clear 6 1022 80 16093 0.35 48 12:23 13.12.2019
6600 Clear 6 1022 81 16093 2.6 100 11:58 13.12.2019
6601 Clear 6 1022 81 16093 2.6 100 11:40 13.12.2019
6602 Clear 6 1022 75 16093 3.1 110 11:22 13.12.2019
6603 Clear 6 1022 87 16093 0.51 228 10:55 13.12.2019
6604 Clear 6 1022 81 16093 3.1 120 10:37 13.12.2019
6605 Clear 6 1022 81 16093 3.1 120 10:19 13.12.2019
6606 Rain 6 1022 87 16093 0.51 228 09:39 13.12.2019
6607 Rain 6 1022 70 16093 4.1 110 09:19 13.12.2019
6608 Rain 7 1022 93 16093 0.51 228 08:42 13.12.2019
6609 Rain 7 1023 75 16093 2.6 150 08:24 13.12.2019
6610 Clear 7 1023 93 16093 0.13 151 07:46 13.12.2019
6611 Clear 7 1023 75 16093 1.5 130 07:23 13.12.2019
6612 Clear 8 1023 93 11265 2.1 60 06:55 13.12.2019
6613 Clear 8 1023 81 16093 1.5 100 06:29 13.12.2019
6614 Clear 8 1022 81 16093 1.5 140 05:46 13.12.2019
6615 Clear 9 1023 81 16093 1.5 130 05:27 13.12.2019
6616 Clear 10 1024 62 16093 2.6 220 04:35 13.12.2019
6617 Clear 10 1022 81 16093 2.1 250 03:46 13.12.2019
6618 Clear 13 1023 54 16093 1.5 300 02:34 13.12.2019
6619 Clear 14 1022 62 16093 2.6 320 01:44 13.12.2019
6620 Clear 17 1022 48 16093 2.6 320 00:56 13.12.2019
6621 Clear 18 1022 29 16093 3.1 290 00:37 13.12.2019
6622 Clear 19 1022 39 16093 2.6 330 23:57 12.12.2019
6623 Clear 19 1022 39 16093 2.6 330 23:39 12.12.2019
6624 Clear 19 1022 29 16093 2.1 320 23:20 12.12.2019
6625 Clear 19 1022 34 16093 0.79 348 22:55 12.12.2019
6626 Clear 19 1022 34 16093 0.79 348 22:37 12.12.2019
6627 Clear 19 1022 34 16093 0.79 348 22:18 12.12.2019
6628 Clear 19 1023 39 16093 2.1 280 21:54 12.12.2019
6629 Clear 19 1023 39 16093 2.1 280 21:36 12.12.2019
6630 Clear 18 1023 39 16093 2.1 280 21:18 12.12.2019
6631 Clear 18 1024 39 16093 0.79 348 20:55 12.12.2019
6632 Clear 18 1024 39 16093 0.79 348 20:55 12.12.2019
6633 Clear 18 1024 39 16093 0.79 348 20:55 12.12.2019
6634 Clear 18 1024 44 16093 0.79 348 20:37 12.12.2019
6635 Clear 17 1024 44 16093 0.44 84 20:19 12.12.2019
6636 Clear 16 1024 54 16093 0.44 84 19:42 12.12.2019
6637 Clear 15 1024 50 16093 0.44 84 19:22 12.12.2019
6638 Clear 14 1024 54 16093 2.6 130 18:58 12.12.2019
6639 Clear 14 1024 54 16093 2.6 130 18:40 12.12.2019
6640 Clear 13 1025 54 16093 0.44 84 18:20 12.12.2019
6641 Clear 12 1024 61 16093 4.1 120 17:58 12.12.2019
6642 Clear 12 1024 61 16093 4.1 120 17:58 12.12.2019
6643 Clear 11 1024 61 16093 4.1 120 17:39 12.12.2019
6644 Rain 9 1025 66 16093 0.45 155 17:21 12.12.2019
6645 Rain 8 1024 86 16093 0.45 155 16:58 12.12.2019
6646 Clear 7 1024 75 16093 2.1 130 16:39 12.12.2019
6647 Clear 6 1024 75 16093 2.1 130 16:20 12.12.2019
6648 Clear 5 1024 81 16093 2.6 120 15:56 12.12.2019
6649 Clear 5 1024 81 16093 2.6 120 15:56 12.12.2019
6650 Clear 4 1023 80 16093 3.6 120 15:38 12.12.2019
6651 Clear 4 1023 80 16093 3.6 120 15:18 12.12.2019
6652 Clear 4 1023 81 16093 3.1 120 14:38 12.12.2019
6653 Clear 4 1023 80 16093 4.6 110 14:38 12.12.2019
6654 Clear 4 1023 80 16093 4.6 110 14:20 12.12.2019
6655 Clear 4 1022 81 16093 3.6 110 13:58 12.12.2019
6656 Clear 4 1022 81 16093 3.6 110 13:40 12.12.2019
6657 Clear 4 1023 80 16093 3.6 120 13:21 12.12.2019
6658 Clear 4 1022 87 16093 3.1 100 12:59 12.12.2019
6659 Clear 4 1022 87 16093 3.1 100 12:40 12.12.2019
6660 Clear 5 1022 80 16093 4.1 110 12:22 12.12.2019
6661 Clear 5 1022 81 16093 1.5 130 11:57 12.12.2019
6662 Clear 5 1023 86 16093 4.6 120 11:38 12.12.2019
6663 Clear 5 1023 86 16093 4.6 120 11:19 12.12.2019
6664 Clear 5 1022 87 16093 2.6 100 10:56 12.12.2019
6665 Clear 5 1022 86 16093 3.6 110 10:38 12.12.2019
6666 Clear 5 1022 86 16093 3.6 110 10:19 12.12.2019
6667 Clear 5 1022 93 16093 2.6 100 09:42 12.12.2019
6668 Clear 5 1022 81 16093 3.1 120 09:24 12.12.2019
6669 Clear 5 1022 93 16093 1.5 90 08:59 12.12.2019
6670 Clear 6 1022 93 16093 1.5 90 08:40 12.12.2019
6671 Clear 6 1023 81 16093 4.1 150 08:22 12.12.2019
6672 Clear 7 1022 87 16093 0.81 320 07:47 12.12.2019
6673 Clear 7 1022 87 16093 2.6 150 07:25 12.12.2019
6674 Clear 7 1022 87 16093 0.81 320 06:55 12.12.2019
6675 Clear 7 1022 87 16093 2.1 140 06:34 12.12.2019
6676 Clear 8 1021 87 16093 0.81 320 05:41 12.12.2019
6677 Clear 9 1021 81 16093 0.3 198 04:54 12.12.2019
6678 Clear 10 1020 66 16093 1.5 300 03:37 12.12.2019
6679 Clear 12 1020 71 16093 0.3 198 02:39 12.12.2019
6680 Clear 13 1020 44 11265 3.6 300 02:20 12.12.2019
6681 Clear 14 1020 62 16093 2.1 320 01:43 12.12.2019
6682 Clear 15 1019 36 16093 1.46 339 01:24 12.12.2019
6683 Clear 17 1019 45 16093 2.6 310 00:47 12.12.2019
6684 Clouds 18 1020 31 16093 1.46 339 00:20 12.12.2019